<?xml version="1.0" encoding="UTF-8" standalone="no" ?>
<gpx xmlns="http://www.topografix.com/GPX/1/1" xmlns:xsi="http://www.w3.org/2001/XMLSchema-instance" xsi:schemaLocation="http://www.topografix.com/GPX/1/1 http://www.topografix.com/GPX/1/1/gpx.xsd" version="1.1" creator="VisuGPX - https://www.visugpx.com">
  <metadata>
    <name>Lac des Corbeaux &amp;amp; Sèchemer, 2020-03-01_10-53-32</name>
  </metadata>
  <wpt lat="47.99342" lon="6.90666">
    <ele>933</ele>
    <name><![CDATA[Toilettes]]></name>
  </wpt>
  <wpt lat="47.99922" lon="6.9168">
    <ele>765</ele>
    <name><![CDATA[Photographie]]></name>
    <link href="2020-03-01_13-50-01.jpg"></link>
  </wpt>
  <trk>
    <name><![CDATA[Traces enregistrées avec OSMTracker pour Android™]]></name>
    <trkseg>
      <trkpt lat="48.00078" lon="6.90494">
        <ele>755</ele>
        <time>2020-03-01T09:53:32Z</time>
      </trkpt>
      <trkpt lat="48.00055" lon="6.90493">
        <ele>756</ele>
        <time>2020-03-01T09:53:33Z</time>
      </trkpt>
      <trkpt lat="48.00051" lon="6.90492">
        <ele>761</ele>
        <time>2020-03-01T09:53:35Z</time>
      </trkpt>
      <trkpt lat="48.00049" lon="6.9049">
        <ele>755</ele>
        <time>2020-03-01T09:53:36Z</time>
      </trkpt>
      <trkpt lat="48.00052" lon="6.90494">
        <ele>754</ele>
        <time>2020-03-01T09:53:39Z</time>
      </trkpt>
      <trkpt lat="48.00052" lon="6.90499">
        <ele>758</ele>
        <time>2020-03-01T09:53:43Z</time>
      </trkpt>
      <trkpt lat="48.00051" lon="6.90502">
        <ele>755</ele>
        <time>2020-03-01T09:53:45Z</time>
      </trkpt>
      <trkpt lat="48.00049" lon="6.90503">
        <ele>754</ele>
        <time>2020-03-01T09:53:47Z</time>
      </trkpt>
      <trkpt lat="48.00048" lon="6.90504">
        <ele>753</ele>
        <time>2020-03-01T09:53:48Z</time>
      </trkpt>
      <trkpt lat="48.00049" lon="6.90507">
        <ele>755</ele>
        <time>2020-03-01T09:53:52Z</time>
      </trkpt>
      <trkpt lat="48.0005" lon="6.9051">
        <ele>755</ele>
        <time>2020-03-01T09:53:55Z</time>
      </trkpt>
      <trkpt lat="48.0005" lon="6.90513">
        <ele>756</ele>
        <time>2020-03-01T09:53:58Z</time>
      </trkpt>
      <trkpt lat="48.00049" lon="6.90517">
        <ele>754</ele>
        <time>2020-03-01T09:54:00Z</time>
      </trkpt>
      <trkpt lat="48.00048" lon="6.9052">
        <ele>753</ele>
        <time>2020-03-01T09:54:01Z</time>
      </trkpt>
      <trkpt lat="48.00047" lon="6.90522">
        <ele>753</ele>
        <time>2020-03-01T09:54:02Z</time>
      </trkpt>
      <trkpt lat="48.00046" lon="6.90525">
        <ele>753</ele>
        <time>2020-03-01T09:54:03Z</time>
      </trkpt>
      <trkpt lat="48.00046" lon="6.90528">
        <ele>752</ele>
        <time>2020-03-01T09:54:05Z</time>
      </trkpt>
      <trkpt lat="48.00045" lon="6.9053">
        <ele>751</ele>
        <time>2020-03-01T09:54:07Z</time>
      </trkpt>
      <trkpt lat="48.00045" lon="6.90533">
        <ele>751</ele>
        <time>2020-03-01T09:54:11Z</time>
      </trkpt>
      <trkpt lat="48.00046" lon="6.90537">
        <ele>751</ele>
        <time>2020-03-01T09:54:13Z</time>
      </trkpt>
      <trkpt lat="48.00047" lon="6.9054">
        <ele>751</ele>
        <time>2020-03-01T09:54:15Z</time>
      </trkpt>
      <trkpt lat="48.00044" lon="6.9054">
        <ele>751</ele>
        <time>2020-03-01T09:54:17Z</time>
      </trkpt>
      <trkpt lat="48.00041" lon="6.9054">
        <ele>752</ele>
        <time>2020-03-01T09:54:19Z</time>
      </trkpt>
      <trkpt lat="48.0004" lon="6.90542">
        <ele>752</ele>
        <time>2020-03-01T09:54:22Z</time>
      </trkpt>
      <trkpt lat="48.00037" lon="6.90541">
        <ele>757</ele>
        <time>2020-03-01T09:54:32Z</time>
      </trkpt>
      <trkpt lat="48.00034" lon="6.9054">
        <ele>756</ele>
        <time>2020-03-01T09:54:36Z</time>
      </trkpt>
      <trkpt lat="48.00034" lon="6.90537">
        <ele>758</ele>
        <time>2020-03-01T09:54:40Z</time>
      </trkpt>
      <trkpt lat="48.00034" lon="6.90534">
        <ele>761</ele>
        <time>2020-03-01T09:54:42Z</time>
      </trkpt>
      <trkpt lat="48.00032" lon="6.90531">
        <ele>760</ele>
        <time>2020-03-01T09:54:47Z</time>
      </trkpt>
      <trkpt lat="48.0003" lon="6.90529">
        <ele>760</ele>
        <time>2020-03-01T09:54:49Z</time>
      </trkpt>
      <trkpt lat="48.00028" lon="6.90526">
        <ele>761</ele>
        <time>2020-03-01T09:54:56Z</time>
      </trkpt>
      <trkpt lat="48.00026" lon="6.90526">
        <ele>761</ele>
        <time>2020-03-01T09:54:59Z</time>
      </trkpt>
      <trkpt lat="48.00026" lon="6.90524">
        <ele>761</ele>
        <time>2020-03-01T09:55:02Z</time>
      </trkpt>
      <trkpt lat="48.00024" lon="6.90521">
        <ele>761</ele>
        <time>2020-03-01T09:55:05Z</time>
      </trkpt>
      <trkpt lat="48.00022" lon="6.90519">
        <ele>762</ele>
        <time>2020-03-01T09:55:07Z</time>
      </trkpt>
      <trkpt lat="48.0002" lon="6.90517">
        <ele>762</ele>
        <time>2020-03-01T09:55:09Z</time>
      </trkpt>
      <trkpt lat="48.00019" lon="6.90514">
        <ele>764</ele>
        <time>2020-03-01T09:55:13Z</time>
      </trkpt>
      <trkpt lat="48.00019" lon="6.90511">
        <ele>763</ele>
        <time>2020-03-01T09:55:17Z</time>
      </trkpt>
      <trkpt lat="48.00016" lon="6.90507">
        <ele>767</ele>
        <time>2020-03-01T09:55:26Z</time>
      </trkpt>
      <trkpt lat="48.00015" lon="6.90505">
        <ele>768</ele>
        <time>2020-03-01T09:55:29Z</time>
      </trkpt>
      <trkpt lat="48.00014" lon="6.90502">
        <ele>771</ele>
        <time>2020-03-01T09:55:35Z</time>
      </trkpt>
      <trkpt lat="48.00013" lon="6.90499">
        <ele>772</ele>
        <time>2020-03-01T09:55:38Z</time>
      </trkpt>
      <trkpt lat="48.00011" lon="6.90495">
        <ele>770</ele>
        <time>2020-03-01T09:55:49Z</time>
      </trkpt>
      <trkpt lat="48.00009" lon="6.90494">
        <ele>771</ele>
        <time>2020-03-01T09:55:52Z</time>
      </trkpt>
      <trkpt lat="48.00007" lon="6.90492">
        <ele>771</ele>
        <time>2020-03-01T09:55:55Z</time>
      </trkpt>
      <trkpt lat="48.00006" lon="6.90488">
        <ele>773</ele>
        <time>2020-03-01T09:56:01Z</time>
      </trkpt>
      <trkpt lat="48.00006" lon="6.90485">
        <ele>773</ele>
        <time>2020-03-01T09:56:04Z</time>
      </trkpt>
      <trkpt lat="48.00005" lon="6.90482">
        <ele>773</ele>
        <time>2020-03-01T09:56:07Z</time>
      </trkpt>
      <trkpt lat="48.00005" lon="6.90479">
        <ele>773</ele>
        <time>2020-03-01T09:56:10Z</time>
      </trkpt>
      <trkpt lat="48.00004" lon="6.90476">
        <ele>773</ele>
        <time>2020-03-01T09:56:13Z</time>
      </trkpt>
      <trkpt lat="48.00003" lon="6.90474">
        <ele>773</ele>
        <time>2020-03-01T09:56:18Z</time>
      </trkpt>
      <trkpt lat="48.00003" lon="6.90471">
        <ele>775</ele>
        <time>2020-03-01T09:56:21Z</time>
      </trkpt>
      <trkpt lat="48.00002" lon="6.90468">
        <ele>777</ele>
        <time>2020-03-01T09:56:28Z</time>
      </trkpt>
      <trkpt lat="48" lon="6.90467">
        <ele>776</ele>
        <time>2020-03-01T09:56:31Z</time>
      </trkpt>
      <trkpt lat="48" lon="6.90463">
        <ele>778</ele>
        <time>2020-03-01T09:56:35Z</time>
      </trkpt>
      <trkpt lat="47.99999" lon="6.90458">
        <ele>778</ele>
        <time>2020-03-01T09:56:37Z</time>
      </trkpt>
      <trkpt lat="47.99999" lon="6.90455">
        <ele>778</ele>
        <time>2020-03-01T09:56:38Z</time>
      </trkpt>
      <trkpt lat="47.99997" lon="6.90452">
        <ele>780</ele>
        <time>2020-03-01T09:56:40Z</time>
      </trkpt>
      <trkpt lat="47.99996" lon="6.90449">
        <ele>780</ele>
        <time>2020-03-01T09:56:44Z</time>
      </trkpt>
      <trkpt lat="47.99996" lon="6.90446">
        <ele>781</ele>
        <time>2020-03-01T09:56:47Z</time>
      </trkpt>
      <trkpt lat="47.99996" lon="6.90442">
        <ele>783</ele>
        <time>2020-03-01T09:56:53Z</time>
      </trkpt>
      <trkpt lat="47.99996" lon="6.90439">
        <ele>787</ele>
        <time>2020-03-01T09:56:58Z</time>
      </trkpt>
      <trkpt lat="47.99995" lon="6.90435">
        <ele>788</ele>
        <time>2020-03-01T09:57:03Z</time>
      </trkpt>
      <trkpt lat="47.99993" lon="6.90435">
        <ele>790</ele>
        <time>2020-03-01T09:57:05Z</time>
      </trkpt>
      <trkpt lat="47.99994" lon="6.90433">
        <ele>789</ele>
        <time>2020-03-01T09:57:08Z</time>
      </trkpt>
      <trkpt lat="47.99994" lon="6.9043">
        <ele>791</ele>
        <time>2020-03-01T09:57:12Z</time>
      </trkpt>
      <trkpt lat="47.99994" lon="6.90428">
        <ele>790</ele>
        <time>2020-03-01T09:57:17Z</time>
      </trkpt>
      <trkpt lat="47.99995" lon="6.90424">
        <ele>791</ele>
        <time>2020-03-01T09:57:21Z</time>
      </trkpt>
      <trkpt lat="47.99993" lon="6.90422">
        <ele>789</ele>
        <time>2020-03-01T09:57:24Z</time>
      </trkpt>
      <trkpt lat="47.99991" lon="6.90421">
        <ele>790</ele>
        <time>2020-03-01T09:57:28Z</time>
      </trkpt>
      <trkpt lat="47.99991" lon="6.90416">
        <ele>789</ele>
        <time>2020-03-01T09:57:32Z</time>
      </trkpt>
      <trkpt lat="47.99989" lon="6.90414">
        <ele>791</ele>
        <time>2020-03-01T09:57:35Z</time>
      </trkpt>
      <trkpt lat="47.99992" lon="6.90415">
        <ele>792</ele>
        <time>2020-03-01T09:57:38Z</time>
      </trkpt>
      <trkpt lat="47.9999" lon="6.90413">
        <ele>793</ele>
        <time>2020-03-01T09:57:41Z</time>
      </trkpt>
      <trkpt lat="47.99988" lon="6.90414">
        <ele>791</ele>
        <time>2020-03-01T09:57:43Z</time>
      </trkpt>
      <trkpt lat="47.99986" lon="6.9041">
        <ele>791</ele>
        <time>2020-03-01T09:57:52Z</time>
      </trkpt>
      <trkpt lat="47.99984" lon="6.90409">
        <ele>789</ele>
        <time>2020-03-01T09:57:54Z</time>
      </trkpt>
      <trkpt lat="47.99983" lon="6.90406">
        <ele>789</ele>
        <time>2020-03-01T09:57:58Z</time>
      </trkpt>
      <trkpt lat="47.99983" lon="6.90403">
        <ele>790</ele>
        <time>2020-03-01T09:58:04Z</time>
      </trkpt>
      <trkpt lat="47.99983" lon="6.90398">
        <ele>791</ele>
        <time>2020-03-01T09:58:06Z</time>
      </trkpt>
      <trkpt lat="47.99981" lon="6.90395">
        <ele>791</ele>
        <time>2020-03-01T09:58:08Z</time>
      </trkpt>
      <trkpt lat="47.99981" lon="6.90391">
        <ele>790</ele>
        <time>2020-03-01T09:58:11Z</time>
      </trkpt>
      <trkpt lat="47.9998" lon="6.90389">
        <ele>792</ele>
        <time>2020-03-01T09:58:15Z</time>
      </trkpt>
      <trkpt lat="47.99979" lon="6.90385">
        <ele>792</ele>
        <time>2020-03-01T09:58:18Z</time>
      </trkpt>
      <trkpt lat="47.99979" lon="6.90381">
        <ele>792</ele>
        <time>2020-03-01T09:58:20Z</time>
      </trkpt>
      <trkpt lat="47.99979" lon="6.90379">
        <ele>791</ele>
        <time>2020-03-01T09:58:22Z</time>
      </trkpt>
      <trkpt lat="47.99977" lon="6.90377">
        <ele>791</ele>
        <time>2020-03-01T09:58:26Z</time>
      </trkpt>
      <trkpt lat="47.99975" lon="6.90377">
        <ele>793</ele>
        <time>2020-03-01T09:58:33Z</time>
      </trkpt>
      <trkpt lat="47.99973" lon="6.90379">
        <ele>794</ele>
        <time>2020-03-01T09:58:35Z</time>
      </trkpt>
      <trkpt lat="47.99971" lon="6.9038">
        <ele>793</ele>
        <time>2020-03-01T09:58:38Z</time>
      </trkpt>
      <trkpt lat="47.99968" lon="6.9038">
        <ele>794</ele>
        <time>2020-03-01T09:58:42Z</time>
      </trkpt>
      <trkpt lat="47.99967" lon="6.90383">
        <ele>793</ele>
        <time>2020-03-01T09:58:44Z</time>
      </trkpt>
      <trkpt lat="47.99966" lon="6.90387">
        <ele>795</ele>
        <time>2020-03-01T09:58:47Z</time>
      </trkpt>
      <trkpt lat="47.99964" lon="6.9039">
        <ele>795</ele>
        <time>2020-03-01T09:58:49Z</time>
      </trkpt>
      <trkpt lat="47.99964" lon="6.90393">
        <ele>797</ele>
        <time>2020-03-01T09:58:53Z</time>
      </trkpt>
      <trkpt lat="47.99963" lon="6.90397">
        <ele>797</ele>
        <time>2020-03-01T09:58:55Z</time>
      </trkpt>
      <trkpt lat="47.99961" lon="6.90399">
        <ele>799</ele>
        <time>2020-03-01T09:58:57Z</time>
      </trkpt>
      <trkpt lat="47.99959" lon="6.90401">
        <ele>800</ele>
        <time>2020-03-01T09:59:00Z</time>
      </trkpt>
      <trkpt lat="47.99955" lon="6.90403">
        <ele>800</ele>
        <time>2020-03-01T09:59:04Z</time>
      </trkpt>
      <trkpt lat="47.99954" lon="6.90406">
        <ele>801</ele>
        <time>2020-03-01T09:59:06Z</time>
      </trkpt>
      <trkpt lat="47.99953" lon="6.90409">
        <ele>804</ele>
        <time>2020-03-01T09:59:10Z</time>
      </trkpt>
      <trkpt lat="47.99953" lon="6.90414">
        <ele>803</ele>
        <time>2020-03-01T09:59:14Z</time>
      </trkpt>
      <trkpt lat="47.99953" lon="6.90417">
        <ele>805</ele>
        <time>2020-03-01T09:59:16Z</time>
      </trkpt>
      <trkpt lat="47.99954" lon="6.90421">
        <ele>804</ele>
        <time>2020-03-01T09:59:18Z</time>
      </trkpt>
      <trkpt lat="47.99956" lon="6.90419">
        <ele>803</ele>
        <time>2020-03-01T09:59:24Z</time>
      </trkpt>
      <trkpt lat="47.99957" lon="6.90416">
        <ele>803</ele>
        <time>2020-03-01T09:59:26Z</time>
      </trkpt>
      <trkpt lat="47.99957" lon="6.90413">
        <ele>802</ele>
        <time>2020-03-01T09:59:29Z</time>
      </trkpt>
      <trkpt lat="47.99955" lon="6.90411">
        <ele>802</ele>
        <time>2020-03-01T09:59:32Z</time>
      </trkpt>
      <trkpt lat="47.99954" lon="6.90407">
        <ele>801</ele>
        <time>2020-03-01T09:59:38Z</time>
      </trkpt>
      <trkpt lat="47.99952" lon="6.90405">
        <ele>803</ele>
        <time>2020-03-01T09:59:45Z</time>
      </trkpt>
      <trkpt lat="47.99951" lon="6.90403">
        <ele>805</ele>
        <time>2020-03-01T09:59:48Z</time>
      </trkpt>
      <trkpt lat="47.99949" lon="6.904">
        <ele>806</ele>
        <time>2020-03-01T09:59:54Z</time>
      </trkpt>
      <trkpt lat="47.99947" lon="6.90403">
        <ele>806</ele>
        <time>2020-03-01T09:59:56Z</time>
      </trkpt>
      <trkpt lat="47.99948" lon="6.90405">
        <ele>806</ele>
        <time>2020-03-01T09:59:58Z</time>
      </trkpt>
      <trkpt lat="47.99946" lon="6.90408">
        <ele>805</ele>
        <time>2020-03-01T10:00:00Z</time>
      </trkpt>
      <trkpt lat="47.99946" lon="6.90411">
        <ele>805</ele>
        <time>2020-03-01T10:00:04Z</time>
      </trkpt>
      <trkpt lat="47.99944" lon="6.90413">
        <ele>806</ele>
        <time>2020-03-01T10:00:08Z</time>
      </trkpt>
      <trkpt lat="47.99943" lon="6.90414">
        <ele>805</ele>
        <time>2020-03-01T10:00:09Z</time>
      </trkpt>
      <trkpt lat="47.99941" lon="6.90417">
        <ele>805</ele>
        <time>2020-03-01T10:00:14Z</time>
      </trkpt>
      <trkpt lat="47.99939" lon="6.90419">
        <ele>806</ele>
        <time>2020-03-01T10:00:16Z</time>
      </trkpt>
      <trkpt lat="47.99941" lon="6.90422">
        <ele>805</ele>
        <time>2020-03-01T10:00:29Z</time>
      </trkpt>
      <trkpt lat="47.99943" lon="6.90426">
        <ele>806</ele>
        <time>2020-03-01T10:00:34Z</time>
      </trkpt>
      <trkpt lat="47.99943" lon="6.90429">
        <ele>807</ele>
        <time>2020-03-01T10:00:35Z</time>
      </trkpt>
      <trkpt lat="47.99942" lon="6.90432">
        <ele>809</ele>
        <time>2020-03-01T10:00:37Z</time>
      </trkpt>
      <trkpt lat="47.99941" lon="6.90433">
        <ele>809</ele>
        <time>2020-03-01T10:00:39Z</time>
      </trkpt>
      <trkpt lat="47.9994" lon="6.90437">
        <ele>807</ele>
        <time>2020-03-01T10:00:41Z</time>
      </trkpt>
      <trkpt lat="47.99939" lon="6.90439">
        <ele>806</ele>
        <time>2020-03-01T10:00:44Z</time>
      </trkpt>
      <trkpt lat="47.99938" lon="6.90442">
        <ele>807</ele>
        <time>2020-03-01T10:00:47Z</time>
      </trkpt>
      <trkpt lat="47.99939" lon="6.90445">
        <ele>808</ele>
        <time>2020-03-01T10:00:49Z</time>
      </trkpt>
      <trkpt lat="47.99938" lon="6.90449">
        <ele>808</ele>
        <time>2020-03-01T10:00:53Z</time>
      </trkpt>
      <trkpt lat="47.99938" lon="6.90452">
        <ele>808</ele>
        <time>2020-03-01T10:00:57Z</time>
      </trkpt>
      <trkpt lat="47.99938" lon="6.90455">
        <ele>809</ele>
        <time>2020-03-01T10:01:01Z</time>
      </trkpt>
      <trkpt lat="47.99936" lon="6.90457">
        <ele>809</ele>
        <time>2020-03-01T10:01:04Z</time>
      </trkpt>
      <trkpt lat="47.99937" lon="6.90459">
        <ele>810</ele>
        <time>2020-03-01T10:01:07Z</time>
      </trkpt>
      <trkpt lat="47.99935" lon="6.90462">
        <ele>808</ele>
        <time>2020-03-01T10:01:09Z</time>
      </trkpt>
      <trkpt lat="47.99932" lon="6.90464">
        <ele>810</ele>
        <time>2020-03-01T10:01:12Z</time>
      </trkpt>
      <trkpt lat="47.99931" lon="6.90468">
        <ele>809</ele>
        <time>2020-03-01T10:01:15Z</time>
      </trkpt>
      <trkpt lat="47.9993" lon="6.90469">
        <ele>808</ele>
        <time>2020-03-01T10:01:17Z</time>
      </trkpt>
      <trkpt lat="47.99929" lon="6.90472">
        <ele>806</ele>
        <time>2020-03-01T10:01:19Z</time>
      </trkpt>
      <trkpt lat="47.99929" lon="6.90476">
        <ele>807</ele>
        <time>2020-03-01T10:01:23Z</time>
      </trkpt>
      <trkpt lat="47.99927" lon="6.90478">
        <ele>809</ele>
        <time>2020-03-01T10:01:28Z</time>
      </trkpt>
      <trkpt lat="47.99927" lon="6.9048">
        <ele>810</ele>
        <time>2020-03-01T10:01:31Z</time>
      </trkpt>
      <trkpt lat="47.99925" lon="6.90483">
        <ele>809</ele>
        <time>2020-03-01T10:01:33Z</time>
      </trkpt>
      <trkpt lat="47.99923" lon="6.90486">
        <ele>810</ele>
        <time>2020-03-01T10:01:35Z</time>
      </trkpt>
      <trkpt lat="47.99923" lon="6.90488">
        <ele>809</ele>
        <time>2020-03-01T10:01:37Z</time>
      </trkpt>
      <trkpt lat="47.99921" lon="6.9049">
        <ele>809</ele>
        <time>2020-03-01T10:01:41Z</time>
      </trkpt>
      <trkpt lat="47.99922" lon="6.90493">
        <ele>810</ele>
        <time>2020-03-01T10:01:43Z</time>
      </trkpt>
      <trkpt lat="47.99923" lon="6.90496">
        <ele>810</ele>
        <time>2020-03-01T10:01:45Z</time>
      </trkpt>
      <trkpt lat="47.99922" lon="6.90499">
        <ele>811</ele>
        <time>2020-03-01T10:01:47Z</time>
      </trkpt>
      <trkpt lat="47.9992" lon="6.90501">
        <ele>811</ele>
        <time>2020-03-01T10:01:50Z</time>
      </trkpt>
      <trkpt lat="47.9992" lon="6.90505">
        <ele>811</ele>
        <time>2020-03-01T10:01:56Z</time>
      </trkpt>
      <trkpt lat="47.99919" lon="6.90508">
        <ele>811</ele>
        <time>2020-03-01T10:01:59Z</time>
      </trkpt>
      <trkpt lat="47.99919" lon="6.90511">
        <ele>813</ele>
        <time>2020-03-01T10:02:01Z</time>
      </trkpt>
      <trkpt lat="47.99918" lon="6.90512">
        <ele>813</ele>
        <time>2020-03-01T10:02:03Z</time>
      </trkpt>
      <trkpt lat="47.99917" lon="6.90516">
        <ele>814</ele>
        <time>2020-03-01T10:02:05Z</time>
      </trkpt>
      <trkpt lat="47.99916" lon="6.90519">
        <ele>814</ele>
        <time>2020-03-01T10:02:07Z</time>
      </trkpt>
      <trkpt lat="47.99915" lon="6.90522">
        <ele>816</ele>
        <time>2020-03-01T10:02:10Z</time>
      </trkpt>
      <trkpt lat="47.99916" lon="6.90525">
        <ele>816</ele>
        <time>2020-03-01T10:02:13Z</time>
      </trkpt>
      <trkpt lat="47.99916" lon="6.90529">
        <ele>818</ele>
        <time>2020-03-01T10:02:18Z</time>
      </trkpt>
      <trkpt lat="47.99915" lon="6.90531">
        <ele>819</ele>
        <time>2020-03-01T10:02:20Z</time>
      </trkpt>
      <trkpt lat="47.99915" lon="6.90535">
        <ele>819</ele>
        <time>2020-03-01T10:02:22Z</time>
      </trkpt>
      <trkpt lat="47.99914" lon="6.90538">
        <ele>820</ele>
        <time>2020-03-01T10:02:24Z</time>
      </trkpt>
      <trkpt lat="47.99912" lon="6.90542">
        <ele>821</ele>
        <time>2020-03-01T10:02:28Z</time>
      </trkpt>
      <trkpt lat="47.99912" lon="6.90546">
        <ele>821</ele>
        <time>2020-03-01T10:02:31Z</time>
      </trkpt>
      <trkpt lat="47.99912" lon="6.90549">
        <ele>821</ele>
        <time>2020-03-01T10:02:34Z</time>
      </trkpt>
      <trkpt lat="47.99911" lon="6.90552">
        <ele>821</ele>
        <time>2020-03-01T10:02:40Z</time>
      </trkpt>
      <trkpt lat="47.99912" lon="6.90556">
        <ele>823</ele>
        <time>2020-03-01T10:02:42Z</time>
      </trkpt>
      <trkpt lat="47.99911" lon="6.9056">
        <ele>825</ele>
        <time>2020-03-01T10:02:45Z</time>
      </trkpt>
      <trkpt lat="47.99909" lon="6.90559">
        <ele>825</ele>
        <time>2020-03-01T10:02:48Z</time>
      </trkpt>
      <trkpt lat="47.99909" lon="6.90562">
        <ele>826</ele>
        <time>2020-03-01T10:02:51Z</time>
      </trkpt>
      <trkpt lat="47.99909" lon="6.90565">
        <ele>825</ele>
        <time>2020-03-01T10:02:54Z</time>
      </trkpt>
      <trkpt lat="47.99908" lon="6.90569">
        <ele>827</ele>
        <time>2020-03-01T10:02:59Z</time>
      </trkpt>
      <trkpt lat="47.99906" lon="6.90573">
        <ele>827</ele>
        <time>2020-03-01T10:03:01Z</time>
      </trkpt>
      <trkpt lat="47.99905" lon="6.90575">
        <ele>827</ele>
        <time>2020-03-01T10:03:05Z</time>
      </trkpt>
      <trkpt lat="47.99904" lon="6.90579">
        <ele>826</ele>
        <time>2020-03-01T10:03:08Z</time>
      </trkpt>
      <trkpt lat="47.99904" lon="6.90582">
        <ele>829</ele>
        <time>2020-03-01T10:03:10Z</time>
      </trkpt>
      <trkpt lat="47.99903" lon="6.90586">
        <ele>831</ele>
        <time>2020-03-01T10:03:18Z</time>
      </trkpt>
      <trkpt lat="47.99902" lon="6.90589">
        <ele>831</ele>
        <time>2020-03-01T10:03:20Z</time>
      </trkpt>
      <trkpt lat="47.99901" lon="6.90592">
        <ele>830</ele>
        <time>2020-03-01T10:03:22Z</time>
      </trkpt>
      <trkpt lat="47.999" lon="6.90595">
        <ele>830</ele>
        <time>2020-03-01T10:03:25Z</time>
      </trkpt>
      <trkpt lat="47.99899" lon="6.90598">
        <ele>831</ele>
        <time>2020-03-01T10:03:27Z</time>
      </trkpt>
      <trkpt lat="47.99899" lon="6.906">
        <ele>832</ele>
        <time>2020-03-01T10:03:30Z</time>
      </trkpt>
      <trkpt lat="47.99896" lon="6.90604">
        <ele>832</ele>
        <time>2020-03-01T10:03:40Z</time>
      </trkpt>
      <trkpt lat="47.99894" lon="6.90607">
        <ele>830</ele>
        <time>2020-03-01T10:03:42Z</time>
      </trkpt>
      <trkpt lat="47.99893" lon="6.9061">
        <ele>830</ele>
        <time>2020-03-01T10:03:45Z</time>
      </trkpt>
      <trkpt lat="47.99891" lon="6.90613">
        <ele>831</ele>
        <time>2020-03-01T10:03:48Z</time>
      </trkpt>
      <trkpt lat="47.99891" lon="6.90616">
        <ele>832</ele>
        <time>2020-03-01T10:03:51Z</time>
      </trkpt>
      <trkpt lat="47.99889" lon="6.90619">
        <ele>832</ele>
        <time>2020-03-01T10:03:54Z</time>
      </trkpt>
      <trkpt lat="47.99888" lon="6.90623">
        <ele>832</ele>
        <time>2020-03-01T10:03:59Z</time>
      </trkpt>
      <trkpt lat="47.99886" lon="6.90625">
        <ele>834</ele>
        <time>2020-03-01T10:04:03Z</time>
      </trkpt>
      <trkpt lat="47.99884" lon="6.90626">
        <ele>835</ele>
        <time>2020-03-01T10:04:11Z</time>
      </trkpt>
      <trkpt lat="47.99881" lon="6.90627">
        <ele>836</ele>
        <time>2020-03-01T10:04:14Z</time>
      </trkpt>
      <trkpt lat="47.9988" lon="6.90629">
        <ele>837</ele>
        <time>2020-03-01T10:04:16Z</time>
      </trkpt>
      <trkpt lat="47.99878" lon="6.90631">
        <ele>840</ele>
        <time>2020-03-01T10:04:18Z</time>
      </trkpt>
      <trkpt lat="47.99875" lon="6.90633">
        <ele>840</ele>
        <time>2020-03-01T10:04:21Z</time>
      </trkpt>
      <trkpt lat="47.99873" lon="6.90632">
        <ele>839</ele>
        <time>2020-03-01T10:04:25Z</time>
      </trkpt>
      <trkpt lat="47.99871" lon="6.90633">
        <ele>840</ele>
        <time>2020-03-01T10:04:28Z</time>
      </trkpt>
      <trkpt lat="47.99869" lon="6.90635">
        <ele>838</ele>
        <time>2020-03-01T10:04:30Z</time>
      </trkpt>
      <trkpt lat="47.99868" lon="6.90637">
        <ele>838</ele>
        <time>2020-03-01T10:04:33Z</time>
      </trkpt>
      <trkpt lat="47.99865" lon="6.90637">
        <ele>838</ele>
        <time>2020-03-01T10:04:35Z</time>
      </trkpt>
      <trkpt lat="47.99863" lon="6.90637">
        <ele>838</ele>
        <time>2020-03-01T10:04:37Z</time>
      </trkpt>
      <trkpt lat="47.99861" lon="6.90638">
        <ele>838</ele>
        <time>2020-03-01T10:04:39Z</time>
      </trkpt>
      <trkpt lat="47.99859" lon="6.9064">
        <ele>839</ele>
        <time>2020-03-01T10:04:41Z</time>
      </trkpt>
      <trkpt lat="47.99857" lon="6.90641">
        <ele>839</ele>
        <time>2020-03-01T10:04:44Z</time>
      </trkpt>
      <trkpt lat="47.99855" lon="6.90642">
        <ele>839</ele>
        <time>2020-03-01T10:04:49Z</time>
      </trkpt>
      <trkpt lat="47.99853" lon="6.90644">
        <ele>839</ele>
        <time>2020-03-01T10:04:52Z</time>
      </trkpt>
      <trkpt lat="47.99851" lon="6.90645">
        <ele>841</ele>
        <time>2020-03-01T10:04:56Z</time>
      </trkpt>
      <trkpt lat="47.99849" lon="6.90645">
        <ele>841</ele>
        <time>2020-03-01T10:04:58Z</time>
      </trkpt>
      <trkpt lat="47.99847" lon="6.90646">
        <ele>842</ele>
        <time>2020-03-01T10:05:01Z</time>
      </trkpt>
      <trkpt lat="47.99845" lon="6.90647">
        <ele>842</ele>
        <time>2020-03-01T10:05:04Z</time>
      </trkpt>
      <trkpt lat="47.99844" lon="6.9065">
        <ele>842</ele>
        <time>2020-03-01T10:05:08Z</time>
      </trkpt>
      <trkpt lat="47.99842" lon="6.90651">
        <ele>842</ele>
        <time>2020-03-01T10:05:13Z</time>
      </trkpt>
      <trkpt lat="47.9984" lon="6.90651">
        <ele>842</ele>
        <time>2020-03-01T10:05:15Z</time>
      </trkpt>
      <trkpt lat="47.99838" lon="6.90649">
        <ele>841</ele>
        <time>2020-03-01T10:05:18Z</time>
      </trkpt>
      <trkpt lat="47.99835" lon="6.90648">
        <ele>841</ele>
        <time>2020-03-01T10:05:24Z</time>
      </trkpt>
      <trkpt lat="47.99833" lon="6.90648">
        <ele>842</ele>
        <time>2020-03-01T10:05:26Z</time>
      </trkpt>
      <trkpt lat="47.99831" lon="6.90648">
        <ele>842</ele>
        <time>2020-03-01T10:05:30Z</time>
      </trkpt>
      <trkpt lat="47.99829" lon="6.90649">
        <ele>842</ele>
        <time>2020-03-01T10:05:35Z</time>
      </trkpt>
      <trkpt lat="47.99827" lon="6.90648">
        <ele>842</ele>
        <time>2020-03-01T10:05:39Z</time>
      </trkpt>
      <trkpt lat="47.99824" lon="6.90649">
        <ele>844</ele>
        <time>2020-03-01T10:05:45Z</time>
      </trkpt>
      <trkpt lat="47.99822" lon="6.9065">
        <ele>846</ele>
        <time>2020-03-01T10:05:48Z</time>
      </trkpt>
      <trkpt lat="47.99819" lon="6.90651">
        <ele>846</ele>
        <time>2020-03-01T10:05:51Z</time>
      </trkpt>
      <trkpt lat="47.99817" lon="6.90651">
        <ele>847</ele>
        <time>2020-03-01T10:05:53Z</time>
      </trkpt>
      <trkpt lat="47.99815" lon="6.90651">
        <ele>848</ele>
        <time>2020-03-01T10:05:55Z</time>
      </trkpt>
      <trkpt lat="47.99812" lon="6.90651">
        <ele>849</ele>
        <time>2020-03-01T10:05:57Z</time>
      </trkpt>
      <trkpt lat="47.9981" lon="6.90651">
        <ele>850</ele>
        <time>2020-03-01T10:05:59Z</time>
      </trkpt>
      <trkpt lat="47.99808" lon="6.90651">
        <ele>850</ele>
        <time>2020-03-01T10:06:01Z</time>
      </trkpt>
      <trkpt lat="47.99805" lon="6.90649">
        <ele>852</ele>
        <time>2020-03-01T10:06:05Z</time>
      </trkpt>
      <trkpt lat="47.99804" lon="6.90649">
        <ele>852</ele>
        <time>2020-03-01T10:06:10Z</time>
      </trkpt>
      <trkpt lat="47.99801" lon="6.90649">
        <ele>853</ele>
        <time>2020-03-01T10:06:13Z</time>
      </trkpt>
      <trkpt lat="47.99799" lon="6.90649">
        <ele>853</ele>
        <time>2020-03-01T10:06:15Z</time>
      </trkpt>
      <trkpt lat="47.99796" lon="6.9065">
        <ele>855</ele>
        <time>2020-03-01T10:06:17Z</time>
      </trkpt>
      <trkpt lat="47.99794" lon="6.90649">
        <ele>857</ele>
        <time>2020-03-01T10:06:20Z</time>
      </trkpt>
      <trkpt lat="47.99791" lon="6.90649">
        <ele>859</ele>
        <time>2020-03-01T10:06:21Z</time>
      </trkpt>
      <trkpt lat="47.99789" lon="6.90649">
        <ele>859</ele>
        <time>2020-03-01T10:06:22Z</time>
      </trkpt>
      <trkpt lat="47.99788" lon="6.90648">
        <ele>859</ele>
        <time>2020-03-01T10:06:23Z</time>
      </trkpt>
      <trkpt lat="47.99785" lon="6.90647">
        <ele>859</ele>
        <time>2020-03-01T10:06:26Z</time>
      </trkpt>
      <trkpt lat="47.99783" lon="6.9065">
        <ele>859</ele>
        <time>2020-03-01T10:06:29Z</time>
      </trkpt>
      <trkpt lat="47.9978" lon="6.9065">
        <ele>859</ele>
        <time>2020-03-01T10:06:31Z</time>
      </trkpt>
      <trkpt lat="47.99778" lon="6.90652">
        <ele>859</ele>
        <time>2020-03-01T10:06:33Z</time>
      </trkpt>
      <trkpt lat="47.99776" lon="6.90653">
        <ele>860</ele>
        <time>2020-03-01T10:06:35Z</time>
      </trkpt>
      <trkpt lat="47.99773" lon="6.90655">
        <ele>860</ele>
        <time>2020-03-01T10:06:37Z</time>
      </trkpt>
      <trkpt lat="47.99772" lon="6.90657">
        <ele>860</ele>
        <time>2020-03-01T10:06:39Z</time>
      </trkpt>
      <trkpt lat="47.9977" lon="6.90658">
        <ele>862</ele>
        <time>2020-03-01T10:06:40Z</time>
      </trkpt>
      <trkpt lat="47.99767" lon="6.9066">
        <ele>862</ele>
        <time>2020-03-01T10:06:42Z</time>
      </trkpt>
      <trkpt lat="47.99764" lon="6.90662">
        <ele>864</ele>
        <time>2020-03-01T10:06:44Z</time>
      </trkpt>
      <trkpt lat="47.99762" lon="6.90664">
        <ele>865</ele>
        <time>2020-03-01T10:06:46Z</time>
      </trkpt>
      <trkpt lat="47.9976" lon="6.90664">
        <ele>867</ele>
        <time>2020-03-01T10:06:49Z</time>
      </trkpt>
      <trkpt lat="47.99759" lon="6.90661">
        <ele>867</ele>
        <time>2020-03-01T10:06:51Z</time>
      </trkpt>
      <trkpt lat="47.99758" lon="6.9066">
        <ele>867</ele>
        <time>2020-03-01T10:06:53Z</time>
      </trkpt>
      <trkpt lat="47.99756" lon="6.90659">
        <ele>868</ele>
        <time>2020-03-01T10:06:55Z</time>
      </trkpt>
      <trkpt lat="47.99754" lon="6.90658">
        <ele>867</ele>
        <time>2020-03-01T10:06:58Z</time>
      </trkpt>
      <trkpt lat="47.99751" lon="6.90657">
        <ele>865</ele>
        <time>2020-03-01T10:07:03Z</time>
      </trkpt>
      <trkpt lat="47.99749" lon="6.90657">
        <ele>864</ele>
        <time>2020-03-01T10:07:06Z</time>
      </trkpt>
      <trkpt lat="47.99747" lon="6.90657">
        <ele>865</ele>
        <time>2020-03-01T10:07:09Z</time>
      </trkpt>
      <trkpt lat="47.99744" lon="6.90657">
        <ele>868</ele>
        <time>2020-03-01T10:07:12Z</time>
      </trkpt>
      <trkpt lat="47.99743" lon="6.90654">
        <ele>868</ele>
        <time>2020-03-01T10:07:15Z</time>
      </trkpt>
      <trkpt lat="47.99743" lon="6.90651">
        <ele>865</ele>
        <time>2020-03-01T10:07:17Z</time>
      </trkpt>
      <trkpt lat="47.99741" lon="6.9065">
        <ele>864</ele>
        <time>2020-03-01T10:07:20Z</time>
      </trkpt>
      <trkpt lat="47.99738" lon="6.90649">
        <ele>868</ele>
        <time>2020-03-01T10:07:22Z</time>
      </trkpt>
      <trkpt lat="47.99736" lon="6.90648">
        <ele>867</ele>
        <time>2020-03-01T10:07:23Z</time>
      </trkpt>
      <trkpt lat="47.99734" lon="6.90648">
        <ele>869</ele>
        <time>2020-03-01T10:07:25Z</time>
      </trkpt>
      <trkpt lat="47.99731" lon="6.9065">
        <ele>868</ele>
        <time>2020-03-01T10:07:30Z</time>
      </trkpt>
      <trkpt lat="47.99729" lon="6.90647">
        <ele>867</ele>
        <time>2020-03-01T10:07:33Z</time>
      </trkpt>
      <trkpt lat="47.99726" lon="6.90647">
        <ele>868</ele>
        <time>2020-03-01T10:07:37Z</time>
      </trkpt>
      <trkpt lat="47.99725" lon="6.9065">
        <ele>870</ele>
        <time>2020-03-01T10:07:39Z</time>
      </trkpt>
      <trkpt lat="47.99723" lon="6.9065">
        <ele>870</ele>
        <time>2020-03-01T10:07:42Z</time>
      </trkpt>
      <trkpt lat="47.99721" lon="6.9065">
        <ele>873</ele>
        <time>2020-03-01T10:07:44Z</time>
      </trkpt>
      <trkpt lat="47.99719" lon="6.90647">
        <ele>872</ele>
        <time>2020-03-01T10:07:46Z</time>
      </trkpt>
      <trkpt lat="47.99717" lon="6.90643">
        <ele>872</ele>
        <time>2020-03-01T10:07:51Z</time>
      </trkpt>
      <trkpt lat="47.99715" lon="6.90643">
        <ele>874</ele>
        <time>2020-03-01T10:07:54Z</time>
      </trkpt>
      <trkpt lat="47.99712" lon="6.90643">
        <ele>872</ele>
        <time>2020-03-01T10:07:56Z</time>
      </trkpt>
      <trkpt lat="47.9971" lon="6.90644">
        <ele>874</ele>
        <time>2020-03-01T10:07:58Z</time>
      </trkpt>
      <trkpt lat="47.99709" lon="6.90645">
        <ele>874</ele>
        <time>2020-03-01T10:08:00Z</time>
      </trkpt>
      <trkpt lat="47.99707" lon="6.90646">
        <ele>875</ele>
        <time>2020-03-01T10:08:01Z</time>
      </trkpt>
      <trkpt lat="47.99703" lon="6.90645">
        <ele>875</ele>
        <time>2020-03-01T10:08:04Z</time>
      </trkpt>
      <trkpt lat="47.99701" lon="6.90646">
        <ele>875</ele>
        <time>2020-03-01T10:08:06Z</time>
      </trkpt>
      <trkpt lat="47.997" lon="6.90645">
        <ele>875</ele>
        <time>2020-03-01T10:08:10Z</time>
      </trkpt>
      <trkpt lat="47.99697" lon="6.90642">
        <ele>874</ele>
        <time>2020-03-01T10:08:19Z</time>
      </trkpt>
      <trkpt lat="47.99695" lon="6.90639">
        <ele>872</ele>
        <time>2020-03-01T10:08:22Z</time>
      </trkpt>
      <trkpt lat="47.99694" lon="6.90636">
        <ele>873</ele>
        <time>2020-03-01T10:08:24Z</time>
      </trkpt>
      <trkpt lat="47.99691" lon="6.90635">
        <ele>873</ele>
        <time>2020-03-01T10:08:29Z</time>
      </trkpt>
      <trkpt lat="47.99689" lon="6.90636">
        <ele>873</ele>
        <time>2020-03-01T10:08:31Z</time>
      </trkpt>
      <trkpt lat="47.99686" lon="6.90635">
        <ele>874</ele>
        <time>2020-03-01T10:08:33Z</time>
      </trkpt>
      <trkpt lat="47.99684" lon="6.90636">
        <ele>875</ele>
        <time>2020-03-01T10:08:35Z</time>
      </trkpt>
      <trkpt lat="47.99682" lon="6.90633">
        <ele>876</ele>
        <time>2020-03-01T10:08:38Z</time>
      </trkpt>
      <trkpt lat="47.9968" lon="6.90631">
        <ele>879</ele>
        <time>2020-03-01T10:08:44Z</time>
      </trkpt>
      <trkpt lat="47.99678" lon="6.90629">
        <ele>878</ele>
        <time>2020-03-01T10:08:46Z</time>
      </trkpt>
      <trkpt lat="47.99676" lon="6.9063">
        <ele>880</ele>
        <time>2020-03-01T10:08:48Z</time>
      </trkpt>
      <trkpt lat="47.99673" lon="6.9063">
        <ele>880</ele>
        <time>2020-03-01T10:08:50Z</time>
      </trkpt>
      <trkpt lat="47.99671" lon="6.90628">
        <ele>880</ele>
        <time>2020-03-01T10:08:53Z</time>
      </trkpt>
      <trkpt lat="47.99669" lon="6.90626">
        <ele>880</ele>
        <time>2020-03-01T10:08:56Z</time>
      </trkpt>
      <trkpt lat="47.99667" lon="6.90625">
        <ele>879</ele>
        <time>2020-03-01T10:08:59Z</time>
      </trkpt>
      <trkpt lat="47.99664" lon="6.90624">
        <ele>878</ele>
        <time>2020-03-01T10:09:01Z</time>
      </trkpt>
      <trkpt lat="47.99662" lon="6.90622">
        <ele>878</ele>
        <time>2020-03-01T10:09:04Z</time>
      </trkpt>
      <trkpt lat="47.99661" lon="6.90621">
        <ele>879</ele>
        <time>2020-03-01T10:09:06Z</time>
      </trkpt>
      <trkpt lat="47.99658" lon="6.90617">
        <ele>884</ele>
        <time>2020-03-01T10:09:08Z</time>
      </trkpt>
      <trkpt lat="47.99657" lon="6.90616">
        <ele>882</ele>
        <time>2020-03-01T10:09:10Z</time>
      </trkpt>
      <trkpt lat="47.99654" lon="6.90615">
        <ele>881</ele>
        <time>2020-03-01T10:09:12Z</time>
      </trkpt>
      <trkpt lat="47.99654" lon="6.90612">
        <ele>877</ele>
        <time>2020-03-01T10:09:20Z</time>
      </trkpt>
      <trkpt lat="47.99653" lon="6.9061">
        <ele>877</ele>
        <time>2020-03-01T10:09:23Z</time>
      </trkpt>
      <trkpt lat="47.99649" lon="6.90609">
        <ele>879</ele>
        <time>2020-03-01T10:09:32Z</time>
      </trkpt>
      <trkpt lat="47.99647" lon="6.90611">
        <ele>878</ele>
        <time>2020-03-01T10:09:34Z</time>
      </trkpt>
      <trkpt lat="47.99649" lon="6.90609">
        <ele>878</ele>
        <time>2020-03-01T10:09:39Z</time>
      </trkpt>
      <trkpt lat="47.99648" lon="6.90606">
        <ele>876</ele>
        <time>2020-03-01T10:09:44Z</time>
      </trkpt>
      <trkpt lat="47.99646" lon="6.90602">
        <ele>876</ele>
        <time>2020-03-01T10:09:46Z</time>
      </trkpt>
      <trkpt lat="47.99643" lon="6.90601">
        <ele>875</ele>
        <time>2020-03-01T10:09:50Z</time>
      </trkpt>
      <trkpt lat="47.9964" lon="6.906">
        <ele>875</ele>
        <time>2020-03-01T10:09:52Z</time>
      </trkpt>
      <trkpt lat="47.99638" lon="6.90598">
        <ele>876</ele>
        <time>2020-03-01T10:09:55Z</time>
      </trkpt>
      <trkpt lat="47.99637" lon="6.90598">
        <ele>876</ele>
        <time>2020-03-01T10:09:57Z</time>
      </trkpt>
      <trkpt lat="47.99634" lon="6.90597">
        <ele>875</ele>
        <time>2020-03-01T10:10:00Z</time>
      </trkpt>
      <trkpt lat="47.99632" lon="6.90596">
        <ele>874</ele>
        <time>2020-03-01T10:10:02Z</time>
      </trkpt>
      <trkpt lat="47.9963" lon="6.90597">
        <ele>875</ele>
        <time>2020-03-01T10:10:05Z</time>
      </trkpt>
      <trkpt lat="47.99628" lon="6.90595">
        <ele>875</ele>
        <time>2020-03-01T10:10:08Z</time>
      </trkpt>
      <trkpt lat="47.99626" lon="6.90593">
        <ele>879</ele>
        <time>2020-03-01T10:10:11Z</time>
      </trkpt>
      <trkpt lat="47.99625" lon="6.90591">
        <ele>879</ele>
        <time>2020-03-01T10:10:13Z</time>
      </trkpt>
      <trkpt lat="47.99625" lon="6.90587">
        <ele>880</ele>
        <time>2020-03-01T10:10:20Z</time>
      </trkpt>
      <trkpt lat="47.99628" lon="6.90586">
        <ele>877</ele>
        <time>2020-03-01T10:10:25Z</time>
      </trkpt>
      <trkpt lat="47.9963" lon="6.90586">
        <ele>876</ele>
        <time>2020-03-01T10:10:27Z</time>
      </trkpt>
      <trkpt lat="47.99632" lon="6.90585">
        <ele>876</ele>
        <time>2020-03-01T10:10:30Z</time>
      </trkpt>
      <trkpt lat="47.99632" lon="6.90583">
        <ele>875</ele>
        <time>2020-03-01T10:10:32Z</time>
      </trkpt>
      <trkpt lat="47.99632" lon="6.9058">
        <ele>876</ele>
        <time>2020-03-01T10:10:35Z</time>
      </trkpt>
      <trkpt lat="47.99633" lon="6.90582">
        <ele>875</ele>
        <time>2020-03-01T10:10:43Z</time>
      </trkpt>
      <trkpt lat="47.99634" lon="6.90579">
        <ele>874</ele>
        <time>2020-03-01T10:10:47Z</time>
      </trkpt>
      <trkpt lat="47.99636" lon="6.90581">
        <ele>877</ele>
        <time>2020-03-01T10:10:51Z</time>
      </trkpt>
      <trkpt lat="47.99637" lon="6.90583">
        <ele>875</ele>
        <time>2020-03-01T10:10:55Z</time>
      </trkpt>
      <trkpt lat="47.99639" lon="6.90581">
        <ele>876</ele>
        <time>2020-03-01T10:10:58Z</time>
      </trkpt>
      <trkpt lat="47.99641" lon="6.90579">
        <ele>876</ele>
        <time>2020-03-01T10:11:00Z</time>
      </trkpt>
      <trkpt lat="47.99643" lon="6.90579">
        <ele>878</ele>
        <time>2020-03-01T10:11:03Z</time>
      </trkpt>
      <trkpt lat="47.99646" lon="6.90579">
        <ele>878</ele>
        <time>2020-03-01T10:11:05Z</time>
      </trkpt>
      <trkpt lat="47.99648" lon="6.90576">
        <ele>878</ele>
        <time>2020-03-01T10:11:07Z</time>
      </trkpt>
      <trkpt lat="47.99649" lon="6.90574">
        <ele>877</ele>
        <time>2020-03-01T10:11:09Z</time>
      </trkpt>
      <trkpt lat="47.99649" lon="6.90571">
        <ele>879</ele>
        <time>2020-03-01T10:11:15Z</time>
      </trkpt>
      <trkpt lat="47.99648" lon="6.90568">
        <ele>883</ele>
        <time>2020-03-01T10:11:20Z</time>
      </trkpt>
      <trkpt lat="47.99647" lon="6.90566">
        <ele>883</ele>
        <time>2020-03-01T10:11:23Z</time>
      </trkpt>
      <trkpt lat="47.99645" lon="6.90564">
        <ele>882</ele>
        <time>2020-03-01T10:11:26Z</time>
      </trkpt>
      <trkpt lat="47.99643" lon="6.90563">
        <ele>883</ele>
        <time>2020-03-01T10:11:31Z</time>
      </trkpt>
      <trkpt lat="47.99641" lon="6.90564">
        <ele>883</ele>
        <time>2020-03-01T10:11:33Z</time>
      </trkpt>
      <trkpt lat="47.99638" lon="6.90564">
        <ele>886</ele>
        <time>2020-03-01T10:11:37Z</time>
      </trkpt>
      <trkpt lat="47.99637" lon="6.90562">
        <ele>884</ele>
        <time>2020-03-01T10:11:40Z</time>
      </trkpt>
      <trkpt lat="47.99634" lon="6.90561">
        <ele>885</ele>
        <time>2020-03-01T10:11:43Z</time>
      </trkpt>
      <trkpt lat="47.99631" lon="6.90561">
        <ele>887</ele>
        <time>2020-03-01T10:11:48Z</time>
      </trkpt>
      <trkpt lat="47.99628" lon="6.90559">
        <ele>887</ele>
        <time>2020-03-01T10:11:52Z</time>
      </trkpt>
      <trkpt lat="47.99625" lon="6.90557">
        <ele>887</ele>
        <time>2020-03-01T10:11:55Z</time>
      </trkpt>
      <trkpt lat="47.99622" lon="6.90558">
        <ele>888</ele>
        <time>2020-03-01T10:11:57Z</time>
      </trkpt>
      <trkpt lat="47.9962" lon="6.90558">
        <ele>888</ele>
        <time>2020-03-01T10:11:58Z</time>
      </trkpt>
      <trkpt lat="47.99618" lon="6.90558">
        <ele>886</ele>
        <time>2020-03-01T10:12:01Z</time>
      </trkpt>
      <trkpt lat="47.99616" lon="6.90556">
        <ele>889</ele>
        <time>2020-03-01T10:12:05Z</time>
      </trkpt>
      <trkpt lat="47.99614" lon="6.90556">
        <ele>891</ele>
        <time>2020-03-01T10:12:12Z</time>
      </trkpt>
      <trkpt lat="47.99611" lon="6.90554">
        <ele>893</ele>
        <time>2020-03-01T10:12:24Z</time>
      </trkpt>
      <trkpt lat="47.99609" lon="6.90554">
        <ele>893</ele>
        <time>2020-03-01T10:12:25Z</time>
      </trkpt>
      <trkpt lat="47.99607" lon="6.90554">
        <ele>892</ele>
        <time>2020-03-01T10:12:26Z</time>
      </trkpt>
      <trkpt lat="47.99604" lon="6.90554">
        <ele>890</ele>
        <time>2020-03-01T10:12:28Z</time>
      </trkpt>
      <trkpt lat="47.99602" lon="6.90553">
        <ele>890</ele>
        <time>2020-03-01T10:12:30Z</time>
      </trkpt>
      <trkpt lat="47.996" lon="6.90551">
        <ele>891</ele>
        <time>2020-03-01T10:12:32Z</time>
      </trkpt>
      <trkpt lat="47.99598" lon="6.9055">
        <ele>892</ele>
        <time>2020-03-01T10:12:34Z</time>
      </trkpt>
      <trkpt lat="47.99596" lon="6.90548">
        <ele>892</ele>
        <time>2020-03-01T10:12:40Z</time>
      </trkpt>
      <trkpt lat="47.99595" lon="6.90547">
        <ele>892</ele>
        <time>2020-03-01T10:12:43Z</time>
      </trkpt>
      <trkpt lat="47.99591" lon="6.90545">
        <ele>892</ele>
        <time>2020-03-01T10:12:50Z</time>
      </trkpt>
      <trkpt lat="47.99589" lon="6.90546">
        <ele>894</ele>
        <time>2020-03-01T10:12:52Z</time>
      </trkpt>
      <trkpt lat="47.99587" lon="6.90544">
        <ele>892</ele>
        <time>2020-03-01T10:12:54Z</time>
      </trkpt>
      <trkpt lat="47.99584" lon="6.90542">
        <ele>891</ele>
        <time>2020-03-01T10:12:56Z</time>
      </trkpt>
      <trkpt lat="47.99582" lon="6.9054">
        <ele>893</ele>
        <time>2020-03-01T10:12:58Z</time>
      </trkpt>
      <trkpt lat="47.99581" lon="6.90537">
        <ele>895</ele>
        <time>2020-03-01T10:13:01Z</time>
      </trkpt>
      <trkpt lat="47.99581" lon="6.90534">
        <ele>898</ele>
        <time>2020-03-01T10:13:07Z</time>
      </trkpt>
      <trkpt lat="47.99577" lon="6.90535">
        <ele>900</ele>
        <time>2020-03-01T10:13:12Z</time>
      </trkpt>
      <trkpt lat="47.99576" lon="6.90533">
        <ele>900</ele>
        <time>2020-03-01T10:13:17Z</time>
      </trkpt>
      <trkpt lat="47.99573" lon="6.90531">
        <ele>901</ele>
        <time>2020-03-01T10:13:21Z</time>
      </trkpt>
      <trkpt lat="47.99571" lon="6.9053">
        <ele>899</ele>
        <time>2020-03-01T10:13:24Z</time>
      </trkpt>
      <trkpt lat="47.99569" lon="6.90529">
        <ele>900</ele>
        <time>2020-03-01T10:13:27Z</time>
      </trkpt>
      <trkpt lat="47.99566" lon="6.90529">
        <ele>900</ele>
        <time>2020-03-01T10:13:30Z</time>
      </trkpt>
      <trkpt lat="47.99564" lon="6.90524">
        <ele>903</ele>
        <time>2020-03-01T10:13:39Z</time>
      </trkpt>
      <trkpt lat="47.99562" lon="6.90524">
        <ele>905</ele>
        <time>2020-03-01T10:13:42Z</time>
      </trkpt>
      <trkpt lat="47.99561" lon="6.90521">
        <ele>906</ele>
        <time>2020-03-01T10:13:45Z</time>
      </trkpt>
      <trkpt lat="47.99559" lon="6.9052">
        <ele>905</ele>
        <time>2020-03-01T10:13:48Z</time>
      </trkpt>
      <trkpt lat="47.99557" lon="6.90518">
        <ele>906</ele>
        <time>2020-03-01T10:13:50Z</time>
      </trkpt>
      <trkpt lat="47.99553" lon="6.90518">
        <ele>904</ele>
        <time>2020-03-01T10:13:55Z</time>
      </trkpt>
      <trkpt lat="47.99551" lon="6.90518">
        <ele>907</ele>
        <time>2020-03-01T10:13:58Z</time>
      </trkpt>
      <trkpt lat="47.99549" lon="6.90517">
        <ele>908</ele>
        <time>2020-03-01T10:14:02Z</time>
      </trkpt>
      <trkpt lat="47.99546" lon="6.90516">
        <ele>910</ele>
        <time>2020-03-01T10:14:07Z</time>
      </trkpt>
      <trkpt lat="47.99544" lon="6.90516">
        <ele>911</ele>
        <time>2020-03-01T10:14:10Z</time>
      </trkpt>
      <trkpt lat="47.99542" lon="6.90515">
        <ele>912</ele>
        <time>2020-03-01T10:14:14Z</time>
      </trkpt>
      <trkpt lat="47.99539" lon="6.90517">
        <ele>914</ele>
        <time>2020-03-01T10:14:17Z</time>
      </trkpt>
      <trkpt lat="47.99537" lon="6.90516">
        <ele>916</ele>
        <time>2020-03-01T10:14:19Z</time>
      </trkpt>
      <trkpt lat="47.99535" lon="6.90515">
        <ele>917</ele>
        <time>2020-03-01T10:14:22Z</time>
      </trkpt>
      <trkpt lat="47.99534" lon="6.90511">
        <ele>918</ele>
        <time>2020-03-01T10:14:27Z</time>
      </trkpt>
      <trkpt lat="47.99532" lon="6.90509">
        <ele>918</ele>
        <time>2020-03-01T10:14:29Z</time>
      </trkpt>
      <trkpt lat="47.9953" lon="6.90508">
        <ele>920</ele>
        <time>2020-03-01T10:14:32Z</time>
      </trkpt>
      <trkpt lat="47.99528" lon="6.90507">
        <ele>918</ele>
        <time>2020-03-01T10:14:35Z</time>
      </trkpt>
      <trkpt lat="47.9953" lon="6.90506">
        <ele>918</ele>
        <time>2020-03-01T10:14:43Z</time>
      </trkpt>
      <trkpt lat="47.99533" lon="6.90506">
        <ele>916</ele>
        <time>2020-03-01T10:14:47Z</time>
      </trkpt>
      <trkpt lat="47.99535" lon="6.90503">
        <ele>913</ele>
        <time>2020-03-01T10:14:49Z</time>
      </trkpt>
      <trkpt lat="47.99537" lon="6.90505">
        <ele>915</ele>
        <time>2020-03-01T10:14:51Z</time>
      </trkpt>
      <trkpt lat="47.99538" lon="6.90502">
        <ele>915</ele>
        <time>2020-03-01T10:14:54Z</time>
      </trkpt>
      <trkpt lat="47.99539" lon="6.90499">
        <ele>914</ele>
        <time>2020-03-01T10:14:57Z</time>
      </trkpt>
      <trkpt lat="47.99542" lon="6.90498">
        <ele>911</ele>
        <time>2020-03-01T10:14:59Z</time>
      </trkpt>
      <trkpt lat="47.99543" lon="6.90496">
        <ele>910</ele>
        <time>2020-03-01T10:15:01Z</time>
      </trkpt>
      <trkpt lat="47.99542" lon="6.90493">
        <ele>910</ele>
        <time>2020-03-01T10:15:05Z</time>
      </trkpt>
      <trkpt lat="47.99542" lon="6.9049">
        <ele>910</ele>
        <time>2020-03-01T10:15:08Z</time>
      </trkpt>
      <trkpt lat="47.9954" lon="6.9049">
        <ele>912</ele>
        <time>2020-03-01T10:15:16Z</time>
      </trkpt>
      <trkpt lat="47.99539" lon="6.90487">
        <ele>913</ele>
        <time>2020-03-01T10:15:19Z</time>
      </trkpt>
      <trkpt lat="47.99537" lon="6.90484">
        <ele>914</ele>
        <time>2020-03-01T10:15:22Z</time>
      </trkpt>
      <trkpt lat="47.99534" lon="6.90485">
        <ele>913</ele>
        <time>2020-03-01T10:15:24Z</time>
      </trkpt>
      <trkpt lat="47.99532" lon="6.90484">
        <ele>914</ele>
        <time>2020-03-01T10:15:26Z</time>
      </trkpt>
      <trkpt lat="47.9953" lon="6.90483">
        <ele>914</ele>
        <time>2020-03-01T10:15:28Z</time>
      </trkpt>
      <trkpt lat="47.99528" lon="6.90481">
        <ele>917</ele>
        <time>2020-03-01T10:15:32Z</time>
      </trkpt>
      <trkpt lat="47.99527" lon="6.90478">
        <ele>917</ele>
        <time>2020-03-01T10:15:34Z</time>
      </trkpt>
      <trkpt lat="47.99525" lon="6.90478">
        <ele>917</ele>
        <time>2020-03-01T10:15:40Z</time>
      </trkpt>
      <trkpt lat="47.99523" lon="6.90479">
        <ele>918</ele>
        <time>2020-03-01T10:15:42Z</time>
      </trkpt>
      <trkpt lat="47.99521" lon="6.9048">
        <ele>917</ele>
        <time>2020-03-01T10:15:45Z</time>
      </trkpt>
      <trkpt lat="47.99519" lon="6.9048">
        <ele>917</ele>
        <time>2020-03-01T10:15:47Z</time>
      </trkpt>
      <trkpt lat="47.99517" lon="6.90482">
        <ele>918</ele>
        <time>2020-03-01T10:15:50Z</time>
      </trkpt>
      <trkpt lat="47.99516" lon="6.9048">
        <ele>917</ele>
        <time>2020-03-01T10:15:52Z</time>
      </trkpt>
      <trkpt lat="47.99514" lon="6.90478">
        <ele>918</ele>
        <time>2020-03-01T10:15:54Z</time>
      </trkpt>
      <trkpt lat="47.99512" lon="6.9048">
        <ele>919</ele>
        <time>2020-03-01T10:15:56Z</time>
      </trkpt>
      <trkpt lat="47.99511" lon="6.90481">
        <ele>921</ele>
        <time>2020-03-01T10:15:59Z</time>
      </trkpt>
      <trkpt lat="47.99509" lon="6.90478">
        <ele>919</ele>
        <time>2020-03-01T10:16:01Z</time>
      </trkpt>
      <trkpt lat="47.99509" lon="6.9048">
        <ele>916</ele>
        <time>2020-03-01T10:16:08Z</time>
      </trkpt>
      <trkpt lat="47.99507" lon="6.90482">
        <ele>918</ele>
        <time>2020-03-01T10:16:10Z</time>
      </trkpt>
      <trkpt lat="47.99506" lon="6.9048">
        <ele>917</ele>
        <time>2020-03-01T10:16:21Z</time>
      </trkpt>
      <trkpt lat="47.99503" lon="6.9048">
        <ele>919</ele>
        <time>2020-03-01T10:16:24Z</time>
      </trkpt>
      <trkpt lat="47.99502" lon="6.90478">
        <ele>920</ele>
        <time>2020-03-01T10:16:32Z</time>
      </trkpt>
      <trkpt lat="47.995" lon="6.90476">
        <ele>920</ele>
        <time>2020-03-01T10:16:35Z</time>
      </trkpt>
      <trkpt lat="47.99498" lon="6.90478">
        <ele>921</ele>
        <time>2020-03-01T10:16:38Z</time>
      </trkpt>
      <trkpt lat="47.99497" lon="6.90475">
        <ele>921</ele>
        <time>2020-03-01T10:16:41Z</time>
      </trkpt>
      <trkpt lat="47.99494" lon="6.90476">
        <ele>922</ele>
        <time>2020-03-01T10:16:44Z</time>
      </trkpt>
      <trkpt lat="47.99492" lon="6.90474">
        <ele>922</ele>
        <time>2020-03-01T10:16:48Z</time>
      </trkpt>
      <trkpt lat="47.9949" lon="6.90475">
        <ele>922</ele>
        <time>2020-03-01T10:16:50Z</time>
      </trkpt>
      <trkpt lat="47.99488" lon="6.90475">
        <ele>919</ele>
        <time>2020-03-01T10:17:01Z</time>
      </trkpt>
      <trkpt lat="47.99485" lon="6.90476">
        <ele>919</ele>
        <time>2020-03-01T10:17:03Z</time>
      </trkpt>
      <trkpt lat="47.99484" lon="6.90473">
        <ele>918</ele>
        <time>2020-03-01T10:17:05Z</time>
      </trkpt>
      <trkpt lat="47.99482" lon="6.90472">
        <ele>920</ele>
        <time>2020-03-01T10:17:09Z</time>
      </trkpt>
      <trkpt lat="47.99482" lon="6.90469">
        <ele>921</ele>
        <time>2020-03-01T10:17:12Z</time>
      </trkpt>
      <trkpt lat="47.99479" lon="6.90468">
        <ele>920</ele>
        <time>2020-03-01T10:17:16Z</time>
      </trkpt>
      <trkpt lat="47.99477" lon="6.90466">
        <ele>919</ele>
        <time>2020-03-01T10:17:18Z</time>
      </trkpt>
      <trkpt lat="47.99475" lon="6.90466">
        <ele>919</ele>
        <time>2020-03-01T10:17:23Z</time>
      </trkpt>
      <trkpt lat="47.99474" lon="6.90465">
        <ele>920</ele>
        <time>2020-03-01T10:17:28Z</time>
      </trkpt>
      <trkpt lat="47.99471" lon="6.90469">
        <ele>919</ele>
        <time>2020-03-01T10:17:34Z</time>
      </trkpt>
      <trkpt lat="47.99471" lon="6.90472">
        <ele>919</ele>
        <time>2020-03-01T10:17:37Z</time>
      </trkpt>
      <trkpt lat="47.99469" lon="6.90475">
        <ele>918</ele>
        <time>2020-03-01T10:17:44Z</time>
      </trkpt>
      <trkpt lat="47.99466" lon="6.90475">
        <ele>917</ele>
        <time>2020-03-01T10:17:46Z</time>
      </trkpt>
      <trkpt lat="47.99464" lon="6.90475">
        <ele>917</ele>
        <time>2020-03-01T10:17:47Z</time>
      </trkpt>
      <trkpt lat="47.99462" lon="6.90478">
        <ele>917</ele>
        <time>2020-03-01T10:17:49Z</time>
      </trkpt>
      <trkpt lat="47.99459" lon="6.90481">
        <ele>918</ele>
        <time>2020-03-01T10:17:54Z</time>
      </trkpt>
      <trkpt lat="47.99457" lon="6.90483">
        <ele>919</ele>
        <time>2020-03-01T10:17:56Z</time>
      </trkpt>
      <trkpt lat="47.99456" lon="6.90486">
        <ele>922</ele>
        <time>2020-03-01T10:17:58Z</time>
      </trkpt>
      <trkpt lat="47.99455" lon="6.90484">
        <ele>922</ele>
        <time>2020-03-01T10:18:06Z</time>
      </trkpt>
      <trkpt lat="47.99453" lon="6.90484">
        <ele>923</ele>
        <time>2020-03-01T10:18:08Z</time>
      </trkpt>
      <trkpt lat="47.99451" lon="6.90484">
        <ele>923</ele>
        <time>2020-03-01T10:18:12Z</time>
      </trkpt>
      <trkpt lat="47.99449" lon="6.90486">
        <ele>923</ele>
        <time>2020-03-01T10:18:15Z</time>
      </trkpt>
      <trkpt lat="47.99447" lon="6.90485">
        <ele>921</ele>
        <time>2020-03-01T10:18:24Z</time>
      </trkpt>
      <trkpt lat="47.99445" lon="6.90487">
        <ele>921</ele>
        <time>2020-03-01T10:18:26Z</time>
      </trkpt>
      <trkpt lat="47.99443" lon="6.90488">
        <ele>922</ele>
        <time>2020-03-01T10:18:29Z</time>
      </trkpt>
      <trkpt lat="47.9944" lon="6.9049">
        <ele>923</ele>
        <time>2020-03-01T10:18:32Z</time>
      </trkpt>
      <trkpt lat="47.99438" lon="6.90492">
        <ele>924</ele>
        <time>2020-03-01T10:18:34Z</time>
      </trkpt>
      <trkpt lat="47.99435" lon="6.90494">
        <ele>927</ele>
        <time>2020-03-01T10:18:36Z</time>
      </trkpt>
      <trkpt lat="47.99433" lon="6.90494">
        <ele>927</ele>
        <time>2020-03-01T10:18:39Z</time>
      </trkpt>
      <trkpt lat="47.99431" lon="6.90497">
        <ele>930</ele>
        <time>2020-03-01T10:18:43Z</time>
      </trkpt>
      <trkpt lat="47.99428" lon="6.90498">
        <ele>930</ele>
        <time>2020-03-01T10:18:45Z</time>
      </trkpt>
      <trkpt lat="47.99427" lon="6.905">
        <ele>929</ele>
        <time>2020-03-01T10:18:48Z</time>
      </trkpt>
      <trkpt lat="47.99427" lon="6.90503">
        <ele>929</ele>
        <time>2020-03-01T10:18:50Z</time>
      </trkpt>
      <trkpt lat="47.99424" lon="6.90504">
        <ele>929</ele>
        <time>2020-03-01T10:18:53Z</time>
      </trkpt>
      <trkpt lat="47.99422" lon="6.90504">
        <ele>929</ele>
        <time>2020-03-01T10:18:55Z</time>
      </trkpt>
      <trkpt lat="47.99419" lon="6.90504">
        <ele>933</ele>
        <time>2020-03-01T10:18:58Z</time>
      </trkpt>
      <trkpt lat="47.99418" lon="6.90506">
        <ele>934</ele>
        <time>2020-03-01T10:19:00Z</time>
      </trkpt>
      <trkpt lat="47.99416" lon="6.90506">
        <ele>936</ele>
        <time>2020-03-01T10:19:03Z</time>
      </trkpt>
      <trkpt lat="47.99415" lon="6.90509">
        <ele>938</ele>
        <time>2020-03-01T10:19:05Z</time>
      </trkpt>
      <trkpt lat="47.99414" lon="6.90511">
        <ele>939</ele>
        <time>2020-03-01T10:19:08Z</time>
      </trkpt>
      <trkpt lat="47.99412" lon="6.90515">
        <ele>937</ele>
        <time>2020-03-01T10:19:11Z</time>
      </trkpt>
      <trkpt lat="47.9941" lon="6.90517">
        <ele>934</ele>
        <time>2020-03-01T10:19:17Z</time>
      </trkpt>
      <trkpt lat="47.99408" lon="6.90519">
        <ele>933</ele>
        <time>2020-03-01T10:19:21Z</time>
      </trkpt>
      <trkpt lat="47.99408" lon="6.90523">
        <ele>934</ele>
        <time>2020-03-01T10:19:25Z</time>
      </trkpt>
      <trkpt lat="47.99406" lon="6.90525">
        <ele>935</ele>
        <time>2020-03-01T10:19:29Z</time>
      </trkpt>
      <trkpt lat="47.99404" lon="6.90526">
        <ele>936</ele>
        <time>2020-03-01T10:19:31Z</time>
      </trkpt>
      <trkpt lat="47.99403" lon="6.90529">
        <ele>936</ele>
        <time>2020-03-01T10:19:35Z</time>
      </trkpt>
      <trkpt lat="47.99403" lon="6.90533">
        <ele>934</ele>
        <time>2020-03-01T10:19:38Z</time>
      </trkpt>
      <trkpt lat="47.99401" lon="6.90536">
        <ele>934</ele>
        <time>2020-03-01T10:19:41Z</time>
      </trkpt>
      <trkpt lat="47.99401" lon="6.90539">
        <ele>933</ele>
        <time>2020-03-01T10:19:43Z</time>
      </trkpt>
      <trkpt lat="47.99399" lon="6.90542">
        <ele>933</ele>
        <time>2020-03-01T10:19:45Z</time>
      </trkpt>
      <trkpt lat="47.99398" lon="6.90544">
        <ele>932</ele>
        <time>2020-03-01T10:19:47Z</time>
      </trkpt>
      <trkpt lat="47.99396" lon="6.90546">
        <ele>933</ele>
        <time>2020-03-01T10:19:49Z</time>
      </trkpt>
      <trkpt lat="47.99394" lon="6.90546">
        <ele>936</ele>
        <time>2020-03-01T10:19:52Z</time>
      </trkpt>
      <trkpt lat="47.99392" lon="6.90546">
        <ele>936</ele>
        <time>2020-03-01T10:19:54Z</time>
      </trkpt>
      <trkpt lat="47.9939" lon="6.90545">
        <ele>937</ele>
        <time>2020-03-01T10:19:56Z</time>
      </trkpt>
      <trkpt lat="47.9939" lon="6.90541">
        <ele>934</ele>
        <time>2020-03-01T10:19:59Z</time>
      </trkpt>
      <trkpt lat="47.99389" lon="6.90539">
        <ele>933</ele>
        <time>2020-03-01T10:20:02Z</time>
      </trkpt>
      <trkpt lat="47.99386" lon="6.9054">
        <ele>933</ele>
        <time>2020-03-01T10:20:04Z</time>
      </trkpt>
      <trkpt lat="47.99384" lon="6.90543">
        <ele>935</ele>
        <time>2020-03-01T10:20:07Z</time>
      </trkpt>
      <trkpt lat="47.99382" lon="6.90543">
        <ele>935</ele>
        <time>2020-03-01T10:20:09Z</time>
      </trkpt>
      <trkpt lat="47.9938" lon="6.90542">
        <ele>935</ele>
        <time>2020-03-01T10:20:12Z</time>
      </trkpt>
      <trkpt lat="47.99378" lon="6.90543">
        <ele>936</ele>
        <time>2020-03-01T10:20:15Z</time>
      </trkpt>
      <trkpt lat="47.99377" lon="6.90546">
        <ele>936</ele>
        <time>2020-03-01T10:20:18Z</time>
      </trkpt>
      <trkpt lat="47.99375" lon="6.90548">
        <ele>937</ele>
        <time>2020-03-01T10:20:25Z</time>
      </trkpt>
      <trkpt lat="47.99373" lon="6.90547">
        <ele>937</ele>
        <time>2020-03-01T10:20:27Z</time>
      </trkpt>
      <trkpt lat="47.99372" lon="6.90549">
        <ele>936</ele>
        <time>2020-03-01T10:20:30Z</time>
      </trkpt>
      <trkpt lat="47.99374" lon="6.90549">
        <ele>933</ele>
        <time>2020-03-01T10:20:43Z</time>
      </trkpt>
      <trkpt lat="47.99376" lon="6.90547">
        <ele>933</ele>
        <time>2020-03-01T10:20:45Z</time>
      </trkpt>
      <trkpt lat="47.99377" lon="6.90546">
        <ele>933</ele>
        <time>2020-03-01T10:20:47Z</time>
      </trkpt>
      <trkpt lat="47.99379" lon="6.90545">
        <ele>933</ele>
        <time>2020-03-01T10:20:49Z</time>
      </trkpt>
      <trkpt lat="47.99381" lon="6.90542">
        <ele>933</ele>
        <time>2020-03-01T10:20:52Z</time>
      </trkpt>
      <trkpt lat="47.99381" lon="6.90539">
        <ele>933</ele>
        <time>2020-03-01T10:20:55Z</time>
      </trkpt>
      <trkpt lat="47.99381" lon="6.90536">
        <ele>934</ele>
        <time>2020-03-01T10:20:58Z</time>
      </trkpt>
      <trkpt lat="47.9938" lon="6.90533">
        <ele>936</ele>
        <time>2020-03-01T10:20:59Z</time>
      </trkpt>
      <trkpt lat="47.9938" lon="6.90528">
        <ele>936</ele>
        <time>2020-03-01T10:21:01Z</time>
      </trkpt>
      <trkpt lat="47.99378" lon="6.90526">
        <ele>937</ele>
        <time>2020-03-01T10:21:03Z</time>
      </trkpt>
      <trkpt lat="47.99376" lon="6.90527">
        <ele>938</ele>
        <time>2020-03-01T10:21:05Z</time>
      </trkpt>
      <trkpt lat="47.99373" lon="6.90528">
        <ele>938</ele>
        <time>2020-03-01T10:21:07Z</time>
      </trkpt>
      <trkpt lat="47.99371" lon="6.90528">
        <ele>937</ele>
        <time>2020-03-01T10:21:10Z</time>
      </trkpt>
      <trkpt lat="47.99369" lon="6.9053">
        <ele>937</ele>
        <time>2020-03-01T10:21:12Z</time>
      </trkpt>
      <trkpt lat="47.99366" lon="6.90529">
        <ele>936</ele>
        <time>2020-03-01T10:21:14Z</time>
      </trkpt>
      <trkpt lat="47.99364" lon="6.90529">
        <ele>937</ele>
        <time>2020-03-01T10:21:16Z</time>
      </trkpt>
      <trkpt lat="47.99362" lon="6.9053">
        <ele>940</ele>
        <time>2020-03-01T10:21:20Z</time>
      </trkpt>
      <trkpt lat="47.9936" lon="6.90528">
        <ele>941</ele>
        <time>2020-03-01T10:21:23Z</time>
      </trkpt>
      <trkpt lat="47.99358" lon="6.90525">
        <ele>942</ele>
        <time>2020-03-01T10:21:27Z</time>
      </trkpt>
      <trkpt lat="47.99356" lon="6.90523">
        <ele>941</ele>
        <time>2020-03-01T10:21:30Z</time>
      </trkpt>
      <trkpt lat="47.99354" lon="6.90521">
        <ele>942</ele>
        <time>2020-03-01T10:21:32Z</time>
      </trkpt>
      <trkpt lat="47.99352" lon="6.9052">
        <ele>942</ele>
        <time>2020-03-01T10:21:34Z</time>
      </trkpt>
      <trkpt lat="47.99351" lon="6.90517">
        <ele>942</ele>
        <time>2020-03-01T10:21:36Z</time>
      </trkpt>
      <trkpt lat="47.99351" lon="6.90512">
        <ele>941</ele>
        <time>2020-03-01T10:21:41Z</time>
      </trkpt>
      <trkpt lat="47.99349" lon="6.9051">
        <ele>943</ele>
        <time>2020-03-01T10:21:44Z</time>
      </trkpt>
      <trkpt lat="47.99346" lon="6.90509">
        <ele>943</ele>
        <time>2020-03-01T10:21:47Z</time>
      </trkpt>
      <trkpt lat="47.99344" lon="6.90509">
        <ele>944</ele>
        <time>2020-03-01T10:21:49Z</time>
      </trkpt>
      <trkpt lat="47.99341" lon="6.9051">
        <ele>945</ele>
        <time>2020-03-01T10:21:51Z</time>
      </trkpt>
      <trkpt lat="47.99339" lon="6.90511">
        <ele>944</ele>
        <time>2020-03-01T10:21:53Z</time>
      </trkpt>
      <trkpt lat="47.99337" lon="6.90513">
        <ele>944</ele>
        <time>2020-03-01T10:21:55Z</time>
      </trkpt>
      <trkpt lat="47.99335" lon="6.90513">
        <ele>945</ele>
        <time>2020-03-01T10:21:58Z</time>
      </trkpt>
      <trkpt lat="47.99333" lon="6.90515">
        <ele>945</ele>
        <time>2020-03-01T10:22:00Z</time>
      </trkpt>
      <trkpt lat="47.99331" lon="6.90517">
        <ele>946</ele>
        <time>2020-03-01T10:22:02Z</time>
      </trkpt>
      <trkpt lat="47.99329" lon="6.9052">
        <ele>947</ele>
        <time>2020-03-01T10:22:05Z</time>
      </trkpt>
      <trkpt lat="47.99327" lon="6.90521">
        <ele>948</ele>
        <time>2020-03-01T10:22:07Z</time>
      </trkpt>
      <trkpt lat="47.99325" lon="6.9052">
        <ele>947</ele>
        <time>2020-03-01T10:22:09Z</time>
      </trkpt>
      <trkpt lat="47.99322" lon="6.9052">
        <ele>947</ele>
        <time>2020-03-01T10:22:12Z</time>
      </trkpt>
      <trkpt lat="47.9932" lon="6.9052">
        <ele>946</ele>
        <time>2020-03-01T10:22:14Z</time>
      </trkpt>
      <trkpt lat="47.99318" lon="6.90519">
        <ele>946</ele>
        <time>2020-03-01T10:22:16Z</time>
      </trkpt>
      <trkpt lat="47.99316" lon="6.90519">
        <ele>943</ele>
        <time>2020-03-01T10:22:21Z</time>
      </trkpt>
      <trkpt lat="47.99314" lon="6.90519">
        <ele>942</ele>
        <time>2020-03-01T10:22:24Z</time>
      </trkpt>
      <trkpt lat="47.99312" lon="6.90518">
        <ele>944</ele>
        <time>2020-03-01T10:22:36Z</time>
      </trkpt>
      <trkpt lat="47.99314" lon="6.90519">
        <ele>945</ele>
        <time>2020-03-01T10:22:39Z</time>
      </trkpt>
      <trkpt lat="47.99312" lon="6.90521">
        <ele>943</ele>
        <time>2020-03-01T10:23:02Z</time>
      </trkpt>
      <trkpt lat="47.99313" lon="6.90523">
        <ele>944</ele>
        <time>2020-03-01T10:23:11Z</time>
      </trkpt>
      <trkpt lat="47.99315" lon="6.90521">
        <ele>942</ele>
        <time>2020-03-01T10:23:29Z</time>
      </trkpt>
      <trkpt lat="47.99317" lon="6.90523">
        <ele>939</ele>
        <time>2020-03-01T10:23:51Z</time>
      </trkpt>
      <trkpt lat="47.99315" lon="6.90522">
        <ele>939</ele>
        <time>2020-03-01T10:23:56Z</time>
      </trkpt>
      <trkpt lat="47.99314" lon="6.90519">
        <ele>941</ele>
        <time>2020-03-01T10:24:01Z</time>
      </trkpt>
      <trkpt lat="47.99313" lon="6.90516">
        <ele>940</ele>
        <time>2020-03-01T10:24:05Z</time>
      </trkpt>
      <trkpt lat="47.99313" lon="6.90514">
        <ele>939</ele>
        <time>2020-03-01T10:24:08Z</time>
      </trkpt>
      <trkpt lat="47.99313" lon="6.9051">
        <ele>940</ele>
        <time>2020-03-01T10:25:14Z</time>
      </trkpt>
      <trkpt lat="47.99312" lon="6.90507">
        <ele>940</ele>
        <time>2020-03-01T10:26:04Z</time>
      </trkpt>
      <trkpt lat="47.9931" lon="6.90505">
        <ele>940</ele>
        <time>2020-03-01T10:26:08Z</time>
      </trkpt>
      <trkpt lat="47.99309" lon="6.90503">
        <ele>941</ele>
        <time>2020-03-01T10:26:10Z</time>
      </trkpt>
      <trkpt lat="47.99309" lon="6.90499">
        <ele>942</ele>
        <time>2020-03-01T10:26:15Z</time>
      </trkpt>
      <trkpt lat="47.99309" lon="6.90496">
        <ele>942</ele>
        <time>2020-03-01T10:26:18Z</time>
      </trkpt>
      <trkpt lat="47.99308" lon="6.90494">
        <ele>942</ele>
        <time>2020-03-01T10:26:20Z</time>
      </trkpt>
      <trkpt lat="47.99307" lon="6.90492">
        <ele>942</ele>
        <time>2020-03-01T10:26:22Z</time>
      </trkpt>
      <trkpt lat="47.99305" lon="6.90489">
        <ele>941</ele>
        <time>2020-03-01T10:26:24Z</time>
      </trkpt>
      <trkpt lat="47.99304" lon="6.90487">
        <ele>940</ele>
        <time>2020-03-01T10:26:27Z</time>
      </trkpt>
      <trkpt lat="47.99302" lon="6.90484">
        <ele>942</ele>
        <time>2020-03-01T10:26:30Z</time>
      </trkpt>
      <trkpt lat="47.993" lon="6.90481">
        <ele>942</ele>
        <time>2020-03-01T10:26:33Z</time>
      </trkpt>
      <trkpt lat="47.99299" lon="6.90479">
        <ele>942</ele>
        <time>2020-03-01T10:26:36Z</time>
      </trkpt>
      <trkpt lat="47.99298" lon="6.90476">
        <ele>939</ele>
        <time>2020-03-01T10:26:42Z</time>
      </trkpt>
      <trkpt lat="47.99298" lon="6.90471">
        <ele>938</ele>
        <time>2020-03-01T10:26:45Z</time>
      </trkpt>
      <trkpt lat="47.99296" lon="6.90468">
        <ele>937</ele>
        <time>2020-03-01T10:26:49Z</time>
      </trkpt>
      <trkpt lat="47.99295" lon="6.90465">
        <ele>936</ele>
        <time>2020-03-01T10:26:52Z</time>
      </trkpt>
      <trkpt lat="47.99294" lon="6.90463">
        <ele>935</ele>
        <time>2020-03-01T10:26:54Z</time>
      </trkpt>
      <trkpt lat="47.99292" lon="6.9046">
        <ele>935</ele>
        <time>2020-03-01T10:26:57Z</time>
      </trkpt>
      <trkpt lat="47.99291" lon="6.90457">
        <ele>935</ele>
        <time>2020-03-01T10:26:59Z</time>
      </trkpt>
      <trkpt lat="47.99289" lon="6.90456">
        <ele>936</ele>
        <time>2020-03-01T10:27:01Z</time>
      </trkpt>
      <trkpt lat="47.99287" lon="6.90454">
        <ele>936</ele>
        <time>2020-03-01T10:27:03Z</time>
      </trkpt>
      <trkpt lat="47.99284" lon="6.90453">
        <ele>938</ele>
        <time>2020-03-01T10:27:05Z</time>
      </trkpt>
      <trkpt lat="47.99282" lon="6.90452">
        <ele>939</ele>
        <time>2020-03-01T10:27:07Z</time>
      </trkpt>
      <trkpt lat="47.9928" lon="6.90451">
        <ele>940</ele>
        <time>2020-03-01T10:27:09Z</time>
      </trkpt>
      <trkpt lat="47.99278" lon="6.9045">
        <ele>940</ele>
        <time>2020-03-01T10:27:12Z</time>
      </trkpt>
      <trkpt lat="47.99275" lon="6.90447">
        <ele>940</ele>
        <time>2020-03-01T10:27:16Z</time>
      </trkpt>
      <trkpt lat="47.99273" lon="6.90445">
        <ele>941</ele>
        <time>2020-03-01T10:27:18Z</time>
      </trkpt>
      <trkpt lat="47.99271" lon="6.90444">
        <ele>942</ele>
        <time>2020-03-01T10:27:20Z</time>
      </trkpt>
      <trkpt lat="47.99269" lon="6.90443">
        <ele>942</ele>
        <time>2020-03-01T10:27:22Z</time>
      </trkpt>
      <trkpt lat="47.99267" lon="6.90442">
        <ele>941</ele>
        <time>2020-03-01T10:27:24Z</time>
      </trkpt>
      <trkpt lat="47.99264" lon="6.9044">
        <ele>941</ele>
        <time>2020-03-01T10:27:27Z</time>
      </trkpt>
      <trkpt lat="47.99262" lon="6.90438">
        <ele>941</ele>
        <time>2020-03-01T10:27:30Z</time>
      </trkpt>
      <trkpt lat="47.9926" lon="6.90436">
        <ele>941</ele>
        <time>2020-03-01T10:27:32Z</time>
      </trkpt>
      <trkpt lat="47.99257" lon="6.90433">
        <ele>942</ele>
        <time>2020-03-01T10:27:35Z</time>
      </trkpt>
      <trkpt lat="47.99255" lon="6.90431">
        <ele>943</ele>
        <time>2020-03-01T10:27:37Z</time>
      </trkpt>
      <trkpt lat="47.99254" lon="6.90428">
        <ele>942</ele>
        <time>2020-03-01T10:27:39Z</time>
      </trkpt>
      <trkpt lat="47.99253" lon="6.90424">
        <ele>941</ele>
        <time>2020-03-01T10:27:43Z</time>
      </trkpt>
      <trkpt lat="47.99251" lon="6.90422">
        <ele>941</ele>
        <time>2020-03-01T10:27:45Z</time>
      </trkpt>
      <trkpt lat="47.9925" lon="6.90419">
        <ele>940</ele>
        <time>2020-03-01T10:27:48Z</time>
      </trkpt>
      <trkpt lat="47.99248" lon="6.90416">
        <ele>940</ele>
        <time>2020-03-01T10:27:51Z</time>
      </trkpt>
      <trkpt lat="47.99247" lon="6.90414">
        <ele>940</ele>
        <time>2020-03-01T10:27:54Z</time>
      </trkpt>
      <trkpt lat="47.99245" lon="6.90412">
        <ele>940</ele>
        <time>2020-03-01T10:27:57Z</time>
      </trkpt>
      <trkpt lat="47.99243" lon="6.9041">
        <ele>941</ele>
        <time>2020-03-01T10:27:59Z</time>
      </trkpt>
      <trkpt lat="47.9924" lon="6.90408">
        <ele>940</ele>
        <time>2020-03-01T10:28:01Z</time>
      </trkpt>
      <trkpt lat="47.99239" lon="6.90405">
        <ele>940</ele>
        <time>2020-03-01T10:28:03Z</time>
      </trkpt>
      <trkpt lat="47.99237" lon="6.90402">
        <ele>941</ele>
        <time>2020-03-01T10:28:05Z</time>
      </trkpt>
      <trkpt lat="47.99236" lon="6.904">
        <ele>941</ele>
        <time>2020-03-01T10:28:07Z</time>
      </trkpt>
      <trkpt lat="47.99234" lon="6.90398">
        <ele>940</ele>
        <time>2020-03-01T10:28:09Z</time>
      </trkpt>
      <trkpt lat="47.99233" lon="6.90396">
        <ele>940</ele>
        <time>2020-03-01T10:28:11Z</time>
      </trkpt>
      <trkpt lat="47.99232" lon="6.90393">
        <ele>939</ele>
        <time>2020-03-01T10:28:13Z</time>
      </trkpt>
      <trkpt lat="47.9923" lon="6.90392">
        <ele>940</ele>
        <time>2020-03-01T10:28:15Z</time>
      </trkpt>
      <trkpt lat="47.99229" lon="6.9039">
        <ele>939</ele>
        <time>2020-03-01T10:28:17Z</time>
      </trkpt>
      <trkpt lat="47.99228" lon="6.90387">
        <ele>939</ele>
        <time>2020-03-01T10:28:19Z</time>
      </trkpt>
      <trkpt lat="47.99226" lon="6.90382">
        <ele>938</ele>
        <time>2020-03-01T10:28:24Z</time>
      </trkpt>
      <trkpt lat="47.99224" lon="6.90379">
        <ele>938</ele>
        <time>2020-03-01T10:28:27Z</time>
      </trkpt>
      <trkpt lat="47.99221" lon="6.90378">
        <ele>939</ele>
        <time>2020-03-01T10:28:30Z</time>
      </trkpt>
      <trkpt lat="47.99219" lon="6.90377">
        <ele>940</ele>
        <time>2020-03-01T10:28:32Z</time>
      </trkpt>
      <trkpt lat="47.99217" lon="6.90375">
        <ele>940</ele>
        <time>2020-03-01T10:28:36Z</time>
      </trkpt>
      <trkpt lat="47.99216" lon="6.90372">
        <ele>941</ele>
        <time>2020-03-01T10:28:39Z</time>
      </trkpt>
      <trkpt lat="47.99214" lon="6.9037">
        <ele>941</ele>
        <time>2020-03-01T10:28:42Z</time>
      </trkpt>
      <trkpt lat="47.99212" lon="6.9037">
        <ele>941</ele>
        <time>2020-03-01T10:28:45Z</time>
      </trkpt>
      <trkpt lat="47.9921" lon="6.90369">
        <ele>942</ele>
        <time>2020-03-01T10:28:46Z</time>
      </trkpt>
      <trkpt lat="47.99207" lon="6.90367">
        <ele>942</ele>
        <time>2020-03-01T10:28:48Z</time>
      </trkpt>
      <trkpt lat="47.99205" lon="6.90363">
        <ele>941</ele>
        <time>2020-03-01T10:28:50Z</time>
      </trkpt>
      <trkpt lat="47.99202" lon="6.90361">
        <ele>941</ele>
        <time>2020-03-01T10:28:52Z</time>
      </trkpt>
      <trkpt lat="47.992" lon="6.9036">
        <ele>940</ele>
        <time>2020-03-01T10:28:54Z</time>
      </trkpt>
      <trkpt lat="47.99197" lon="6.90358">
        <ele>940</ele>
        <time>2020-03-01T10:28:56Z</time>
      </trkpt>
      <trkpt lat="47.99195" lon="6.90354">
        <ele>942</ele>
        <time>2020-03-01T10:29:00Z</time>
      </trkpt>
      <trkpt lat="47.99192" lon="6.90352">
        <ele>942</ele>
        <time>2020-03-01T10:29:02Z</time>
      </trkpt>
      <trkpt lat="47.9919" lon="6.90351">
        <ele>942</ele>
        <time>2020-03-01T10:29:04Z</time>
      </trkpt>
      <trkpt lat="47.99188" lon="6.90349">
        <ele>942</ele>
        <time>2020-03-01T10:29:07Z</time>
      </trkpt>
      <trkpt lat="47.99185" lon="6.90349">
        <ele>942</ele>
        <time>2020-03-01T10:29:09Z</time>
      </trkpt>
      <trkpt lat="47.99183" lon="6.90348">
        <ele>942</ele>
        <time>2020-03-01T10:29:12Z</time>
      </trkpt>
      <trkpt lat="47.99181" lon="6.90346">
        <ele>943</ele>
        <time>2020-03-01T10:29:14Z</time>
      </trkpt>
      <trkpt lat="47.99178" lon="6.90345">
        <ele>945</ele>
        <time>2020-03-01T10:29:19Z</time>
      </trkpt>
      <trkpt lat="47.99176" lon="6.90343">
        <ele>945</ele>
        <time>2020-03-01T10:29:22Z</time>
      </trkpt>
      <trkpt lat="47.99173" lon="6.90343">
        <ele>944</ele>
        <time>2020-03-01T10:29:24Z</time>
      </trkpt>
      <trkpt lat="47.99171" lon="6.90342">
        <ele>945</ele>
        <time>2020-03-01T10:29:27Z</time>
      </trkpt>
      <trkpt lat="47.99168" lon="6.9034">
        <ele>944</ele>
        <time>2020-03-01T10:29:29Z</time>
      </trkpt>
      <trkpt lat="47.99167" lon="6.9034">
        <ele>944</ele>
        <time>2020-03-01T10:29:31Z</time>
      </trkpt>
      <trkpt lat="47.99164" lon="6.90338">
        <ele>945</ele>
        <time>2020-03-01T10:29:36Z</time>
      </trkpt>
      <trkpt lat="47.99163" lon="6.90336">
        <ele>944</ele>
        <time>2020-03-01T10:29:38Z</time>
      </trkpt>
      <trkpt lat="47.99161" lon="6.90333">
        <ele>944</ele>
        <time>2020-03-01T10:29:41Z</time>
      </trkpt>
      <trkpt lat="47.99159" lon="6.90332">
        <ele>944</ele>
        <time>2020-03-01T10:29:43Z</time>
      </trkpt>
      <trkpt lat="47.99157" lon="6.90331">
        <ele>944</ele>
        <time>2020-03-01T10:29:45Z</time>
      </trkpt>
      <trkpt lat="47.99155" lon="6.90329">
        <ele>943</ele>
        <time>2020-03-01T10:29:48Z</time>
      </trkpt>
      <trkpt lat="47.99154" lon="6.90327">
        <ele>943</ele>
        <time>2020-03-01T10:29:50Z</time>
      </trkpt>
      <trkpt lat="47.99153" lon="6.90324">
        <ele>942</ele>
        <time>2020-03-01T10:29:53Z</time>
      </trkpt>
      <trkpt lat="47.99152" lon="6.90322">
        <ele>942</ele>
        <time>2020-03-01T10:29:56Z</time>
      </trkpt>
      <trkpt lat="47.9915" lon="6.90319">
        <ele>942</ele>
        <time>2020-03-01T10:29:59Z</time>
      </trkpt>
      <trkpt lat="47.99149" lon="6.90317">
        <ele>943</ele>
        <time>2020-03-01T10:30:01Z</time>
      </trkpt>
      <trkpt lat="47.99148" lon="6.90315">
        <ele>943</ele>
        <time>2020-03-01T10:30:04Z</time>
      </trkpt>
      <trkpt lat="47.99146" lon="6.90314">
        <ele>942</ele>
        <time>2020-03-01T10:30:08Z</time>
      </trkpt>
      <trkpt lat="47.99144" lon="6.90312">
        <ele>942</ele>
        <time>2020-03-01T10:30:13Z</time>
      </trkpt>
      <trkpt lat="47.99142" lon="6.9031">
        <ele>941</ele>
        <time>2020-03-01T10:30:16Z</time>
      </trkpt>
      <trkpt lat="47.9914" lon="6.9031">
        <ele>941</ele>
        <time>2020-03-01T10:30:20Z</time>
      </trkpt>
      <trkpt lat="47.99138" lon="6.90308">
        <ele>941</ele>
        <time>2020-03-01T10:30:22Z</time>
      </trkpt>
      <trkpt lat="47.99137" lon="6.90306">
        <ele>941</ele>
        <time>2020-03-01T10:30:24Z</time>
      </trkpt>
      <trkpt lat="47.99135" lon="6.90304">
        <ele>941</ele>
        <time>2020-03-01T10:30:26Z</time>
      </trkpt>
      <trkpt lat="47.99134" lon="6.90302">
        <ele>942</ele>
        <time>2020-03-01T10:30:29Z</time>
      </trkpt>
      <trkpt lat="47.99131" lon="6.903">
        <ele>940</ele>
        <time>2020-03-01T10:30:32Z</time>
      </trkpt>
      <trkpt lat="47.99129" lon="6.90297">
        <ele>941</ele>
        <time>2020-03-01T10:30:35Z</time>
      </trkpt>
      <trkpt lat="47.99128" lon="6.90293">
        <ele>942</ele>
        <time>2020-03-01T10:30:38Z</time>
      </trkpt>
      <trkpt lat="47.99126" lon="6.90291">
        <ele>943</ele>
        <time>2020-03-01T10:30:42Z</time>
      </trkpt>
      <trkpt lat="47.99124" lon="6.90288">
        <ele>943</ele>
        <time>2020-03-01T10:30:44Z</time>
      </trkpt>
      <trkpt lat="47.99122" lon="6.90287">
        <ele>943</ele>
        <time>2020-03-01T10:30:46Z</time>
      </trkpt>
      <trkpt lat="47.9912" lon="6.90286">
        <ele>943</ele>
        <time>2020-03-01T10:30:48Z</time>
      </trkpt>
      <trkpt lat="47.99117" lon="6.90284">
        <ele>942</ele>
        <time>2020-03-01T10:30:50Z</time>
      </trkpt>
      <trkpt lat="47.99115" lon="6.90284">
        <ele>941</ele>
        <time>2020-03-01T10:30:52Z</time>
      </trkpt>
      <trkpt lat="47.99113" lon="6.90283">
        <ele>941</ele>
        <time>2020-03-01T10:30:54Z</time>
      </trkpt>
      <trkpt lat="47.99111" lon="6.90283">
        <ele>942</ele>
        <time>2020-03-01T10:30:57Z</time>
      </trkpt>
      <trkpt lat="47.99108" lon="6.90283">
        <ele>943</ele>
        <time>2020-03-01T10:31:00Z</time>
      </trkpt>
      <trkpt lat="47.99105" lon="6.90283">
        <ele>944</ele>
        <time>2020-03-01T10:31:03Z</time>
      </trkpt>
      <trkpt lat="47.99102" lon="6.90282">
        <ele>945</ele>
        <time>2020-03-01T10:31:06Z</time>
      </trkpt>
      <trkpt lat="47.991" lon="6.90282">
        <ele>945</ele>
        <time>2020-03-01T10:31:09Z</time>
      </trkpt>
      <trkpt lat="47.99099" lon="6.90281">
        <ele>946</ele>
        <time>2020-03-01T10:31:11Z</time>
      </trkpt>
      <trkpt lat="47.99096" lon="6.90279">
        <ele>946</ele>
        <time>2020-03-01T10:31:14Z</time>
      </trkpt>
      <trkpt lat="47.99094" lon="6.90279">
        <ele>945</ele>
        <time>2020-03-01T10:31:16Z</time>
      </trkpt>
      <trkpt lat="47.99092" lon="6.90279">
        <ele>946</ele>
        <time>2020-03-01T10:31:19Z</time>
      </trkpt>
      <trkpt lat="47.9909" lon="6.90278">
        <ele>945</ele>
        <time>2020-03-01T10:31:22Z</time>
      </trkpt>
      <trkpt lat="47.99088" lon="6.90277">
        <ele>945</ele>
        <time>2020-03-01T10:31:24Z</time>
      </trkpt>
      <trkpt lat="47.99085" lon="6.90278">
        <ele>945</ele>
        <time>2020-03-01T10:31:26Z</time>
      </trkpt>
      <trkpt lat="47.99083" lon="6.90277">
        <ele>945</ele>
        <time>2020-03-01T10:31:28Z</time>
      </trkpt>
      <trkpt lat="47.99081" lon="6.90275">
        <ele>945</ele>
        <time>2020-03-01T10:31:30Z</time>
      </trkpt>
      <trkpt lat="47.9908" lon="6.90272">
        <ele>944</ele>
        <time>2020-03-01T10:31:34Z</time>
      </trkpt>
      <trkpt lat="47.99077" lon="6.9027">
        <ele>944</ele>
        <time>2020-03-01T10:31:36Z</time>
      </trkpt>
      <trkpt lat="47.99075" lon="6.9027">
        <ele>944</ele>
        <time>2020-03-01T10:31:38Z</time>
      </trkpt>
      <trkpt lat="47.99073" lon="6.90269">
        <ele>945</ele>
        <time>2020-03-01T10:31:40Z</time>
      </trkpt>
      <trkpt lat="47.99071" lon="6.90268">
        <ele>945</ele>
        <time>2020-03-01T10:31:43Z</time>
      </trkpt>
      <trkpt lat="47.99069" lon="6.90268">
        <ele>945</ele>
        <time>2020-03-01T10:31:45Z</time>
      </trkpt>
      <trkpt lat="47.99067" lon="6.90269">
        <ele>945</ele>
        <time>2020-03-01T10:31:47Z</time>
      </trkpt>
      <trkpt lat="47.99064" lon="6.90269">
        <ele>944</ele>
        <time>2020-03-01T10:31:49Z</time>
      </trkpt>
      <trkpt lat="47.99062" lon="6.90268">
        <ele>944</ele>
        <time>2020-03-01T10:31:51Z</time>
      </trkpt>
      <trkpt lat="47.9906" lon="6.90267">
        <ele>946</ele>
        <time>2020-03-01T10:31:55Z</time>
      </trkpt>
      <trkpt lat="47.99058" lon="6.90266">
        <ele>946</ele>
        <time>2020-03-01T10:31:57Z</time>
      </trkpt>
      <trkpt lat="47.99056" lon="6.90265">
        <ele>946</ele>
        <time>2020-03-01T10:32:00Z</time>
      </trkpt>
      <trkpt lat="47.99053" lon="6.90263">
        <ele>947</ele>
        <time>2020-03-01T10:32:03Z</time>
      </trkpt>
      <trkpt lat="47.99051" lon="6.90262">
        <ele>949</ele>
        <time>2020-03-01T10:32:05Z</time>
      </trkpt>
      <trkpt lat="47.9905" lon="6.90263">
        <ele>950</ele>
        <time>2020-03-01T10:32:07Z</time>
      </trkpt>
      <trkpt lat="47.99047" lon="6.90263">
        <ele>949</ele>
        <time>2020-03-01T10:32:10Z</time>
      </trkpt>
      <trkpt lat="47.99045" lon="6.90262">
        <ele>948</ele>
        <time>2020-03-01T10:32:13Z</time>
      </trkpt>
      <trkpt lat="47.99043" lon="6.90261">
        <ele>947</ele>
        <time>2020-03-01T10:32:15Z</time>
      </trkpt>
      <trkpt lat="47.99041" lon="6.9026">
        <ele>947</ele>
        <time>2020-03-01T10:32:19Z</time>
      </trkpt>
      <trkpt lat="47.99039" lon="6.9026">
        <ele>947</ele>
        <time>2020-03-01T10:32:21Z</time>
      </trkpt>
      <trkpt lat="47.99036" lon="6.90259">
        <ele>946</ele>
        <time>2020-03-01T10:32:23Z</time>
      </trkpt>
      <trkpt lat="47.99034" lon="6.90258">
        <ele>946</ele>
        <time>2020-03-01T10:32:25Z</time>
      </trkpt>
      <trkpt lat="47.99032" lon="6.90259">
        <ele>947</ele>
        <time>2020-03-01T10:32:28Z</time>
      </trkpt>
      <trkpt lat="47.9903" lon="6.90259">
        <ele>948</ele>
        <time>2020-03-01T10:32:30Z</time>
      </trkpt>
      <trkpt lat="47.99028" lon="6.90259">
        <ele>947</ele>
        <time>2020-03-01T10:32:34Z</time>
      </trkpt>
      <trkpt lat="47.99027" lon="6.90257">
        <ele>946</ele>
        <time>2020-03-01T10:32:37Z</time>
      </trkpt>
      <trkpt lat="47.99026" lon="6.90255">
        <ele>947</ele>
        <time>2020-03-01T10:32:40Z</time>
      </trkpt>
      <trkpt lat="47.99024" lon="6.90253">
        <ele>947</ele>
        <time>2020-03-01T10:32:44Z</time>
      </trkpt>
      <trkpt lat="47.99022" lon="6.90252">
        <ele>945</ele>
        <time>2020-03-01T10:32:46Z</time>
      </trkpt>
      <trkpt lat="47.9902" lon="6.90253">
        <ele>944</ele>
        <time>2020-03-01T10:32:47Z</time>
      </trkpt>
      <trkpt lat="47.99017" lon="6.9025">
        <ele>942</ele>
        <time>2020-03-01T10:32:51Z</time>
      </trkpt>
      <trkpt lat="47.99014" lon="6.90249">
        <ele>939</ele>
        <time>2020-03-01T10:32:53Z</time>
      </trkpt>
      <trkpt lat="47.9901" lon="6.90248">
        <ele>938</ele>
        <time>2020-03-01T10:32:57Z</time>
      </trkpt>
      <trkpt lat="47.99008" lon="6.90248">
        <ele>937</ele>
        <time>2020-03-01T10:32:59Z</time>
      </trkpt>
      <trkpt lat="47.99005" lon="6.90247">
        <ele>937</ele>
        <time>2020-03-01T10:33:02Z</time>
      </trkpt>
      <trkpt lat="47.99003" lon="6.90248">
        <ele>938</ele>
        <time>2020-03-01T10:33:04Z</time>
      </trkpt>
      <trkpt lat="47.99001" lon="6.90248">
        <ele>937</ele>
        <time>2020-03-01T10:33:07Z</time>
      </trkpt>
      <trkpt lat="47.98998" lon="6.90248">
        <ele>937</ele>
        <time>2020-03-01T10:33:10Z</time>
      </trkpt>
      <trkpt lat="47.98996" lon="6.90249">
        <ele>936</ele>
        <time>2020-03-01T10:33:12Z</time>
      </trkpt>
      <trkpt lat="47.98993" lon="6.90251">
        <ele>937</ele>
        <time>2020-03-01T10:33:15Z</time>
      </trkpt>
      <trkpt lat="47.98991" lon="6.9025">
        <ele>939</ele>
        <time>2020-03-01T10:33:17Z</time>
      </trkpt>
      <trkpt lat="47.98989" lon="6.90252">
        <ele>937</ele>
        <time>2020-03-01T10:33:21Z</time>
      </trkpt>
      <trkpt lat="47.98987" lon="6.90252">
        <ele>937</ele>
        <time>2020-03-01T10:33:23Z</time>
      </trkpt>
      <trkpt lat="47.98985" lon="6.90253">
        <ele>937</ele>
        <time>2020-03-01T10:33:25Z</time>
      </trkpt>
      <trkpt lat="47.98983" lon="6.90253">
        <ele>936</ele>
        <time>2020-03-01T10:33:27Z</time>
      </trkpt>
      <trkpt lat="47.98981" lon="6.90252">
        <ele>937</ele>
        <time>2020-03-01T10:33:30Z</time>
      </trkpt>
      <trkpt lat="47.98978" lon="6.90251">
        <ele>936</ele>
        <time>2020-03-01T10:33:34Z</time>
      </trkpt>
      <trkpt lat="47.98976" lon="6.90252">
        <ele>935</ele>
        <time>2020-03-01T10:33:37Z</time>
      </trkpt>
      <trkpt lat="47.98975" lon="6.9025">
        <ele>935</ele>
        <time>2020-03-01T10:33:39Z</time>
      </trkpt>
      <trkpt lat="47.98973" lon="6.9025">
        <ele>936</ele>
        <time>2020-03-01T10:33:41Z</time>
      </trkpt>
      <trkpt lat="47.98971" lon="6.9025">
        <ele>936</ele>
        <time>2020-03-01T10:33:43Z</time>
      </trkpt>
      <trkpt lat="47.98967" lon="6.9025">
        <ele>938</ele>
        <time>2020-03-01T10:33:47Z</time>
      </trkpt>
      <trkpt lat="47.98965" lon="6.90251">
        <ele>938</ele>
        <time>2020-03-01T10:33:49Z</time>
      </trkpt>
      <trkpt lat="47.98963" lon="6.9025">
        <ele>936</ele>
        <time>2020-03-01T10:33:52Z</time>
      </trkpt>
      <trkpt lat="47.98961" lon="6.90252">
        <ele>936</ele>
        <time>2020-03-01T10:33:54Z</time>
      </trkpt>
      <trkpt lat="47.98959" lon="6.90253">
        <ele>934</ele>
        <time>2020-03-01T10:33:56Z</time>
      </trkpt>
      <trkpt lat="47.98956" lon="6.90254">
        <ele>934</ele>
        <time>2020-03-01T10:33:59Z</time>
      </trkpt>
      <trkpt lat="47.98954" lon="6.90254">
        <ele>935</ele>
        <time>2020-03-01T10:34:01Z</time>
      </trkpt>
      <trkpt lat="47.98952" lon="6.90255">
        <ele>938</ele>
        <time>2020-03-01T10:34:03Z</time>
      </trkpt>
      <trkpt lat="47.9895" lon="6.90256">
        <ele>937</ele>
        <time>2020-03-01T10:34:05Z</time>
      </trkpt>
      <trkpt lat="47.98947" lon="6.90255">
        <ele>937</ele>
        <time>2020-03-01T10:34:07Z</time>
      </trkpt>
      <trkpt lat="47.98945" lon="6.90256">
        <ele>936</ele>
        <time>2020-03-01T10:34:10Z</time>
      </trkpt>
      <trkpt lat="47.98943" lon="6.90258">
        <ele>937</ele>
        <time>2020-03-01T10:34:13Z</time>
      </trkpt>
      <trkpt lat="47.98942" lon="6.9026">
        <ele>939</ele>
        <time>2020-03-01T10:34:16Z</time>
      </trkpt>
      <trkpt lat="47.9894" lon="6.90259">
        <ele>939</ele>
        <time>2020-03-01T10:34:21Z</time>
      </trkpt>
      <trkpt lat="47.98939" lon="6.90261">
        <ele>938</ele>
        <time>2020-03-01T10:34:25Z</time>
      </trkpt>
      <trkpt lat="47.98937" lon="6.90261">
        <ele>939</ele>
        <time>2020-03-01T10:34:28Z</time>
      </trkpt>
      <trkpt lat="47.98934" lon="6.9026">
        <ele>939</ele>
        <time>2020-03-01T10:34:31Z</time>
      </trkpt>
      <trkpt lat="47.98932" lon="6.90261">
        <ele>940</ele>
        <time>2020-03-01T10:34:33Z</time>
      </trkpt>
      <trkpt lat="47.9893" lon="6.90263">
        <ele>938</ele>
        <time>2020-03-01T10:34:37Z</time>
      </trkpt>
      <trkpt lat="47.98928" lon="6.90264">
        <ele>939</ele>
        <time>2020-03-01T10:34:40Z</time>
      </trkpt>
      <trkpt lat="47.98926" lon="6.90266">
        <ele>939</ele>
        <time>2020-03-01T10:34:43Z</time>
      </trkpt>
      <trkpt lat="47.98924" lon="6.90268">
        <ele>938</ele>
        <time>2020-03-01T10:34:46Z</time>
      </trkpt>
      <trkpt lat="47.98921" lon="6.90269">
        <ele>937</ele>
        <time>2020-03-01T10:34:49Z</time>
      </trkpt>
      <trkpt lat="47.98919" lon="6.90271">
        <ele>938</ele>
        <time>2020-03-01T10:34:51Z</time>
      </trkpt>
      <trkpt lat="47.98918" lon="6.90272">
        <ele>938</ele>
        <time>2020-03-01T10:34:53Z</time>
      </trkpt>
      <trkpt lat="47.98916" lon="6.90273">
        <ele>938</ele>
        <time>2020-03-01T10:34:55Z</time>
      </trkpt>
      <trkpt lat="47.98914" lon="6.90275">
        <ele>939</ele>
        <time>2020-03-01T10:34:58Z</time>
      </trkpt>
      <trkpt lat="47.98913" lon="6.90278">
        <ele>942</ele>
        <time>2020-03-01T10:35:01Z</time>
      </trkpt>
      <trkpt lat="47.98911" lon="6.9028">
        <ele>943</ele>
        <time>2020-03-01T10:35:04Z</time>
      </trkpt>
      <trkpt lat="47.98913" lon="6.90284">
        <ele>942</ele>
        <time>2020-03-01T10:35:19Z</time>
      </trkpt>
      <trkpt lat="47.9891" lon="6.90283">
        <ele>943</ele>
        <time>2020-03-01T10:35:48Z</time>
      </trkpt>
      <trkpt lat="47.98909" lon="6.90284">
        <ele>943</ele>
        <time>2020-03-01T10:35:51Z</time>
      </trkpt>
      <trkpt lat="47.98908" lon="6.9028">
        <ele>942</ele>
        <time>2020-03-01T10:35:55Z</time>
      </trkpt>
      <trkpt lat="47.98911" lon="6.90278">
        <ele>941</ele>
        <time>2020-03-01T10:36:03Z</time>
      </trkpt>
      <trkpt lat="47.98911" lon="6.90281">
        <ele>941</ele>
        <time>2020-03-01T10:36:16Z</time>
      </trkpt>
      <trkpt lat="47.98912" lon="6.90278">
        <ele>943</ele>
        <time>2020-03-01T10:36:20Z</time>
      </trkpt>
      <trkpt lat="47.98911" lon="6.90276">
        <ele>941</ele>
        <time>2020-03-01T10:36:26Z</time>
      </trkpt>
      <trkpt lat="47.9891" lon="6.90278">
        <ele>942</ele>
        <time>2020-03-01T10:36:36Z</time>
      </trkpt>
      <trkpt lat="47.98908" lon="6.90277">
        <ele>942</ele>
        <time>2020-03-01T10:36:38Z</time>
      </trkpt>
      <trkpt lat="47.98907" lon="6.90275">
        <ele>943</ele>
        <time>2020-03-01T10:36:49Z</time>
      </trkpt>
      <trkpt lat="47.98908" lon="6.90277">
        <ele>941</ele>
        <time>2020-03-01T10:37:04Z</time>
      </trkpt>
      <trkpt lat="47.98909" lon="6.90281">
        <ele>943</ele>
        <time>2020-03-01T10:37:07Z</time>
      </trkpt>
      <trkpt lat="47.9891" lon="6.90284">
        <ele>943</ele>
        <time>2020-03-01T10:37:09Z</time>
      </trkpt>
      <trkpt lat="47.98908" lon="6.90285">
        <ele>942</ele>
        <time>2020-03-01T10:37:12Z</time>
      </trkpt>
      <trkpt lat="47.98906" lon="6.90283">
        <ele>942</ele>
        <time>2020-03-01T10:37:15Z</time>
      </trkpt>
      <trkpt lat="47.98904" lon="6.90282">
        <ele>939</ele>
        <time>2020-03-01T10:37:18Z</time>
      </trkpt>
      <trkpt lat="47.98901" lon="6.90281">
        <ele>940</ele>
        <time>2020-03-01T10:37:20Z</time>
      </trkpt>
      <trkpt lat="47.98899" lon="6.90283">
        <ele>939</ele>
        <time>2020-03-01T10:37:22Z</time>
      </trkpt>
      <trkpt lat="47.98897" lon="6.90285">
        <ele>939</ele>
        <time>2020-03-01T10:37:25Z</time>
      </trkpt>
      <trkpt lat="47.98895" lon="6.90287">
        <ele>938</ele>
        <time>2020-03-01T10:37:27Z</time>
      </trkpt>
      <trkpt lat="47.98893" lon="6.9029">
        <ele>939</ele>
        <time>2020-03-01T10:37:29Z</time>
      </trkpt>
      <trkpt lat="47.98891" lon="6.90292">
        <ele>939</ele>
        <time>2020-03-01T10:37:32Z</time>
      </trkpt>
      <trkpt lat="47.98888" lon="6.90294">
        <ele>939</ele>
        <time>2020-03-01T10:37:35Z</time>
      </trkpt>
      <trkpt lat="47.98886" lon="6.90295">
        <ele>939</ele>
        <time>2020-03-01T10:37:39Z</time>
      </trkpt>
      <trkpt lat="47.98883" lon="6.90295">
        <ele>938</ele>
        <time>2020-03-01T10:37:42Z</time>
      </trkpt>
      <trkpt lat="47.98882" lon="6.90296">
        <ele>938</ele>
        <time>2020-03-01T10:37:45Z</time>
      </trkpt>
      <trkpt lat="47.98879" lon="6.90296">
        <ele>937</ele>
        <time>2020-03-01T10:37:49Z</time>
      </trkpt>
      <trkpt lat="47.98877" lon="6.90298">
        <ele>937</ele>
        <time>2020-03-01T10:37:52Z</time>
      </trkpt>
      <trkpt lat="47.98874" lon="6.90298">
        <ele>937</ele>
        <time>2020-03-01T10:37:56Z</time>
      </trkpt>
      <trkpt lat="47.98873" lon="6.903">
        <ele>936</ele>
        <time>2020-03-01T10:38:00Z</time>
      </trkpt>
      <trkpt lat="47.9887" lon="6.90302">
        <ele>936</ele>
        <time>2020-03-01T10:38:03Z</time>
      </trkpt>
      <trkpt lat="47.98868" lon="6.90303">
        <ele>936</ele>
        <time>2020-03-01T10:38:05Z</time>
      </trkpt>
      <trkpt lat="47.98867" lon="6.90305">
        <ele>937</ele>
        <time>2020-03-01T10:38:06Z</time>
      </trkpt>
      <trkpt lat="47.98865" lon="6.90307">
        <ele>938</ele>
        <time>2020-03-01T10:38:08Z</time>
      </trkpt>
      <trkpt lat="47.98864" lon="6.9031">
        <ele>937</ele>
        <time>2020-03-01T10:38:10Z</time>
      </trkpt>
      <trkpt lat="47.98862" lon="6.90313">
        <ele>937</ele>
        <time>2020-03-01T10:38:12Z</time>
      </trkpt>
      <trkpt lat="47.98863" lon="6.90315">
        <ele>937</ele>
        <time>2020-03-01T10:38:15Z</time>
      </trkpt>
      <trkpt lat="47.98861" lon="6.90316">
        <ele>934</ele>
        <time>2020-03-01T10:38:19Z</time>
      </trkpt>
      <trkpt lat="47.98859" lon="6.90318">
        <ele>935</ele>
        <time>2020-03-01T10:38:20Z</time>
      </trkpt>
      <trkpt lat="47.98856" lon="6.90318">
        <ele>937</ele>
        <time>2020-03-01T10:38:22Z</time>
      </trkpt>
      <trkpt lat="47.98854" lon="6.90319">
        <ele>937</ele>
        <time>2020-03-01T10:38:24Z</time>
      </trkpt>
      <trkpt lat="47.98852" lon="6.9032">
        <ele>938</ele>
        <time>2020-03-01T10:38:25Z</time>
      </trkpt>
      <trkpt lat="47.9885" lon="6.90321">
        <ele>937</ele>
        <time>2020-03-01T10:38:27Z</time>
      </trkpt>
      <trkpt lat="47.98848" lon="6.90324">
        <ele>936</ele>
        <time>2020-03-01T10:38:30Z</time>
      </trkpt>
      <trkpt lat="47.98846" lon="6.90327">
        <ele>936</ele>
        <time>2020-03-01T10:38:32Z</time>
      </trkpt>
      <trkpt lat="47.98845" lon="6.90329">
        <ele>936</ele>
        <time>2020-03-01T10:38:34Z</time>
      </trkpt>
      <trkpt lat="47.98844" lon="6.90331">
        <ele>936</ele>
        <time>2020-03-01T10:38:37Z</time>
      </trkpt>
      <trkpt lat="47.98842" lon="6.90334">
        <ele>936</ele>
        <time>2020-03-01T10:38:39Z</time>
      </trkpt>
      <trkpt lat="47.98841" lon="6.90336">
        <ele>935</ele>
        <time>2020-03-01T10:38:41Z</time>
      </trkpt>
      <trkpt lat="47.9884" lon="6.90338">
        <ele>935</ele>
        <time>2020-03-01T10:38:43Z</time>
      </trkpt>
      <trkpt lat="47.98838" lon="6.9034">
        <ele>934</ele>
        <time>2020-03-01T10:38:46Z</time>
      </trkpt>
      <trkpt lat="47.98837" lon="6.90343">
        <ele>934</ele>
        <time>2020-03-01T10:38:48Z</time>
      </trkpt>
      <trkpt lat="47.98836" lon="6.90346">
        <ele>934</ele>
        <time>2020-03-01T10:38:51Z</time>
      </trkpt>
      <trkpt lat="47.98836" lon="6.90349">
        <ele>935</ele>
        <time>2020-03-01T10:38:54Z</time>
      </trkpt>
      <trkpt lat="47.98833" lon="6.90349">
        <ele>935</ele>
        <time>2020-03-01T10:38:56Z</time>
      </trkpt>
      <trkpt lat="47.98832" lon="6.90351">
        <ele>934</ele>
        <time>2020-03-01T10:38:59Z</time>
      </trkpt>
      <trkpt lat="47.98829" lon="6.90355">
        <ele>930</ele>
        <time>2020-03-01T10:39:03Z</time>
      </trkpt>
      <trkpt lat="47.98828" lon="6.90357">
        <ele>930</ele>
        <time>2020-03-01T10:39:05Z</time>
      </trkpt>
      <trkpt lat="47.98827" lon="6.90361">
        <ele>933</ele>
        <time>2020-03-01T10:39:11Z</time>
      </trkpt>
      <trkpt lat="47.98828" lon="6.90365">
        <ele>934</ele>
        <time>2020-03-01T10:39:13Z</time>
      </trkpt>
      <trkpt lat="47.98828" lon="6.90369">
        <ele>934</ele>
        <time>2020-03-01T10:39:15Z</time>
      </trkpt>
      <trkpt lat="47.98828" lon="6.90373">
        <ele>933</ele>
        <time>2020-03-01T10:39:19Z</time>
      </trkpt>
      <trkpt lat="47.9883" lon="6.90376">
        <ele>933</ele>
        <time>2020-03-01T10:39:21Z</time>
      </trkpt>
      <trkpt lat="47.98831" lon="6.9038">
        <ele>933</ele>
        <time>2020-03-01T10:39:23Z</time>
      </trkpt>
      <trkpt lat="47.98831" lon="6.90383">
        <ele>932</ele>
        <time>2020-03-01T10:39:25Z</time>
      </trkpt>
      <trkpt lat="47.98831" lon="6.90386">
        <ele>931</ele>
        <time>2020-03-01T10:39:27Z</time>
      </trkpt>
      <trkpt lat="47.98832" lon="6.9039">
        <ele>932</ele>
        <time>2020-03-01T10:39:30Z</time>
      </trkpt>
      <trkpt lat="47.98833" lon="6.90394">
        <ele>932</ele>
        <time>2020-03-01T10:39:34Z</time>
      </trkpt>
      <trkpt lat="47.98834" lon="6.90397">
        <ele>933</ele>
        <time>2020-03-01T10:39:37Z</time>
      </trkpt>
      <trkpt lat="47.98835" lon="6.90401">
        <ele>934</ele>
        <time>2020-03-01T10:39:40Z</time>
      </trkpt>
      <trkpt lat="47.98836" lon="6.90405">
        <ele>934</ele>
        <time>2020-03-01T10:39:44Z</time>
      </trkpt>
      <trkpt lat="47.98837" lon="6.90408">
        <ele>934</ele>
        <time>2020-03-01T10:39:46Z</time>
      </trkpt>
      <trkpt lat="47.98838" lon="6.90411">
        <ele>933</ele>
        <time>2020-03-01T10:39:49Z</time>
      </trkpt>
      <trkpt lat="47.98837" lon="6.90414">
        <ele>933</ele>
        <time>2020-03-01T10:39:51Z</time>
      </trkpt>
      <trkpt lat="47.98837" lon="6.9042">
        <ele>931</ele>
        <time>2020-03-01T10:39:55Z</time>
      </trkpt>
      <trkpt lat="47.98837" lon="6.90423">
        <ele>932</ele>
        <time>2020-03-01T10:39:57Z</time>
      </trkpt>
      <trkpt lat="47.9884" lon="6.90427">
        <ele>933</ele>
        <time>2020-03-01T10:40:00Z</time>
      </trkpt>
      <trkpt lat="47.98841" lon="6.90431">
        <ele>934</ele>
        <time>2020-03-01T10:40:03Z</time>
      </trkpt>
      <trkpt lat="47.98843" lon="6.90433">
        <ele>934</ele>
        <time>2020-03-01T10:40:05Z</time>
      </trkpt>
      <trkpt lat="47.98844" lon="6.90435">
        <ele>937</ele>
        <time>2020-03-01T10:40:11Z</time>
      </trkpt>
      <trkpt lat="47.98847" lon="6.90439">
        <ele>937</ele>
        <time>2020-03-01T10:40:13Z</time>
      </trkpt>
      <trkpt lat="47.98847" lon="6.90443">
        <ele>936</ele>
        <time>2020-03-01T10:40:16Z</time>
      </trkpt>
      <trkpt lat="47.98847" lon="6.90447">
        <ele>936</ele>
        <time>2020-03-01T10:40:18Z</time>
      </trkpt>
      <trkpt lat="47.98847" lon="6.9045">
        <ele>936</ele>
        <time>2020-03-01T10:40:20Z</time>
      </trkpt>
      <trkpt lat="47.98848" lon="6.90454">
        <ele>936</ele>
        <time>2020-03-01T10:40:23Z</time>
      </trkpt>
      <trkpt lat="47.9885" lon="6.90457">
        <ele>936</ele>
        <time>2020-03-01T10:40:29Z</time>
      </trkpt>
      <trkpt lat="47.9885" lon="6.9046">
        <ele>935</ele>
        <time>2020-03-01T10:40:32Z</time>
      </trkpt>
      <trkpt lat="47.9885" lon="6.90463">
        <ele>935</ele>
        <time>2020-03-01T10:40:41Z</time>
      </trkpt>
      <trkpt lat="47.98851" lon="6.90467">
        <ele>928</ele>
        <time>2020-03-01T10:41:07Z</time>
      </trkpt>
      <trkpt lat="47.98852" lon="6.90469">
        <ele>929</ele>
        <time>2020-03-01T10:41:10Z</time>
      </trkpt>
      <trkpt lat="47.98854" lon="6.90469">
        <ele>929</ele>
        <time>2020-03-01T10:41:12Z</time>
      </trkpt>
      <trkpt lat="47.98855" lon="6.90472">
        <ele>927</ele>
        <time>2020-03-01T10:41:15Z</time>
      </trkpt>
      <trkpt lat="47.98858" lon="6.90473">
        <ele>927</ele>
        <time>2020-03-01T10:41:18Z</time>
      </trkpt>
      <trkpt lat="47.98858" lon="6.90477">
        <ele>927</ele>
        <time>2020-03-01T10:41:21Z</time>
      </trkpt>
      <trkpt lat="47.98859" lon="6.90478">
        <ele>926</ele>
        <time>2020-03-01T10:41:23Z</time>
      </trkpt>
      <trkpt lat="47.98862" lon="6.90478">
        <ele>926</ele>
        <time>2020-03-01T10:41:25Z</time>
      </trkpt>
      <trkpt lat="47.98864" lon="6.90476">
        <ele>924</ele>
        <time>2020-03-01T10:41:27Z</time>
      </trkpt>
      <trkpt lat="47.98866" lon="6.90474">
        <ele>924</ele>
        <time>2020-03-01T10:41:30Z</time>
      </trkpt>
      <trkpt lat="47.98867" lon="6.90472">
        <ele>923</ele>
        <time>2020-03-01T10:41:32Z</time>
      </trkpt>
      <trkpt lat="47.98869" lon="6.90472">
        <ele>925</ele>
        <time>2020-03-01T10:41:34Z</time>
      </trkpt>
      <trkpt lat="47.98871" lon="6.90472">
        <ele>924</ele>
        <time>2020-03-01T10:41:37Z</time>
      </trkpt>
      <trkpt lat="47.98874" lon="6.90471">
        <ele>928</ele>
        <time>2020-03-01T10:41:41Z</time>
      </trkpt>
      <trkpt lat="47.98876" lon="6.90471">
        <ele>928</ele>
        <time>2020-03-01T10:41:44Z</time>
      </trkpt>
      <trkpt lat="47.98874" lon="6.9047">
        <ele>931</ele>
        <time>2020-03-01T10:41:47Z</time>
      </trkpt>
      <trkpt lat="47.98876" lon="6.90472">
        <ele>932</ele>
        <time>2020-03-01T10:41:52Z</time>
      </trkpt>
      <trkpt lat="47.98878" lon="6.90473">
        <ele>931</ele>
        <time>2020-03-01T10:41:55Z</time>
      </trkpt>
      <trkpt lat="47.98876" lon="6.90469">
        <ele>932</ele>
        <time>2020-03-01T10:42:30Z</time>
      </trkpt>
      <trkpt lat="47.98873" lon="6.90468">
        <ele>934</ele>
        <time>2020-03-01T10:42:38Z</time>
      </trkpt>
      <trkpt lat="47.98871" lon="6.90468">
        <ele>933</ele>
        <time>2020-03-01T10:42:53Z</time>
      </trkpt>
      <trkpt lat="47.98874" lon="6.90468">
        <ele>933</ele>
        <time>2020-03-01T10:43:05Z</time>
      </trkpt>
      <trkpt lat="47.98871" lon="6.90467">
        <ele>933</ele>
        <time>2020-03-01T10:43:09Z</time>
      </trkpt>
      <trkpt lat="47.98873" lon="6.90464">
        <ele>933</ele>
        <time>2020-03-01T10:43:13Z</time>
      </trkpt>
      <trkpt lat="47.98871" lon="6.90463">
        <ele>932</ele>
        <time>2020-03-01T10:43:35Z</time>
      </trkpt>
      <trkpt lat="47.9887" lon="6.90465">
        <ele>934</ele>
        <time>2020-03-01T10:43:51Z</time>
      </trkpt>
      <trkpt lat="47.98871" lon="6.90466">
        <ele>933</ele>
        <time>2020-03-01T10:44:20Z</time>
      </trkpt>
      <trkpt lat="47.98869" lon="6.9047">
        <ele>933</ele>
        <time>2020-03-01T10:44:33Z</time>
      </trkpt>
      <trkpt lat="47.98867" lon="6.90472">
        <ele>934</ele>
        <time>2020-03-01T10:44:38Z</time>
      </trkpt>
      <trkpt lat="47.98865" lon="6.90468">
        <ele>934</ele>
        <time>2020-03-01T10:44:48Z</time>
      </trkpt>
      <trkpt lat="47.98867" lon="6.90468">
        <ele>934</ele>
        <time>2020-03-01T10:44:56Z</time>
      </trkpt>
      <trkpt lat="47.98868" lon="6.90466">
        <ele>934</ele>
        <time>2020-03-01T10:45:07Z</time>
      </trkpt>
      <trkpt lat="47.9887" lon="6.90464">
        <ele>936</ele>
        <time>2020-03-01T10:45:08Z</time>
      </trkpt>
      <trkpt lat="47.98869" lon="6.90461">
        <ele>941</ele>
        <time>2020-03-01T10:45:14Z</time>
      </trkpt>
      <trkpt lat="47.98867" lon="6.90463">
        <ele>941</ele>
        <time>2020-03-01T10:45:21Z</time>
      </trkpt>
      <trkpt lat="47.98868" lon="6.90466">
        <ele>941</ele>
        <time>2020-03-01T10:45:25Z</time>
      </trkpt>
      <trkpt lat="47.98869" lon="6.90468">
        <ele>940</ele>
        <time>2020-03-01T10:45:26Z</time>
      </trkpt>
      <trkpt lat="47.98867" lon="6.90467">
        <ele>938</ele>
        <time>2020-03-01T10:45:41Z</time>
      </trkpt>
      <trkpt lat="47.98869" lon="6.90469">
        <ele>938</ele>
        <time>2020-03-01T10:45:50Z</time>
      </trkpt>
      <trkpt lat="47.98871" lon="6.90471">
        <ele>934</ele>
        <time>2020-03-01T10:46:01Z</time>
      </trkpt>
      <trkpt lat="47.98869" lon="6.90472">
        <ele>933</ele>
        <time>2020-03-01T10:46:02Z</time>
      </trkpt>
      <trkpt lat="47.98867" lon="6.9047">
        <ele>928</ele>
        <time>2020-03-01T10:46:25Z</time>
      </trkpt>
      <trkpt lat="47.98866" lon="6.90468">
        <ele>928</ele>
        <time>2020-03-01T10:46:27Z</time>
      </trkpt>
      <trkpt lat="47.98867" lon="6.90468">
        <ele>928</ele>
        <time>2020-03-01T10:46:35Z</time>
      </trkpt>
      <trkpt lat="47.98866" lon="6.90467">
        <ele>931</ele>
        <time>2020-03-01T10:47:05Z</time>
      </trkpt>
      <trkpt lat="47.98868" lon="6.90468">
        <ele>932</ele>
        <time>2020-03-01T10:47:07Z</time>
      </trkpt>
      <trkpt lat="47.98869" lon="6.90464">
        <ele>932</ele>
        <time>2020-03-01T10:47:14Z</time>
      </trkpt>
      <trkpt lat="47.98868" lon="6.90467">
        <ele>936</ele>
        <time>2020-03-01T10:48:00Z</time>
      </trkpt>
      <trkpt lat="47.98866" lon="6.90467">
        <ele>935</ele>
        <time>2020-03-01T10:48:07Z</time>
      </trkpt>
      <trkpt lat="47.98867" lon="6.90469">
        <ele>933</ele>
        <time>2020-03-01T10:48:15Z</time>
      </trkpt>
      <trkpt lat="47.98865" lon="6.90472">
        <ele>928</ele>
        <time>2020-03-01T10:48:25Z</time>
      </trkpt>
      <trkpt lat="47.98863" lon="6.90473">
        <ele>928</ele>
        <time>2020-03-01T10:48:38Z</time>
      </trkpt>
      <trkpt lat="47.98864" lon="6.90475">
        <ele>928</ele>
        <time>2020-03-01T10:48:41Z</time>
      </trkpt>
      <trkpt lat="47.98867" lon="6.90474">
        <ele>928</ele>
        <time>2020-03-01T10:48:55Z</time>
      </trkpt>
      <trkpt lat="47.98867" lon="6.90472">
        <ele>929</ele>
        <time>2020-03-01T10:48:58Z</time>
      </trkpt>
      <trkpt lat="47.98869" lon="6.9047">
        <ele>930</ele>
        <time>2020-03-01T10:49:03Z</time>
      </trkpt>
      <trkpt lat="47.98868" lon="6.90473">
        <ele>935</ele>
        <time>2020-03-01T10:49:21Z</time>
      </trkpt>
      <trkpt lat="47.98865" lon="6.90473">
        <ele>934</ele>
        <time>2020-03-01T10:49:27Z</time>
      </trkpt>
      <trkpt lat="47.98867" lon="6.90473">
        <ele>934</ele>
        <time>2020-03-01T10:49:33Z</time>
      </trkpt>
      <trkpt lat="47.98869" lon="6.90473">
        <ele>933</ele>
        <time>2020-03-01T10:49:35Z</time>
      </trkpt>
      <trkpt lat="47.9887" lon="6.90471">
        <ele>931</ele>
        <time>2020-03-01T10:49:44Z</time>
      </trkpt>
      <trkpt lat="47.98871" lon="6.90468">
        <ele>932</ele>
        <time>2020-03-01T10:49:59Z</time>
      </trkpt>
      <trkpt lat="47.98869" lon="6.90468">
        <ele>933</ele>
        <time>2020-03-01T10:50:06Z</time>
      </trkpt>
      <trkpt lat="47.98868" lon="6.90466">
        <ele>934</ele>
        <time>2020-03-01T10:50:09Z</time>
      </trkpt>
      <trkpt lat="47.98866" lon="6.90465">
        <ele>936</ele>
        <time>2020-03-01T10:50:19Z</time>
      </trkpt>
      <trkpt lat="47.98868" lon="6.90464">
        <ele>933</ele>
        <time>2020-03-01T10:50:34Z</time>
      </trkpt>
      <trkpt lat="47.98869" lon="6.90466">
        <ele>932</ele>
        <time>2020-03-01T10:50:36Z</time>
      </trkpt>
      <trkpt lat="47.98867" lon="6.90466">
        <ele>930</ele>
        <time>2020-03-01T10:50:40Z</time>
      </trkpt>
      <trkpt lat="47.98869" lon="6.90464">
        <ele>925</ele>
        <time>2020-03-01T10:50:48Z</time>
      </trkpt>
      <trkpt lat="47.98871" lon="6.90466">
        <ele>925</ele>
        <time>2020-03-01T10:50:51Z</time>
      </trkpt>
      <trkpt lat="47.98872" lon="6.90469">
        <ele>923</ele>
        <time>2020-03-01T10:51:00Z</time>
      </trkpt>
      <trkpt lat="47.98871" lon="6.90468">
        <ele>923</ele>
        <time>2020-03-01T10:51:06Z</time>
      </trkpt>
      <trkpt lat="47.98868" lon="6.90469">
        <ele>923</ele>
        <time>2020-03-01T10:51:14Z</time>
      </trkpt>
      <trkpt lat="47.98866" lon="6.90471">
        <ele>924</ele>
        <time>2020-03-01T10:51:16Z</time>
      </trkpt>
      <trkpt lat="47.98869" lon="6.90472">
        <ele>925</ele>
        <time>2020-03-01T10:51:20Z</time>
      </trkpt>
      <trkpt lat="47.9887" lon="6.90475">
        <ele>925</ele>
        <time>2020-03-01T10:51:22Z</time>
      </trkpt>
      <trkpt lat="47.98869" lon="6.90477">
        <ele>925</ele>
        <time>2020-03-01T10:51:26Z</time>
      </trkpt>
      <trkpt lat="47.98867" lon="6.90474">
        <ele>926</ele>
        <time>2020-03-01T10:51:32Z</time>
      </trkpt>
      <trkpt lat="47.98867" lon="6.9047">
        <ele>926</ele>
        <time>2020-03-01T10:51:34Z</time>
      </trkpt>
      <trkpt lat="47.98869" lon="6.90469">
        <ele>926</ele>
        <time>2020-03-01T10:51:36Z</time>
      </trkpt>
      <trkpt lat="47.98867" lon="6.90465">
        <ele>927</ele>
        <time>2020-03-01T10:51:39Z</time>
      </trkpt>
      <trkpt lat="47.98869" lon="6.90465">
        <ele>929</ele>
        <time>2020-03-01T10:51:54Z</time>
      </trkpt>
      <trkpt lat="47.98867" lon="6.90463">
        <ele>929</ele>
        <time>2020-03-01T10:52:04Z</time>
      </trkpt>
      <trkpt lat="47.9887" lon="6.90463">
        <ele>929</ele>
        <time>2020-03-01T10:52:07Z</time>
      </trkpt>
      <trkpt lat="47.98869" lon="6.90467">
        <ele>928</ele>
        <time>2020-03-01T10:52:10Z</time>
      </trkpt>
      <trkpt lat="47.98867" lon="6.90469">
        <ele>929</ele>
        <time>2020-03-01T10:52:14Z</time>
      </trkpt>
      <trkpt lat="47.98868" lon="6.9047">
        <ele>929</ele>
        <time>2020-03-01T10:52:20Z</time>
      </trkpt>
      <trkpt lat="47.98869" lon="6.90473">
        <ele>929</ele>
        <time>2020-03-01T10:52:23Z</time>
      </trkpt>
      <trkpt lat="47.98867" lon="6.90473">
        <ele>928</ele>
        <time>2020-03-01T10:52:29Z</time>
      </trkpt>
      <trkpt lat="47.98863" lon="6.90474">
        <ele>928</ele>
        <time>2020-03-01T10:52:31Z</time>
      </trkpt>
      <trkpt lat="47.98862" lon="6.90473">
        <ele>928</ele>
        <time>2020-03-01T10:52:33Z</time>
      </trkpt>
      <trkpt lat="47.9886" lon="6.90473">
        <ele>928</ele>
        <time>2020-03-01T10:52:37Z</time>
      </trkpt>
      <trkpt lat="47.98857" lon="6.9047">
        <ele>927</ele>
        <time>2020-03-01T10:52:39Z</time>
      </trkpt>
      <trkpt lat="47.98856" lon="6.90469">
        <ele>927</ele>
        <time>2020-03-01T10:52:41Z</time>
      </trkpt>
      <trkpt lat="47.98859" lon="6.90467">
        <ele>928</ele>
        <time>2020-03-01T10:52:44Z</time>
      </trkpt>
      <trkpt lat="47.98859" lon="6.90471">
        <ele>929</ele>
        <time>2020-03-01T10:52:48Z</time>
      </trkpt>
      <trkpt lat="47.98862" lon="6.90473">
        <ele>926</ele>
        <time>2020-03-01T10:53:01Z</time>
      </trkpt>
      <trkpt lat="47.98863" lon="6.90473">
        <ele>924</ele>
        <time>2020-03-01T10:53:03Z</time>
      </trkpt>
      <trkpt lat="47.98865" lon="6.9047">
        <ele>924</ele>
        <time>2020-03-01T10:53:05Z</time>
      </trkpt>
      <trkpt lat="47.98864" lon="6.90473">
        <ele>921</ele>
        <time>2020-03-01T10:53:12Z</time>
      </trkpt>
      <trkpt lat="47.98866" lon="6.90474">
        <ele>921</ele>
        <time>2020-03-01T10:53:16Z</time>
      </trkpt>
      <trkpt lat="47.98867" lon="6.90472">
        <ele>921</ele>
        <time>2020-03-01T10:53:20Z</time>
      </trkpt>
      <trkpt lat="47.98868" lon="6.90469">
        <ele>921</ele>
        <time>2020-03-01T10:53:24Z</time>
      </trkpt>
      <trkpt lat="47.9887" lon="6.90466">
        <ele>922</ele>
        <time>2020-03-01T10:53:25Z</time>
      </trkpt>
      <trkpt lat="47.98872" lon="6.90463">
        <ele>922</ele>
        <time>2020-03-01T10:53:27Z</time>
      </trkpt>
      <trkpt lat="47.98872" lon="6.90466">
        <ele>922</ele>
        <time>2020-03-01T10:53:30Z</time>
      </trkpt>
      <trkpt lat="47.98871" lon="6.9047">
        <ele>924</ele>
        <time>2020-03-01T10:53:34Z</time>
      </trkpt>
      <trkpt lat="47.9887" lon="6.90473">
        <ele>924</ele>
        <time>2020-03-01T10:53:37Z</time>
      </trkpt>
      <trkpt lat="47.98869" lon="6.90476">
        <ele>924</ele>
        <time>2020-03-01T10:53:39Z</time>
      </trkpt>
      <trkpt lat="47.98869" lon="6.90473">
        <ele>925</ele>
        <time>2020-03-01T10:53:44Z</time>
      </trkpt>
      <trkpt lat="47.98871" lon="6.90474">
        <ele>925</ele>
        <time>2020-03-01T10:53:47Z</time>
      </trkpt>
      <trkpt lat="47.98872" lon="6.90477">
        <ele>925</ele>
        <time>2020-03-01T10:53:49Z</time>
      </trkpt>
      <trkpt lat="47.98872" lon="6.90474">
        <ele>926</ele>
        <time>2020-03-01T10:53:52Z</time>
      </trkpt>
      <trkpt lat="47.9887" lon="6.90474">
        <ele>926</ele>
        <time>2020-03-01T10:53:54Z</time>
      </trkpt>
      <trkpt lat="47.98868" lon="6.90476">
        <ele>926</ele>
        <time>2020-03-01T10:53:57Z</time>
      </trkpt>
      <trkpt lat="47.9887" lon="6.90474">
        <ele>928</ele>
        <time>2020-03-01T10:54:03Z</time>
      </trkpt>
      <trkpt lat="47.98868" lon="6.90474">
        <ele>927</ele>
        <time>2020-03-01T10:54:09Z</time>
      </trkpt>
      <trkpt lat="47.98869" lon="6.90472">
        <ele>929</ele>
        <time>2020-03-01T10:54:13Z</time>
      </trkpt>
      <trkpt lat="47.98868" lon="6.90474">
        <ele>929</ele>
        <time>2020-03-01T10:54:15Z</time>
      </trkpt>
      <trkpt lat="47.98869" lon="6.90472">
        <ele>929</ele>
        <time>2020-03-01T10:54:18Z</time>
      </trkpt>
      <trkpt lat="47.98871" lon="6.90473">
        <ele>930</ele>
        <time>2020-03-01T10:54:22Z</time>
      </trkpt>
      <trkpt lat="47.98869" lon="6.90472">
        <ele>931</ele>
        <time>2020-03-01T10:54:31Z</time>
      </trkpt>
      <trkpt lat="47.98866" lon="6.90471">
        <ele>932</ele>
        <time>2020-03-01T10:54:32Z</time>
      </trkpt>
      <trkpt lat="47.98863" lon="6.9047">
        <ele>932</ele>
        <time>2020-03-01T10:54:33Z</time>
      </trkpt>
      <trkpt lat="47.98861" lon="6.9047">
        <ele>932</ele>
        <time>2020-03-01T10:54:34Z</time>
      </trkpt>
      <trkpt lat="47.98862" lon="6.90465">
        <ele>932</ele>
        <time>2020-03-01T10:54:44Z</time>
      </trkpt>
      <trkpt lat="47.98864" lon="6.90465">
        <ele>931</ele>
        <time>2020-03-01T10:54:46Z</time>
      </trkpt>
      <trkpt lat="47.98863" lon="6.90467">
        <ele>931</ele>
        <time>2020-03-01T10:54:49Z</time>
      </trkpt>
      <trkpt lat="47.98865" lon="6.90468">
        <ele>931</ele>
        <time>2020-03-01T10:54:52Z</time>
      </trkpt>
      <trkpt lat="47.98866" lon="6.90471">
        <ele>931</ele>
        <time>2020-03-01T10:54:55Z</time>
      </trkpt>
      <trkpt lat="47.98868" lon="6.9047">
        <ele>930</ele>
        <time>2020-03-01T10:55:04Z</time>
      </trkpt>
      <trkpt lat="47.9887" lon="6.90467">
        <ele>929</ele>
        <time>2020-03-01T10:55:05Z</time>
      </trkpt>
      <trkpt lat="47.98872" lon="6.90465">
        <ele>928</ele>
        <time>2020-03-01T10:55:07Z</time>
      </trkpt>
      <trkpt lat="47.9887" lon="6.90464">
        <ele>927</ele>
        <time>2020-03-01T10:55:20Z</time>
      </trkpt>
      <trkpt lat="47.9887" lon="6.90467">
        <ele>926</ele>
        <time>2020-03-01T10:55:23Z</time>
      </trkpt>
      <trkpt lat="47.98871" lon="6.90469">
        <ele>926</ele>
        <time>2020-03-01T10:55:27Z</time>
      </trkpt>
      <trkpt lat="47.98873" lon="6.9047">
        <ele>924</ele>
        <time>2020-03-01T10:55:37Z</time>
      </trkpt>
      <trkpt lat="47.9887" lon="6.9047">
        <ele>925</ele>
        <time>2020-03-01T10:55:40Z</time>
      </trkpt>
      <trkpt lat="47.98868" lon="6.9047">
        <ele>924</ele>
        <time>2020-03-01T10:55:41Z</time>
      </trkpt>
      <trkpt lat="47.98866" lon="6.9047">
        <ele>923</ele>
        <time>2020-03-01T10:55:43Z</time>
      </trkpt>
      <trkpt lat="47.98868" lon="6.9047">
        <ele>920</ele>
        <time>2020-03-01T10:55:55Z</time>
      </trkpt>
      <trkpt lat="47.98869" lon="6.90468">
        <ele>923</ele>
        <time>2020-03-01T10:56:31Z</time>
      </trkpt>
      <trkpt lat="47.98868" lon="6.90467">
        <ele>923</ele>
        <time>2020-03-01T10:56:32Z</time>
      </trkpt>
      <trkpt lat="47.98866" lon="6.90467">
        <ele>923</ele>
        <time>2020-03-01T10:56:36Z</time>
      </trkpt>
      <trkpt lat="47.98864" lon="6.90466">
        <ele>923</ele>
        <time>2020-03-01T10:56:41Z</time>
      </trkpt>
      <trkpt lat="47.98866" lon="6.90468">
        <ele>923</ele>
        <time>2020-03-01T10:56:43Z</time>
      </trkpt>
      <trkpt lat="47.98867" lon="6.90465">
        <ele>922</ele>
        <time>2020-03-01T10:56:50Z</time>
      </trkpt>
      <trkpt lat="47.98867" lon="6.90463">
        <ele>922</ele>
        <time>2020-03-01T10:56:52Z</time>
      </trkpt>
      <trkpt lat="47.98866" lon="6.90461">
        <ele>921</ele>
        <time>2020-03-01T10:56:57Z</time>
      </trkpt>
      <trkpt lat="47.98866" lon="6.90464">
        <ele>924</ele>
        <time>2020-03-01T10:57:17Z</time>
      </trkpt>
      <trkpt lat="47.98864" lon="6.90467">
        <ele>925</ele>
        <time>2020-03-01T10:57:19Z</time>
      </trkpt>
      <trkpt lat="47.98865" lon="6.9047">
        <ele>925</ele>
        <time>2020-03-01T10:57:26Z</time>
      </trkpt>
      <trkpt lat="47.98867" lon="6.90471">
        <ele>927</ele>
        <time>2020-03-01T10:57:36Z</time>
      </trkpt>
      <trkpt lat="47.98866" lon="6.90469">
        <ele>926</ele>
        <time>2020-03-01T10:57:50Z</time>
      </trkpt>
      <trkpt lat="47.98867" lon="6.90466">
        <ele>928</ele>
        <time>2020-03-01T10:57:52Z</time>
      </trkpt>
      <trkpt lat="47.98869" lon="6.90466">
        <ele>926</ele>
        <time>2020-03-01T10:57:57Z</time>
      </trkpt>
      <trkpt lat="47.98867" lon="6.90466">
        <ele>926</ele>
        <time>2020-03-01T10:58:00Z</time>
      </trkpt>
      <trkpt lat="47.98869" lon="6.90467">
        <ele>926</ele>
        <time>2020-03-01T10:58:03Z</time>
      </trkpt>
      <trkpt lat="47.98867" lon="6.90468">
        <ele>926</ele>
        <time>2020-03-01T10:58:10Z</time>
      </trkpt>
      <trkpt lat="47.98869" lon="6.90467">
        <ele>927</ele>
        <time>2020-03-01T10:58:12Z</time>
      </trkpt>
      <trkpt lat="47.98867" lon="6.90467">
        <ele>927</ele>
        <time>2020-03-01T10:58:14Z</time>
      </trkpt>
      <trkpt lat="47.98868" lon="6.9047">
        <ele>927</ele>
        <time>2020-03-01T10:58:19Z</time>
      </trkpt>
      <trkpt lat="47.9887" lon="6.90471">
        <ele>927</ele>
        <time>2020-03-01T10:58:21Z</time>
      </trkpt>
      <trkpt lat="47.9887" lon="6.90468">
        <ele>927</ele>
        <time>2020-03-01T10:58:23Z</time>
      </trkpt>
      <trkpt lat="47.98868" lon="6.90469">
        <ele>928</ele>
        <time>2020-03-01T10:58:27Z</time>
      </trkpt>
      <trkpt lat="47.98867" lon="6.90472">
        <ele>928</ele>
        <time>2020-03-01T10:58:30Z</time>
      </trkpt>
      <trkpt lat="47.9887" lon="6.9047">
        <ele>930</ele>
        <time>2020-03-01T10:58:32Z</time>
      </trkpt>
      <trkpt lat="47.98873" lon="6.90471">
        <ele>930</ele>
        <time>2020-03-01T10:58:33Z</time>
      </trkpt>
      <trkpt lat="47.98875" lon="6.90472">
        <ele>931</ele>
        <time>2020-03-01T10:58:35Z</time>
      </trkpt>
      <trkpt lat="47.98878" lon="6.90471">
        <ele>933</ele>
        <time>2020-03-01T10:58:47Z</time>
      </trkpt>
      <trkpt lat="47.98876" lon="6.90471">
        <ele>932</ele>
        <time>2020-03-01T10:58:49Z</time>
      </trkpt>
      <trkpt lat="47.98874" lon="6.9047">
        <ele>931</ele>
        <time>2020-03-01T10:58:55Z</time>
      </trkpt>
      <trkpt lat="47.98874" lon="6.90466">
        <ele>932</ele>
        <time>2020-03-01T10:58:58Z</time>
      </trkpt>
      <trkpt lat="47.98871" lon="6.90466">
        <ele>932</ele>
        <time>2020-03-01T10:59:01Z</time>
      </trkpt>
      <trkpt lat="47.98873" lon="6.90464">
        <ele>932</ele>
        <time>2020-03-01T10:59:04Z</time>
      </trkpt>
      <trkpt lat="47.98874" lon="6.90467">
        <ele>931</ele>
        <time>2020-03-01T10:59:06Z</time>
      </trkpt>
      <trkpt lat="47.98873" lon="6.90465">
        <ele>931</ele>
        <time>2020-03-01T10:59:13Z</time>
      </trkpt>
      <trkpt lat="47.98872" lon="6.90467">
        <ele>931</ele>
        <time>2020-03-01T10:59:17Z</time>
      </trkpt>
      <trkpt lat="47.9887" lon="6.90468">
        <ele>932</ele>
        <time>2020-03-01T10:59:19Z</time>
      </trkpt>
      <trkpt lat="47.9887" lon="6.90465">
        <ele>932</ele>
        <time>2020-03-01T10:59:26Z</time>
      </trkpt>
      <trkpt lat="47.9887" lon="6.90468">
        <ele>933</ele>
        <time>2020-03-01T10:59:27Z</time>
      </trkpt>
      <trkpt lat="47.98868" lon="6.9047">
        <ele>933</ele>
        <time>2020-03-01T10:59:29Z</time>
      </trkpt>
      <trkpt lat="47.98872" lon="6.90471">
        <ele>932</ele>
        <time>2020-03-01T10:59:37Z</time>
      </trkpt>
      <trkpt lat="47.98873" lon="6.90474">
        <ele>932</ele>
        <time>2020-03-01T10:59:38Z</time>
      </trkpt>
      <trkpt lat="47.98873" lon="6.9047">
        <ele>933</ele>
        <time>2020-03-01T10:59:43Z</time>
      </trkpt>
      <trkpt lat="47.9887" lon="6.90469">
        <ele>934</ele>
        <time>2020-03-01T10:59:44Z</time>
      </trkpt>
      <trkpt lat="47.98868" lon="6.9047">
        <ele>933</ele>
        <time>2020-03-01T10:59:45Z</time>
      </trkpt>
      <trkpt lat="47.98866" lon="6.90471">
        <ele>932</ele>
        <time>2020-03-01T10:59:47Z</time>
      </trkpt>
      <trkpt lat="47.98868" lon="6.9047">
        <ele>931</ele>
        <time>2020-03-01T10:59:52Z</time>
      </trkpt>
      <trkpt lat="47.9887" lon="6.9047">
        <ele>931</ele>
        <time>2020-03-01T11:00:07Z</time>
      </trkpt>
      <trkpt lat="47.98873" lon="6.90467">
        <ele>931</ele>
        <time>2020-03-01T11:00:11Z</time>
      </trkpt>
      <trkpt lat="47.98872" lon="6.90464">
        <ele>932</ele>
        <time>2020-03-01T11:00:15Z</time>
      </trkpt>
      <trkpt lat="47.98872" lon="6.90467">
        <ele>932</ele>
        <time>2020-03-01T11:00:25Z</time>
      </trkpt>
      <trkpt lat="47.98872" lon="6.9047">
        <ele>931</ele>
        <time>2020-03-01T11:00:30Z</time>
      </trkpt>
      <trkpt lat="47.98869" lon="6.9047">
        <ele>932</ele>
        <time>2020-03-01T11:00:35Z</time>
      </trkpt>
      <trkpt lat="47.98868" lon="6.90467">
        <ele>933</ele>
        <time>2020-03-01T11:00:38Z</time>
      </trkpt>
      <trkpt lat="47.98866" lon="6.90468">
        <ele>932</ele>
        <time>2020-03-01T11:00:41Z</time>
      </trkpt>
      <trkpt lat="47.98865" lon="6.90467">
        <ele>930</ele>
        <time>2020-03-01T11:00:51Z</time>
      </trkpt>
      <trkpt lat="47.98868" lon="6.90468">
        <ele>931</ele>
        <time>2020-03-01T11:01:03Z</time>
      </trkpt>
      <trkpt lat="47.98866" lon="6.90468">
        <ele>933</ele>
        <time>2020-03-01T11:01:09Z</time>
      </trkpt>
      <trkpt lat="47.98864" lon="6.90467">
        <ele>932</ele>
        <time>2020-03-01T11:01:14Z</time>
      </trkpt>
      <trkpt lat="47.98862" lon="6.90465">
        <ele>932</ele>
        <time>2020-03-01T11:01:16Z</time>
      </trkpt>
      <trkpt lat="47.9886" lon="6.90464">
        <ele>933</ele>
        <time>2020-03-01T11:01:17Z</time>
      </trkpt>
      <trkpt lat="47.98858" lon="6.90464">
        <ele>933</ele>
        <time>2020-03-01T11:01:18Z</time>
      </trkpt>
      <trkpt lat="47.98859" lon="6.90466">
        <ele>931</ele>
        <time>2020-03-01T11:01:21Z</time>
      </trkpt>
      <trkpt lat="47.98862" lon="6.90468">
        <ele>931</ele>
        <time>2020-03-01T11:01:23Z</time>
      </trkpt>
      <trkpt lat="47.98862" lon="6.90471">
        <ele>931</ele>
        <time>2020-03-01T11:01:25Z</time>
      </trkpt>
      <trkpt lat="47.98864" lon="6.90471">
        <ele>931</ele>
        <time>2020-03-01T11:01:29Z</time>
      </trkpt>
      <trkpt lat="47.98863" lon="6.90469">
        <ele>931</ele>
        <time>2020-03-01T11:01:32Z</time>
      </trkpt>
      <trkpt lat="47.98861" lon="6.9047">
        <ele>931</ele>
        <time>2020-03-01T11:01:33Z</time>
      </trkpt>
      <trkpt lat="47.98859" lon="6.90472">
        <ele>930</ele>
        <time>2020-03-01T11:01:36Z</time>
      </trkpt>
      <trkpt lat="47.98862" lon="6.90473">
        <ele>929</ele>
        <time>2020-03-01T11:01:43Z</time>
      </trkpt>
      <trkpt lat="47.98864" lon="6.90472">
        <ele>930</ele>
        <time>2020-03-01T11:01:48Z</time>
      </trkpt>
      <trkpt lat="47.98866" lon="6.90472">
        <ele>932</ele>
        <time>2020-03-01T11:01:53Z</time>
      </trkpt>
      <trkpt lat="47.98868" lon="6.90472">
        <ele>932</ele>
        <time>2020-03-01T11:02:15Z</time>
      </trkpt>
      <trkpt lat="47.9887" lon="6.9047">
        <ele>935</ele>
        <time>2020-03-01T11:02:30Z</time>
      </trkpt>
      <trkpt lat="47.98868" lon="6.90469">
        <ele>936</ele>
        <time>2020-03-01T11:02:33Z</time>
      </trkpt>
      <trkpt lat="47.98866" lon="6.90471">
        <ele>937</ele>
        <time>2020-03-01T11:02:38Z</time>
      </trkpt>
      <trkpt lat="47.98868" lon="6.90469">
        <ele>936</ele>
        <time>2020-03-01T11:02:43Z</time>
      </trkpt>
      <trkpt lat="47.9887" lon="6.90465">
        <ele>936</ele>
        <time>2020-03-01T11:02:45Z</time>
      </trkpt>
      <trkpt lat="47.98872" lon="6.90466">
        <ele>932</ele>
        <time>2020-03-01T11:02:50Z</time>
      </trkpt>
      <trkpt lat="47.9887" lon="6.90467">
        <ele>934</ele>
        <time>2020-03-01T11:02:56Z</time>
      </trkpt>
      <trkpt lat="47.98868" lon="6.90468">
        <ele>934</ele>
        <time>2020-03-01T11:03:01Z</time>
      </trkpt>
      <trkpt lat="47.98869" lon="6.90466">
        <ele>935</ele>
        <time>2020-03-01T11:03:04Z</time>
      </trkpt>
      <trkpt lat="47.98872" lon="6.90469">
        <ele>934</ele>
        <time>2020-03-01T11:03:06Z</time>
      </trkpt>
      <trkpt lat="47.98869" lon="6.9047">
        <ele>934</ele>
        <time>2020-03-01T11:03:09Z</time>
      </trkpt>
      <trkpt lat="47.9887" lon="6.90474">
        <ele>934</ele>
        <time>2020-03-01T11:03:29Z</time>
      </trkpt>
      <trkpt lat="47.98873" lon="6.90473">
        <ele>934</ele>
        <time>2020-03-01T11:03:31Z</time>
      </trkpt>
      <trkpt lat="47.98875" lon="6.90475">
        <ele>933</ele>
        <time>2020-03-01T11:03:32Z</time>
      </trkpt>
      <trkpt lat="47.98873" lon="6.9048">
        <ele>931</ele>
        <time>2020-03-01T11:03:34Z</time>
      </trkpt>
      <trkpt lat="47.98869" lon="6.90482">
        <ele>932</ele>
        <time>2020-03-01T11:03:36Z</time>
      </trkpt>
      <trkpt lat="47.98866" lon="6.90483">
        <ele>932</ele>
        <time>2020-03-01T11:03:37Z</time>
      </trkpt>
      <trkpt lat="47.98865" lon="6.90485">
        <ele>931</ele>
        <time>2020-03-01T11:03:38Z</time>
      </trkpt>
      <trkpt lat="47.98864" lon="6.90487">
        <ele>930</ele>
        <time>2020-03-01T11:03:40Z</time>
      </trkpt>
      <trkpt lat="47.98864" lon="6.9049">
        <ele>931</ele>
        <time>2020-03-01T11:03:42Z</time>
      </trkpt>
      <trkpt lat="47.98866" lon="6.90495">
        <ele>931</ele>
        <time>2020-03-01T11:03:47Z</time>
      </trkpt>
      <trkpt lat="47.98868" lon="6.90497">
        <ele>930</ele>
        <time>2020-03-01T11:03:50Z</time>
      </trkpt>
      <trkpt lat="47.9887" lon="6.90499">
        <ele>930</ele>
        <time>2020-03-01T11:04:12Z</time>
      </trkpt>
      <trkpt lat="47.98872" lon="6.905">
        <ele>931</ele>
        <time>2020-03-01T11:04:13Z</time>
      </trkpt>
      <trkpt lat="47.98874" lon="6.90501">
        <ele>931</ele>
        <time>2020-03-01T11:04:14Z</time>
      </trkpt>
      <trkpt lat="47.98877" lon="6.90503">
        <ele>930</ele>
        <time>2020-03-01T11:04:25Z</time>
      </trkpt>
      <trkpt lat="47.9888" lon="6.90504">
        <ele>930</ele>
        <time>2020-03-01T11:04:27Z</time>
      </trkpt>
      <trkpt lat="47.98883" lon="6.90507">
        <ele>930</ele>
        <time>2020-03-01T11:04:31Z</time>
      </trkpt>
      <trkpt lat="47.98886" lon="6.90509">
        <ele>930</ele>
        <time>2020-03-01T11:04:33Z</time>
      </trkpt>
      <trkpt lat="47.98888" lon="6.90511">
        <ele>930</ele>
        <time>2020-03-01T11:04:37Z</time>
      </trkpt>
      <trkpt lat="47.9889" lon="6.90512">
        <ele>930</ele>
        <time>2020-03-01T11:04:38Z</time>
      </trkpt>
      <trkpt lat="47.98892" lon="6.90514">
        <ele>930</ele>
        <time>2020-03-01T11:04:39Z</time>
      </trkpt>
      <trkpt lat="47.98894" lon="6.90516">
        <ele>929</ele>
        <time>2020-03-01T11:04:41Z</time>
      </trkpt>
      <trkpt lat="47.98896" lon="6.90517">
        <ele>930</ele>
        <time>2020-03-01T11:04:45Z</time>
      </trkpt>
      <trkpt lat="47.98899" lon="6.90518">
        <ele>929</ele>
        <time>2020-03-01T11:04:47Z</time>
      </trkpt>
      <trkpt lat="47.98901" lon="6.9052">
        <ele>929</ele>
        <time>2020-03-01T11:04:51Z</time>
      </trkpt>
      <trkpt lat="47.98903" lon="6.90519">
        <ele>930</ele>
        <time>2020-03-01T11:04:53Z</time>
      </trkpt>
      <trkpt lat="47.98906" lon="6.9052">
        <ele>929</ele>
        <time>2020-03-01T11:05:11Z</time>
      </trkpt>
      <trkpt lat="47.98908" lon="6.90522">
        <ele>928</ele>
        <time>2020-03-01T11:05:13Z</time>
      </trkpt>
      <trkpt lat="47.98912" lon="6.90523">
        <ele>929</ele>
        <time>2020-03-01T11:05:17Z</time>
      </trkpt>
      <trkpt lat="47.98914" lon="6.90525">
        <ele>929</ele>
        <time>2020-03-01T11:05:19Z</time>
      </trkpt>
      <trkpt lat="47.98916" lon="6.90527">
        <ele>929</ele>
        <time>2020-03-01T11:05:23Z</time>
      </trkpt>
      <trkpt lat="47.98918" lon="6.90528">
        <ele>928</ele>
        <time>2020-03-01T11:05:26Z</time>
      </trkpt>
      <trkpt lat="47.9892" lon="6.9053">
        <ele>926</ele>
        <time>2020-03-01T11:05:30Z</time>
      </trkpt>
      <trkpt lat="47.98922" lon="6.90533">
        <ele>926</ele>
        <time>2020-03-01T11:05:33Z</time>
      </trkpt>
      <trkpt lat="47.98924" lon="6.90534">
        <ele>926</ele>
        <time>2020-03-01T11:05:36Z</time>
      </trkpt>
      <trkpt lat="47.98928" lon="6.90535">
        <ele>928</ele>
        <time>2020-03-01T11:05:38Z</time>
      </trkpt>
      <trkpt lat="47.9893" lon="6.90536">
        <ele>929</ele>
        <time>2020-03-01T11:05:40Z</time>
      </trkpt>
      <trkpt lat="47.98933" lon="6.90535">
        <ele>928</ele>
        <time>2020-03-01T11:05:42Z</time>
      </trkpt>
      <trkpt lat="47.98934" lon="6.90536">
        <ele>928</ele>
        <time>2020-03-01T11:05:45Z</time>
      </trkpt>
      <trkpt lat="47.98936" lon="6.90538">
        <ele>928</ele>
        <time>2020-03-01T11:05:47Z</time>
      </trkpt>
      <trkpt lat="47.98938" lon="6.90539">
        <ele>929</ele>
        <time>2020-03-01T11:05:53Z</time>
      </trkpt>
      <trkpt lat="47.9894" lon="6.90541">
        <ele>929</ele>
        <time>2020-03-01T11:05:55Z</time>
      </trkpt>
      <trkpt lat="47.98942" lon="6.90542">
        <ele>928</ele>
        <time>2020-03-01T11:05:57Z</time>
      </trkpt>
      <trkpt lat="47.98944" lon="6.90542">
        <ele>928</ele>
        <time>2020-03-01T11:06:00Z</time>
      </trkpt>
      <trkpt lat="47.98946" lon="6.90543">
        <ele>928</ele>
        <time>2020-03-01T11:06:03Z</time>
      </trkpt>
      <trkpt lat="47.98949" lon="6.90543">
        <ele>927</ele>
        <time>2020-03-01T11:06:06Z</time>
      </trkpt>
      <trkpt lat="47.9895" lon="6.90546">
        <ele>927</ele>
        <time>2020-03-01T11:06:12Z</time>
      </trkpt>
      <trkpt lat="47.98952" lon="6.90544">
        <ele>927</ele>
        <time>2020-03-01T11:06:14Z</time>
      </trkpt>
      <trkpt lat="47.98953" lon="6.90546">
        <ele>927</ele>
        <time>2020-03-01T11:06:17Z</time>
      </trkpt>
      <trkpt lat="47.98956" lon="6.90546">
        <ele>927</ele>
        <time>2020-03-01T11:06:22Z</time>
      </trkpt>
      <trkpt lat="47.98958" lon="6.90547">
        <ele>927</ele>
        <time>2020-03-01T11:06:23Z</time>
      </trkpt>
      <trkpt lat="47.9896" lon="6.90546">
        <ele>927</ele>
        <time>2020-03-01T11:06:24Z</time>
      </trkpt>
      <trkpt lat="47.98962" lon="6.90546">
        <ele>928</ele>
        <time>2020-03-01T11:06:26Z</time>
      </trkpt>
      <trkpt lat="47.98963" lon="6.90549">
        <ele>927</ele>
        <time>2020-03-01T11:06:28Z</time>
      </trkpt>
      <trkpt lat="47.98965" lon="6.90552">
        <ele>926</ele>
        <time>2020-03-01T11:06:32Z</time>
      </trkpt>
      <trkpt lat="47.98966" lon="6.90552">
        <ele>925</ele>
        <time>2020-03-01T11:06:41Z</time>
      </trkpt>
      <trkpt lat="47.98968" lon="6.90555">
        <ele>925</ele>
        <time>2020-03-01T11:06:43Z</time>
      </trkpt>
      <trkpt lat="47.9897" lon="6.90556">
        <ele>925</ele>
        <time>2020-03-01T11:06:45Z</time>
      </trkpt>
      <trkpt lat="47.98971" lon="6.90553">
        <ele>925</ele>
        <time>2020-03-01T11:06:52Z</time>
      </trkpt>
      <trkpt lat="47.98974" lon="6.90551">
        <ele>925</ele>
        <time>2020-03-01T11:06:55Z</time>
      </trkpt>
      <trkpt lat="47.98976" lon="6.90553">
        <ele>925</ele>
        <time>2020-03-01T11:06:59Z</time>
      </trkpt>
      <trkpt lat="47.98977" lon="6.90555">
        <ele>924</ele>
        <time>2020-03-01T11:07:01Z</time>
      </trkpt>
      <trkpt lat="47.98979" lon="6.90555">
        <ele>924</ele>
        <time>2020-03-01T11:07:04Z</time>
      </trkpt>
      <trkpt lat="47.98981" lon="6.90558">
        <ele>924</ele>
        <time>2020-03-01T11:07:06Z</time>
      </trkpt>
      <trkpt lat="47.98982" lon="6.90561">
        <ele>924</ele>
        <time>2020-03-01T11:07:08Z</time>
      </trkpt>
      <trkpt lat="47.98985" lon="6.90561">
        <ele>924</ele>
        <time>2020-03-01T11:07:10Z</time>
      </trkpt>
      <trkpt lat="47.98987" lon="6.90561">
        <ele>924</ele>
        <time>2020-03-01T11:07:11Z</time>
      </trkpt>
      <trkpt lat="47.98989" lon="6.90561">
        <ele>924</ele>
        <time>2020-03-01T11:07:12Z</time>
      </trkpt>
      <trkpt lat="47.98991" lon="6.90564">
        <ele>924</ele>
        <time>2020-03-01T11:07:13Z</time>
      </trkpt>
      <trkpt lat="47.98993" lon="6.90566">
        <ele>924</ele>
        <time>2020-03-01T11:07:15Z</time>
      </trkpt>
      <trkpt lat="47.98995" lon="6.90564">
        <ele>923</ele>
        <time>2020-03-01T11:07:21Z</time>
      </trkpt>
      <trkpt lat="47.98995" lon="6.90561">
        <ele>923</ele>
        <time>2020-03-01T11:07:22Z</time>
      </trkpt>
      <trkpt lat="47.98997" lon="6.90562">
        <ele>923</ele>
        <time>2020-03-01T11:07:26Z</time>
      </trkpt>
      <trkpt lat="47.99001" lon="6.90562">
        <ele>924</ele>
        <time>2020-03-01T11:07:28Z</time>
      </trkpt>
      <trkpt lat="47.99003" lon="6.90564">
        <ele>923</ele>
        <time>2020-03-01T11:07:29Z</time>
      </trkpt>
      <trkpt lat="47.99005" lon="6.90564">
        <ele>923</ele>
        <time>2020-03-01T11:07:31Z</time>
      </trkpt>
      <trkpt lat="47.99007" lon="6.90566">
        <ele>923</ele>
        <time>2020-03-01T11:07:33Z</time>
      </trkpt>
      <trkpt lat="47.99007" lon="6.90568">
        <ele>923</ele>
        <time>2020-03-01T11:07:35Z</time>
      </trkpt>
      <trkpt lat="47.99005" lon="6.9057">
        <ele>922</ele>
        <time>2020-03-01T11:07:37Z</time>
      </trkpt>
      <trkpt lat="47.99008" lon="6.90571">
        <ele>922</ele>
        <time>2020-03-01T11:07:40Z</time>
      </trkpt>
      <trkpt lat="47.99011" lon="6.90573">
        <ele>922</ele>
        <time>2020-03-01T11:07:42Z</time>
      </trkpt>
      <trkpt lat="47.99012" lon="6.90575">
        <ele>921</ele>
        <time>2020-03-01T11:07:44Z</time>
      </trkpt>
      <trkpt lat="47.99015" lon="6.90576">
        <ele>921</ele>
        <time>2020-03-01T11:07:47Z</time>
      </trkpt>
      <trkpt lat="47.99016" lon="6.90579">
        <ele>921</ele>
        <time>2020-03-01T11:07:51Z</time>
      </trkpt>
      <trkpt lat="47.99018" lon="6.90582">
        <ele>921</ele>
        <time>2020-03-01T11:07:53Z</time>
      </trkpt>
      <trkpt lat="47.99021" lon="6.90581">
        <ele>921</ele>
        <time>2020-03-01T11:07:55Z</time>
      </trkpt>
      <trkpt lat="47.99021" lon="6.90577">
        <ele>921</ele>
        <time>2020-03-01T11:07:57Z</time>
      </trkpt>
      <trkpt lat="47.99021" lon="6.90573">
        <ele>921</ele>
        <time>2020-03-01T11:07:58Z</time>
      </trkpt>
      <trkpt lat="47.99021" lon="6.90569">
        <ele>920</ele>
        <time>2020-03-01T11:08:00Z</time>
      </trkpt>
      <trkpt lat="47.99023" lon="6.90571">
        <ele>920</ele>
        <time>2020-03-01T11:08:01Z</time>
      </trkpt>
      <trkpt lat="47.99025" lon="6.90571">
        <ele>920</ele>
        <time>2020-03-01T11:08:03Z</time>
      </trkpt>
      <trkpt lat="47.99026" lon="6.90572">
        <ele>921</ele>
        <time>2020-03-01T11:08:05Z</time>
      </trkpt>
      <trkpt lat="47.99023" lon="6.90568">
        <ele>922</ele>
        <time>2020-03-01T11:08:10Z</time>
      </trkpt>
      <trkpt lat="47.99027" lon="6.90571">
        <ele>921</ele>
        <time>2020-03-01T11:08:13Z</time>
      </trkpt>
      <trkpt lat="47.99029" lon="6.90573">
        <ele>921</ele>
        <time>2020-03-01T11:08:16Z</time>
      </trkpt>
      <trkpt lat="47.9903" lon="6.90575">
        <ele>921</ele>
        <time>2020-03-01T11:08:17Z</time>
      </trkpt>
      <trkpt lat="47.99032" lon="6.90577">
        <ele>921</ele>
        <time>2020-03-01T11:08:21Z</time>
      </trkpt>
      <trkpt lat="47.99033" lon="6.9058">
        <ele>920</ele>
        <time>2020-03-01T11:08:23Z</time>
      </trkpt>
      <trkpt lat="47.99036" lon="6.90579">
        <ele>920</ele>
        <time>2020-03-01T11:08:26Z</time>
      </trkpt>
      <trkpt lat="47.99038" lon="6.90577">
        <ele>920</ele>
        <time>2020-03-01T11:08:28Z</time>
      </trkpt>
      <trkpt lat="47.99041" lon="6.90578">
        <ele>920</ele>
        <time>2020-03-01T11:08:30Z</time>
      </trkpt>
      <trkpt lat="47.99045" lon="6.90579">
        <ele>920</ele>
        <time>2020-03-01T11:08:36Z</time>
      </trkpt>
      <trkpt lat="47.99047" lon="6.9058">
        <ele>920</ele>
        <time>2020-03-01T11:08:38Z</time>
      </trkpt>
      <trkpt lat="47.99049" lon="6.90579">
        <ele>920</ele>
        <time>2020-03-01T11:08:42Z</time>
      </trkpt>
      <trkpt lat="47.99052" lon="6.9058">
        <ele>920</ele>
        <time>2020-03-01T11:08:44Z</time>
      </trkpt>
      <trkpt lat="47.99055" lon="6.90584">
        <ele>920</ele>
        <time>2020-03-01T11:08:46Z</time>
      </trkpt>
      <trkpt lat="47.99057" lon="6.90584">
        <ele>922</ele>
        <time>2020-03-01T11:08:48Z</time>
      </trkpt>
      <trkpt lat="47.99059" lon="6.90587">
        <ele>924</ele>
        <time>2020-03-01T11:08:50Z</time>
      </trkpt>
      <trkpt lat="47.99061" lon="6.90587">
        <ele>923</ele>
        <time>2020-03-01T11:08:52Z</time>
      </trkpt>
      <trkpt lat="47.99063" lon="6.90587">
        <ele>924</ele>
        <time>2020-03-01T11:08:54Z</time>
      </trkpt>
      <trkpt lat="47.99066" lon="6.90587">
        <ele>924</ele>
        <time>2020-03-01T11:08:58Z</time>
      </trkpt>
      <trkpt lat="47.99068" lon="6.90588">
        <ele>924</ele>
        <time>2020-03-01T11:09:01Z</time>
      </trkpt>
      <trkpt lat="47.9907" lon="6.90589">
        <ele>924</ele>
        <time>2020-03-01T11:09:05Z</time>
      </trkpt>
      <trkpt lat="47.99072" lon="6.90591">
        <ele>924</ele>
        <time>2020-03-01T11:09:12Z</time>
      </trkpt>
      <trkpt lat="47.99075" lon="6.90592">
        <ele>924</ele>
        <time>2020-03-01T11:09:14Z</time>
      </trkpt>
      <trkpt lat="47.99078" lon="6.90594">
        <ele>924</ele>
        <time>2020-03-01T11:09:23Z</time>
      </trkpt>
      <trkpt lat="47.9908" lon="6.90597">
        <ele>923</ele>
        <time>2020-03-01T11:09:25Z</time>
      </trkpt>
      <trkpt lat="47.99082" lon="6.90599">
        <ele>923</ele>
        <time>2020-03-01T11:09:27Z</time>
      </trkpt>
      <trkpt lat="47.99084" lon="6.906">
        <ele>923</ele>
        <time>2020-03-01T11:09:30Z</time>
      </trkpt>
      <trkpt lat="47.99087" lon="6.906">
        <ele>922</ele>
        <time>2020-03-01T11:09:32Z</time>
      </trkpt>
      <trkpt lat="47.9909" lon="6.90602">
        <ele>921</ele>
        <time>2020-03-01T11:09:34Z</time>
      </trkpt>
      <trkpt lat="47.99094" lon="6.90603">
        <ele>921</ele>
        <time>2020-03-01T11:09:43Z</time>
      </trkpt>
      <trkpt lat="47.99097" lon="6.90602">
        <ele>921</ele>
        <time>2020-03-01T11:09:45Z</time>
      </trkpt>
      <trkpt lat="47.99099" lon="6.90603">
        <ele>921</ele>
        <time>2020-03-01T11:09:47Z</time>
      </trkpt>
      <trkpt lat="47.99101" lon="6.90602">
        <ele>920</ele>
        <time>2020-03-01T11:09:49Z</time>
      </trkpt>
      <trkpt lat="47.99103" lon="6.90603">
        <ele>920</ele>
        <time>2020-03-01T11:10:02Z</time>
      </trkpt>
      <trkpt lat="47.99105" lon="6.90605">
        <ele>920</ele>
        <time>2020-03-01T11:10:03Z</time>
      </trkpt>
      <trkpt lat="47.99106" lon="6.90606">
        <ele>920</ele>
        <time>2020-03-01T11:10:04Z</time>
      </trkpt>
      <trkpt lat="47.99108" lon="6.90607">
        <ele>919</ele>
        <time>2020-03-01T11:10:05Z</time>
      </trkpt>
      <trkpt lat="47.9911" lon="6.90608">
        <ele>919</ele>
        <time>2020-03-01T11:10:06Z</time>
      </trkpt>
      <trkpt lat="47.99112" lon="6.90609">
        <ele>919</ele>
        <time>2020-03-01T11:10:07Z</time>
      </trkpt>
      <trkpt lat="47.99114" lon="6.9061">
        <ele>918</ele>
        <time>2020-03-01T11:10:08Z</time>
      </trkpt>
      <trkpt lat="47.99117" lon="6.90609">
        <ele>917</ele>
        <time>2020-03-01T11:10:13Z</time>
      </trkpt>
      <trkpt lat="47.99119" lon="6.90609">
        <ele>916</ele>
        <time>2020-03-01T11:10:15Z</time>
      </trkpt>
      <trkpt lat="47.99123" lon="6.90609">
        <ele>915</ele>
        <time>2020-03-01T11:10:19Z</time>
      </trkpt>
      <trkpt lat="47.99125" lon="6.90609">
        <ele>915</ele>
        <time>2020-03-01T11:10:21Z</time>
      </trkpt>
      <trkpt lat="47.9913" lon="6.90612">
        <ele>914</ele>
        <time>2020-03-01T11:10:25Z</time>
      </trkpt>
      <trkpt lat="47.99133" lon="6.90613">
        <ele>913</ele>
        <time>2020-03-01T11:10:27Z</time>
      </trkpt>
      <trkpt lat="47.99136" lon="6.90614">
        <ele>913</ele>
        <time>2020-03-01T11:10:31Z</time>
      </trkpt>
      <trkpt lat="47.99138" lon="6.90616">
        <ele>914</ele>
        <time>2020-03-01T11:10:33Z</time>
      </trkpt>
      <trkpt lat="47.99141" lon="6.90618">
        <ele>914</ele>
        <time>2020-03-01T11:10:37Z</time>
      </trkpt>
      <trkpt lat="47.99144" lon="6.9062">
        <ele>912</ele>
        <time>2020-03-01T11:10:39Z</time>
      </trkpt>
      <trkpt lat="47.99148" lon="6.90621">
        <ele>912</ele>
        <time>2020-03-01T11:10:43Z</time>
      </trkpt>
      <trkpt lat="47.9915" lon="6.90621">
        <ele>912</ele>
        <time>2020-03-01T11:10:45Z</time>
      </trkpt>
      <trkpt lat="47.99153" lon="6.90621">
        <ele>912</ele>
        <time>2020-03-01T11:10:49Z</time>
      </trkpt>
      <trkpt lat="47.99156" lon="6.90623">
        <ele>912</ele>
        <time>2020-03-01T11:10:52Z</time>
      </trkpt>
      <trkpt lat="47.99159" lon="6.90623">
        <ele>912</ele>
        <time>2020-03-01T11:10:55Z</time>
      </trkpt>
      <trkpt lat="47.99161" lon="6.90624">
        <ele>911</ele>
        <time>2020-03-01T11:10:58Z</time>
      </trkpt>
      <trkpt lat="47.99163" lon="6.90625">
        <ele>911</ele>
        <time>2020-03-01T11:11:01Z</time>
      </trkpt>
      <trkpt lat="47.99166" lon="6.90625">
        <ele>912</ele>
        <time>2020-03-01T11:11:03Z</time>
      </trkpt>
      <trkpt lat="47.99169" lon="6.90626">
        <ele>911</ele>
        <time>2020-03-01T11:11:07Z</time>
      </trkpt>
      <trkpt lat="47.99172" lon="6.90626">
        <ele>911</ele>
        <time>2020-03-01T11:11:10Z</time>
      </trkpt>
      <trkpt lat="47.99174" lon="6.90628">
        <ele>917</ele>
        <time>2020-03-01T11:11:15Z</time>
      </trkpt>
      <trkpt lat="47.99177" lon="6.90628">
        <ele>917</ele>
        <time>2020-03-01T11:11:17Z</time>
      </trkpt>
      <trkpt lat="47.99179" lon="6.90628">
        <ele>916</ele>
        <time>2020-03-01T11:11:18Z</time>
      </trkpt>
      <trkpt lat="47.99181" lon="6.90628">
        <ele>916</ele>
        <time>2020-03-01T11:11:20Z</time>
      </trkpt>
      <trkpt lat="47.99184" lon="6.90627">
        <ele>916</ele>
        <time>2020-03-01T11:11:23Z</time>
      </trkpt>
      <trkpt lat="47.99186" lon="6.90627">
        <ele>917</ele>
        <time>2020-03-01T11:11:25Z</time>
      </trkpt>
      <trkpt lat="47.99189" lon="6.90628">
        <ele>916</ele>
        <time>2020-03-01T11:11:27Z</time>
      </trkpt>
      <trkpt lat="47.99191" lon="6.90629">
        <ele>917</ele>
        <time>2020-03-01T11:11:30Z</time>
      </trkpt>
      <trkpt lat="47.99193" lon="6.90629">
        <ele>917</ele>
        <time>2020-03-01T11:11:33Z</time>
      </trkpt>
      <trkpt lat="47.99196" lon="6.9063">
        <ele>917</ele>
        <time>2020-03-01T11:11:35Z</time>
      </trkpt>
      <trkpt lat="47.99198" lon="6.90631">
        <ele>916</ele>
        <time>2020-03-01T11:11:40Z</time>
      </trkpt>
      <trkpt lat="47.99201" lon="6.90631">
        <ele>917</ele>
        <time>2020-03-01T11:11:42Z</time>
      </trkpt>
      <trkpt lat="47.99203" lon="6.90631">
        <ele>917</ele>
        <time>2020-03-01T11:11:44Z</time>
      </trkpt>
      <trkpt lat="47.99205" lon="6.90631">
        <ele>916</ele>
        <time>2020-03-01T11:11:47Z</time>
      </trkpt>
      <trkpt lat="47.99207" lon="6.90631">
        <ele>917</ele>
        <time>2020-03-01T11:11:52Z</time>
      </trkpt>
      <trkpt lat="47.99211" lon="6.90631">
        <ele>919</ele>
        <time>2020-03-01T11:11:56Z</time>
      </trkpt>
      <trkpt lat="47.99213" lon="6.9063">
        <ele>919</ele>
        <time>2020-03-01T11:11:57Z</time>
      </trkpt>
      <trkpt lat="47.99215" lon="6.90631">
        <ele>919</ele>
        <time>2020-03-01T11:11:58Z</time>
      </trkpt>
      <trkpt lat="47.99217" lon="6.90632">
        <ele>919</ele>
        <time>2020-03-01T11:11:59Z</time>
      </trkpt>
      <trkpt lat="47.9922" lon="6.90632">
        <ele>920</ele>
        <time>2020-03-01T11:12:10Z</time>
      </trkpt>
      <trkpt lat="47.99223" lon="6.90633">
        <ele>920</ele>
        <time>2020-03-01T11:12:12Z</time>
      </trkpt>
      <trkpt lat="47.99226" lon="6.90634">
        <ele>919</ele>
        <time>2020-03-01T11:12:14Z</time>
      </trkpt>
      <trkpt lat="47.99229" lon="6.90635">
        <ele>919</ele>
        <time>2020-03-01T11:12:23Z</time>
      </trkpt>
      <trkpt lat="47.99232" lon="6.90635">
        <ele>918</ele>
        <time>2020-03-01T11:12:25Z</time>
      </trkpt>
      <trkpt lat="47.99235" lon="6.90635">
        <ele>917</ele>
        <time>2020-03-01T11:12:27Z</time>
      </trkpt>
      <trkpt lat="47.99238" lon="6.90634">
        <ele>916</ele>
        <time>2020-03-01T11:12:36Z</time>
      </trkpt>
      <trkpt lat="47.99241" lon="6.90634">
        <ele>916</ele>
        <time>2020-03-01T11:12:38Z</time>
      </trkpt>
      <trkpt lat="47.99244" lon="6.90632">
        <ele>916</ele>
        <time>2020-03-01T11:12:42Z</time>
      </trkpt>
      <trkpt lat="47.99246" lon="6.90631">
        <ele>917</ele>
        <time>2020-03-01T11:12:43Z</time>
      </trkpt>
      <trkpt lat="47.99249" lon="6.9063">
        <ele>918</ele>
        <time>2020-03-01T11:12:45Z</time>
      </trkpt>
      <trkpt lat="47.99251" lon="6.9063">
        <ele>918</ele>
        <time>2020-03-01T11:12:47Z</time>
      </trkpt>
      <trkpt lat="47.99256" lon="6.90631">
        <ele>918</ele>
        <time>2020-03-01T11:12:51Z</time>
      </trkpt>
      <trkpt lat="47.99258" lon="6.90629">
        <ele>919</ele>
        <time>2020-03-01T11:12:52Z</time>
      </trkpt>
      <trkpt lat="47.99262" lon="6.90629">
        <ele>918</ele>
        <time>2020-03-01T11:12:54Z</time>
      </trkpt>
      <trkpt lat="47.99264" lon="6.90628">
        <ele>918</ele>
        <time>2020-03-01T11:12:55Z</time>
      </trkpt>
      <trkpt lat="47.99266" lon="6.90627">
        <ele>919</ele>
        <time>2020-03-01T11:12:56Z</time>
      </trkpt>
      <trkpt lat="47.99268" lon="6.90625">
        <ele>920</ele>
        <time>2020-03-01T11:12:58Z</time>
      </trkpt>
      <trkpt lat="47.99272" lon="6.90624">
        <ele>920</ele>
        <time>2020-03-01T11:13:00Z</time>
      </trkpt>
      <trkpt lat="47.99273" lon="6.90623">
        <ele>921</ele>
        <time>2020-03-01T11:13:01Z</time>
      </trkpt>
      <trkpt lat="47.99276" lon="6.90622">
        <ele>921</ele>
        <time>2020-03-01T11:13:13Z</time>
      </trkpt>
      <trkpt lat="47.99279" lon="6.90621">
        <ele>923</ele>
        <time>2020-03-01T11:13:14Z</time>
      </trkpt>
      <trkpt lat="47.99281" lon="6.9062">
        <ele>924</ele>
        <time>2020-03-01T11:13:15Z</time>
      </trkpt>
      <trkpt lat="47.99284" lon="6.90619">
        <ele>923</ele>
        <time>2020-03-01T11:13:17Z</time>
      </trkpt>
      <trkpt lat="47.99288" lon="6.90617">
        <ele>923</ele>
        <time>2020-03-01T11:13:19Z</time>
      </trkpt>
      <trkpt lat="47.9929" lon="6.90618">
        <ele>923</ele>
        <time>2020-03-01T11:13:38Z</time>
      </trkpt>
      <trkpt lat="47.99293" lon="6.90618">
        <ele>923</ele>
        <time>2020-03-01T11:13:40Z</time>
      </trkpt>
      <trkpt lat="47.99295" lon="6.90618">
        <ele>923</ele>
        <time>2020-03-01T11:13:41Z</time>
      </trkpt>
      <trkpt lat="47.99298" lon="6.90618">
        <ele>923</ele>
        <time>2020-03-01T11:13:42Z</time>
      </trkpt>
      <trkpt lat="47.993" lon="6.90618">
        <ele>925</ele>
        <time>2020-03-01T11:13:47Z</time>
      </trkpt>
      <trkpt lat="47.99302" lon="6.90619">
        <ele>926</ele>
        <time>2020-03-01T11:13:48Z</time>
      </trkpt>
      <trkpt lat="47.99306" lon="6.9062">
        <ele>926</ele>
        <time>2020-03-01T11:13:50Z</time>
      </trkpt>
      <trkpt lat="47.99308" lon="6.9062">
        <ele>927</ele>
        <time>2020-03-01T11:13:51Z</time>
      </trkpt>
      <trkpt lat="47.9931" lon="6.9062">
        <ele>928</ele>
        <time>2020-03-01T11:13:52Z</time>
      </trkpt>
      <trkpt lat="47.99312" lon="6.90621">
        <ele>927</ele>
        <time>2020-03-01T11:13:54Z</time>
      </trkpt>
      <trkpt lat="47.99315" lon="6.9062">
        <ele>927</ele>
        <time>2020-03-01T11:13:55Z</time>
      </trkpt>
      <trkpt lat="47.99317" lon="6.90621">
        <ele>927</ele>
        <time>2020-03-01T11:13:56Z</time>
      </trkpt>
      <trkpt lat="47.99319" lon="6.90621">
        <ele>927</ele>
        <time>2020-03-01T11:13:57Z</time>
      </trkpt>
      <trkpt lat="47.99322" lon="6.90621">
        <ele>927</ele>
        <time>2020-03-01T11:14:00Z</time>
      </trkpt>
      <trkpt lat="47.99326" lon="6.90621">
        <ele>927</ele>
        <time>2020-03-01T11:14:02Z</time>
      </trkpt>
      <trkpt lat="47.99328" lon="6.90622">
        <ele>928</ele>
        <time>2020-03-01T11:14:05Z</time>
      </trkpt>
      <trkpt lat="47.9933" lon="6.90625">
        <ele>928</ele>
        <time>2020-03-01T11:14:09Z</time>
      </trkpt>
      <trkpt lat="47.99331" lon="6.90627">
        <ele>928</ele>
        <time>2020-03-01T11:14:11Z</time>
      </trkpt>
      <trkpt lat="47.99333" lon="6.90627">
        <ele>928</ele>
        <time>2020-03-01T11:14:24Z</time>
      </trkpt>
      <trkpt lat="47.99335" lon="6.90631">
        <ele>928</ele>
        <time>2020-03-01T11:14:29Z</time>
      </trkpt>
      <trkpt lat="47.99335" lon="6.90634">
        <ele>927</ele>
        <time>2020-03-01T11:14:31Z</time>
      </trkpt>
      <trkpt lat="47.99336" lon="6.90638">
        <ele>928</ele>
        <time>2020-03-01T11:14:33Z</time>
      </trkpt>
      <trkpt lat="47.99337" lon="6.9064">
        <ele>928</ele>
        <time>2020-03-01T11:14:35Z</time>
      </trkpt>
      <trkpt lat="47.99337" lon="6.90644">
        <ele>928</ele>
        <time>2020-03-01T11:14:38Z</time>
      </trkpt>
      <trkpt lat="47.99336" lon="6.90648">
        <ele>928</ele>
        <time>2020-03-01T11:14:40Z</time>
      </trkpt>
      <trkpt lat="47.99335" lon="6.90651">
        <ele>928</ele>
        <time>2020-03-01T11:14:42Z</time>
      </trkpt>
      <trkpt lat="47.99338" lon="6.90654">
        <ele>927</ele>
        <time>2020-03-01T11:15:14Z</time>
      </trkpt>
      <trkpt lat="47.99339" lon="6.90656">
        <ele>927</ele>
        <time>2020-03-01T11:15:16Z</time>
      </trkpt>
      <trkpt lat="47.99339" lon="6.90661">
        <ele>927</ele>
        <time>2020-03-01T11:15:20Z</time>
      </trkpt>
      <trkpt lat="47.9934" lon="6.90664">
        <ele>927</ele>
        <time>2020-03-01T11:15:23Z</time>
      </trkpt>
      <trkpt lat="47.99341" lon="6.90666">
        <ele>926</ele>
        <time>2020-03-01T11:15:26Z</time>
      </trkpt>
      <trkpt lat="47.99343" lon="6.90668">
        <ele>926</ele>
        <time>2020-03-01T11:15:29Z</time>
      </trkpt>
      <trkpt lat="47.99346" lon="6.90668">
        <ele>928</ele>
        <time>2020-03-01T11:15:32Z</time>
      </trkpt>
      <trkpt lat="47.99348" lon="6.90669">
        <ele>930</ele>
        <time>2020-03-01T11:15:39Z</time>
      </trkpt>
      <trkpt lat="47.99348" lon="6.90666">
        <ele>932</ele>
        <time>2020-03-01T11:15:42Z</time>
      </trkpt>
      <trkpt lat="47.99347" lon="6.90663">
        <ele>929</ele>
        <time>2020-03-01T11:15:55Z</time>
      </trkpt>
      <trkpt lat="47.99345" lon="6.90662">
        <ele>931</ele>
        <time>2020-03-01T11:15:58Z</time>
      </trkpt>
      <trkpt lat="47.99343" lon="6.9066">
        <ele>931</ele>
        <time>2020-03-01T11:16:01Z</time>
      </trkpt>
      <trkpt lat="47.99343" lon="6.90657">
        <ele>931</ele>
        <time>2020-03-01T11:16:04Z</time>
      </trkpt>
      <trkpt lat="47.99342" lon="6.90653">
        <ele>929</ele>
        <time>2020-03-01T11:16:09Z</time>
      </trkpt>
      <trkpt lat="47.99342" lon="6.9065">
        <ele>929</ele>
        <time>2020-03-01T11:16:12Z</time>
      </trkpt>
      <trkpt lat="47.99342" lon="6.90646">
        <ele>929</ele>
        <time>2020-03-01T11:16:15Z</time>
      </trkpt>
      <trkpt lat="47.99342" lon="6.90643">
        <ele>930</ele>
        <time>2020-03-01T11:16:18Z</time>
      </trkpt>
      <trkpt lat="47.99344" lon="6.90643">
        <ele>930</ele>
        <time>2020-03-01T11:16:22Z</time>
      </trkpt>
      <trkpt lat="47.99342" lon="6.90646">
        <ele>930</ele>
        <time>2020-03-01T11:16:38Z</time>
      </trkpt>
      <trkpt lat="47.99341" lon="6.9065">
        <ele>931</ele>
        <time>2020-03-01T11:16:42Z</time>
      </trkpt>
      <trkpt lat="47.99341" lon="6.90653">
        <ele>931</ele>
        <time>2020-03-01T11:16:44Z</time>
      </trkpt>
      <trkpt lat="47.99341" lon="6.90658">
        <ele>932</ele>
        <time>2020-03-01T11:16:47Z</time>
      </trkpt>
      <trkpt lat="47.99341" lon="6.90661">
        <ele>932</ele>
        <time>2020-03-01T11:16:49Z</time>
      </trkpt>
      <trkpt lat="47.99342" lon="6.90664">
        <ele>932</ele>
        <time>2020-03-01T11:16:51Z</time>
      </trkpt>
      <trkpt lat="47.99342" lon="6.90667">
        <ele>933</ele>
        <time>2020-03-01T11:18:30Z</time>
      </trkpt>
      <trkpt lat="47.99342" lon="6.90673">
        <ele>934</ele>
        <time>2020-03-01T11:19:44Z</time>
      </trkpt>
      <trkpt lat="47.99342" lon="6.90677">
        <ele>934</ele>
        <time>2020-03-01T11:19:46Z</time>
      </trkpt>
      <trkpt lat="47.99343" lon="6.9068">
        <ele>933</ele>
        <time>2020-03-01T11:19:49Z</time>
      </trkpt>
      <trkpt lat="47.99343" lon="6.90684">
        <ele>933</ele>
        <time>2020-03-01T11:19:51Z</time>
      </trkpt>
      <trkpt lat="47.99344" lon="6.90687">
        <ele>934</ele>
        <time>2020-03-01T11:19:53Z</time>
      </trkpt>
      <trkpt lat="47.99344" lon="6.9069">
        <ele>934</ele>
        <time>2020-03-01T11:19:55Z</time>
      </trkpt>
      <trkpt lat="47.99343" lon="6.90693">
        <ele>933</ele>
        <time>2020-03-01T11:19:58Z</time>
      </trkpt>
      <trkpt lat="47.99344" lon="6.90697">
        <ele>933</ele>
        <time>2020-03-01T11:20:01Z</time>
      </trkpt>
      <trkpt lat="47.99345" lon="6.90701">
        <ele>933</ele>
        <time>2020-03-01T11:20:04Z</time>
      </trkpt>
      <trkpt lat="47.99346" lon="6.90703">
        <ele>933</ele>
        <time>2020-03-01T11:20:07Z</time>
      </trkpt>
      <trkpt lat="47.99347" lon="6.90707">
        <ele>933</ele>
        <time>2020-03-01T11:20:09Z</time>
      </trkpt>
      <trkpt lat="47.99348" lon="6.90709">
        <ele>932</ele>
        <time>2020-03-01T11:20:11Z</time>
      </trkpt>
      <trkpt lat="47.99349" lon="6.90711">
        <ele>931</ele>
        <time>2020-03-01T11:20:13Z</time>
      </trkpt>
      <trkpt lat="47.9935" lon="6.90715">
        <ele>931</ele>
        <time>2020-03-01T11:20:16Z</time>
      </trkpt>
      <trkpt lat="47.99351" lon="6.90718">
        <ele>931</ele>
        <time>2020-03-01T11:20:18Z</time>
      </trkpt>
      <trkpt lat="47.99352" lon="6.9072">
        <ele>931</ele>
        <time>2020-03-01T11:20:20Z</time>
      </trkpt>
      <trkpt lat="47.99353" lon="6.90723">
        <ele>930</ele>
        <time>2020-03-01T11:20:23Z</time>
      </trkpt>
      <trkpt lat="47.99355" lon="6.90725">
        <ele>931</ele>
        <time>2020-03-01T11:20:24Z</time>
      </trkpt>
      <trkpt lat="47.99356" lon="6.90728">
        <ele>930</ele>
        <time>2020-03-01T11:20:26Z</time>
      </trkpt>
      <trkpt lat="47.99357" lon="6.9073">
        <ele>929</ele>
        <time>2020-03-01T11:20:28Z</time>
      </trkpt>
      <trkpt lat="47.99357" lon="6.90733">
        <ele>928</ele>
        <time>2020-03-01T11:20:31Z</time>
      </trkpt>
      <trkpt lat="47.99358" lon="6.90736">
        <ele>929</ele>
        <time>2020-03-01T11:20:33Z</time>
      </trkpt>
      <trkpt lat="47.99359" lon="6.90739">
        <ele>929</ele>
        <time>2020-03-01T11:20:35Z</time>
      </trkpt>
      <trkpt lat="47.9936" lon="6.90742">
        <ele>929</ele>
        <time>2020-03-01T11:20:38Z</time>
      </trkpt>
      <trkpt lat="47.99362" lon="6.90744">
        <ele>929</ele>
        <time>2020-03-01T11:20:41Z</time>
      </trkpt>
      <trkpt lat="47.99363" lon="6.90747">
        <ele>929</ele>
        <time>2020-03-01T11:20:43Z</time>
      </trkpt>
      <trkpt lat="47.99365" lon="6.9075">
        <ele>929</ele>
        <time>2020-03-01T11:20:45Z</time>
      </trkpt>
      <trkpt lat="47.99367" lon="6.90751">
        <ele>929</ele>
        <time>2020-03-01T11:20:47Z</time>
      </trkpt>
      <trkpt lat="47.99369" lon="6.90753">
        <ele>929</ele>
        <time>2020-03-01T11:20:49Z</time>
      </trkpt>
      <trkpt lat="47.99371" lon="6.90756">
        <ele>930</ele>
        <time>2020-03-01T11:20:51Z</time>
      </trkpt>
      <trkpt lat="47.99372" lon="6.90758">
        <ele>930</ele>
        <time>2020-03-01T11:20:54Z</time>
      </trkpt>
      <trkpt lat="47.99374" lon="6.9076">
        <ele>930</ele>
        <time>2020-03-01T11:20:56Z</time>
      </trkpt>
      <trkpt lat="47.99376" lon="6.90762">
        <ele>930</ele>
        <time>2020-03-01T11:20:59Z</time>
      </trkpt>
      <trkpt lat="47.99378" lon="6.90764">
        <ele>930</ele>
        <time>2020-03-01T11:21:01Z</time>
      </trkpt>
      <trkpt lat="47.99379" lon="6.90767">
        <ele>930</ele>
        <time>2020-03-01T11:21:04Z</time>
      </trkpt>
      <trkpt lat="47.9938" lon="6.90769">
        <ele>930</ele>
        <time>2020-03-01T11:21:06Z</time>
      </trkpt>
      <trkpt lat="47.99381" lon="6.90772">
        <ele>931</ele>
        <time>2020-03-01T11:21:08Z</time>
      </trkpt>
      <trkpt lat="47.99382" lon="6.90774">
        <ele>930</ele>
        <time>2020-03-01T11:21:10Z</time>
      </trkpt>
      <trkpt lat="47.99383" lon="6.90777">
        <ele>931</ele>
        <time>2020-03-01T11:21:11Z</time>
      </trkpt>
      <trkpt lat="47.99384" lon="6.9078">
        <ele>931</ele>
        <time>2020-03-01T11:21:13Z</time>
      </trkpt>
      <trkpt lat="47.99385" lon="6.90783">
        <ele>931</ele>
        <time>2020-03-01T11:21:15Z</time>
      </trkpt>
      <trkpt lat="47.99387" lon="6.90785">
        <ele>932</ele>
        <time>2020-03-01T11:21:18Z</time>
      </trkpt>
      <trkpt lat="47.99389" lon="6.90787">
        <ele>932</ele>
        <time>2020-03-01T11:21:20Z</time>
      </trkpt>
      <trkpt lat="47.9939" lon="6.90791">
        <ele>932</ele>
        <time>2020-03-01T11:21:22Z</time>
      </trkpt>
      <trkpt lat="47.9939" lon="6.90794">
        <ele>931</ele>
        <time>2020-03-01T11:21:25Z</time>
      </trkpt>
      <trkpt lat="47.99388" lon="6.90796">
        <ele>930</ele>
        <time>2020-03-01T11:21:29Z</time>
      </trkpt>
      <trkpt lat="47.99389" lon="6.90799">
        <ele>929</ele>
        <time>2020-03-01T11:21:33Z</time>
      </trkpt>
      <trkpt lat="47.9939" lon="6.90802">
        <ele>929</ele>
        <time>2020-03-01T11:21:35Z</time>
      </trkpt>
      <trkpt lat="47.99389" lon="6.90805">
        <ele>928</ele>
        <time>2020-03-01T11:21:38Z</time>
      </trkpt>
      <trkpt lat="47.9939" lon="6.90807">
        <ele>927</ele>
        <time>2020-03-01T11:21:41Z</time>
      </trkpt>
      <trkpt lat="47.9939" lon="6.90811">
        <ele>926</ele>
        <time>2020-03-01T11:21:43Z</time>
      </trkpt>
      <trkpt lat="47.9939" lon="6.90814">
        <ele>926</ele>
        <time>2020-03-01T11:21:46Z</time>
      </trkpt>
      <trkpt lat="47.99391" lon="6.90817">
        <ele>926</ele>
        <time>2020-03-01T11:21:48Z</time>
      </trkpt>
      <trkpt lat="47.99392" lon="6.90819">
        <ele>925</ele>
        <time>2020-03-01T11:21:52Z</time>
      </trkpt>
      <trkpt lat="47.99393" lon="6.90823">
        <ele>925</ele>
        <time>2020-03-01T11:21:54Z</time>
      </trkpt>
      <trkpt lat="47.99393" lon="6.90827">
        <ele>924</ele>
        <time>2020-03-01T11:21:56Z</time>
      </trkpt>
      <trkpt lat="47.99395" lon="6.90829">
        <ele>924</ele>
        <time>2020-03-01T11:21:58Z</time>
      </trkpt>
      <trkpt lat="47.99397" lon="6.9083">
        <ele>924</ele>
        <time>2020-03-01T11:22:00Z</time>
      </trkpt>
      <trkpt lat="47.99399" lon="6.90831">
        <ele>923</ele>
        <time>2020-03-01T11:22:04Z</time>
      </trkpt>
      <trkpt lat="47.99401" lon="6.90835">
        <ele>922</ele>
        <time>2020-03-01T11:22:07Z</time>
      </trkpt>
      <trkpt lat="47.99403" lon="6.90836">
        <ele>921</ele>
        <time>2020-03-01T11:22:09Z</time>
      </trkpt>
      <trkpt lat="47.99405" lon="6.90836">
        <ele>921</ele>
        <time>2020-03-01T11:22:11Z</time>
      </trkpt>
      <trkpt lat="47.99407" lon="6.90839">
        <ele>920</ele>
        <time>2020-03-01T11:22:14Z</time>
      </trkpt>
      <trkpt lat="47.99409" lon="6.90841">
        <ele>920</ele>
        <time>2020-03-01T11:22:17Z</time>
      </trkpt>
      <trkpt lat="47.99411" lon="6.90843">
        <ele>920</ele>
        <time>2020-03-01T11:22:19Z</time>
      </trkpt>
      <trkpt lat="47.99411" lon="6.90847">
        <ele>920</ele>
        <time>2020-03-01T11:22:21Z</time>
      </trkpt>
      <trkpt lat="47.99412" lon="6.90849">
        <ele>920</ele>
        <time>2020-03-01T11:22:23Z</time>
      </trkpt>
      <trkpt lat="47.99412" lon="6.90853">
        <ele>919</ele>
        <time>2020-03-01T11:22:26Z</time>
      </trkpt>
      <trkpt lat="47.99413" lon="6.90855">
        <ele>919</ele>
        <time>2020-03-01T11:22:29Z</time>
      </trkpt>
      <trkpt lat="47.99415" lon="6.90858">
        <ele>918</ele>
        <time>2020-03-01T11:22:31Z</time>
      </trkpt>
      <trkpt lat="47.99416" lon="6.90861">
        <ele>917</ele>
        <time>2020-03-01T11:22:33Z</time>
      </trkpt>
      <trkpt lat="47.99418" lon="6.90864">
        <ele>917</ele>
        <time>2020-03-01T11:22:36Z</time>
      </trkpt>
      <trkpt lat="47.99419" lon="6.90868">
        <ele>917</ele>
        <time>2020-03-01T11:22:39Z</time>
      </trkpt>
      <trkpt lat="47.99421" lon="6.90869">
        <ele>917</ele>
        <time>2020-03-01T11:22:41Z</time>
      </trkpt>
      <trkpt lat="47.99422" lon="6.90873">
        <ele>917</ele>
        <time>2020-03-01T11:22:45Z</time>
      </trkpt>
      <trkpt lat="47.99423" lon="6.90876">
        <ele>916</ele>
        <time>2020-03-01T11:22:47Z</time>
      </trkpt>
      <trkpt lat="47.99424" lon="6.90878">
        <ele>916</ele>
        <time>2020-03-01T11:22:49Z</time>
      </trkpt>
      <trkpt lat="47.99426" lon="6.90881">
        <ele>916</ele>
        <time>2020-03-01T11:22:51Z</time>
      </trkpt>
      <trkpt lat="47.99426" lon="6.90884">
        <ele>916</ele>
        <time>2020-03-01T11:22:53Z</time>
      </trkpt>
      <trkpt lat="47.99427" lon="6.90888">
        <ele>916</ele>
        <time>2020-03-01T11:22:56Z</time>
      </trkpt>
      <trkpt lat="47.99428" lon="6.9089">
        <ele>916</ele>
        <time>2020-03-01T11:22:58Z</time>
      </trkpt>
      <trkpt lat="47.9943" lon="6.90891">
        <ele>916</ele>
        <time>2020-03-01T11:23:00Z</time>
      </trkpt>
      <trkpt lat="47.99432" lon="6.90892">
        <ele>916</ele>
        <time>2020-03-01T11:23:02Z</time>
      </trkpt>
      <trkpt lat="47.99434" lon="6.90892">
        <ele>916</ele>
        <time>2020-03-01T11:23:04Z</time>
      </trkpt>
      <trkpt lat="47.99437" lon="6.90893">
        <ele>916</ele>
        <time>2020-03-01T11:23:06Z</time>
      </trkpt>
      <trkpt lat="47.99439" lon="6.90895">
        <ele>916</ele>
        <time>2020-03-01T11:23:10Z</time>
      </trkpt>
      <trkpt lat="47.99441" lon="6.90895">
        <ele>915</ele>
        <time>2020-03-01T11:23:11Z</time>
      </trkpt>
      <trkpt lat="47.99444" lon="6.90895">
        <ele>915</ele>
        <time>2020-03-01T11:23:12Z</time>
      </trkpt>
      <trkpt lat="47.99446" lon="6.90894">
        <ele>915</ele>
        <time>2020-03-01T11:23:13Z</time>
      </trkpt>
      <trkpt lat="47.99449" lon="6.90896">
        <ele>915</ele>
        <time>2020-03-01T11:23:22Z</time>
      </trkpt>
      <trkpt lat="47.99451" lon="6.90898">
        <ele>915</ele>
        <time>2020-03-01T11:23:24Z</time>
      </trkpt>
      <trkpt lat="47.99452" lon="6.909">
        <ele>915</ele>
        <time>2020-03-01T11:23:26Z</time>
      </trkpt>
      <trkpt lat="47.99454" lon="6.90903">
        <ele>915</ele>
        <time>2020-03-01T11:23:28Z</time>
      </trkpt>
      <trkpt lat="47.99454" lon="6.90906">
        <ele>915</ele>
        <time>2020-03-01T11:23:31Z</time>
      </trkpt>
      <trkpt lat="47.99456" lon="6.90908">
        <ele>915</ele>
        <time>2020-03-01T11:23:32Z</time>
      </trkpt>
      <trkpt lat="47.99458" lon="6.9091">
        <ele>915</ele>
        <time>2020-03-01T11:23:34Z</time>
      </trkpt>
      <trkpt lat="47.9946" lon="6.90912">
        <ele>915</ele>
        <time>2020-03-01T11:23:36Z</time>
      </trkpt>
      <trkpt lat="47.99463" lon="6.90913">
        <ele>916</ele>
        <time>2020-03-01T11:23:39Z</time>
      </trkpt>
      <trkpt lat="47.99465" lon="6.90916">
        <ele>915</ele>
        <time>2020-03-01T11:23:42Z</time>
      </trkpt>
      <trkpt lat="47.99466" lon="6.90919">
        <ele>915</ele>
        <time>2020-03-01T11:23:44Z</time>
      </trkpt>
      <trkpt lat="47.99467" lon="6.90923">
        <ele>915</ele>
        <time>2020-03-01T11:23:45Z</time>
      </trkpt>
      <trkpt lat="47.99468" lon="6.90926">
        <ele>915</ele>
        <time>2020-03-01T11:23:48Z</time>
      </trkpt>
      <trkpt lat="47.9947" lon="6.90931">
        <ele>915</ele>
        <time>2020-03-01T11:23:50Z</time>
      </trkpt>
      <trkpt lat="47.9947" lon="6.90934">
        <ele>915</ele>
        <time>2020-03-01T11:23:51Z</time>
      </trkpt>
      <trkpt lat="47.99471" lon="6.90936">
        <ele>915</ele>
        <time>2020-03-01T11:23:52Z</time>
      </trkpt>
      <trkpt lat="47.99474" lon="6.90939">
        <ele>916</ele>
        <time>2020-03-01T11:23:54Z</time>
      </trkpt>
      <trkpt lat="47.99475" lon="6.90941">
        <ele>916</ele>
        <time>2020-03-01T11:23:55Z</time>
      </trkpt>
      <trkpt lat="47.99477" lon="6.90937">
        <ele>916</ele>
        <time>2020-03-01T11:23:58Z</time>
      </trkpt>
      <trkpt lat="47.99477" lon="6.90933">
        <ele>916</ele>
        <time>2020-03-01T11:24:00Z</time>
      </trkpt>
      <trkpt lat="47.99476" lon="6.9093">
        <ele>916</ele>
        <time>2020-03-01T11:24:02Z</time>
      </trkpt>
      <trkpt lat="47.99477" lon="6.90932">
        <ele>916</ele>
        <time>2020-03-01T11:24:06Z</time>
      </trkpt>
      <trkpt lat="47.99479" lon="6.90933">
        <ele>916</ele>
        <time>2020-03-01T11:24:07Z</time>
      </trkpt>
      <trkpt lat="47.99481" lon="6.90932">
        <ele>916</ele>
        <time>2020-03-01T11:24:09Z</time>
      </trkpt>
      <trkpt lat="47.99485" lon="6.90932">
        <ele>916</ele>
        <time>2020-03-01T11:24:11Z</time>
      </trkpt>
      <trkpt lat="47.99487" lon="6.90933">
        <ele>917</ele>
        <time>2020-03-01T11:24:13Z</time>
      </trkpt>
      <trkpt lat="47.9949" lon="6.90936">
        <ele>917</ele>
        <time>2020-03-01T11:24:15Z</time>
      </trkpt>
      <trkpt lat="47.99492" lon="6.90939">
        <ele>917</ele>
        <time>2020-03-01T11:24:17Z</time>
      </trkpt>
      <trkpt lat="47.99494" lon="6.9094">
        <ele>917</ele>
        <time>2020-03-01T11:24:18Z</time>
      </trkpt>
      <trkpt lat="47.99496" lon="6.9094">
        <ele>918</ele>
        <time>2020-03-01T11:24:21Z</time>
      </trkpt>
      <trkpt lat="47.99499" lon="6.9094">
        <ele>917</ele>
        <time>2020-03-01T11:24:24Z</time>
      </trkpt>
      <trkpt lat="47.99501" lon="6.9094">
        <ele>917</ele>
        <time>2020-03-01T11:24:28Z</time>
      </trkpt>
      <trkpt lat="47.99503" lon="6.9094">
        <ele>917</ele>
        <time>2020-03-01T11:24:32Z</time>
      </trkpt>
      <trkpt lat="47.99505" lon="6.90942">
        <ele>917</ele>
        <time>2020-03-01T11:24:35Z</time>
      </trkpt>
      <trkpt lat="47.99506" lon="6.90938">
        <ele>917</ele>
        <time>2020-03-01T11:24:38Z</time>
      </trkpt>
      <trkpt lat="47.99508" lon="6.90941">
        <ele>917</ele>
        <time>2020-03-01T11:24:41Z</time>
      </trkpt>
      <trkpt lat="47.99509" lon="6.90942">
        <ele>917</ele>
        <time>2020-03-01T11:24:42Z</time>
      </trkpt>
      <trkpt lat="47.99511" lon="6.90945">
        <ele>917</ele>
        <time>2020-03-01T11:24:44Z</time>
      </trkpt>
      <trkpt lat="47.99513" lon="6.90948">
        <ele>917</ele>
        <time>2020-03-01T11:24:45Z</time>
      </trkpt>
      <trkpt lat="47.99515" lon="6.90949">
        <ele>917</ele>
        <time>2020-03-01T11:24:46Z</time>
      </trkpt>
      <trkpt lat="47.99517" lon="6.90951">
        <ele>917</ele>
        <time>2020-03-01T11:24:48Z</time>
      </trkpt>
      <trkpt lat="47.99517" lon="6.90948">
        <ele>917</ele>
        <time>2020-03-01T11:24:51Z</time>
      </trkpt>
      <trkpt lat="47.99518" lon="6.90945">
        <ele>917</ele>
        <time>2020-03-01T11:24:52Z</time>
      </trkpt>
      <trkpt lat="47.9952" lon="6.90948">
        <ele>917</ele>
        <time>2020-03-01T11:24:53Z</time>
      </trkpt>
      <trkpt lat="47.99522" lon="6.90948">
        <ele>917</ele>
        <time>2020-03-01T11:24:55Z</time>
      </trkpt>
      <trkpt lat="47.99524" lon="6.90949">
        <ele>917</ele>
        <time>2020-03-01T11:24:58Z</time>
      </trkpt>
      <trkpt lat="47.99524" lon="6.90952">
        <ele>917</ele>
        <time>2020-03-01T11:24:59Z</time>
      </trkpt>
      <trkpt lat="47.99526" lon="6.90957">
        <ele>917</ele>
        <time>2020-03-01T11:25:01Z</time>
      </trkpt>
      <trkpt lat="47.99528" lon="6.9096">
        <ele>917</ele>
        <time>2020-03-01T11:25:04Z</time>
      </trkpt>
      <trkpt lat="47.9953" lon="6.90954">
        <ele>917</ele>
        <time>2020-03-01T11:25:06Z</time>
      </trkpt>
      <trkpt lat="47.99533" lon="6.90951">
        <ele>917</ele>
        <time>2020-03-01T11:25:07Z</time>
      </trkpt>
      <trkpt lat="47.99536" lon="6.90952">
        <ele>918</ele>
        <time>2020-03-01T11:25:08Z</time>
      </trkpt>
      <trkpt lat="47.99539" lon="6.90954">
        <ele>917</ele>
        <time>2020-03-01T11:25:09Z</time>
      </trkpt>
      <trkpt lat="47.9954" lon="6.90954">
        <ele>917</ele>
        <time>2020-03-01T11:25:11Z</time>
      </trkpt>
      <trkpt lat="47.99544" lon="6.90962">
        <ele>917</ele>
        <time>2020-03-01T11:25:15Z</time>
      </trkpt>
      <trkpt lat="47.99546" lon="6.90965">
        <ele>917</ele>
        <time>2020-03-01T11:25:16Z</time>
      </trkpt>
      <trkpt lat="47.99548" lon="6.90963">
        <ele>917</ele>
        <time>2020-03-01T11:25:17Z</time>
      </trkpt>
      <trkpt lat="47.9955" lon="6.90966">
        <ele>917</ele>
        <time>2020-03-01T11:25:19Z</time>
      </trkpt>
      <trkpt lat="47.99552" lon="6.9097">
        <ele>917</ele>
        <time>2020-03-01T11:25:20Z</time>
      </trkpt>
      <trkpt lat="47.99554" lon="6.90974">
        <ele>918</ele>
        <time>2020-03-01T11:25:21Z</time>
      </trkpt>
      <trkpt lat="47.99556" lon="6.90975">
        <ele>917</ele>
        <time>2020-03-01T11:25:23Z</time>
      </trkpt>
      <trkpt lat="47.99559" lon="6.90976">
        <ele>917</ele>
        <time>2020-03-01T11:25:25Z</time>
      </trkpt>
      <trkpt lat="47.99562" lon="6.90975">
        <ele>917</ele>
        <time>2020-03-01T11:25:27Z</time>
      </trkpt>
      <trkpt lat="47.99563" lon="6.90976">
        <ele>918</ele>
        <time>2020-03-01T11:25:28Z</time>
      </trkpt>
      <trkpt lat="47.99565" lon="6.90976">
        <ele>918</ele>
        <time>2020-03-01T11:25:29Z</time>
      </trkpt>
      <trkpt lat="47.99567" lon="6.90978">
        <ele>917</ele>
        <time>2020-03-01T11:25:30Z</time>
      </trkpt>
      <trkpt lat="47.99569" lon="6.90979">
        <ele>917</ele>
        <time>2020-03-01T11:25:32Z</time>
      </trkpt>
      <trkpt lat="47.99572" lon="6.90978">
        <ele>918</ele>
        <time>2020-03-01T11:25:35Z</time>
      </trkpt>
      <trkpt lat="47.99577" lon="6.90981">
        <ele>918</ele>
        <time>2020-03-01T11:25:37Z</time>
      </trkpt>
      <trkpt lat="47.9958" lon="6.90982">
        <ele>918</ele>
        <time>2020-03-01T11:25:38Z</time>
      </trkpt>
      <trkpt lat="47.99582" lon="6.90981">
        <ele>918</ele>
        <time>2020-03-01T11:25:39Z</time>
      </trkpt>
      <trkpt lat="47.99584" lon="6.90984">
        <ele>918</ele>
        <time>2020-03-01T11:25:40Z</time>
      </trkpt>
      <trkpt lat="47.99586" lon="6.90986">
        <ele>918</ele>
        <time>2020-03-01T11:25:42Z</time>
      </trkpt>
      <trkpt lat="47.99585" lon="6.90982">
        <ele>919</ele>
        <time>2020-03-01T11:25:43Z</time>
      </trkpt>
      <trkpt lat="47.99587" lon="6.90985">
        <ele>919</ele>
        <time>2020-03-01T11:25:44Z</time>
      </trkpt>
      <trkpt lat="47.99586" lon="6.90982">
        <ele>919</ele>
        <time>2020-03-01T11:25:47Z</time>
      </trkpt>
      <trkpt lat="47.99588" lon="6.90981">
        <ele>918</ele>
        <time>2020-03-01T11:25:50Z</time>
      </trkpt>
      <trkpt lat="47.9959" lon="6.90979">
        <ele>918</ele>
        <time>2020-03-01T11:25:51Z</time>
      </trkpt>
      <trkpt lat="47.99592" lon="6.90975">
        <ele>918</ele>
        <time>2020-03-01T11:25:53Z</time>
      </trkpt>
      <trkpt lat="47.99592" lon="6.90972">
        <ele>918</ele>
        <time>2020-03-01T11:25:55Z</time>
      </trkpt>
      <trkpt lat="47.99592" lon="6.90975">
        <ele>918</ele>
        <time>2020-03-01T11:25:59Z</time>
      </trkpt>
      <trkpt lat="47.99593" lon="6.90977">
        <ele>918</ele>
        <time>2020-03-01T11:26:01Z</time>
      </trkpt>
      <trkpt lat="47.99595" lon="6.90979">
        <ele>917</ele>
        <time>2020-03-01T11:26:05Z</time>
      </trkpt>
      <trkpt lat="47.99597" lon="6.9098">
        <ele>917</ele>
        <time>2020-03-01T11:26:07Z</time>
      </trkpt>
      <trkpt lat="47.99598" lon="6.90978">
        <ele>917</ele>
        <time>2020-03-01T11:26:09Z</time>
      </trkpt>
      <trkpt lat="47.996" lon="6.90982">
        <ele>917</ele>
        <time>2020-03-01T11:26:10Z</time>
      </trkpt>
      <trkpt lat="47.996" lon="6.90985">
        <ele>918</ele>
        <time>2020-03-01T11:26:11Z</time>
      </trkpt>
      <trkpt lat="47.99601" lon="6.90982">
        <ele>920</ele>
        <time>2020-03-01T11:26:13Z</time>
      </trkpt>
      <trkpt lat="47.99602" lon="6.9098">
        <ele>921</ele>
        <time>2020-03-01T11:26:15Z</time>
      </trkpt>
      <trkpt lat="47.99604" lon="6.90977">
        <ele>923</ele>
        <time>2020-03-01T11:26:17Z</time>
      </trkpt>
      <trkpt lat="47.99607" lon="6.90976">
        <ele>924</ele>
        <time>2020-03-01T11:26:19Z</time>
      </trkpt>
      <trkpt lat="47.99609" lon="6.90976">
        <ele>925</ele>
        <time>2020-03-01T11:26:20Z</time>
      </trkpt>
      <trkpt lat="47.9961" lon="6.90976">
        <ele>925</ele>
        <time>2020-03-01T11:26:21Z</time>
      </trkpt>
      <trkpt lat="47.99614" lon="6.90975">
        <ele>926</ele>
        <time>2020-03-01T11:26:23Z</time>
      </trkpt>
      <trkpt lat="47.99615" lon="6.90976">
        <ele>925</ele>
        <time>2020-03-01T11:26:24Z</time>
      </trkpt>
      <trkpt lat="47.99616" lon="6.90974">
        <ele>926</ele>
        <time>2020-03-01T11:26:26Z</time>
      </trkpt>
      <trkpt lat="47.99618" lon="6.90974">
        <ele>926</ele>
        <time>2020-03-01T11:26:29Z</time>
      </trkpt>
      <trkpt lat="47.9962" lon="6.90975">
        <ele>927</ele>
        <time>2020-03-01T11:26:32Z</time>
      </trkpt>
      <trkpt lat="47.99624" lon="6.90975">
        <ele>934</ele>
        <time>2020-03-01T11:26:37Z</time>
      </trkpt>
      <trkpt lat="47.99626" lon="6.90976">
        <ele>936</ele>
        <time>2020-03-01T11:26:39Z</time>
      </trkpt>
      <trkpt lat="47.99629" lon="6.90975">
        <ele>938</ele>
        <time>2020-03-01T11:26:43Z</time>
      </trkpt>
      <trkpt lat="47.99632" lon="6.90976">
        <ele>939</ele>
        <time>2020-03-01T11:26:45Z</time>
      </trkpt>
      <trkpt lat="47.99634" lon="6.90976">
        <ele>939</ele>
        <time>2020-03-01T11:26:47Z</time>
      </trkpt>
      <trkpt lat="47.99636" lon="6.90979">
        <ele>939</ele>
        <time>2020-03-01T11:26:50Z</time>
      </trkpt>
      <trkpt lat="47.99638" lon="6.9098">
        <ele>938</ele>
        <time>2020-03-01T11:26:52Z</time>
      </trkpt>
      <trkpt lat="47.9964" lon="6.90982">
        <ele>939</ele>
        <time>2020-03-01T11:26:54Z</time>
      </trkpt>
      <trkpt lat="47.99642" lon="6.90983">
        <ele>938</ele>
        <time>2020-03-01T11:26:57Z</time>
      </trkpt>
      <trkpt lat="47.99645" lon="6.90984">
        <ele>939</ele>
        <time>2020-03-01T11:27:00Z</time>
      </trkpt>
      <trkpt lat="47.99647" lon="6.90983">
        <ele>940</ele>
        <time>2020-03-01T11:27:02Z</time>
      </trkpt>
      <trkpt lat="47.99649" lon="6.90982">
        <ele>941</ele>
        <time>2020-03-01T11:27:04Z</time>
      </trkpt>
      <trkpt lat="47.99651" lon="6.90981">
        <ele>942</ele>
        <time>2020-03-01T11:27:07Z</time>
      </trkpt>
      <trkpt lat="47.99653" lon="6.90982">
        <ele>942</ele>
        <time>2020-03-01T11:27:09Z</time>
      </trkpt>
      <trkpt lat="47.99656" lon="6.90982">
        <ele>942</ele>
        <time>2020-03-01T11:27:12Z</time>
      </trkpt>
      <trkpt lat="47.99659" lon="6.90982">
        <ele>943</ele>
        <time>2020-03-01T11:27:17Z</time>
      </trkpt>
      <trkpt lat="47.99661" lon="6.90981">
        <ele>945</ele>
        <time>2020-03-01T11:27:20Z</time>
      </trkpt>
      <trkpt lat="47.99664" lon="6.90982">
        <ele>944</ele>
        <time>2020-03-01T11:27:24Z</time>
      </trkpt>
      <trkpt lat="47.99666" lon="6.90982">
        <ele>945</ele>
        <time>2020-03-01T11:27:26Z</time>
      </trkpt>
      <trkpt lat="47.99668" lon="6.90983">
        <ele>945</ele>
        <time>2020-03-01T11:27:30Z</time>
      </trkpt>
      <trkpt lat="47.99671" lon="6.90984">
        <ele>945</ele>
        <time>2020-03-01T11:27:33Z</time>
      </trkpt>
      <trkpt lat="47.99673" lon="6.90985">
        <ele>945</ele>
        <time>2020-03-01T11:27:36Z</time>
      </trkpt>
      <trkpt lat="47.99675" lon="6.90985">
        <ele>945</ele>
        <time>2020-03-01T11:27:38Z</time>
      </trkpt>
      <trkpt lat="47.99677" lon="6.90987">
        <ele>945</ele>
        <time>2020-03-01T11:27:40Z</time>
      </trkpt>
      <trkpt lat="47.99681" lon="6.90988">
        <ele>946</ele>
        <time>2020-03-01T11:27:44Z</time>
      </trkpt>
      <trkpt lat="47.99683" lon="6.90988">
        <ele>945</ele>
        <time>2020-03-01T11:27:46Z</time>
      </trkpt>
      <trkpt lat="47.99686" lon="6.90989">
        <ele>942</ele>
        <time>2020-03-01T11:27:50Z</time>
      </trkpt>
      <trkpt lat="47.99689" lon="6.9099">
        <ele>942</ele>
        <time>2020-03-01T11:27:53Z</time>
      </trkpt>
      <trkpt lat="47.99691" lon="6.9099">
        <ele>943</ele>
        <time>2020-03-01T11:27:56Z</time>
      </trkpt>
      <trkpt lat="47.99693" lon="6.90991">
        <ele>943</ele>
        <time>2020-03-01T11:27:58Z</time>
      </trkpt>
      <trkpt lat="47.99695" lon="6.90991">
        <ele>944</ele>
        <time>2020-03-01T11:28:00Z</time>
      </trkpt>
      <trkpt lat="47.99698" lon="6.90992">
        <ele>943</ele>
        <time>2020-03-01T11:28:03Z</time>
      </trkpt>
      <trkpt lat="47.99699" lon="6.90993">
        <ele>943</ele>
        <time>2020-03-01T11:28:05Z</time>
      </trkpt>
      <trkpt lat="47.99702" lon="6.90996">
        <ele>942</ele>
        <time>2020-03-01T11:28:09Z</time>
      </trkpt>
      <trkpt lat="47.99703" lon="6.90997">
        <ele>943</ele>
        <time>2020-03-01T11:28:11Z</time>
      </trkpt>
      <trkpt lat="47.99706" lon="6.90998">
        <ele>943</ele>
        <time>2020-03-01T11:28:13Z</time>
      </trkpt>
      <trkpt lat="47.99708" lon="6.91">
        <ele>943</ele>
        <time>2020-03-01T11:28:15Z</time>
      </trkpt>
      <trkpt lat="47.9971" lon="6.91">
        <ele>943</ele>
        <time>2020-03-01T11:28:18Z</time>
      </trkpt>
      <trkpt lat="47.99712" lon="6.91003">
        <ele>942</ele>
        <time>2020-03-01T11:28:21Z</time>
      </trkpt>
      <trkpt lat="47.99713" lon="6.91006">
        <ele>942</ele>
        <time>2020-03-01T11:28:25Z</time>
      </trkpt>
      <trkpt lat="47.99715" lon="6.91008">
        <ele>941</ele>
        <time>2020-03-01T11:28:28Z</time>
      </trkpt>
      <trkpt lat="47.99716" lon="6.9101">
        <ele>942</ele>
        <time>2020-03-01T11:28:30Z</time>
      </trkpt>
      <trkpt lat="47.99718" lon="6.91012">
        <ele>942</ele>
        <time>2020-03-01T11:28:33Z</time>
      </trkpt>
      <trkpt lat="47.99721" lon="6.91014">
        <ele>942</ele>
        <time>2020-03-01T11:28:38Z</time>
      </trkpt>
      <trkpt lat="47.99723" lon="6.91016">
        <ele>946</ele>
        <time>2020-03-01T11:28:48Z</time>
      </trkpt>
      <trkpt lat="47.99725" lon="6.91018">
        <ele>946</ele>
        <time>2020-03-01T11:28:50Z</time>
      </trkpt>
      <trkpt lat="47.99726" lon="6.9102">
        <ele>946</ele>
        <time>2020-03-01T11:28:52Z</time>
      </trkpt>
      <trkpt lat="47.99727" lon="6.91023">
        <ele>947</ele>
        <time>2020-03-01T11:28:55Z</time>
      </trkpt>
      <trkpt lat="47.99728" lon="6.91027">
        <ele>948</ele>
        <time>2020-03-01T11:28:59Z</time>
      </trkpt>
      <trkpt lat="47.99729" lon="6.9103">
        <ele>948</ele>
        <time>2020-03-01T11:29:01Z</time>
      </trkpt>
      <trkpt lat="47.99729" lon="6.91033">
        <ele>948</ele>
        <time>2020-03-01T11:29:04Z</time>
      </trkpt>
      <trkpt lat="47.9973" lon="6.91037">
        <ele>947</ele>
        <time>2020-03-01T11:29:07Z</time>
      </trkpt>
      <trkpt lat="47.99732" lon="6.91042">
        <ele>948</ele>
        <time>2020-03-01T11:29:11Z</time>
      </trkpt>
      <trkpt lat="47.99732" lon="6.91045">
        <ele>948</ele>
        <time>2020-03-01T11:29:13Z</time>
      </trkpt>
      <trkpt lat="47.99733" lon="6.9105">
        <ele>947</ele>
        <time>2020-03-01T11:29:17Z</time>
      </trkpt>
      <trkpt lat="47.99734" lon="6.91053">
        <ele>947</ele>
        <time>2020-03-01T11:29:20Z</time>
      </trkpt>
      <trkpt lat="47.99736" lon="6.91055">
        <ele>947</ele>
        <time>2020-03-01T11:29:23Z</time>
      </trkpt>
      <trkpt lat="47.99737" lon="6.91057">
        <ele>947</ele>
        <time>2020-03-01T11:29:26Z</time>
      </trkpt>
      <trkpt lat="47.99738" lon="6.91061">
        <ele>946</ele>
        <time>2020-03-01T11:29:29Z</time>
      </trkpt>
      <trkpt lat="47.99739" lon="6.91064">
        <ele>947</ele>
        <time>2020-03-01T11:29:31Z</time>
      </trkpt>
      <trkpt lat="47.9974" lon="6.91066">
        <ele>946</ele>
        <time>2020-03-01T11:29:33Z</time>
      </trkpt>
      <trkpt lat="47.99741" lon="6.91069">
        <ele>947</ele>
        <time>2020-03-01T11:29:35Z</time>
      </trkpt>
      <trkpt lat="47.99742" lon="6.91073">
        <ele>947</ele>
        <time>2020-03-01T11:29:37Z</time>
      </trkpt>
      <trkpt lat="47.99743" lon="6.91075">
        <ele>947</ele>
        <time>2020-03-01T11:29:40Z</time>
      </trkpt>
      <trkpt lat="47.99744" lon="6.91079">
        <ele>949</ele>
        <time>2020-03-01T11:29:42Z</time>
      </trkpt>
      <trkpt lat="47.99745" lon="6.91082">
        <ele>949</ele>
        <time>2020-03-01T11:29:47Z</time>
      </trkpt>
      <trkpt lat="47.99748" lon="6.91085">
        <ele>951</ele>
        <time>2020-03-01T11:29:49Z</time>
      </trkpt>
      <trkpt lat="47.99751" lon="6.91088">
        <ele>951</ele>
        <time>2020-03-01T11:29:54Z</time>
      </trkpt>
      <trkpt lat="47.99752" lon="6.91091">
        <ele>951</ele>
        <time>2020-03-01T11:29:56Z</time>
      </trkpt>
      <trkpt lat="47.99754" lon="6.91093">
        <ele>952</ele>
        <time>2020-03-01T11:29:58Z</time>
      </trkpt>
      <trkpt lat="47.99755" lon="6.91095">
        <ele>952</ele>
        <time>2020-03-01T11:30:01Z</time>
      </trkpt>
      <trkpt lat="47.99755" lon="6.91098">
        <ele>952</ele>
        <time>2020-03-01T11:30:04Z</time>
      </trkpt>
      <trkpt lat="47.99756" lon="6.911">
        <ele>952</ele>
        <time>2020-03-01T11:30:06Z</time>
      </trkpt>
      <trkpt lat="47.99758" lon="6.91102">
        <ele>953</ele>
        <time>2020-03-01T11:30:08Z</time>
      </trkpt>
      <trkpt lat="47.99759" lon="6.91104">
        <ele>953</ele>
        <time>2020-03-01T11:30:10Z</time>
      </trkpt>
      <trkpt lat="47.99761" lon="6.91107">
        <ele>953</ele>
        <time>2020-03-01T11:30:12Z</time>
      </trkpt>
      <trkpt lat="47.99762" lon="6.91109">
        <ele>954</ele>
        <time>2020-03-01T11:30:14Z</time>
      </trkpt>
      <trkpt lat="47.99764" lon="6.91109">
        <ele>955</ele>
        <time>2020-03-01T11:30:17Z</time>
      </trkpt>
      <trkpt lat="47.99766" lon="6.91111">
        <ele>956</ele>
        <time>2020-03-01T11:30:20Z</time>
      </trkpt>
      <trkpt lat="47.99768" lon="6.91111">
        <ele>956</ele>
        <time>2020-03-01T11:30:22Z</time>
      </trkpt>
      <trkpt lat="47.9977" lon="6.91111">
        <ele>955</ele>
        <time>2020-03-01T11:30:25Z</time>
      </trkpt>
      <trkpt lat="47.99772" lon="6.91111">
        <ele>954</ele>
        <time>2020-03-01T11:30:28Z</time>
      </trkpt>
      <trkpt lat="47.99775" lon="6.91112">
        <ele>958</ele>
        <time>2020-03-01T11:30:37Z</time>
      </trkpt>
      <trkpt lat="47.99772" lon="6.91113">
        <ele>959</ele>
        <time>2020-03-01T11:30:39Z</time>
      </trkpt>
      <trkpt lat="47.99772" lon="6.9111">
        <ele>960</ele>
        <time>2020-03-01T11:30:45Z</time>
      </trkpt>
      <trkpt lat="47.9977" lon="6.9111">
        <ele>958</ele>
        <time>2020-03-01T11:30:46Z</time>
      </trkpt>
      <trkpt lat="47.99768" lon="6.9111">
        <ele>958</ele>
        <time>2020-03-01T11:30:48Z</time>
      </trkpt>
      <trkpt lat="47.99766" lon="6.91112">
        <ele>959</ele>
        <time>2020-03-01T11:30:50Z</time>
      </trkpt>
      <trkpt lat="47.99764" lon="6.91112">
        <ele>959</ele>
        <time>2020-03-01T11:30:53Z</time>
      </trkpt>
      <trkpt lat="47.99762" lon="6.91114">
        <ele>958</ele>
        <time>2020-03-01T11:30:55Z</time>
      </trkpt>
      <trkpt lat="47.99759" lon="6.91115">
        <ele>958</ele>
        <time>2020-03-01T11:30:57Z</time>
      </trkpt>
      <trkpt lat="47.99757" lon="6.91116">
        <ele>959</ele>
        <time>2020-03-01T11:31:00Z</time>
      </trkpt>
      <trkpt lat="47.99755" lon="6.91117">
        <ele>959</ele>
        <time>2020-03-01T11:31:02Z</time>
      </trkpt>
      <trkpt lat="47.99753" lon="6.91119">
        <ele>958</ele>
        <time>2020-03-01T11:31:06Z</time>
      </trkpt>
      <trkpt lat="47.99751" lon="6.91121">
        <ele>957</ele>
        <time>2020-03-01T11:31:08Z</time>
      </trkpt>
      <trkpt lat="47.99748" lon="6.91124">
        <ele>958</ele>
        <time>2020-03-01T11:31:12Z</time>
      </trkpt>
      <trkpt lat="47.99747" lon="6.91126">
        <ele>957</ele>
        <time>2020-03-01T11:31:14Z</time>
      </trkpt>
      <trkpt lat="47.99746" lon="6.91128">
        <ele>957</ele>
        <time>2020-03-01T11:31:17Z</time>
      </trkpt>
      <trkpt lat="47.99744" lon="6.9113">
        <ele>961</ele>
        <time>2020-03-01T11:31:19Z</time>
      </trkpt>
      <trkpt lat="47.99742" lon="6.91131">
        <ele>960</ele>
        <time>2020-03-01T11:31:22Z</time>
      </trkpt>
      <trkpt lat="47.99739" lon="6.91132">
        <ele>959</ele>
        <time>2020-03-01T11:31:24Z</time>
      </trkpt>
      <trkpt lat="47.99736" lon="6.91135">
        <ele>959</ele>
        <time>2020-03-01T11:31:29Z</time>
      </trkpt>
      <trkpt lat="47.99734" lon="6.91136">
        <ele>959</ele>
        <time>2020-03-01T11:31:31Z</time>
      </trkpt>
      <trkpt lat="47.99732" lon="6.91137">
        <ele>960</ele>
        <time>2020-03-01T11:31:34Z</time>
      </trkpt>
      <trkpt lat="47.9973" lon="6.91137">
        <ele>960</ele>
        <time>2020-03-01T11:31:38Z</time>
      </trkpt>
      <trkpt lat="47.99728" lon="6.91139">
        <ele>960</ele>
        <time>2020-03-01T11:31:41Z</time>
      </trkpt>
      <trkpt lat="47.99724" lon="6.9114">
        <ele>959</ele>
        <time>2020-03-01T11:31:46Z</time>
      </trkpt>
      <trkpt lat="47.99721" lon="6.9114">
        <ele>959</ele>
        <time>2020-03-01T11:31:49Z</time>
      </trkpt>
      <trkpt lat="47.99719" lon="6.91141">
        <ele>958</ele>
        <time>2020-03-01T11:31:51Z</time>
      </trkpt>
      <trkpt lat="47.99718" lon="6.91144">
        <ele>957</ele>
        <time>2020-03-01T11:31:53Z</time>
      </trkpt>
      <trkpt lat="47.99715" lon="6.91147">
        <ele>958</ele>
        <time>2020-03-01T11:31:57Z</time>
      </trkpt>
      <trkpt lat="47.99714" lon="6.91149">
        <ele>959</ele>
        <time>2020-03-01T11:32:00Z</time>
      </trkpt>
      <trkpt lat="47.99713" lon="6.91152">
        <ele>959</ele>
        <time>2020-03-01T11:32:04Z</time>
      </trkpt>
      <trkpt lat="47.99711" lon="6.91156">
        <ele>958</ele>
        <time>2020-03-01T11:32:08Z</time>
      </trkpt>
      <trkpt lat="47.99711" lon="6.91158">
        <ele>957</ele>
        <time>2020-03-01T11:32:10Z</time>
      </trkpt>
      <trkpt lat="47.99709" lon="6.91161">
        <ele>956</ele>
        <time>2020-03-01T11:32:14Z</time>
      </trkpt>
      <trkpt lat="47.99708" lon="6.91165">
        <ele>955</ele>
        <time>2020-03-01T11:32:17Z</time>
      </trkpt>
      <trkpt lat="47.99707" lon="6.91167">
        <ele>956</ele>
        <time>2020-03-01T11:32:20Z</time>
      </trkpt>
      <trkpt lat="47.99706" lon="6.91171">
        <ele>958</ele>
        <time>2020-03-01T11:32:22Z</time>
      </trkpt>
      <trkpt lat="47.99706" lon="6.91173">
        <ele>959</ele>
        <time>2020-03-01T11:32:24Z</time>
      </trkpt>
      <trkpt lat="47.99705" lon="6.91176">
        <ele>959</ele>
        <time>2020-03-01T11:32:26Z</time>
      </trkpt>
      <trkpt lat="47.99703" lon="6.91178">
        <ele>958</ele>
        <time>2020-03-01T11:32:29Z</time>
      </trkpt>
      <trkpt lat="47.99703" lon="6.91181">
        <ele>958</ele>
        <time>2020-03-01T11:32:32Z</time>
      </trkpt>
      <trkpt lat="47.99702" lon="6.91183">
        <ele>957</ele>
        <time>2020-03-01T11:32:34Z</time>
      </trkpt>
      <trkpt lat="47.99701" lon="6.91186">
        <ele>957</ele>
        <time>2020-03-01T11:32:36Z</time>
      </trkpt>
      <trkpt lat="47.99699" lon="6.91187">
        <ele>956</ele>
        <time>2020-03-01T11:32:39Z</time>
      </trkpt>
      <trkpt lat="47.99698" lon="6.9119">
        <ele>955</ele>
        <time>2020-03-01T11:32:41Z</time>
      </trkpt>
      <trkpt lat="47.99696" lon="6.91193">
        <ele>955</ele>
        <time>2020-03-01T11:32:45Z</time>
      </trkpt>
      <trkpt lat="47.99695" lon="6.91197">
        <ele>954</ele>
        <time>2020-03-01T11:32:47Z</time>
      </trkpt>
      <trkpt lat="47.99694" lon="6.912">
        <ele>954</ele>
        <time>2020-03-01T11:32:49Z</time>
      </trkpt>
      <trkpt lat="47.99692" lon="6.91201">
        <ele>954</ele>
        <time>2020-03-01T11:32:51Z</time>
      </trkpt>
      <trkpt lat="47.99692" lon="6.91204">
        <ele>955</ele>
        <time>2020-03-01T11:32:53Z</time>
      </trkpt>
      <trkpt lat="47.99691" lon="6.91206">
        <ele>956</ele>
        <time>2020-03-01T11:32:55Z</time>
      </trkpt>
      <trkpt lat="47.9969" lon="6.91208">
        <ele>955</ele>
        <time>2020-03-01T11:32:57Z</time>
      </trkpt>
      <trkpt lat="47.99688" lon="6.91212">
        <ele>956</ele>
        <time>2020-03-01T11:33:03Z</time>
      </trkpt>
      <trkpt lat="47.99688" lon="6.91216">
        <ele>957</ele>
        <time>2020-03-01T11:33:05Z</time>
      </trkpt>
      <trkpt lat="47.99687" lon="6.91222">
        <ele>957</ele>
        <time>2020-03-01T11:33:09Z</time>
      </trkpt>
      <trkpt lat="47.99687" lon="6.91225">
        <ele>958</ele>
        <time>2020-03-01T11:33:12Z</time>
      </trkpt>
      <trkpt lat="47.99686" lon="6.91228">
        <ele>958</ele>
        <time>2020-03-01T11:33:15Z</time>
      </trkpt>
      <trkpt lat="47.99686" lon="6.91232">
        <ele>958</ele>
        <time>2020-03-01T11:33:20Z</time>
      </trkpt>
      <trkpt lat="47.99684" lon="6.91235">
        <ele>958</ele>
        <time>2020-03-01T11:33:22Z</time>
      </trkpt>
      <trkpt lat="47.99683" lon="6.91237">
        <ele>958</ele>
        <time>2020-03-01T11:33:25Z</time>
      </trkpt>
      <trkpt lat="47.99682" lon="6.9124">
        <ele>958</ele>
        <time>2020-03-01T11:33:27Z</time>
      </trkpt>
      <trkpt lat="47.99682" lon="6.91244">
        <ele>958</ele>
        <time>2020-03-01T11:33:31Z</time>
      </trkpt>
      <trkpt lat="47.99681" lon="6.91247">
        <ele>958</ele>
        <time>2020-03-01T11:33:33Z</time>
      </trkpt>
      <trkpt lat="47.99679" lon="6.9125">
        <ele>958</ele>
        <time>2020-03-01T11:33:37Z</time>
      </trkpt>
      <trkpt lat="47.99679" lon="6.91253">
        <ele>957</ele>
        <time>2020-03-01T11:33:39Z</time>
      </trkpt>
      <trkpt lat="47.99679" lon="6.91256">
        <ele>957</ele>
        <time>2020-03-01T11:33:41Z</time>
      </trkpt>
      <trkpt lat="47.99678" lon="6.91258">
        <ele>957</ele>
        <time>2020-03-01T11:33:44Z</time>
      </trkpt>
      <trkpt lat="47.99677" lon="6.91261">
        <ele>957</ele>
        <time>2020-03-01T11:33:47Z</time>
      </trkpt>
      <trkpt lat="47.99676" lon="6.91264">
        <ele>956</ele>
        <time>2020-03-01T11:33:50Z</time>
      </trkpt>
      <trkpt lat="47.99676" lon="6.91269">
        <ele>957</ele>
        <time>2020-03-01T11:33:53Z</time>
      </trkpt>
      <trkpt lat="47.99675" lon="6.91271">
        <ele>957</ele>
        <time>2020-03-01T11:33:55Z</time>
      </trkpt>
      <trkpt lat="47.99674" lon="6.91274">
        <ele>957</ele>
        <time>2020-03-01T11:33:57Z</time>
      </trkpt>
      <trkpt lat="47.99673" lon="6.91276">
        <ele>956</ele>
        <time>2020-03-01T11:34:00Z</time>
      </trkpt>
      <trkpt lat="47.99672" lon="6.9128">
        <ele>954</ele>
        <time>2020-03-01T11:34:04Z</time>
      </trkpt>
      <trkpt lat="47.99671" lon="6.91282">
        <ele>954</ele>
        <time>2020-03-01T11:34:06Z</time>
      </trkpt>
      <trkpt lat="47.9967" lon="6.91285">
        <ele>954</ele>
        <time>2020-03-01T11:34:09Z</time>
      </trkpt>
      <trkpt lat="47.99669" lon="6.91287">
        <ele>953</ele>
        <time>2020-03-01T11:34:12Z</time>
      </trkpt>
      <trkpt lat="47.99668" lon="6.9129">
        <ele>955</ele>
        <time>2020-03-01T11:34:15Z</time>
      </trkpt>
      <trkpt lat="47.99666" lon="6.91293">
        <ele>955</ele>
        <time>2020-03-01T11:34:18Z</time>
      </trkpt>
      <trkpt lat="47.99664" lon="6.91294">
        <ele>955</ele>
        <time>2020-03-01T11:34:20Z</time>
      </trkpt>
      <trkpt lat="47.99662" lon="6.91296">
        <ele>957</ele>
        <time>2020-03-01T11:34:23Z</time>
      </trkpt>
      <trkpt lat="47.9966" lon="6.91296">
        <ele>958</ele>
        <time>2020-03-01T11:34:26Z</time>
      </trkpt>
      <trkpt lat="47.99658" lon="6.91298">
        <ele>958</ele>
        <time>2020-03-01T11:34:29Z</time>
      </trkpt>
      <trkpt lat="47.99656" lon="6.913">
        <ele>957</ele>
        <time>2020-03-01T11:34:32Z</time>
      </trkpt>
      <trkpt lat="47.99654" lon="6.913">
        <ele>959</ele>
        <time>2020-03-01T11:34:35Z</time>
      </trkpt>
      <trkpt lat="47.99652" lon="6.91301">
        <ele>960</ele>
        <time>2020-03-01T11:34:38Z</time>
      </trkpt>
      <trkpt lat="47.99649" lon="6.91301">
        <ele>961</ele>
        <time>2020-03-01T11:34:41Z</time>
      </trkpt>
      <trkpt lat="47.99647" lon="6.91301">
        <ele>962</ele>
        <time>2020-03-01T11:34:43Z</time>
      </trkpt>
      <trkpt lat="47.99643" lon="6.913">
        <ele>962</ele>
        <time>2020-03-01T11:34:48Z</time>
      </trkpt>
      <trkpt lat="47.99641" lon="6.913">
        <ele>963</ele>
        <time>2020-03-01T11:34:50Z</time>
      </trkpt>
      <trkpt lat="47.99638" lon="6.91298">
        <ele>964</ele>
        <time>2020-03-01T11:34:53Z</time>
      </trkpt>
      <trkpt lat="47.99635" lon="6.91297">
        <ele>963</ele>
        <time>2020-03-01T11:34:56Z</time>
      </trkpt>
      <trkpt lat="47.99634" lon="6.91296">
        <ele>966</ele>
        <time>2020-03-01T11:34:58Z</time>
      </trkpt>
      <trkpt lat="47.99631" lon="6.91294">
        <ele>965</ele>
        <time>2020-03-01T11:35:02Z</time>
      </trkpt>
      <trkpt lat="47.99629" lon="6.91295">
        <ele>965</ele>
        <time>2020-03-01T11:35:04Z</time>
      </trkpt>
      <trkpt lat="47.99627" lon="6.91295">
        <ele>966</ele>
        <time>2020-03-01T11:35:06Z</time>
      </trkpt>
      <trkpt lat="47.99625" lon="6.91295">
        <ele>966</ele>
        <time>2020-03-01T11:35:09Z</time>
      </trkpt>
      <trkpt lat="47.99623" lon="6.91293">
        <ele>966</ele>
        <time>2020-03-01T11:35:13Z</time>
      </trkpt>
      <trkpt lat="47.99621" lon="6.91293">
        <ele>966</ele>
        <time>2020-03-01T11:35:16Z</time>
      </trkpt>
      <trkpt lat="47.99618" lon="6.91293">
        <ele>965</ele>
        <time>2020-03-01T11:35:18Z</time>
      </trkpt>
      <trkpt lat="47.99617" lon="6.91292">
        <ele>965</ele>
        <time>2020-03-01T11:35:20Z</time>
      </trkpt>
      <trkpt lat="47.99615" lon="6.91291">
        <ele>966</ele>
        <time>2020-03-01T11:35:22Z</time>
      </trkpt>
      <trkpt lat="47.99612" lon="6.9129">
        <ele>966</ele>
        <time>2020-03-01T11:35:24Z</time>
      </trkpt>
      <trkpt lat="47.9961" lon="6.9129">
        <ele>967</ele>
        <time>2020-03-01T11:35:27Z</time>
      </trkpt>
      <trkpt lat="47.99608" lon="6.91289">
        <ele>967</ele>
        <time>2020-03-01T11:35:29Z</time>
      </trkpt>
      <trkpt lat="47.99606" lon="6.91289">
        <ele>967</ele>
        <time>2020-03-01T11:35:31Z</time>
      </trkpt>
      <trkpt lat="47.99604" lon="6.91287">
        <ele>966</ele>
        <time>2020-03-01T11:35:34Z</time>
      </trkpt>
      <trkpt lat="47.99603" lon="6.91284">
        <ele>966</ele>
        <time>2020-03-01T11:35:37Z</time>
      </trkpt>
      <trkpt lat="47.99601" lon="6.91283">
        <ele>965</ele>
        <time>2020-03-01T11:35:39Z</time>
      </trkpt>
      <trkpt lat="47.99599" lon="6.91282">
        <ele>965</ele>
        <time>2020-03-01T11:35:41Z</time>
      </trkpt>
      <trkpt lat="47.99596" lon="6.91281">
        <ele>964</ele>
        <time>2020-03-01T11:35:45Z</time>
      </trkpt>
      <trkpt lat="47.99594" lon="6.9128">
        <ele>964</ele>
        <time>2020-03-01T11:35:47Z</time>
      </trkpt>
      <trkpt lat="47.99592" lon="6.91279">
        <ele>964</ele>
        <time>2020-03-01T11:35:49Z</time>
      </trkpt>
      <trkpt lat="47.99591" lon="6.91277">
        <ele>966</ele>
        <time>2020-03-01T11:35:52Z</time>
      </trkpt>
      <trkpt lat="47.99588" lon="6.91275">
        <ele>965</ele>
        <time>2020-03-01T11:35:55Z</time>
      </trkpt>
      <trkpt lat="47.99587" lon="6.91273">
        <ele>965</ele>
        <time>2020-03-01T11:35:57Z</time>
      </trkpt>
      <trkpt lat="47.99585" lon="6.91272">
        <ele>965</ele>
        <time>2020-03-01T11:35:59Z</time>
      </trkpt>
      <trkpt lat="47.99584" lon="6.9127">
        <ele>965</ele>
        <time>2020-03-01T11:36:01Z</time>
      </trkpt>
      <trkpt lat="47.99582" lon="6.91269">
        <ele>965</ele>
        <time>2020-03-01T11:36:03Z</time>
      </trkpt>
      <trkpt lat="47.9958" lon="6.91268">
        <ele>966</ele>
        <time>2020-03-01T11:36:06Z</time>
      </trkpt>
      <trkpt lat="47.99576" lon="6.9127">
        <ele>967</ele>
        <time>2020-03-01T11:36:08Z</time>
      </trkpt>
      <trkpt lat="47.99573" lon="6.91271">
        <ele>968</ele>
        <time>2020-03-01T11:36:10Z</time>
      </trkpt>
      <trkpt lat="47.99571" lon="6.91266">
        <ele>968</ele>
        <time>2020-03-01T11:36:13Z</time>
      </trkpt>
      <trkpt lat="47.99569" lon="6.91266">
        <ele>970</ele>
        <time>2020-03-01T11:36:15Z</time>
      </trkpt>
      <trkpt lat="47.99568" lon="6.91263">
        <ele>970</ele>
        <time>2020-03-01T11:36:17Z</time>
      </trkpt>
      <trkpt lat="47.99565" lon="6.91262">
        <ele>968</ele>
        <time>2020-03-01T11:36:20Z</time>
      </trkpt>
      <trkpt lat="47.99564" lon="6.9126">
        <ele>967</ele>
        <time>2020-03-01T11:36:23Z</time>
      </trkpt>
      <trkpt lat="47.99561" lon="6.91258">
        <ele>965</ele>
        <time>2020-03-01T11:36:26Z</time>
      </trkpt>
      <trkpt lat="47.9956" lon="6.91255">
        <ele>965</ele>
        <time>2020-03-01T11:36:29Z</time>
      </trkpt>
      <trkpt lat="47.99557" lon="6.91253">
        <ele>965</ele>
        <time>2020-03-01T11:36:33Z</time>
      </trkpt>
      <trkpt lat="47.99555" lon="6.91252">
        <ele>965</ele>
        <time>2020-03-01T11:36:35Z</time>
      </trkpt>
      <trkpt lat="47.99553" lon="6.91251">
        <ele>965</ele>
        <time>2020-03-01T11:36:37Z</time>
      </trkpt>
      <trkpt lat="47.99553" lon="6.91248">
        <ele>965</ele>
        <time>2020-03-01T11:36:39Z</time>
      </trkpt>
      <trkpt lat="47.99551" lon="6.91246">
        <ele>965</ele>
        <time>2020-03-01T11:36:41Z</time>
      </trkpt>
      <trkpt lat="47.99548" lon="6.91245">
        <ele>965</ele>
        <time>2020-03-01T11:36:43Z</time>
      </trkpt>
      <trkpt lat="47.99547" lon="6.91245">
        <ele>964</ele>
        <time>2020-03-01T11:36:45Z</time>
      </trkpt>
      <trkpt lat="47.99544" lon="6.91244">
        <ele>965</ele>
        <time>2020-03-01T11:36:47Z</time>
      </trkpt>
      <trkpt lat="47.99541" lon="6.91243">
        <ele>967</ele>
        <time>2020-03-01T11:36:51Z</time>
      </trkpt>
      <trkpt lat="47.9954" lon="6.91241">
        <ele>965</ele>
        <time>2020-03-01T11:36:54Z</time>
      </trkpt>
      <trkpt lat="47.99537" lon="6.9124">
        <ele>964</ele>
        <time>2020-03-01T11:36:57Z</time>
      </trkpt>
      <trkpt lat="47.99535" lon="6.91241">
        <ele>963</ele>
        <time>2020-03-01T11:37:00Z</time>
      </trkpt>
      <trkpt lat="47.99534" lon="6.9124">
        <ele>963</ele>
        <time>2020-03-01T11:37:02Z</time>
      </trkpt>
      <trkpt lat="47.99531" lon="6.9124">
        <ele>965</ele>
        <time>2020-03-01T11:37:05Z</time>
      </trkpt>
      <trkpt lat="47.99528" lon="6.9124">
        <ele>965</ele>
        <time>2020-03-01T11:37:08Z</time>
      </trkpt>
      <trkpt lat="47.99527" lon="6.91237">
        <ele>965</ele>
        <time>2020-03-01T11:37:10Z</time>
      </trkpt>
      <trkpt lat="47.99526" lon="6.91235">
        <ele>965</ele>
        <time>2020-03-01T11:37:12Z</time>
      </trkpt>
      <trkpt lat="47.99523" lon="6.91234">
        <ele>963</ele>
        <time>2020-03-01T11:37:14Z</time>
      </trkpt>
      <trkpt lat="47.9952" lon="6.91232">
        <ele>962</ele>
        <time>2020-03-01T11:37:18Z</time>
      </trkpt>
      <trkpt lat="47.99518" lon="6.91231">
        <ele>965</ele>
        <time>2020-03-01T11:37:20Z</time>
      </trkpt>
      <trkpt lat="47.99515" lon="6.91233">
        <ele>968</ele>
        <time>2020-03-01T11:37:24Z</time>
      </trkpt>
      <trkpt lat="47.99513" lon="6.91231">
        <ele>966</ele>
        <time>2020-03-01T11:37:27Z</time>
      </trkpt>
      <trkpt lat="47.99511" lon="6.91229">
        <ele>966</ele>
        <time>2020-03-01T11:37:29Z</time>
      </trkpt>
      <trkpt lat="47.99509" lon="6.91227">
        <ele>965</ele>
        <time>2020-03-01T11:37:31Z</time>
      </trkpt>
      <trkpt lat="47.99507" lon="6.91227">
        <ele>965</ele>
        <time>2020-03-01T11:37:33Z</time>
      </trkpt>
      <trkpt lat="47.99506" lon="6.91228">
        <ele>965</ele>
        <time>2020-03-01T11:37:35Z</time>
      </trkpt>
      <trkpt lat="47.99504" lon="6.91226">
        <ele>965</ele>
        <time>2020-03-01T11:37:37Z</time>
      </trkpt>
      <trkpt lat="47.99502" lon="6.91224">
        <ele>965</ele>
        <time>2020-03-01T11:37:40Z</time>
      </trkpt>
      <trkpt lat="47.995" lon="6.91223">
        <ele>967</ele>
        <time>2020-03-01T11:37:43Z</time>
      </trkpt>
      <trkpt lat="47.99498" lon="6.91223">
        <ele>967</ele>
        <time>2020-03-01T11:37:45Z</time>
      </trkpt>
      <trkpt lat="47.99495" lon="6.91221">
        <ele>966</ele>
        <time>2020-03-01T11:37:47Z</time>
      </trkpt>
      <trkpt lat="47.99493" lon="6.91221">
        <ele>966</ele>
        <time>2020-03-01T11:37:49Z</time>
      </trkpt>
      <trkpt lat="47.99491" lon="6.91219">
        <ele>968</ele>
        <time>2020-03-01T11:37:51Z</time>
      </trkpt>
      <trkpt lat="47.9949" lon="6.91223">
        <ele>969</ele>
        <time>2020-03-01T11:37:53Z</time>
      </trkpt>
      <trkpt lat="47.99488" lon="6.9122">
        <ele>969</ele>
        <time>2020-03-01T11:37:58Z</time>
      </trkpt>
      <trkpt lat="47.99485" lon="6.9122">
        <ele>969</ele>
        <time>2020-03-01T11:38:00Z</time>
      </trkpt>
      <trkpt lat="47.99483" lon="6.91219">
        <ele>968</ele>
        <time>2020-03-01T11:38:02Z</time>
      </trkpt>
      <trkpt lat="47.99481" lon="6.91219">
        <ele>967</ele>
        <time>2020-03-01T11:38:04Z</time>
      </trkpt>
      <trkpt lat="47.99479" lon="6.91219">
        <ele>966</ele>
        <time>2020-03-01T11:38:07Z</time>
      </trkpt>
      <trkpt lat="47.99477" lon="6.91218">
        <ele>965</ele>
        <time>2020-03-01T11:38:09Z</time>
      </trkpt>
      <trkpt lat="47.99475" lon="6.91217">
        <ele>964</ele>
        <time>2020-03-01T11:38:11Z</time>
      </trkpt>
      <trkpt lat="47.99473" lon="6.91216">
        <ele>963</ele>
        <time>2020-03-01T11:38:13Z</time>
      </trkpt>
      <trkpt lat="47.99471" lon="6.91216">
        <ele>964</ele>
        <time>2020-03-01T11:38:14Z</time>
      </trkpt>
      <trkpt lat="47.99469" lon="6.91215">
        <ele>964</ele>
        <time>2020-03-01T11:38:16Z</time>
      </trkpt>
      <trkpt lat="47.99466" lon="6.91214">
        <ele>965</ele>
        <time>2020-03-01T11:38:18Z</time>
      </trkpt>
      <trkpt lat="47.99463" lon="6.91216">
        <ele>966</ele>
        <time>2020-03-01T11:38:19Z</time>
      </trkpt>
      <trkpt lat="47.99461" lon="6.91214">
        <ele>964</ele>
        <time>2020-03-01T11:38:21Z</time>
      </trkpt>
      <trkpt lat="47.99459" lon="6.91214">
        <ele>963</ele>
        <time>2020-03-01T11:38:24Z</time>
      </trkpt>
      <trkpt lat="47.99458" lon="6.91211">
        <ele>962</ele>
        <time>2020-03-01T11:38:28Z</time>
      </trkpt>
      <trkpt lat="47.99455" lon="6.91209">
        <ele>961</ele>
        <time>2020-03-01T11:38:30Z</time>
      </trkpt>
      <trkpt lat="47.99454" lon="6.91209">
        <ele>962</ele>
        <time>2020-03-01T11:38:37Z</time>
      </trkpt>
      <trkpt lat="47.99452" lon="6.91208">
        <ele>962</ele>
        <time>2020-03-01T11:38:39Z</time>
      </trkpt>
      <trkpt lat="47.9945" lon="6.91205">
        <ele>961</ele>
        <time>2020-03-01T11:38:41Z</time>
      </trkpt>
      <trkpt lat="47.99447" lon="6.91204">
        <ele>961</ele>
        <time>2020-03-01T11:38:43Z</time>
      </trkpt>
      <trkpt lat="47.99445" lon="6.91201">
        <ele>961</ele>
        <time>2020-03-01T11:38:45Z</time>
      </trkpt>
      <trkpt lat="47.99444" lon="6.912">
        <ele>960</ele>
        <time>2020-03-01T11:38:48Z</time>
      </trkpt>
      <trkpt lat="47.99442" lon="6.91199">
        <ele>959</ele>
        <time>2020-03-01T11:38:50Z</time>
      </trkpt>
      <trkpt lat="47.9944" lon="6.91198">
        <ele>959</ele>
        <time>2020-03-01T11:38:52Z</time>
      </trkpt>
      <trkpt lat="47.99439" lon="6.91197">
        <ele>959</ele>
        <time>2020-03-01T11:38:56Z</time>
      </trkpt>
      <trkpt lat="47.99436" lon="6.91194">
        <ele>958</ele>
        <time>2020-03-01T11:38:58Z</time>
      </trkpt>
      <trkpt lat="47.99433" lon="6.91192">
        <ele>957</ele>
        <time>2020-03-01T11:39:03Z</time>
      </trkpt>
      <trkpt lat="47.99431" lon="6.91191">
        <ele>957</ele>
        <time>2020-03-01T11:39:05Z</time>
      </trkpt>
      <trkpt lat="47.99429" lon="6.91191">
        <ele>958</ele>
        <time>2020-03-01T11:39:09Z</time>
      </trkpt>
      <trkpt lat="47.99427" lon="6.91191">
        <ele>959</ele>
        <time>2020-03-01T11:39:10Z</time>
      </trkpt>
      <trkpt lat="47.99424" lon="6.9119">
        <ele>958</ele>
        <time>2020-03-01T11:39:12Z</time>
      </trkpt>
      <trkpt lat="47.9942" lon="6.91189">
        <ele>958</ele>
        <time>2020-03-01T11:39:14Z</time>
      </trkpt>
      <trkpt lat="47.99418" lon="6.91189">
        <ele>959</ele>
        <time>2020-03-01T11:39:16Z</time>
      </trkpt>
      <trkpt lat="47.99416" lon="6.91188">
        <ele>960</ele>
        <time>2020-03-01T11:39:18Z</time>
      </trkpt>
      <trkpt lat="47.99414" lon="6.91189">
        <ele>958</ele>
        <time>2020-03-01T11:39:20Z</time>
      </trkpt>
      <trkpt lat="47.9941" lon="6.91188">
        <ele>958</ele>
        <time>2020-03-01T11:39:25Z</time>
      </trkpt>
      <trkpt lat="47.99408" lon="6.91188">
        <ele>958</ele>
        <time>2020-03-01T11:39:27Z</time>
      </trkpt>
      <trkpt lat="47.99405" lon="6.9119">
        <ele>958</ele>
        <time>2020-03-01T11:39:35Z</time>
      </trkpt>
      <trkpt lat="47.99402" lon="6.91192">
        <ele>958</ele>
        <time>2020-03-01T11:39:37Z</time>
      </trkpt>
      <trkpt lat="47.994" lon="6.91194">
        <ele>957</ele>
        <time>2020-03-01T11:39:41Z</time>
      </trkpt>
      <trkpt lat="47.99397" lon="6.91196">
        <ele>957</ele>
        <time>2020-03-01T11:39:43Z</time>
      </trkpt>
      <trkpt lat="47.99395" lon="6.91198">
        <ele>956</ele>
        <time>2020-03-01T11:39:45Z</time>
      </trkpt>
      <trkpt lat="47.99393" lon="6.91201">
        <ele>956</ele>
        <time>2020-03-01T11:39:47Z</time>
      </trkpt>
      <trkpt lat="47.99391" lon="6.91202">
        <ele>955</ele>
        <time>2020-03-01T11:39:49Z</time>
      </trkpt>
      <trkpt lat="47.99389" lon="6.91204">
        <ele>955</ele>
        <time>2020-03-01T11:39:50Z</time>
      </trkpt>
      <trkpt lat="47.99388" lon="6.91206">
        <ele>956</ele>
        <time>2020-03-01T11:39:51Z</time>
      </trkpt>
      <trkpt lat="47.99386" lon="6.91208">
        <ele>955</ele>
        <time>2020-03-01T11:39:53Z</time>
      </trkpt>
      <trkpt lat="47.99383" lon="6.9121">
        <ele>955</ele>
        <time>2020-03-01T11:39:57Z</time>
      </trkpt>
      <trkpt lat="47.99381" lon="6.91212">
        <ele>955</ele>
        <time>2020-03-01T11:39:59Z</time>
      </trkpt>
      <trkpt lat="47.99379" lon="6.91212">
        <ele>955</ele>
        <time>2020-03-01T11:40:03Z</time>
      </trkpt>
      <trkpt lat="47.99377" lon="6.91214">
        <ele>953</ele>
        <time>2020-03-01T11:40:06Z</time>
      </trkpt>
      <trkpt lat="47.99376" lon="6.91217">
        <ele>952</ele>
        <time>2020-03-01T11:40:09Z</time>
      </trkpt>
      <trkpt lat="47.99375" lon="6.9122">
        <ele>952</ele>
        <time>2020-03-01T11:40:14Z</time>
      </trkpt>
      <trkpt lat="47.99373" lon="6.91218">
        <ele>952</ele>
        <time>2020-03-01T11:40:17Z</time>
      </trkpt>
      <trkpt lat="47.99371" lon="6.91219">
        <ele>952</ele>
        <time>2020-03-01T11:40:19Z</time>
      </trkpt>
      <trkpt lat="47.99368" lon="6.9122">
        <ele>951</ele>
        <time>2020-03-01T11:40:21Z</time>
      </trkpt>
      <trkpt lat="47.99367" lon="6.91221">
        <ele>950</ele>
        <time>2020-03-01T11:40:23Z</time>
      </trkpt>
      <trkpt lat="47.99365" lon="6.91221">
        <ele>950</ele>
        <time>2020-03-01T11:40:25Z</time>
      </trkpt>
      <trkpt lat="47.99362" lon="6.91223">
        <ele>948</ele>
        <time>2020-03-01T11:40:52Z</time>
      </trkpt>
      <trkpt lat="47.9936" lon="6.91224">
        <ele>948</ele>
        <time>2020-03-01T11:40:53Z</time>
      </trkpt>
      <trkpt lat="47.99358" lon="6.91228">
        <ele>947</ele>
        <time>2020-03-01T11:40:55Z</time>
      </trkpt>
      <trkpt lat="47.99355" lon="6.9123">
        <ele>947</ele>
        <time>2020-03-01T11:40:57Z</time>
      </trkpt>
      <trkpt lat="47.99353" lon="6.91232">
        <ele>946</ele>
        <time>2020-03-01T11:40:59Z</time>
      </trkpt>
      <trkpt lat="47.9935" lon="6.91235">
        <ele>945</ele>
        <time>2020-03-01T11:41:01Z</time>
      </trkpt>
      <trkpt lat="47.99348" lon="6.91236">
        <ele>945</ele>
        <time>2020-03-01T11:41:02Z</time>
      </trkpt>
      <trkpt lat="47.99345" lon="6.91238">
        <ele>946</ele>
        <time>2020-03-01T11:41:04Z</time>
      </trkpt>
      <trkpt lat="47.99343" lon="6.91239">
        <ele>945</ele>
        <time>2020-03-01T11:41:06Z</time>
      </trkpt>
      <trkpt lat="47.99341" lon="6.91242">
        <ele>943</ele>
        <time>2020-03-01T11:41:09Z</time>
      </trkpt>
      <trkpt lat="47.9934" lon="6.91245">
        <ele>942</ele>
        <time>2020-03-01T11:41:10Z</time>
      </trkpt>
      <trkpt lat="47.99338" lon="6.91249">
        <ele>943</ele>
        <time>2020-03-01T11:41:12Z</time>
      </trkpt>
      <trkpt lat="47.99336" lon="6.91253">
        <ele>941</ele>
        <time>2020-03-01T11:41:15Z</time>
      </trkpt>
      <trkpt lat="47.99334" lon="6.91255">
        <ele>941</ele>
        <time>2020-03-01T11:41:17Z</time>
      </trkpt>
      <trkpt lat="47.99332" lon="6.91257">
        <ele>940</ele>
        <time>2020-03-01T11:41:20Z</time>
      </trkpt>
      <trkpt lat="47.99332" lon="6.91261">
        <ele>940</ele>
        <time>2020-03-01T11:41:22Z</time>
      </trkpt>
      <trkpt lat="47.9933" lon="6.91263">
        <ele>939</ele>
        <time>2020-03-01T11:41:24Z</time>
      </trkpt>
      <trkpt lat="47.99329" lon="6.91269">
        <ele>939</ele>
        <time>2020-03-01T11:41:29Z</time>
      </trkpt>
      <trkpt lat="47.99327" lon="6.91271">
        <ele>940</ele>
        <time>2020-03-01T11:41:30Z</time>
      </trkpt>
      <trkpt lat="47.99326" lon="6.91273">
        <ele>939</ele>
        <time>2020-03-01T11:41:31Z</time>
      </trkpt>
      <trkpt lat="47.99324" lon="6.91277">
        <ele>939</ele>
        <time>2020-03-01T11:41:33Z</time>
      </trkpt>
      <trkpt lat="47.99321" lon="6.9128">
        <ele>939</ele>
        <time>2020-03-01T11:41:41Z</time>
      </trkpt>
      <trkpt lat="47.99319" lon="6.91283">
        <ele>938</ele>
        <time>2020-03-01T11:41:43Z</time>
      </trkpt>
      <trkpt lat="47.99319" lon="6.91287">
        <ele>939</ele>
        <time>2020-03-01T11:41:49Z</time>
      </trkpt>
      <trkpt lat="47.99319" lon="6.9129">
        <ele>939</ele>
        <time>2020-03-01T11:41:51Z</time>
      </trkpt>
      <trkpt lat="47.99318" lon="6.91294">
        <ele>939</ele>
        <time>2020-03-01T11:41:53Z</time>
      </trkpt>
      <trkpt lat="47.99317" lon="6.91297">
        <ele>939</ele>
        <time>2020-03-01T11:41:54Z</time>
      </trkpt>
      <trkpt lat="47.99316" lon="6.91301">
        <ele>938</ele>
        <time>2020-03-01T11:41:57Z</time>
      </trkpt>
      <trkpt lat="47.99315" lon="6.91303">
        <ele>938</ele>
        <time>2020-03-01T11:41:58Z</time>
      </trkpt>
      <trkpt lat="47.99314" lon="6.91307">
        <ele>938</ele>
        <time>2020-03-01T11:42:00Z</time>
      </trkpt>
      <trkpt lat="47.99315" lon="6.91311">
        <ele>939</ele>
        <time>2020-03-01T11:42:02Z</time>
      </trkpt>
      <trkpt lat="47.99314" lon="6.91316">
        <ele>938</ele>
        <time>2020-03-01T11:42:06Z</time>
      </trkpt>
      <trkpt lat="47.99313" lon="6.9132">
        <ele>938</ele>
        <time>2020-03-01T11:42:15Z</time>
      </trkpt>
      <trkpt lat="47.99312" lon="6.91323">
        <ele>939</ele>
        <time>2020-03-01T11:42:17Z</time>
      </trkpt>
      <trkpt lat="47.9931" lon="6.91327">
        <ele>937</ele>
        <time>2020-03-01T11:42:19Z</time>
      </trkpt>
      <trkpt lat="47.99309" lon="6.9133">
        <ele>937</ele>
        <time>2020-03-01T11:42:20Z</time>
      </trkpt>
      <trkpt lat="47.99309" lon="6.91333">
        <ele>936</ele>
        <time>2020-03-01T11:42:22Z</time>
      </trkpt>
      <trkpt lat="47.99307" lon="6.91335">
        <ele>935</ele>
        <time>2020-03-01T11:42:26Z</time>
      </trkpt>
      <trkpt lat="47.99306" lon="6.91338">
        <ele>935</ele>
        <time>2020-03-01T11:42:29Z</time>
      </trkpt>
      <trkpt lat="47.99302" lon="6.91341">
        <ele>934</ele>
        <time>2020-03-01T11:42:34Z</time>
      </trkpt>
      <trkpt lat="47.993" lon="6.91341">
        <ele>934</ele>
        <time>2020-03-01T11:42:36Z</time>
      </trkpt>
      <trkpt lat="47.99298" lon="6.91345">
        <ele>933</ele>
        <time>2020-03-01T11:42:38Z</time>
      </trkpt>
      <trkpt lat="47.99295" lon="6.9135">
        <ele>933</ele>
        <time>2020-03-01T11:42:57Z</time>
      </trkpt>
      <trkpt lat="47.99294" lon="6.91352">
        <ele>934</ele>
        <time>2020-03-01T11:42:58Z</time>
      </trkpt>
      <trkpt lat="47.99292" lon="6.91354">
        <ele>933</ele>
        <time>2020-03-01T11:42:59Z</time>
      </trkpt>
      <trkpt lat="47.9929" lon="6.91355">
        <ele>932</ele>
        <time>2020-03-01T11:43:00Z</time>
      </trkpt>
      <trkpt lat="47.99289" lon="6.91356">
        <ele>932</ele>
        <time>2020-03-01T11:43:01Z</time>
      </trkpt>
      <trkpt lat="47.99287" lon="6.9136">
        <ele>932</ele>
        <time>2020-03-01T11:43:02Z</time>
      </trkpt>
      <trkpt lat="47.99285" lon="6.91363">
        <ele>933</ele>
        <time>2020-03-01T11:43:03Z</time>
      </trkpt>
      <trkpt lat="47.99283" lon="6.91365">
        <ele>933</ele>
        <time>2020-03-01T11:43:04Z</time>
      </trkpt>
      <trkpt lat="47.99281" lon="6.91366">
        <ele>933</ele>
        <time>2020-03-01T11:43:05Z</time>
      </trkpt>
      <trkpt lat="47.9928" lon="6.91368">
        <ele>932</ele>
        <time>2020-03-01T11:43:06Z</time>
      </trkpt>
      <trkpt lat="47.99277" lon="6.91371">
        <ele>932</ele>
        <time>2020-03-01T11:43:08Z</time>
      </trkpt>
      <trkpt lat="47.99276" lon="6.91373">
        <ele>932</ele>
        <time>2020-03-01T11:43:12Z</time>
      </trkpt>
      <trkpt lat="47.99275" lon="6.91376">
        <ele>932</ele>
        <time>2020-03-01T11:43:15Z</time>
      </trkpt>
      <trkpt lat="47.99272" lon="6.91376">
        <ele>932</ele>
        <time>2020-03-01T11:43:19Z</time>
      </trkpt>
      <trkpt lat="47.99271" lon="6.91377">
        <ele>933</ele>
        <time>2020-03-01T11:43:21Z</time>
      </trkpt>
      <trkpt lat="47.99269" lon="6.91381">
        <ele>933</ele>
        <time>2020-03-01T11:43:26Z</time>
      </trkpt>
      <trkpt lat="47.99267" lon="6.91385">
        <ele>933</ele>
        <time>2020-03-01T11:43:28Z</time>
      </trkpt>
      <trkpt lat="47.99266" lon="6.91388">
        <ele>933</ele>
        <time>2020-03-01T11:43:30Z</time>
      </trkpt>
      <trkpt lat="47.99265" lon="6.91389">
        <ele>932</ele>
        <time>2020-03-01T11:43:31Z</time>
      </trkpt>
      <trkpt lat="47.99263" lon="6.91392">
        <ele>932</ele>
        <time>2020-03-01T11:43:33Z</time>
      </trkpt>
      <trkpt lat="47.9926" lon="6.91395">
        <ele>932</ele>
        <time>2020-03-01T11:43:35Z</time>
      </trkpt>
      <trkpt lat="47.99259" lon="6.914">
        <ele>931</ele>
        <time>2020-03-01T11:43:37Z</time>
      </trkpt>
      <trkpt lat="47.99258" lon="6.91404">
        <ele>930</ele>
        <time>2020-03-01T11:43:39Z</time>
      </trkpt>
      <trkpt lat="47.99257" lon="6.91409">
        <ele>931</ele>
        <time>2020-03-01T11:43:41Z</time>
      </trkpt>
      <trkpt lat="47.99255" lon="6.91413">
        <ele>931</ele>
        <time>2020-03-01T11:43:43Z</time>
      </trkpt>
      <trkpt lat="47.99253" lon="6.91415">
        <ele>930</ele>
        <time>2020-03-01T11:43:46Z</time>
      </trkpt>
      <trkpt lat="47.99251" lon="6.91418">
        <ele>930</ele>
        <time>2020-03-01T11:43:48Z</time>
      </trkpt>
      <trkpt lat="47.9925" lon="6.91421">
        <ele>930</ele>
        <time>2020-03-01T11:43:50Z</time>
      </trkpt>
      <trkpt lat="47.99248" lon="6.91425">
        <ele>931</ele>
        <time>2020-03-01T11:43:52Z</time>
      </trkpt>
      <trkpt lat="47.99248" lon="6.91428">
        <ele>932</ele>
        <time>2020-03-01T11:43:54Z</time>
      </trkpt>
      <trkpt lat="47.99248" lon="6.91433">
        <ele>932</ele>
        <time>2020-03-01T11:44:01Z</time>
      </trkpt>
      <trkpt lat="47.99247" lon="6.91436">
        <ele>932</ele>
        <time>2020-03-01T11:44:03Z</time>
      </trkpt>
      <trkpt lat="47.99247" lon="6.9144">
        <ele>932</ele>
        <time>2020-03-01T11:44:05Z</time>
      </trkpt>
      <trkpt lat="47.99244" lon="6.91443">
        <ele>933</ele>
        <time>2020-03-01T11:44:08Z</time>
      </trkpt>
      <trkpt lat="47.99243" lon="6.91447">
        <ele>933</ele>
        <time>2020-03-01T11:44:11Z</time>
      </trkpt>
      <trkpt lat="47.99244" lon="6.9145">
        <ele>933</ele>
        <time>2020-03-01T11:44:14Z</time>
      </trkpt>
      <trkpt lat="47.99244" lon="6.91453">
        <ele>934</ele>
        <time>2020-03-01T11:44:16Z</time>
      </trkpt>
      <trkpt lat="47.99244" lon="6.91458">
        <ele>933</ele>
        <time>2020-03-01T11:44:19Z</time>
      </trkpt>
      <trkpt lat="47.99245" lon="6.91461">
        <ele>934</ele>
        <time>2020-03-01T11:44:20Z</time>
      </trkpt>
      <trkpt lat="47.99245" lon="6.91465">
        <ele>934</ele>
        <time>2020-03-01T11:44:22Z</time>
      </trkpt>
      <trkpt lat="47.99245" lon="6.91468">
        <ele>933</ele>
        <time>2020-03-01T11:44:24Z</time>
      </trkpt>
      <trkpt lat="47.99245" lon="6.91471">
        <ele>933</ele>
        <time>2020-03-01T11:44:26Z</time>
      </trkpt>
      <trkpt lat="47.99246" lon="6.91473">
        <ele>933</ele>
        <time>2020-03-01T11:44:29Z</time>
      </trkpt>
      <trkpt lat="47.99245" lon="6.91476">
        <ele>932</ele>
        <time>2020-03-01T11:44:32Z</time>
      </trkpt>
      <trkpt lat="47.99244" lon="6.9148">
        <ele>933</ele>
        <time>2020-03-01T11:44:34Z</time>
      </trkpt>
      <trkpt lat="47.99243" lon="6.91483">
        <ele>934</ele>
        <time>2020-03-01T11:44:35Z</time>
      </trkpt>
      <trkpt lat="47.99242" lon="6.91487">
        <ele>933</ele>
        <time>2020-03-01T11:44:37Z</time>
      </trkpt>
      <trkpt lat="47.99243" lon="6.91491">
        <ele>934</ele>
        <time>2020-03-01T11:44:39Z</time>
      </trkpt>
      <trkpt lat="47.99243" lon="6.91495">
        <ele>933</ele>
        <time>2020-03-01T11:44:45Z</time>
      </trkpt>
      <trkpt lat="47.99243" lon="6.91499">
        <ele>933</ele>
        <time>2020-03-01T11:44:47Z</time>
      </trkpt>
      <trkpt lat="47.99243" lon="6.91502">
        <ele>933</ele>
        <time>2020-03-01T11:44:49Z</time>
      </trkpt>
      <trkpt lat="47.99243" lon="6.91505">
        <ele>932</ele>
        <time>2020-03-01T11:44:51Z</time>
      </trkpt>
      <trkpt lat="47.99244" lon="6.91509">
        <ele>932</ele>
        <time>2020-03-01T11:44:53Z</time>
      </trkpt>
      <trkpt lat="47.99243" lon="6.91512">
        <ele>932</ele>
        <time>2020-03-01T11:44:55Z</time>
      </trkpt>
      <trkpt lat="47.99243" lon="6.91515">
        <ele>931</ele>
        <time>2020-03-01T11:45:03Z</time>
      </trkpt>
      <trkpt lat="47.99244" lon="6.9152">
        <ele>930</ele>
        <time>2020-03-01T11:45:05Z</time>
      </trkpt>
      <trkpt lat="47.99244" lon="6.91524">
        <ele>930</ele>
        <time>2020-03-01T11:45:08Z</time>
      </trkpt>
      <trkpt lat="47.99244" lon="6.91528">
        <ele>930</ele>
        <time>2020-03-01T11:45:10Z</time>
      </trkpt>
      <trkpt lat="47.99244" lon="6.91531">
        <ele>929</ele>
        <time>2020-03-01T11:45:12Z</time>
      </trkpt>
      <trkpt lat="47.99243" lon="6.91535">
        <ele>929</ele>
        <time>2020-03-01T11:45:15Z</time>
      </trkpt>
      <trkpt lat="47.99244" lon="6.91539">
        <ele>928</ele>
        <time>2020-03-01T11:45:17Z</time>
      </trkpt>
      <trkpt lat="47.99244" lon="6.91543">
        <ele>928</ele>
        <time>2020-03-01T11:45:19Z</time>
      </trkpt>
      <trkpt lat="47.99245" lon="6.91547">
        <ele>928</ele>
        <time>2020-03-01T11:45:21Z</time>
      </trkpt>
      <trkpt lat="47.99245" lon="6.91551">
        <ele>928</ele>
        <time>2020-03-01T11:45:24Z</time>
      </trkpt>
      <trkpt lat="47.99244" lon="6.91555">
        <ele>927</ele>
        <time>2020-03-01T11:45:38Z</time>
      </trkpt>
      <trkpt lat="47.99244" lon="6.91558">
        <ele>927</ele>
        <time>2020-03-01T11:45:40Z</time>
      </trkpt>
      <trkpt lat="47.99244" lon="6.91561">
        <ele>928</ele>
        <time>2020-03-01T11:45:41Z</time>
      </trkpt>
      <trkpt lat="47.99243" lon="6.91564">
        <ele>928</ele>
        <time>2020-03-01T11:45:42Z</time>
      </trkpt>
      <trkpt lat="47.99243" lon="6.91568">
        <ele>928</ele>
        <time>2020-03-01T11:45:44Z</time>
      </trkpt>
      <trkpt lat="47.99242" lon="6.91571">
        <ele>928</ele>
        <time>2020-03-01T11:45:46Z</time>
      </trkpt>
      <trkpt lat="47.99243" lon="6.91575">
        <ele>927</ele>
        <time>2020-03-01T11:45:48Z</time>
      </trkpt>
      <trkpt lat="47.99242" lon="6.9158">
        <ele>927</ele>
        <time>2020-03-01T11:45:54Z</time>
      </trkpt>
      <trkpt lat="47.99241" lon="6.91584">
        <ele>926</ele>
        <time>2020-03-01T11:45:56Z</time>
      </trkpt>
      <trkpt lat="47.99239" lon="6.91586">
        <ele>925</ele>
        <time>2020-03-01T11:45:57Z</time>
      </trkpt>
      <trkpt lat="47.99238" lon="6.91589">
        <ele>925</ele>
        <time>2020-03-01T11:46:10Z</time>
      </trkpt>
      <trkpt lat="47.99237" lon="6.91592">
        <ele>925</ele>
        <time>2020-03-01T11:46:11Z</time>
      </trkpt>
      <trkpt lat="47.99235" lon="6.91595">
        <ele>925</ele>
        <time>2020-03-01T11:46:12Z</time>
      </trkpt>
      <trkpt lat="47.99234" lon="6.91597">
        <ele>924</ele>
        <time>2020-03-01T11:46:13Z</time>
      </trkpt>
      <trkpt lat="47.99232" lon="6.91599">
        <ele>925</ele>
        <time>2020-03-01T11:46:14Z</time>
      </trkpt>
      <trkpt lat="47.9923" lon="6.91602">
        <ele>923</ele>
        <time>2020-03-01T11:46:17Z</time>
      </trkpt>
      <trkpt lat="47.99228" lon="6.91605">
        <ele>923</ele>
        <time>2020-03-01T11:46:19Z</time>
      </trkpt>
      <trkpt lat="47.99227" lon="6.91608">
        <ele>922</ele>
        <time>2020-03-01T11:46:21Z</time>
      </trkpt>
      <trkpt lat="47.99224" lon="6.91612">
        <ele>922</ele>
        <time>2020-03-01T11:46:23Z</time>
      </trkpt>
      <trkpt lat="47.99223" lon="6.91615">
        <ele>921</ele>
        <time>2020-03-01T11:46:24Z</time>
      </trkpt>
      <trkpt lat="47.9922" lon="6.91618">
        <ele>921</ele>
        <time>2020-03-01T11:46:28Z</time>
      </trkpt>
      <trkpt lat="47.99218" lon="6.9162">
        <ele>922</ele>
        <time>2020-03-01T11:46:30Z</time>
      </trkpt>
      <trkpt lat="47.99215" lon="6.91623">
        <ele>922</ele>
        <time>2020-03-01T11:46:38Z</time>
      </trkpt>
      <trkpt lat="47.99212" lon="6.91624">
        <ele>921</ele>
        <time>2020-03-01T11:46:40Z</time>
      </trkpt>
      <trkpt lat="47.99209" lon="6.91627">
        <ele>920</ele>
        <time>2020-03-01T11:46:44Z</time>
      </trkpt>
      <trkpt lat="47.99207" lon="6.9163">
        <ele>920</ele>
        <time>2020-03-01T11:46:46Z</time>
      </trkpt>
      <trkpt lat="47.99204" lon="6.91634">
        <ele>920</ele>
        <time>2020-03-01T11:46:54Z</time>
      </trkpt>
      <trkpt lat="47.99203" lon="6.91637">
        <ele>921</ele>
        <time>2020-03-01T11:46:56Z</time>
      </trkpt>
      <trkpt lat="47.99202" lon="6.9164">
        <ele>921</ele>
        <time>2020-03-01T11:46:58Z</time>
      </trkpt>
      <trkpt lat="47.99199" lon="6.91642">
        <ele>920</ele>
        <time>2020-03-01T11:47:02Z</time>
      </trkpt>
      <trkpt lat="47.99197" lon="6.91643">
        <ele>920</ele>
        <time>2020-03-01T11:47:03Z</time>
      </trkpt>
      <trkpt lat="47.99194" lon="6.91645">
        <ele>921</ele>
        <time>2020-03-01T11:47:05Z</time>
      </trkpt>
      <trkpt lat="47.99193" lon="6.91647">
        <ele>922</ele>
        <time>2020-03-01T11:47:08Z</time>
      </trkpt>
      <trkpt lat="47.9919" lon="6.91649">
        <ele>922</ele>
        <time>2020-03-01T11:47:10Z</time>
      </trkpt>
      <trkpt lat="47.99188" lon="6.9165">
        <ele>922</ele>
        <time>2020-03-01T11:47:11Z</time>
      </trkpt>
      <trkpt lat="47.99186" lon="6.91652">
        <ele>922</ele>
        <time>2020-03-01T11:47:13Z</time>
      </trkpt>
      <trkpt lat="47.99184" lon="6.91655">
        <ele>922</ele>
        <time>2020-03-01T11:47:15Z</time>
      </trkpt>
      <trkpt lat="47.99181" lon="6.91657">
        <ele>922</ele>
        <time>2020-03-01T11:47:17Z</time>
      </trkpt>
      <trkpt lat="47.99179" lon="6.91659">
        <ele>924</ele>
        <time>2020-03-01T11:47:19Z</time>
      </trkpt>
      <trkpt lat="47.99177" lon="6.91661">
        <ele>924</ele>
        <time>2020-03-01T11:47:21Z</time>
      </trkpt>
      <trkpt lat="47.99175" lon="6.91664">
        <ele>925</ele>
        <time>2020-03-01T11:47:23Z</time>
      </trkpt>
      <trkpt lat="47.99172" lon="6.91665">
        <ele>926</ele>
        <time>2020-03-01T11:47:25Z</time>
      </trkpt>
      <trkpt lat="47.99169" lon="6.91665">
        <ele>927</ele>
        <time>2020-03-01T11:47:27Z</time>
      </trkpt>
      <trkpt lat="47.99166" lon="6.91664">
        <ele>928</ele>
        <time>2020-03-01T11:47:29Z</time>
      </trkpt>
      <trkpt lat="47.99164" lon="6.91666">
        <ele>928</ele>
        <time>2020-03-01T11:47:31Z</time>
      </trkpt>
      <trkpt lat="47.99161" lon="6.91665">
        <ele>928</ele>
        <time>2020-03-01T11:47:33Z</time>
      </trkpt>
      <trkpt lat="47.99158" lon="6.91665">
        <ele>928</ele>
        <time>2020-03-01T11:47:43Z</time>
      </trkpt>
      <trkpt lat="47.99155" lon="6.91665">
        <ele>929</ele>
        <time>2020-03-01T11:47:45Z</time>
      </trkpt>
      <trkpt lat="47.99153" lon="6.91663">
        <ele>929</ele>
        <time>2020-03-01T11:47:47Z</time>
      </trkpt>
      <trkpt lat="47.99151" lon="6.91664">
        <ele>929</ele>
        <time>2020-03-01T11:47:48Z</time>
      </trkpt>
      <trkpt lat="47.99148" lon="6.91664">
        <ele>929</ele>
        <time>2020-03-01T11:47:50Z</time>
      </trkpt>
      <trkpt lat="47.99146" lon="6.91664">
        <ele>929</ele>
        <time>2020-03-01T11:47:58Z</time>
      </trkpt>
      <trkpt lat="47.99143" lon="6.91664">
        <ele>929</ele>
        <time>2020-03-01T11:48:00Z</time>
      </trkpt>
      <trkpt lat="47.9914" lon="6.91665">
        <ele>928</ele>
        <time>2020-03-01T11:48:04Z</time>
      </trkpt>
      <trkpt lat="47.99138" lon="6.91665">
        <ele>928</ele>
        <time>2020-03-01T11:48:06Z</time>
      </trkpt>
      <trkpt lat="47.9913" lon="6.91666">
        <ele>925</ele>
        <time>2020-03-01T11:48:39Z</time>
      </trkpt>
      <trkpt lat="47.99127" lon="6.91667">
        <ele>924</ele>
        <time>2020-03-01T11:48:40Z</time>
      </trkpt>
      <trkpt lat="47.99125" lon="6.91667">
        <ele>922</ele>
        <time>2020-03-01T11:48:41Z</time>
      </trkpt>
      <trkpt lat="47.99122" lon="6.91667">
        <ele>921</ele>
        <time>2020-03-01T11:48:42Z</time>
      </trkpt>
      <trkpt lat="47.9912" lon="6.91666">
        <ele>920</ele>
        <time>2020-03-01T11:48:44Z</time>
      </trkpt>
      <trkpt lat="47.99118" lon="6.91666">
        <ele>920</ele>
        <time>2020-03-01T11:48:45Z</time>
      </trkpt>
      <trkpt lat="47.99116" lon="6.91665">
        <ele>919</ele>
        <time>2020-03-01T11:48:46Z</time>
      </trkpt>
      <trkpt lat="47.99111" lon="6.91664">
        <ele>916</ele>
        <time>2020-03-01T11:48:49Z</time>
      </trkpt>
      <trkpt lat="47.99108" lon="6.91664">
        <ele>915</ele>
        <time>2020-03-01T11:48:50Z</time>
      </trkpt>
      <trkpt lat="47.99105" lon="6.91664">
        <ele>914</ele>
        <time>2020-03-01T11:48:52Z</time>
      </trkpt>
      <trkpt lat="47.991" lon="6.91664">
        <ele>914</ele>
        <time>2020-03-01T11:48:55Z</time>
      </trkpt>
      <trkpt lat="47.99096" lon="6.91664">
        <ele>913</ele>
        <time>2020-03-01T11:48:57Z</time>
      </trkpt>
      <trkpt lat="47.99091" lon="6.91663">
        <ele>914</ele>
        <time>2020-03-01T11:49:01Z</time>
      </trkpt>
      <trkpt lat="47.99089" lon="6.91662">
        <ele>913</ele>
        <time>2020-03-01T11:49:02Z</time>
      </trkpt>
      <trkpt lat="47.99087" lon="6.91662">
        <ele>913</ele>
        <time>2020-03-01T11:49:03Z</time>
      </trkpt>
      <trkpt lat="47.99082" lon="6.91661">
        <ele>914</ele>
        <time>2020-03-01T11:49:07Z</time>
      </trkpt>
      <trkpt lat="47.9908" lon="6.91661">
        <ele>914</ele>
        <time>2020-03-01T11:49:08Z</time>
      </trkpt>
      <trkpt lat="47.99078" lon="6.91662">
        <ele>914</ele>
        <time>2020-03-01T11:49:10Z</time>
      </trkpt>
      <trkpt lat="47.99073" lon="6.91662">
        <ele>914</ele>
        <time>2020-03-01T11:49:14Z</time>
      </trkpt>
      <trkpt lat="47.99068" lon="6.9166">
        <ele>915</ele>
        <time>2020-03-01T11:49:23Z</time>
      </trkpt>
      <trkpt lat="47.99066" lon="6.91659">
        <ele>914</ele>
        <time>2020-03-01T11:49:25Z</time>
      </trkpt>
      <trkpt lat="47.99063" lon="6.91659">
        <ele>914</ele>
        <time>2020-03-01T11:49:29Z</time>
      </trkpt>
      <trkpt lat="47.99061" lon="6.9166">
        <ele>914</ele>
        <time>2020-03-01T11:49:32Z</time>
      </trkpt>
      <trkpt lat="47.99058" lon="6.9166">
        <ele>913</ele>
        <time>2020-03-01T11:49:35Z</time>
      </trkpt>
      <trkpt lat="47.99056" lon="6.91662">
        <ele>912</ele>
        <time>2020-03-01T11:49:38Z</time>
      </trkpt>
      <trkpt lat="47.99051" lon="6.91663">
        <ele>910</ele>
        <time>2020-03-01T11:49:44Z</time>
      </trkpt>
      <trkpt lat="47.99049" lon="6.91665">
        <ele>910</ele>
        <time>2020-03-01T11:49:46Z</time>
      </trkpt>
      <trkpt lat="47.99046" lon="6.91667">
        <ele>910</ele>
        <time>2020-03-01T11:49:50Z</time>
      </trkpt>
      <trkpt lat="47.99043" lon="6.91668">
        <ele>910</ele>
        <time>2020-03-01T11:49:53Z</time>
      </trkpt>
      <trkpt lat="47.99041" lon="6.91669">
        <ele>910</ele>
        <time>2020-03-01T11:49:57Z</time>
      </trkpt>
      <trkpt lat="47.99039" lon="6.9167">
        <ele>910</ele>
        <time>2020-03-01T11:49:59Z</time>
      </trkpt>
      <trkpt lat="47.99037" lon="6.91671">
        <ele>910</ele>
        <time>2020-03-01T11:50:02Z</time>
      </trkpt>
      <trkpt lat="47.99035" lon="6.91673">
        <ele>910</ele>
        <time>2020-03-01T11:50:05Z</time>
      </trkpt>
      <trkpt lat="47.99033" lon="6.91675">
        <ele>909</ele>
        <time>2020-03-01T11:50:08Z</time>
      </trkpt>
      <trkpt lat="47.99032" lon="6.91677">
        <ele>909</ele>
        <time>2020-03-01T11:50:10Z</time>
      </trkpt>
      <trkpt lat="47.99029" lon="6.9168">
        <ele>909</ele>
        <time>2020-03-01T11:50:14Z</time>
      </trkpt>
      <trkpt lat="47.99027" lon="6.91682">
        <ele>909</ele>
        <time>2020-03-01T11:50:16Z</time>
      </trkpt>
      <trkpt lat="47.99024" lon="6.91685">
        <ele>909</ele>
        <time>2020-03-01T11:50:20Z</time>
      </trkpt>
      <trkpt lat="47.99022" lon="6.9169">
        <ele>908</ele>
        <time>2020-03-01T11:50:27Z</time>
      </trkpt>
      <trkpt lat="47.9902" lon="6.91692">
        <ele>907</ele>
        <time>2020-03-01T11:50:30Z</time>
      </trkpt>
      <trkpt lat="47.99019" lon="6.91695">
        <ele>906</ele>
        <time>2020-03-01T11:50:34Z</time>
      </trkpt>
      <trkpt lat="47.99018" lon="6.91698">
        <ele>904</ele>
        <time>2020-03-01T11:50:38Z</time>
      </trkpt>
      <trkpt lat="47.99017" lon="6.91702">
        <ele>903</ele>
        <time>2020-03-01T11:50:41Z</time>
      </trkpt>
      <trkpt lat="47.99016" lon="6.91705">
        <ele>903</ele>
        <time>2020-03-01T11:50:44Z</time>
      </trkpt>
      <trkpt lat="47.99014" lon="6.91708">
        <ele>903</ele>
        <time>2020-03-01T11:50:46Z</time>
      </trkpt>
      <trkpt lat="47.99012" lon="6.91713">
        <ele>902</ele>
        <time>2020-03-01T11:50:50Z</time>
      </trkpt>
      <trkpt lat="47.99012" lon="6.91716">
        <ele>901</ele>
        <time>2020-03-01T11:50:52Z</time>
      </trkpt>
      <trkpt lat="47.9901" lon="6.9172">
        <ele>902</ele>
        <time>2020-03-01T11:50:56Z</time>
      </trkpt>
      <trkpt lat="47.9901" lon="6.91724">
        <ele>903</ele>
        <time>2020-03-01T11:50:59Z</time>
      </trkpt>
      <trkpt lat="47.99008" lon="6.91727">
        <ele>902</ele>
        <time>2020-03-01T11:51:01Z</time>
      </trkpt>
      <trkpt lat="47.99007" lon="6.9173">
        <ele>902</ele>
        <time>2020-03-01T11:51:03Z</time>
      </trkpt>
      <trkpt lat="47.99006" lon="6.91734">
        <ele>903</ele>
        <time>2020-03-01T11:51:06Z</time>
      </trkpt>
      <trkpt lat="47.99006" lon="6.91737">
        <ele>903</ele>
        <time>2020-03-01T11:51:09Z</time>
      </trkpt>
      <trkpt lat="47.99005" lon="6.91742">
        <ele>903</ele>
        <time>2020-03-01T11:51:12Z</time>
      </trkpt>
      <trkpt lat="47.99005" lon="6.91746">
        <ele>903</ele>
        <time>2020-03-01T11:51:14Z</time>
      </trkpt>
      <trkpt lat="47.99005" lon="6.91749">
        <ele>905</ele>
        <time>2020-03-01T11:51:16Z</time>
      </trkpt>
      <trkpt lat="47.99005" lon="6.91752">
        <ele>904</ele>
        <time>2020-03-01T11:51:18Z</time>
      </trkpt>
      <trkpt lat="47.99006" lon="6.91756">
        <ele>904</ele>
        <time>2020-03-01T11:51:20Z</time>
      </trkpt>
      <trkpt lat="47.99007" lon="6.91759">
        <ele>905</ele>
        <time>2020-03-01T11:51:24Z</time>
      </trkpt>
      <trkpt lat="47.99008" lon="6.91762">
        <ele>906</ele>
        <time>2020-03-01T11:51:26Z</time>
      </trkpt>
      <trkpt lat="47.99008" lon="6.91765">
        <ele>906</ele>
        <time>2020-03-01T11:51:32Z</time>
      </trkpt>
      <trkpt lat="47.99009" lon="6.91769">
        <ele>905</ele>
        <time>2020-03-01T11:51:34Z</time>
      </trkpt>
      <trkpt lat="47.9901" lon="6.91773">
        <ele>905</ele>
        <time>2020-03-01T11:51:37Z</time>
      </trkpt>
      <trkpt lat="47.9901" lon="6.91776">
        <ele>905</ele>
        <time>2020-03-01T11:51:38Z</time>
      </trkpt>
      <trkpt lat="47.99009" lon="6.9178">
        <ele>904</ele>
        <time>2020-03-01T11:51:40Z</time>
      </trkpt>
      <trkpt lat="47.99009" lon="6.91783">
        <ele>904</ele>
        <time>2020-03-01T11:51:41Z</time>
      </trkpt>
      <trkpt lat="47.99011" lon="6.91786">
        <ele>905</ele>
        <time>2020-03-01T11:51:43Z</time>
      </trkpt>
      <trkpt lat="47.99011" lon="6.91789">
        <ele>908</ele>
        <time>2020-03-01T11:51:47Z</time>
      </trkpt>
      <trkpt lat="47.99014" lon="6.91791">
        <ele>909</ele>
        <time>2020-03-01T11:51:49Z</time>
      </trkpt>
      <trkpt lat="47.99016" lon="6.91792">
        <ele>909</ele>
        <time>2020-03-01T11:51:50Z</time>
      </trkpt>
      <trkpt lat="47.99018" lon="6.91795">
        <ele>908</ele>
        <time>2020-03-01T11:51:52Z</time>
      </trkpt>
      <trkpt lat="47.99019" lon="6.91797">
        <ele>907</ele>
        <time>2020-03-01T11:51:54Z</time>
      </trkpt>
      <trkpt lat="47.99023" lon="6.91796">
        <ele>906</ele>
        <time>2020-03-01T11:51:56Z</time>
      </trkpt>
      <trkpt lat="47.99025" lon="6.91796">
        <ele>906</ele>
        <time>2020-03-01T11:51:58Z</time>
      </trkpt>
      <trkpt lat="47.99025" lon="6.918">
        <ele>907</ele>
        <time>2020-03-01T11:52:08Z</time>
      </trkpt>
      <trkpt lat="47.99024" lon="6.91804">
        <ele>906</ele>
        <time>2020-03-01T11:52:10Z</time>
      </trkpt>
      <trkpt lat="47.99024" lon="6.91809">
        <ele>906</ele>
        <time>2020-03-01T11:52:14Z</time>
      </trkpt>
      <trkpt lat="47.99025" lon="6.91811">
        <ele>906</ele>
        <time>2020-03-01T11:52:15Z</time>
      </trkpt>
      <trkpt lat="47.99027" lon="6.91814">
        <ele>905</ele>
        <time>2020-03-01T11:52:17Z</time>
      </trkpt>
      <trkpt lat="47.99029" lon="6.91818">
        <ele>906</ele>
        <time>2020-03-01T11:52:20Z</time>
      </trkpt>
      <trkpt lat="47.9903" lon="6.91821">
        <ele>907</ele>
        <time>2020-03-01T11:52:22Z</time>
      </trkpt>
      <trkpt lat="47.99033" lon="6.91822">
        <ele>907</ele>
        <time>2020-03-01T11:52:24Z</time>
      </trkpt>
      <trkpt lat="47.99036" lon="6.91821">
        <ele>907</ele>
        <time>2020-03-01T11:52:26Z</time>
      </trkpt>
      <trkpt lat="47.99038" lon="6.91821">
        <ele>907</ele>
        <time>2020-03-01T11:52:31Z</time>
      </trkpt>
      <trkpt lat="47.9904" lon="6.91822">
        <ele>907</ele>
        <time>2020-03-01T11:52:33Z</time>
      </trkpt>
      <trkpt lat="47.99043" lon="6.91823">
        <ele>908</ele>
        <time>2020-03-01T11:52:35Z</time>
      </trkpt>
      <trkpt lat="47.99046" lon="6.91826">
        <ele>908</ele>
        <time>2020-03-01T11:52:37Z</time>
      </trkpt>
      <trkpt lat="47.99048" lon="6.91825">
        <ele>907</ele>
        <time>2020-03-01T11:52:39Z</time>
      </trkpt>
      <trkpt lat="47.9905" lon="6.91822">
        <ele>907</ele>
        <time>2020-03-01T11:52:41Z</time>
      </trkpt>
      <trkpt lat="47.99052" lon="6.9182">
        <ele>909</ele>
        <time>2020-03-01T11:52:43Z</time>
      </trkpt>
      <trkpt lat="47.99054" lon="6.9182">
        <ele>910</ele>
        <time>2020-03-01T11:52:44Z</time>
      </trkpt>
      <trkpt lat="47.99057" lon="6.91817">
        <ele>911</ele>
        <time>2020-03-01T11:52:46Z</time>
      </trkpt>
      <trkpt lat="47.99059" lon="6.91816">
        <ele>912</ele>
        <time>2020-03-01T11:52:49Z</time>
      </trkpt>
      <trkpt lat="47.99061" lon="6.91818">
        <ele>912</ele>
        <time>2020-03-01T11:52:53Z</time>
      </trkpt>
      <trkpt lat="47.99064" lon="6.91817">
        <ele>911</ele>
        <time>2020-03-01T11:52:55Z</time>
      </trkpt>
      <trkpt lat="47.99067" lon="6.91817">
        <ele>913</ele>
        <time>2020-03-01T11:52:57Z</time>
      </trkpt>
      <trkpt lat="47.99069" lon="6.91817">
        <ele>913</ele>
        <time>2020-03-01T11:52:59Z</time>
      </trkpt>
      <trkpt lat="47.99071" lon="6.91816">
        <ele>912</ele>
        <time>2020-03-01T11:53:01Z</time>
      </trkpt>
      <trkpt lat="47.99074" lon="6.91814">
        <ele>915</ele>
        <time>2020-03-01T11:53:03Z</time>
      </trkpt>
      <trkpt lat="47.99075" lon="6.91816">
        <ele>915</ele>
        <time>2020-03-01T11:53:05Z</time>
      </trkpt>
      <trkpt lat="47.99078" lon="6.91814">
        <ele>915</ele>
        <time>2020-03-01T11:53:07Z</time>
      </trkpt>
      <trkpt lat="47.99079" lon="6.91811">
        <ele>915</ele>
        <time>2020-03-01T11:53:10Z</time>
      </trkpt>
      <trkpt lat="47.99082" lon="6.91811">
        <ele>915</ele>
        <time>2020-03-01T11:53:12Z</time>
      </trkpt>
      <trkpt lat="47.99084" lon="6.91814">
        <ele>914</ele>
        <time>2020-03-01T11:53:14Z</time>
      </trkpt>
      <trkpt lat="47.99086" lon="6.91816">
        <ele>913</ele>
        <time>2020-03-01T11:53:22Z</time>
      </trkpt>
      <trkpt lat="47.99088" lon="6.91818">
        <ele>912</ele>
        <time>2020-03-01T11:53:26Z</time>
      </trkpt>
      <trkpt lat="47.9909" lon="6.9182">
        <ele>911</ele>
        <time>2020-03-01T11:53:30Z</time>
      </trkpt>
      <trkpt lat="47.99093" lon="6.9182">
        <ele>911</ele>
        <time>2020-03-01T11:53:32Z</time>
      </trkpt>
      <trkpt lat="47.99095" lon="6.91819">
        <ele>912</ele>
        <time>2020-03-01T11:53:39Z</time>
      </trkpt>
      <trkpt lat="47.99098" lon="6.91818">
        <ele>912</ele>
        <time>2020-03-01T11:53:41Z</time>
      </trkpt>
      <trkpt lat="47.991" lon="6.91818">
        <ele>914</ele>
        <time>2020-03-01T11:53:43Z</time>
      </trkpt>
      <trkpt lat="47.99101" lon="6.91819">
        <ele>914</ele>
        <time>2020-03-01T11:53:46Z</time>
      </trkpt>
      <trkpt lat="47.99104" lon="6.91819">
        <ele>915</ele>
        <time>2020-03-01T11:53:48Z</time>
      </trkpt>
      <trkpt lat="47.99107" lon="6.91819">
        <ele>915</ele>
        <time>2020-03-01T11:53:50Z</time>
      </trkpt>
      <trkpt lat="47.99109" lon="6.91818">
        <ele>915</ele>
        <time>2020-03-01T11:53:52Z</time>
      </trkpt>
      <trkpt lat="47.99112" lon="6.9182">
        <ele>915</ele>
        <time>2020-03-01T11:53:54Z</time>
      </trkpt>
      <trkpt lat="47.99115" lon="6.91819">
        <ele>916</ele>
        <time>2020-03-01T11:53:56Z</time>
      </trkpt>
      <trkpt lat="47.99117" lon="6.91819">
        <ele>916</ele>
        <time>2020-03-01T11:53:57Z</time>
      </trkpt>
      <trkpt lat="47.99119" lon="6.91819">
        <ele>916</ele>
        <time>2020-03-01T11:53:58Z</time>
      </trkpt>
      <trkpt lat="47.99122" lon="6.91819">
        <ele>915</ele>
        <time>2020-03-01T11:54:02Z</time>
      </trkpt>
      <trkpt lat="47.99124" lon="6.9182">
        <ele>916</ele>
        <time>2020-03-01T11:54:04Z</time>
      </trkpt>
      <trkpt lat="47.99127" lon="6.91818">
        <ele>916</ele>
        <time>2020-03-01T11:54:06Z</time>
      </trkpt>
      <trkpt lat="47.99129" lon="6.91817">
        <ele>917</ele>
        <time>2020-03-01T11:54:08Z</time>
      </trkpt>
      <trkpt lat="47.99131" lon="6.91819">
        <ele>917</ele>
        <time>2020-03-01T11:54:10Z</time>
      </trkpt>
      <trkpt lat="47.99134" lon="6.9182">
        <ele>918</ele>
        <time>2020-03-01T11:54:12Z</time>
      </trkpt>
      <trkpt lat="47.99136" lon="6.9182">
        <ele>917</ele>
        <time>2020-03-01T11:54:13Z</time>
      </trkpt>
      <trkpt lat="47.99139" lon="6.91819">
        <ele>918</ele>
        <time>2020-03-01T11:54:14Z</time>
      </trkpt>
      <trkpt lat="47.99141" lon="6.91818">
        <ele>918</ele>
        <time>2020-03-01T11:54:15Z</time>
      </trkpt>
      <trkpt lat="47.99143" lon="6.91819">
        <ele>918</ele>
        <time>2020-03-01T11:54:17Z</time>
      </trkpt>
      <trkpt lat="47.99145" lon="6.91817">
        <ele>918</ele>
        <time>2020-03-01T11:54:19Z</time>
      </trkpt>
      <trkpt lat="47.99147" lon="6.91816">
        <ele>919</ele>
        <time>2020-03-01T11:54:22Z</time>
      </trkpt>
      <trkpt lat="47.99149" lon="6.91814">
        <ele>919</ele>
        <time>2020-03-01T11:54:23Z</time>
      </trkpt>
      <trkpt lat="47.99151" lon="6.91814">
        <ele>920</ele>
        <time>2020-03-01T11:54:25Z</time>
      </trkpt>
      <trkpt lat="47.99154" lon="6.91813">
        <ele>919</ele>
        <time>2020-03-01T11:54:29Z</time>
      </trkpt>
      <trkpt lat="47.99156" lon="6.91812">
        <ele>919</ele>
        <time>2020-03-01T11:54:31Z</time>
      </trkpt>
      <trkpt lat="47.99157" lon="6.91809">
        <ele>918</ele>
        <time>2020-03-01T11:54:33Z</time>
      </trkpt>
      <trkpt lat="47.99154" lon="6.9181">
        <ele>917</ele>
        <time>2020-03-01T11:54:35Z</time>
      </trkpt>
      <trkpt lat="47.99153" lon="6.91809">
        <ele>916</ele>
        <time>2020-03-01T11:54:39Z</time>
      </trkpt>
      <trkpt lat="47.99154" lon="6.91806">
        <ele>916</ele>
        <time>2020-03-01T11:54:42Z</time>
      </trkpt>
      <trkpt lat="47.99155" lon="6.91801">
        <ele>917</ele>
        <time>2020-03-01T11:54:44Z</time>
      </trkpt>
      <trkpt lat="47.99157" lon="6.918">
        <ele>917</ele>
        <time>2020-03-01T11:54:46Z</time>
      </trkpt>
      <trkpt lat="47.99158" lon="6.91798">
        <ele>919</ele>
        <time>2020-03-01T11:54:50Z</time>
      </trkpt>
      <trkpt lat="47.9916" lon="6.91797">
        <ele>919</ele>
        <time>2020-03-01T11:54:53Z</time>
      </trkpt>
      <trkpt lat="47.99163" lon="6.91796">
        <ele>920</ele>
        <time>2020-03-01T11:54:58Z</time>
      </trkpt>
      <trkpt lat="47.99165" lon="6.91795">
        <ele>921</ele>
        <time>2020-03-01T11:55:00Z</time>
      </trkpt>
      <trkpt lat="47.99166" lon="6.91794">
        <ele>921</ele>
        <time>2020-03-01T11:55:02Z</time>
      </trkpt>
      <trkpt lat="47.99168" lon="6.91794">
        <ele>921</ele>
        <time>2020-03-01T11:55:04Z</time>
      </trkpt>
      <trkpt lat="47.99169" lon="6.91791">
        <ele>922</ele>
        <time>2020-03-01T11:55:08Z</time>
      </trkpt>
      <trkpt lat="47.99171" lon="6.9179">
        <ele>923</ele>
        <time>2020-03-01T11:55:10Z</time>
      </trkpt>
      <trkpt lat="47.99173" lon="6.91789">
        <ele>924</ele>
        <time>2020-03-01T11:55:12Z</time>
      </trkpt>
      <trkpt lat="47.99175" lon="6.91787">
        <ele>924</ele>
        <time>2020-03-01T11:55:16Z</time>
      </trkpt>
      <trkpt lat="47.99176" lon="6.91783">
        <ele>925</ele>
        <time>2020-03-01T11:55:19Z</time>
      </trkpt>
      <trkpt lat="47.99177" lon="6.91779">
        <ele>925</ele>
        <time>2020-03-01T11:55:21Z</time>
      </trkpt>
      <trkpt lat="47.99179" lon="6.91777">
        <ele>926</ele>
        <time>2020-03-01T11:55:25Z</time>
      </trkpt>
      <trkpt lat="47.9918" lon="6.91775">
        <ele>926</ele>
        <time>2020-03-01T11:55:34Z</time>
      </trkpt>
      <trkpt lat="47.9918" lon="6.91779">
        <ele>928</ele>
        <time>2020-03-01T11:56:34Z</time>
      </trkpt>
      <trkpt lat="47.99179" lon="6.91781">
        <ele>926</ele>
        <time>2020-03-01T11:56:45Z</time>
      </trkpt>
      <trkpt lat="47.9918" lon="6.91779">
        <ele>920</ele>
        <time>2020-03-01T11:57:07Z</time>
      </trkpt>
      <trkpt lat="47.99182" lon="6.91778">
        <ele>920</ele>
        <time>2020-03-01T11:57:59Z</time>
      </trkpt>
      <trkpt lat="47.99183" lon="6.91782">
        <ele>919</ele>
        <time>2020-03-01T11:58:12Z</time>
      </trkpt>
      <trkpt lat="47.99181" lon="6.91783">
        <ele>916</ele>
        <time>2020-03-01T11:59:28Z</time>
      </trkpt>
      <trkpt lat="47.99183" lon="6.91783">
        <ele>914</ele>
        <time>2020-03-01T11:59:48Z</time>
      </trkpt>
      <trkpt lat="47.99185" lon="6.91785">
        <ele>914</ele>
        <time>2020-03-01T11:59:52Z</time>
      </trkpt>
      <trkpt lat="47.99183" lon="6.91786">
        <ele>914</ele>
        <time>2020-03-01T12:00:05Z</time>
      </trkpt>
      <trkpt lat="47.99322" lon="6.91603">
        <ele>889</ele>
        <time>2020-03-01T12:07:01Z</time>
      </trkpt>
      <trkpt lat="47.9932" lon="6.91601">
        <ele>889</ele>
        <time>2020-03-01T12:07:06Z</time>
      </trkpt>
      <trkpt lat="47.99321" lon="6.91604">
        <ele>879</ele>
        <time>2020-03-01T12:07:42Z</time>
      </trkpt>
      <trkpt lat="47.9932" lon="6.91607">
        <ele>879</ele>
        <time>2020-03-01T12:07:45Z</time>
      </trkpt>
      <trkpt lat="47.99319" lon="6.9161">
        <ele>879</ele>
        <time>2020-03-01T12:07:47Z</time>
      </trkpt>
      <trkpt lat="47.99319" lon="6.91613">
        <ele>878</ele>
        <time>2020-03-01T12:07:49Z</time>
      </trkpt>
      <trkpt lat="47.99319" lon="6.91616">
        <ele>877</ele>
        <time>2020-03-01T12:07:52Z</time>
      </trkpt>
      <trkpt lat="47.99318" lon="6.91619">
        <ele>878</ele>
        <time>2020-03-01T12:07:55Z</time>
      </trkpt>
      <trkpt lat="47.99318" lon="6.91622">
        <ele>877</ele>
        <time>2020-03-01T12:07:58Z</time>
      </trkpt>
      <trkpt lat="47.9932" lon="6.91624">
        <ele>877</ele>
        <time>2020-03-01T12:08:01Z</time>
      </trkpt>
      <trkpt lat="47.99322" lon="6.91627">
        <ele>877</ele>
        <time>2020-03-01T12:08:04Z</time>
      </trkpt>
      <trkpt lat="47.99321" lon="6.9163">
        <ele>876</ele>
        <time>2020-03-01T12:08:08Z</time>
      </trkpt>
      <trkpt lat="47.9932" lon="6.91632">
        <ele>877</ele>
        <time>2020-03-01T12:08:11Z</time>
      </trkpt>
      <trkpt lat="47.99319" lon="6.91635">
        <ele>877</ele>
        <time>2020-03-01T12:08:15Z</time>
      </trkpt>
      <trkpt lat="47.99319" lon="6.91638">
        <ele>878</ele>
        <time>2020-03-01T12:08:17Z</time>
      </trkpt>
      <trkpt lat="47.99316" lon="6.9164">
        <ele>877</ele>
        <time>2020-03-01T12:08:19Z</time>
      </trkpt>
      <trkpt lat="47.99315" lon="6.91643">
        <ele>876</ele>
        <time>2020-03-01T12:08:21Z</time>
      </trkpt>
      <trkpt lat="47.99314" lon="6.91646">
        <ele>876</ele>
        <time>2020-03-01T12:08:23Z</time>
      </trkpt>
      <trkpt lat="47.99313" lon="6.91649">
        <ele>876</ele>
        <time>2020-03-01T12:08:27Z</time>
      </trkpt>
      <trkpt lat="47.99311" lon="6.9165">
        <ele>876</ele>
        <time>2020-03-01T12:08:29Z</time>
      </trkpt>
      <trkpt lat="47.9931" lon="6.91653">
        <ele>876</ele>
        <time>2020-03-01T12:08:32Z</time>
      </trkpt>
      <trkpt lat="47.99309" lon="6.91656">
        <ele>876</ele>
        <time>2020-03-01T12:08:35Z</time>
      </trkpt>
      <trkpt lat="47.99308" lon="6.91659">
        <ele>876</ele>
        <time>2020-03-01T12:08:37Z</time>
      </trkpt>
      <trkpt lat="47.99307" lon="6.91663">
        <ele>876</ele>
        <time>2020-03-01T12:08:39Z</time>
      </trkpt>
      <trkpt lat="47.99306" lon="6.91666">
        <ele>876</ele>
        <time>2020-03-01T12:08:42Z</time>
      </trkpt>
      <trkpt lat="47.99304" lon="6.91669">
        <ele>877</ele>
        <time>2020-03-01T12:08:46Z</time>
      </trkpt>
      <trkpt lat="47.99303" lon="6.91672">
        <ele>877</ele>
        <time>2020-03-01T12:08:48Z</time>
      </trkpt>
      <trkpt lat="47.99301" lon="6.91674">
        <ele>876</ele>
        <time>2020-03-01T12:08:52Z</time>
      </trkpt>
      <trkpt lat="47.99299" lon="6.91676">
        <ele>876</ele>
        <time>2020-03-01T12:08:54Z</time>
      </trkpt>
      <trkpt lat="47.99297" lon="6.91678">
        <ele>876</ele>
        <time>2020-03-01T12:08:56Z</time>
      </trkpt>
      <trkpt lat="47.99297" lon="6.9168">
        <ele>876</ele>
        <time>2020-03-01T12:08:58Z</time>
      </trkpt>
      <trkpt lat="47.99295" lon="6.91684">
        <ele>876</ele>
        <time>2020-03-01T12:09:01Z</time>
      </trkpt>
      <trkpt lat="47.99293" lon="6.91688">
        <ele>877</ele>
        <time>2020-03-01T12:09:03Z</time>
      </trkpt>
      <trkpt lat="47.99294" lon="6.91691">
        <ele>877</ele>
        <time>2020-03-01T12:09:06Z</time>
      </trkpt>
      <trkpt lat="47.99296" lon="6.91691">
        <ele>879</ele>
        <time>2020-03-01T12:09:11Z</time>
      </trkpt>
      <trkpt lat="47.99299" lon="6.91692">
        <ele>884</ele>
        <time>2020-03-01T12:09:16Z</time>
      </trkpt>
      <trkpt lat="47.993" lon="6.91691">
        <ele>881</ele>
        <time>2020-03-01T12:09:19Z</time>
      </trkpt>
      <trkpt lat="47.99302" lon="6.9169">
        <ele>883</ele>
        <time>2020-03-01T12:09:25Z</time>
      </trkpt>
      <trkpt lat="47.99304" lon="6.91688">
        <ele>884</ele>
        <time>2020-03-01T12:09:28Z</time>
      </trkpt>
      <trkpt lat="47.99305" lon="6.91686">
        <ele>885</ele>
        <time>2020-03-01T12:09:40Z</time>
      </trkpt>
      <trkpt lat="47.99306" lon="6.91683">
        <ele>884</ele>
        <time>2020-03-01T12:09:47Z</time>
      </trkpt>
      <trkpt lat="47.99309" lon="6.91684">
        <ele>884</ele>
        <time>2020-03-01T12:09:51Z</time>
      </trkpt>
      <trkpt lat="47.99311" lon="6.91682">
        <ele>884</ele>
        <time>2020-03-01T12:09:56Z</time>
      </trkpt>
      <trkpt lat="47.99311" lon="6.91679">
        <ele>886</ele>
        <time>2020-03-01T12:10:00Z</time>
      </trkpt>
      <trkpt lat="47.99314" lon="6.9168">
        <ele>887</ele>
        <time>2020-03-01T12:10:04Z</time>
      </trkpt>
      <trkpt lat="47.99316" lon="6.91679">
        <ele>889</ele>
        <time>2020-03-01T12:10:11Z</time>
      </trkpt>
      <trkpt lat="47.99317" lon="6.91676">
        <ele>889</ele>
        <time>2020-03-01T12:10:16Z</time>
      </trkpt>
      <trkpt lat="47.99319" lon="6.91674">
        <ele>889</ele>
        <time>2020-03-01T12:10:22Z</time>
      </trkpt>
      <trkpt lat="47.99321" lon="6.91672">
        <ele>888</ele>
        <time>2020-03-01T12:10:25Z</time>
      </trkpt>
      <trkpt lat="47.99323" lon="6.91669">
        <ele>888</ele>
        <time>2020-03-01T12:10:28Z</time>
      </trkpt>
      <trkpt lat="47.99324" lon="6.91666">
        <ele>888</ele>
        <time>2020-03-01T12:10:36Z</time>
      </trkpt>
      <trkpt lat="47.99326" lon="6.91664">
        <ele>888</ele>
        <time>2020-03-01T12:10:38Z</time>
      </trkpt>
      <trkpt lat="47.99326" lon="6.9166">
        <ele>888</ele>
        <time>2020-03-01T12:10:41Z</time>
      </trkpt>
      <trkpt lat="47.99328" lon="6.91659">
        <ele>886</ele>
        <time>2020-03-01T12:10:45Z</time>
      </trkpt>
      <trkpt lat="47.9933" lon="6.91658">
        <ele>885</ele>
        <time>2020-03-01T12:10:50Z</time>
      </trkpt>
      <trkpt lat="47.99333" lon="6.91657">
        <ele>884</ele>
        <time>2020-03-01T12:10:52Z</time>
      </trkpt>
      <trkpt lat="47.99335" lon="6.91655">
        <ele>881</ele>
        <time>2020-03-01T12:10:55Z</time>
      </trkpt>
      <trkpt lat="47.99337" lon="6.91656">
        <ele>880</ele>
        <time>2020-03-01T12:10:58Z</time>
      </trkpt>
      <trkpt lat="47.99339" lon="6.91654">
        <ele>880</ele>
        <time>2020-03-01T12:11:00Z</time>
      </trkpt>
      <trkpt lat="47.99342" lon="6.91654">
        <ele>880</ele>
        <time>2020-03-01T12:11:02Z</time>
      </trkpt>
      <trkpt lat="47.99344" lon="6.91654">
        <ele>879</ele>
        <time>2020-03-01T12:11:04Z</time>
      </trkpt>
      <trkpt lat="47.99346" lon="6.91652">
        <ele>879</ele>
        <time>2020-03-01T12:11:06Z</time>
      </trkpt>
      <trkpt lat="47.99348" lon="6.91651">
        <ele>877</ele>
        <time>2020-03-01T12:11:09Z</time>
      </trkpt>
      <trkpt lat="47.9935" lon="6.91649">
        <ele>877</ele>
        <time>2020-03-01T12:11:11Z</time>
      </trkpt>
      <trkpt lat="47.99352" lon="6.91649">
        <ele>877</ele>
        <time>2020-03-01T12:11:13Z</time>
      </trkpt>
      <trkpt lat="47.99354" lon="6.91648">
        <ele>876</ele>
        <time>2020-03-01T12:11:15Z</time>
      </trkpt>
      <trkpt lat="47.99356" lon="6.91648">
        <ele>877</ele>
        <time>2020-03-01T12:11:17Z</time>
      </trkpt>
      <trkpt lat="47.99358" lon="6.91648">
        <ele>878</ele>
        <time>2020-03-01T12:11:19Z</time>
      </trkpt>
      <trkpt lat="47.99361" lon="6.91647">
        <ele>877</ele>
        <time>2020-03-01T12:11:22Z</time>
      </trkpt>
      <trkpt lat="47.99363" lon="6.91646">
        <ele>878</ele>
        <time>2020-03-01T12:11:24Z</time>
      </trkpt>
      <trkpt lat="47.99364" lon="6.91643">
        <ele>878</ele>
        <time>2020-03-01T12:11:28Z</time>
      </trkpt>
      <trkpt lat="47.99366" lon="6.91642">
        <ele>877</ele>
        <time>2020-03-01T12:11:30Z</time>
      </trkpt>
      <trkpt lat="47.99368" lon="6.91641">
        <ele>876</ele>
        <time>2020-03-01T12:11:32Z</time>
      </trkpt>
      <trkpt lat="47.9937" lon="6.91641">
        <ele>876</ele>
        <time>2020-03-01T12:11:37Z</time>
      </trkpt>
      <trkpt lat="47.99369" lon="6.91638">
        <ele>874</ele>
        <time>2020-03-01T12:11:56Z</time>
      </trkpt>
      <trkpt lat="47.99367" lon="6.91637">
        <ele>870</ele>
        <time>2020-03-01T12:12:03Z</time>
      </trkpt>
      <trkpt lat="47.99369" lon="6.91635">
        <ele>871</ele>
        <time>2020-03-01T12:12:38Z</time>
      </trkpt>
      <trkpt lat="47.9937" lon="6.91633">
        <ele>871</ele>
        <time>2020-03-01T12:12:40Z</time>
      </trkpt>
      <trkpt lat="47.9937" lon="6.91629">
        <ele>873</ele>
        <time>2020-03-01T12:12:43Z</time>
      </trkpt>
      <trkpt lat="47.99371" lon="6.91627">
        <ele>873</ele>
        <time>2020-03-01T12:12:46Z</time>
      </trkpt>
      <trkpt lat="47.99371" lon="6.91623">
        <ele>874</ele>
        <time>2020-03-01T12:12:51Z</time>
      </trkpt>
      <trkpt lat="47.99372" lon="6.9162">
        <ele>874</ele>
        <time>2020-03-01T12:12:53Z</time>
      </trkpt>
      <trkpt lat="47.99373" lon="6.91617">
        <ele>875</ele>
        <time>2020-03-01T12:12:55Z</time>
      </trkpt>
      <trkpt lat="47.99374" lon="6.91615">
        <ele>874</ele>
        <time>2020-03-01T12:12:57Z</time>
      </trkpt>
      <trkpt lat="47.99378" lon="6.91612">
        <ele>875</ele>
        <time>2020-03-01T12:12:59Z</time>
      </trkpt>
      <trkpt lat="47.9938" lon="6.91611">
        <ele>875</ele>
        <time>2020-03-01T12:13:01Z</time>
      </trkpt>
      <trkpt lat="47.99379" lon="6.91608">
        <ele>875</ele>
        <time>2020-03-01T12:13:04Z</time>
      </trkpt>
      <trkpt lat="47.99379" lon="6.91605">
        <ele>875</ele>
        <time>2020-03-01T12:13:07Z</time>
      </trkpt>
      <trkpt lat="47.9938" lon="6.91602">
        <ele>876</ele>
        <time>2020-03-01T12:13:09Z</time>
      </trkpt>
      <trkpt lat="47.99382" lon="6.91602">
        <ele>871</ele>
        <time>2020-03-01T12:13:27Z</time>
      </trkpt>
      <trkpt lat="47.99383" lon="6.91599">
        <ele>871</ele>
        <time>2020-03-01T12:13:35Z</time>
      </trkpt>
      <trkpt lat="47.99385" lon="6.91597">
        <ele>871</ele>
        <time>2020-03-01T12:13:38Z</time>
      </trkpt>
      <trkpt lat="47.99384" lon="6.91595">
        <ele>870</ele>
        <time>2020-03-01T12:13:40Z</time>
      </trkpt>
      <trkpt lat="47.99385" lon="6.91592">
        <ele>871</ele>
        <time>2020-03-01T12:13:43Z</time>
      </trkpt>
      <trkpt lat="47.99387" lon="6.91591">
        <ele>870</ele>
        <time>2020-03-01T12:13:46Z</time>
      </trkpt>
      <trkpt lat="47.99389" lon="6.9159">
        <ele>870</ele>
        <time>2020-03-01T12:13:49Z</time>
      </trkpt>
      <trkpt lat="47.99393" lon="6.91589">
        <ele>863</ele>
        <time>2020-03-01T12:14:07Z</time>
      </trkpt>
      <trkpt lat="47.99395" lon="6.91589">
        <ele>864</ele>
        <time>2020-03-01T12:14:09Z</time>
      </trkpt>
      <trkpt lat="47.99398" lon="6.91591">
        <ele>863</ele>
        <time>2020-03-01T12:14:12Z</time>
      </trkpt>
      <trkpt lat="47.994" lon="6.91591">
        <ele>862</ele>
        <time>2020-03-01T12:14:20Z</time>
      </trkpt>
      <trkpt lat="47.99402" lon="6.91591">
        <ele>863</ele>
        <time>2020-03-01T12:14:25Z</time>
      </trkpt>
      <trkpt lat="47.99404" lon="6.91591">
        <ele>862</ele>
        <time>2020-03-01T12:14:27Z</time>
      </trkpt>
      <trkpt lat="47.99402" lon="6.9159">
        <ele>860</ele>
        <time>2020-03-01T12:14:32Z</time>
      </trkpt>
      <trkpt lat="47.994" lon="6.9159">
        <ele>864</ele>
        <time>2020-03-01T12:14:41Z</time>
      </trkpt>
      <trkpt lat="47.99398" lon="6.9159">
        <ele>863</ele>
        <time>2020-03-01T12:14:43Z</time>
      </trkpt>
      <trkpt lat="47.994" lon="6.91592">
        <ele>862</ele>
        <time>2020-03-01T12:14:50Z</time>
      </trkpt>
      <trkpt lat="47.99402" lon="6.91591">
        <ele>862</ele>
        <time>2020-03-01T12:14:54Z</time>
      </trkpt>
      <trkpt lat="47.99404" lon="6.91591">
        <ele>864</ele>
        <time>2020-03-01T12:14:57Z</time>
      </trkpt>
      <trkpt lat="47.99406" lon="6.9159">
        <ele>862</ele>
        <time>2020-03-01T12:15:01Z</time>
      </trkpt>
      <trkpt lat="47.99409" lon="6.9159">
        <ele>861</ele>
        <time>2020-03-01T12:15:03Z</time>
      </trkpt>
      <trkpt lat="47.99411" lon="6.91589">
        <ele>859</ele>
        <time>2020-03-01T12:15:10Z</time>
      </trkpt>
      <trkpt lat="47.99414" lon="6.91588">
        <ele>858</ele>
        <time>2020-03-01T12:15:13Z</time>
      </trkpt>
      <trkpt lat="47.99416" lon="6.91589">
        <ele>859</ele>
        <time>2020-03-01T12:15:20Z</time>
      </trkpt>
      <trkpt lat="47.99418" lon="6.91591">
        <ele>858</ele>
        <time>2020-03-01T12:15:23Z</time>
      </trkpt>
      <trkpt lat="47.99422" lon="6.91591">
        <ele>859</ele>
        <time>2020-03-01T12:15:25Z</time>
      </trkpt>
      <trkpt lat="47.99424" lon="6.91592">
        <ele>859</ele>
        <time>2020-03-01T12:15:33Z</time>
      </trkpt>
      <trkpt lat="47.99426" lon="6.91592">
        <ele>855</ele>
        <time>2020-03-01T12:15:39Z</time>
      </trkpt>
      <trkpt lat="47.99428" lon="6.91593">
        <ele>853</ele>
        <time>2020-03-01T12:15:42Z</time>
      </trkpt>
      <trkpt lat="47.9943" lon="6.91593">
        <ele>852</ele>
        <time>2020-03-01T12:15:46Z</time>
      </trkpt>
      <trkpt lat="47.99432" lon="6.91593">
        <ele>851</ele>
        <time>2020-03-01T12:15:51Z</time>
      </trkpt>
      <trkpt lat="47.99435" lon="6.91593">
        <ele>850</ele>
        <time>2020-03-01T12:15:54Z</time>
      </trkpt>
      <trkpt lat="47.99436" lon="6.91594">
        <ele>851</ele>
        <time>2020-03-01T12:15:57Z</time>
      </trkpt>
      <trkpt lat="47.99439" lon="6.91595">
        <ele>849</ele>
        <time>2020-03-01T12:16:01Z</time>
      </trkpt>
      <trkpt lat="47.99441" lon="6.91595">
        <ele>850</ele>
        <time>2020-03-01T12:16:03Z</time>
      </trkpt>
      <trkpt lat="47.99444" lon="6.91596">
        <ele>849</ele>
        <time>2020-03-01T12:16:05Z</time>
      </trkpt>
      <trkpt lat="47.99446" lon="6.91596">
        <ele>849</ele>
        <time>2020-03-01T12:16:07Z</time>
      </trkpt>
      <trkpt lat="47.99445" lon="6.91593">
        <ele>853</ele>
        <time>2020-03-01T12:16:15Z</time>
      </trkpt>
      <trkpt lat="47.99443" lon="6.91594">
        <ele>854</ele>
        <time>2020-03-01T12:16:17Z</time>
      </trkpt>
      <trkpt lat="47.99445" lon="6.91595">
        <ele>854</ele>
        <time>2020-03-01T12:16:22Z</time>
      </trkpt>
      <trkpt lat="47.99447" lon="6.91595">
        <ele>851</ele>
        <time>2020-03-01T12:16:24Z</time>
      </trkpt>
      <trkpt lat="47.99449" lon="6.91594">
        <ele>851</ele>
        <time>2020-03-01T12:16:28Z</time>
      </trkpt>
      <trkpt lat="47.99452" lon="6.91595">
        <ele>851</ele>
        <time>2020-03-01T12:16:53Z</time>
      </trkpt>
      <trkpt lat="47.99454" lon="6.91596">
        <ele>851</ele>
        <time>2020-03-01T12:16:55Z</time>
      </trkpt>
      <trkpt lat="47.99456" lon="6.91595">
        <ele>851</ele>
        <time>2020-03-01T12:17:04Z</time>
      </trkpt>
      <trkpt lat="47.99457" lon="6.91597">
        <ele>850</ele>
        <time>2020-03-01T12:17:07Z</time>
      </trkpt>
      <trkpt lat="47.99459" lon="6.91596">
        <ele>850</ele>
        <time>2020-03-01T12:17:13Z</time>
      </trkpt>
      <trkpt lat="47.99462" lon="6.91598">
        <ele>847</ele>
        <time>2020-03-01T12:17:18Z</time>
      </trkpt>
      <trkpt lat="47.99461" lon="6.916">
        <ele>850</ele>
        <time>2020-03-01T12:17:20Z</time>
      </trkpt>
      <trkpt lat="47.99459" lon="6.91601">
        <ele>849</ele>
        <time>2020-03-01T12:17:22Z</time>
      </trkpt>
      <trkpt lat="47.99461" lon="6.91602">
        <ele>853</ele>
        <time>2020-03-01T12:17:28Z</time>
      </trkpt>
      <trkpt lat="47.99463" lon="6.91603">
        <ele>853</ele>
        <time>2020-03-01T12:17:31Z</time>
      </trkpt>
      <trkpt lat="47.99466" lon="6.91605">
        <ele>854</ele>
        <time>2020-03-01T12:17:33Z</time>
      </trkpt>
      <trkpt lat="47.99467" lon="6.91606">
        <ele>850</ele>
        <time>2020-03-01T12:17:37Z</time>
      </trkpt>
      <trkpt lat="47.9947" lon="6.91606">
        <ele>850</ele>
        <time>2020-03-01T12:17:40Z</time>
      </trkpt>
      <trkpt lat="47.99471" lon="6.9161">
        <ele>852</ele>
        <time>2020-03-01T12:17:43Z</time>
      </trkpt>
      <trkpt lat="47.99473" lon="6.9161">
        <ele>849</ele>
        <time>2020-03-01T12:17:47Z</time>
      </trkpt>
      <trkpt lat="47.99476" lon="6.9161">
        <ele>847</ele>
        <time>2020-03-01T12:17:51Z</time>
      </trkpt>
      <trkpt lat="47.99478" lon="6.91611">
        <ele>846</ele>
        <time>2020-03-01T12:17:54Z</time>
      </trkpt>
      <trkpt lat="47.9948" lon="6.91611">
        <ele>845</ele>
        <time>2020-03-01T12:17:57Z</time>
      </trkpt>
      <trkpt lat="47.99481" lon="6.91614">
        <ele>846</ele>
        <time>2020-03-01T12:17:59Z</time>
      </trkpt>
      <trkpt lat="47.99484" lon="6.91616">
        <ele>846</ele>
        <time>2020-03-01T12:18:05Z</time>
      </trkpt>
      <trkpt lat="47.99486" lon="6.91617">
        <ele>848</ele>
        <time>2020-03-01T12:18:14Z</time>
      </trkpt>
      <trkpt lat="47.99488" lon="6.9162">
        <ele>846</ele>
        <time>2020-03-01T12:18:18Z</time>
      </trkpt>
      <trkpt lat="47.99489" lon="6.91622">
        <ele>846</ele>
        <time>2020-03-01T12:18:22Z</time>
      </trkpt>
      <trkpt lat="47.99487" lon="6.9162">
        <ele>848</ele>
        <time>2020-03-01T12:18:29Z</time>
      </trkpt>
      <trkpt lat="47.99489" lon="6.91623">
        <ele>841</ele>
        <time>2020-03-01T12:18:58Z</time>
      </trkpt>
      <trkpt lat="47.9949" lon="6.91626">
        <ele>841</ele>
        <time>2020-03-01T12:19:00Z</time>
      </trkpt>
      <trkpt lat="47.99487" lon="6.91625">
        <ele>839</ele>
        <time>2020-03-01T12:19:09Z</time>
      </trkpt>
      <trkpt lat="47.99485" lon="6.91625">
        <ele>855</ele>
        <time>2020-03-01T12:19:42Z</time>
      </trkpt>
      <trkpt lat="47.99487" lon="6.91623">
        <ele>853</ele>
        <time>2020-03-01T12:19:45Z</time>
      </trkpt>
      <trkpt lat="47.99489" lon="6.91623">
        <ele>850</ele>
        <time>2020-03-01T12:19:49Z</time>
      </trkpt>
      <trkpt lat="47.9949" lon="6.91625">
        <ele>853</ele>
        <time>2020-03-01T12:19:51Z</time>
      </trkpt>
      <trkpt lat="47.99492" lon="6.91628">
        <ele>845</ele>
        <time>2020-03-01T12:20:06Z</time>
      </trkpt>
      <trkpt lat="47.99493" lon="6.91631">
        <ele>845</ele>
        <time>2020-03-01T12:20:08Z</time>
      </trkpt>
      <trkpt lat="47.99496" lon="6.91634">
        <ele>844</ele>
        <time>2020-03-01T12:20:10Z</time>
      </trkpt>
      <trkpt lat="47.99497" lon="6.91637">
        <ele>844</ele>
        <time>2020-03-01T12:20:12Z</time>
      </trkpt>
      <trkpt lat="47.99499" lon="6.9164">
        <ele>844</ele>
        <time>2020-03-01T12:20:15Z</time>
      </trkpt>
      <trkpt lat="47.99501" lon="6.91641">
        <ele>843</ele>
        <time>2020-03-01T12:20:17Z</time>
      </trkpt>
      <trkpt lat="47.99503" lon="6.91642">
        <ele>842</ele>
        <time>2020-03-01T12:20:20Z</time>
      </trkpt>
      <trkpt lat="47.99501" lon="6.91645">
        <ele>844</ele>
        <time>2020-03-01T12:20:24Z</time>
      </trkpt>
      <trkpt lat="47.99502" lon="6.91647">
        <ele>842</ele>
        <time>2020-03-01T12:20:28Z</time>
      </trkpt>
      <trkpt lat="47.99505" lon="6.9165">
        <ele>841</ele>
        <time>2020-03-01T12:20:30Z</time>
      </trkpt>
      <trkpt lat="47.99506" lon="6.91652">
        <ele>843</ele>
        <time>2020-03-01T12:20:33Z</time>
      </trkpt>
      <trkpt lat="47.99508" lon="6.91655">
        <ele>845</ele>
        <time>2020-03-01T12:20:36Z</time>
      </trkpt>
      <trkpt lat="47.99509" lon="6.91657">
        <ele>844</ele>
        <time>2020-03-01T12:20:38Z</time>
      </trkpt>
      <trkpt lat="47.99508" lon="6.91661">
        <ele>847</ele>
        <time>2020-03-01T12:20:41Z</time>
      </trkpt>
      <trkpt lat="47.9951" lon="6.91663">
        <ele>846</ele>
        <time>2020-03-01T12:20:43Z</time>
      </trkpt>
      <trkpt lat="47.99512" lon="6.91666">
        <ele>847</ele>
        <time>2020-03-01T12:20:45Z</time>
      </trkpt>
      <trkpt lat="47.99514" lon="6.91668">
        <ele>848</ele>
        <time>2020-03-01T12:20:47Z</time>
      </trkpt>
      <trkpt lat="47.99516" lon="6.91671">
        <ele>850</ele>
        <time>2020-03-01T12:20:49Z</time>
      </trkpt>
      <trkpt lat="47.99517" lon="6.91676">
        <ele>851</ele>
        <time>2020-03-01T12:20:53Z</time>
      </trkpt>
      <trkpt lat="47.99515" lon="6.91679">
        <ele>851</ele>
        <time>2020-03-01T12:20:55Z</time>
      </trkpt>
      <trkpt lat="47.99517" lon="6.91681">
        <ele>850</ele>
        <time>2020-03-01T12:20:57Z</time>
      </trkpt>
      <trkpt lat="47.99518" lon="6.91684">
        <ele>849</ele>
        <time>2020-03-01T12:20:59Z</time>
      </trkpt>
      <trkpt lat="47.9952" lon="6.91685">
        <ele>849</ele>
        <time>2020-03-01T12:21:02Z</time>
      </trkpt>
      <trkpt lat="47.99522" lon="6.91687">
        <ele>851</ele>
        <time>2020-03-01T12:21:05Z</time>
      </trkpt>
      <trkpt lat="47.99523" lon="6.91688">
        <ele>851</ele>
        <time>2020-03-01T12:21:07Z</time>
      </trkpt>
      <trkpt lat="47.99525" lon="6.91686">
        <ele>851</ele>
        <time>2020-03-01T12:21:10Z</time>
      </trkpt>
      <trkpt lat="47.99525" lon="6.91683">
        <ele>849</ele>
        <time>2020-03-01T12:21:33Z</time>
      </trkpt>
      <trkpt lat="47.99523" lon="6.91681">
        <ele>850</ele>
        <time>2020-03-01T12:21:35Z</time>
      </trkpt>
      <trkpt lat="47.99521" lon="6.91683">
        <ele>846</ele>
        <time>2020-03-01T12:21:38Z</time>
      </trkpt>
      <trkpt lat="47.99519" lon="6.91681">
        <ele>846</ele>
        <time>2020-03-01T12:21:49Z</time>
      </trkpt>
      <trkpt lat="47.99516" lon="6.91682">
        <ele>848</ele>
        <time>2020-03-01T12:21:54Z</time>
      </trkpt>
      <trkpt lat="47.99515" lon="6.91677">
        <ele>851</ele>
        <time>2020-03-01T12:21:57Z</time>
      </trkpt>
      <trkpt lat="47.99513" lon="6.91675">
        <ele>851</ele>
        <time>2020-03-01T12:22:00Z</time>
      </trkpt>
      <trkpt lat="47.99515" lon="6.91679">
        <ele>845</ele>
        <time>2020-03-01T12:22:05Z</time>
      </trkpt>
      <trkpt lat="47.99517" lon="6.91682">
        <ele>842</ele>
        <time>2020-03-01T12:22:07Z</time>
      </trkpt>
      <trkpt lat="47.99516" lon="6.91678">
        <ele>848</ele>
        <time>2020-03-01T12:22:40Z</time>
      </trkpt>
      <trkpt lat="47.99517" lon="6.91676">
        <ele>848</ele>
        <time>2020-03-01T12:22:41Z</time>
      </trkpt>
      <trkpt lat="47.99518" lon="6.91673">
        <ele>849</ele>
        <time>2020-03-01T12:22:44Z</time>
      </trkpt>
      <trkpt lat="47.99516" lon="6.91676">
        <ele>849</ele>
        <time>2020-03-01T12:22:57Z</time>
      </trkpt>
      <trkpt lat="47.99517" lon="6.91678">
        <ele>856</ele>
        <time>2020-03-01T12:23:14Z</time>
      </trkpt>
      <trkpt lat="47.99519" lon="6.91681">
        <ele>852</ele>
        <time>2020-03-01T12:23:35Z</time>
      </trkpt>
      <trkpt lat="47.99517" lon="6.91676">
        <ele>847</ele>
        <time>2020-03-01T12:23:41Z</time>
      </trkpt>
      <trkpt lat="47.99516" lon="6.91674">
        <ele>846</ele>
        <time>2020-03-01T12:23:42Z</time>
      </trkpt>
      <trkpt lat="47.99514" lon="6.91673">
        <ele>845</ele>
        <time>2020-03-01T12:23:45Z</time>
      </trkpt>
      <trkpt lat="47.99512" lon="6.91671">
        <ele>845</ele>
        <time>2020-03-01T12:23:48Z</time>
      </trkpt>
      <trkpt lat="47.9951" lon="6.9167">
        <ele>846</ele>
        <time>2020-03-01T12:23:49Z</time>
      </trkpt>
      <trkpt lat="47.99508" lon="6.9167">
        <ele>844</ele>
        <time>2020-03-01T12:23:51Z</time>
      </trkpt>
      <trkpt lat="47.99509" lon="6.91672">
        <ele>842</ele>
        <time>2020-03-01T12:23:55Z</time>
      </trkpt>
      <trkpt lat="47.99508" lon="6.91676">
        <ele>844</ele>
        <time>2020-03-01T12:23:58Z</time>
      </trkpt>
      <trkpt lat="47.99508" lon="6.91678">
        <ele>843</ele>
        <time>2020-03-01T12:24:03Z</time>
      </trkpt>
      <trkpt lat="47.99507" lon="6.91682">
        <ele>844</ele>
        <time>2020-03-01T12:24:07Z</time>
      </trkpt>
      <trkpt lat="47.99507" lon="6.91685">
        <ele>847</ele>
        <time>2020-03-01T12:24:14Z</time>
      </trkpt>
      <trkpt lat="47.99505" lon="6.91687">
        <ele>846</ele>
        <time>2020-03-01T12:24:17Z</time>
      </trkpt>
      <trkpt lat="47.99507" lon="6.91687">
        <ele>844</ele>
        <time>2020-03-01T12:24:21Z</time>
      </trkpt>
      <trkpt lat="47.99509" lon="6.91685">
        <ele>847</ele>
        <time>2020-03-01T12:24:25Z</time>
      </trkpt>
      <trkpt lat="47.99508" lon="6.91682">
        <ele>844</ele>
        <time>2020-03-01T12:24:51Z</time>
      </trkpt>
      <trkpt lat="47.99507" lon="6.91685">
        <ele>841</ele>
        <time>2020-03-01T12:25:26Z</time>
      </trkpt>
      <trkpt lat="47.99505" lon="6.91687">
        <ele>841</ele>
        <time>2020-03-01T12:25:30Z</time>
      </trkpt>
      <trkpt lat="47.99505" lon="6.9169">
        <ele>837</ele>
        <time>2020-03-01T12:25:45Z</time>
      </trkpt>
      <trkpt lat="47.99504" lon="6.91687">
        <ele>835</ele>
        <time>2020-03-01T12:25:51Z</time>
      </trkpt>
      <trkpt lat="47.99505" lon="6.91687">
        <ele>833</ele>
        <time>2020-03-01T12:25:57Z</time>
      </trkpt>
      <trkpt lat="47.99507" lon="6.91685">
        <ele>835</ele>
        <time>2020-03-01T12:26:38Z</time>
      </trkpt>
      <trkpt lat="47.99509" lon="6.91687">
        <ele>837</ele>
        <time>2020-03-01T12:26:52Z</time>
      </trkpt>
      <trkpt lat="47.99507" lon="6.91687">
        <ele>835</ele>
        <time>2020-03-01T12:27:03Z</time>
      </trkpt>
      <trkpt lat="47.99505" lon="6.91684">
        <ele>835</ele>
        <time>2020-03-01T12:27:10Z</time>
      </trkpt>
      <trkpt lat="47.99504" lon="6.91686">
        <ele>833</ele>
        <time>2020-03-01T12:27:27Z</time>
      </trkpt>
      <trkpt lat="47.99506" lon="6.91688">
        <ele>832</ele>
        <time>2020-03-01T12:27:43Z</time>
      </trkpt>
      <trkpt lat="47.99507" lon="6.91691">
        <ele>832</ele>
        <time>2020-03-01T12:27:50Z</time>
      </trkpt>
      <trkpt lat="47.99509" lon="6.91693">
        <ele>830</ele>
        <time>2020-03-01T12:27:54Z</time>
      </trkpt>
      <trkpt lat="47.99509" lon="6.91696">
        <ele>829</ele>
        <time>2020-03-01T12:27:57Z</time>
      </trkpt>
      <trkpt lat="47.9951" lon="6.91699">
        <ele>827</ele>
        <time>2020-03-01T12:28:00Z</time>
      </trkpt>
      <trkpt lat="47.99511" lon="6.91699">
        <ele>830</ele>
        <time>2020-03-01T12:28:15Z</time>
      </trkpt>
      <trkpt lat="47.99514" lon="6.917">
        <ele>834</ele>
        <time>2020-03-01T12:28:18Z</time>
      </trkpt>
      <trkpt lat="47.99516" lon="6.91702">
        <ele>834</ele>
        <time>2020-03-01T12:28:20Z</time>
      </trkpt>
      <trkpt lat="47.99518" lon="6.91703">
        <ele>838</ele>
        <time>2020-03-01T12:28:22Z</time>
      </trkpt>
      <trkpt lat="47.99521" lon="6.91703">
        <ele>838</ele>
        <time>2020-03-01T12:28:25Z</time>
      </trkpt>
      <trkpt lat="47.99521" lon="6.91707">
        <ele>840</ele>
        <time>2020-03-01T12:28:35Z</time>
      </trkpt>
      <trkpt lat="47.99521" lon="6.91711">
        <ele>840</ele>
        <time>2020-03-01T12:28:37Z</time>
      </trkpt>
      <trkpt lat="47.99523" lon="6.91709">
        <ele>841</ele>
        <time>2020-03-01T12:28:48Z</time>
      </trkpt>
      <trkpt lat="47.99523" lon="6.91706">
        <ele>843</ele>
        <time>2020-03-01T12:28:54Z</time>
      </trkpt>
      <trkpt lat="47.99522" lon="6.91703">
        <ele>843</ele>
        <time>2020-03-01T12:29:02Z</time>
      </trkpt>
      <trkpt lat="47.99523" lon="6.91705">
        <ele>841</ele>
        <time>2020-03-01T12:29:32Z</time>
      </trkpt>
      <trkpt lat="47.99522" lon="6.91709">
        <ele>843</ele>
        <time>2020-03-01T12:29:44Z</time>
      </trkpt>
      <trkpt lat="47.99521" lon="6.9171">
        <ele>842</ele>
        <time>2020-03-01T12:29:46Z</time>
      </trkpt>
      <trkpt lat="47.99519" lon="6.91712">
        <ele>841</ele>
        <time>2020-03-01T12:29:50Z</time>
      </trkpt>
      <trkpt lat="47.99517" lon="6.91712">
        <ele>840</ele>
        <time>2020-03-01T12:29:59Z</time>
      </trkpt>
      <trkpt lat="47.99518" lon="6.91714">
        <ele>842</ele>
        <time>2020-03-01T12:30:03Z</time>
      </trkpt>
      <trkpt lat="47.99519" lon="6.91717">
        <ele>841</ele>
        <time>2020-03-01T12:30:06Z</time>
      </trkpt>
      <trkpt lat="47.9952" lon="6.91714">
        <ele>842</ele>
        <time>2020-03-01T12:30:12Z</time>
      </trkpt>
      <trkpt lat="47.99522" lon="6.91715">
        <ele>846</ele>
        <time>2020-03-01T12:30:19Z</time>
      </trkpt>
      <trkpt lat="47.9952" lon="6.91716">
        <ele>847</ele>
        <time>2020-03-01T12:30:22Z</time>
      </trkpt>
      <trkpt lat="47.99519" lon="6.91714">
        <ele>847</ele>
        <time>2020-03-01T12:30:30Z</time>
      </trkpt>
      <trkpt lat="47.99521" lon="6.91713">
        <ele>844</ele>
        <time>2020-03-01T12:30:35Z</time>
      </trkpt>
      <trkpt lat="47.99522" lon="6.91716">
        <ele>839</ele>
        <time>2020-03-01T12:30:42Z</time>
      </trkpt>
      <trkpt lat="47.99523" lon="6.91713">
        <ele>838</ele>
        <time>2020-03-01T12:30:44Z</time>
      </trkpt>
      <trkpt lat="47.99522" lon="6.9171">
        <ele>839</ele>
        <time>2020-03-01T12:30:46Z</time>
      </trkpt>
      <trkpt lat="47.99524" lon="6.9171">
        <ele>842</ele>
        <time>2020-03-01T12:30:51Z</time>
      </trkpt>
      <trkpt lat="47.99525" lon="6.91707">
        <ele>841</ele>
        <time>2020-03-01T12:30:56Z</time>
      </trkpt>
      <trkpt lat="47.99527" lon="6.91708">
        <ele>846</ele>
        <time>2020-03-01T12:31:04Z</time>
      </trkpt>
      <trkpt lat="47.99528" lon="6.91707">
        <ele>848</ele>
        <time>2020-03-01T12:31:12Z</time>
      </trkpt>
      <trkpt lat="47.99527" lon="6.91705">
        <ele>848</ele>
        <time>2020-03-01T12:31:46Z</time>
      </trkpt>
      <trkpt lat="47.99525" lon="6.91704">
        <ele>851</ele>
        <time>2020-03-01T12:31:49Z</time>
      </trkpt>
      <trkpt lat="47.99523" lon="6.91704">
        <ele>850</ele>
        <time>2020-03-01T12:31:58Z</time>
      </trkpt>
      <trkpt lat="47.99523" lon="6.91706">
        <ele>849</ele>
        <time>2020-03-01T12:32:02Z</time>
      </trkpt>
      <trkpt lat="47.99523" lon="6.91703">
        <ele>851</ele>
        <time>2020-03-01T12:32:10Z</time>
      </trkpt>
      <trkpt lat="47.99522" lon="6.91705">
        <ele>851</ele>
        <time>2020-03-01T12:32:14Z</time>
      </trkpt>
      <trkpt lat="47.99521" lon="6.91708">
        <ele>851</ele>
        <time>2020-03-01T12:32:17Z</time>
      </trkpt>
      <trkpt lat="47.9952" lon="6.91705">
        <ele>855</ele>
        <time>2020-03-01T12:32:21Z</time>
      </trkpt>
      <trkpt lat="47.99522" lon="6.91706">
        <ele>851</ele>
        <time>2020-03-01T12:32:44Z</time>
      </trkpt>
      <trkpt lat="47.99521" lon="6.91705">
        <ele>853</ele>
        <time>2020-03-01T12:33:01Z</time>
      </trkpt>
      <trkpt lat="47.99518" lon="6.91703">
        <ele>857</ele>
        <time>2020-03-01T12:33:06Z</time>
      </trkpt>
      <trkpt lat="47.99517" lon="6.91701">
        <ele>855</ele>
        <time>2020-03-01T12:33:11Z</time>
      </trkpt>
      <trkpt lat="47.99519" lon="6.91703">
        <ele>853</ele>
        <time>2020-03-01T12:33:16Z</time>
      </trkpt>
      <trkpt lat="47.99521" lon="6.91704">
        <ele>852</ele>
        <time>2020-03-01T12:33:25Z</time>
      </trkpt>
      <trkpt lat="47.99523" lon="6.91705">
        <ele>850</ele>
        <time>2020-03-01T12:33:51Z</time>
      </trkpt>
      <trkpt lat="47.99525" lon="6.91704">
        <ele>849</ele>
        <time>2020-03-01T12:33:56Z</time>
      </trkpt>
      <trkpt lat="47.99526" lon="6.91707">
        <ele>846</ele>
        <time>2020-03-01T12:34:02Z</time>
      </trkpt>
      <trkpt lat="47.99523" lon="6.91706">
        <ele>845</ele>
        <time>2020-03-01T12:34:17Z</time>
      </trkpt>
      <trkpt lat="47.99522" lon="6.91705">
        <ele>843</ele>
        <time>2020-03-01T12:34:22Z</time>
      </trkpt>
      <trkpt lat="47.99521" lon="6.91702">
        <ele>845</ele>
        <time>2020-03-01T12:34:24Z</time>
      </trkpt>
      <trkpt lat="47.99519" lon="6.917">
        <ele>846</ele>
        <time>2020-03-01T12:34:27Z</time>
      </trkpt>
      <trkpt lat="47.9952" lon="6.917">
        <ele>852</ele>
        <time>2020-03-01T12:34:38Z</time>
      </trkpt>
      <trkpt lat="47.99521" lon="6.91703">
        <ele>852</ele>
        <time>2020-03-01T12:34:39Z</time>
      </trkpt>
      <trkpt lat="47.99521" lon="6.91705">
        <ele>853</ele>
        <time>2020-03-01T12:34:42Z</time>
      </trkpt>
      <trkpt lat="47.99521" lon="6.91708">
        <ele>850</ele>
        <time>2020-03-01T12:34:52Z</time>
      </trkpt>
      <trkpt lat="47.99524" lon="6.9171">
        <ele>849</ele>
        <time>2020-03-01T12:34:58Z</time>
      </trkpt>
      <trkpt lat="47.99525" lon="6.91713">
        <ele>847</ele>
        <time>2020-03-01T12:35:01Z</time>
      </trkpt>
      <trkpt lat="47.99528" lon="6.91709">
        <ele>848</ele>
        <time>2020-03-01T12:35:09Z</time>
      </trkpt>
      <trkpt lat="47.9953" lon="6.91707">
        <ele>848</ele>
        <time>2020-03-01T12:35:11Z</time>
      </trkpt>
      <trkpt lat="47.99532" lon="6.91705">
        <ele>847</ele>
        <time>2020-03-01T12:35:12Z</time>
      </trkpt>
      <trkpt lat="47.99534" lon="6.91704">
        <ele>846</ele>
        <time>2020-03-01T12:35:14Z</time>
      </trkpt>
      <trkpt lat="47.99536" lon="6.91701">
        <ele>845</ele>
        <time>2020-03-01T12:35:18Z</time>
      </trkpt>
      <trkpt lat="47.99537" lon="6.91698">
        <ele>844</ele>
        <time>2020-03-01T12:35:20Z</time>
      </trkpt>
      <trkpt lat="47.99539" lon="6.917">
        <ele>841</ele>
        <time>2020-03-01T12:35:25Z</time>
      </trkpt>
      <trkpt lat="47.99539" lon="6.91696">
        <ele>840</ele>
        <time>2020-03-01T12:35:28Z</time>
      </trkpt>
      <trkpt lat="47.99539" lon="6.91693">
        <ele>840</ele>
        <time>2020-03-01T12:35:30Z</time>
      </trkpt>
      <trkpt lat="47.99537" lon="6.91693">
        <ele>841</ele>
        <time>2020-03-01T12:35:39Z</time>
      </trkpt>
      <trkpt lat="47.99537" lon="6.91697">
        <ele>840</ele>
        <time>2020-03-01T12:36:36Z</time>
      </trkpt>
      <trkpt lat="47.99537" lon="6.917">
        <ele>838</ele>
        <time>2020-03-01T12:36:38Z</time>
      </trkpt>
      <trkpt lat="47.99538" lon="6.91704">
        <ele>838</ele>
        <time>2020-03-01T12:36:40Z</time>
      </trkpt>
      <trkpt lat="47.99539" lon="6.91706">
        <ele>836</ele>
        <time>2020-03-01T12:36:42Z</time>
      </trkpt>
      <trkpt lat="47.99537" lon="6.91705">
        <ele>838</ele>
        <time>2020-03-01T12:36:46Z</time>
      </trkpt>
      <trkpt lat="47.99538" lon="6.91708">
        <ele>838</ele>
        <time>2020-03-01T12:36:52Z</time>
      </trkpt>
      <trkpt lat="47.99539" lon="6.91711">
        <ele>837</ele>
        <time>2020-03-01T12:36:53Z</time>
      </trkpt>
      <trkpt lat="47.9954" lon="6.91714">
        <ele>838</ele>
        <time>2020-03-01T12:36:56Z</time>
      </trkpt>
      <trkpt lat="47.99542" lon="6.91712">
        <ele>840</ele>
        <time>2020-03-01T12:36:58Z</time>
      </trkpt>
      <trkpt lat="47.99541" lon="6.91716">
        <ele>841</ele>
        <time>2020-03-01T12:37:00Z</time>
      </trkpt>
      <trkpt lat="47.99539" lon="6.91715">
        <ele>842</ele>
        <time>2020-03-01T12:37:04Z</time>
      </trkpt>
      <trkpt lat="47.99537" lon="6.91713">
        <ele>842</ele>
        <time>2020-03-01T12:37:06Z</time>
      </trkpt>
      <trkpt lat="47.99535" lon="6.91711">
        <ele>841</ele>
        <time>2020-03-01T12:37:09Z</time>
      </trkpt>
      <trkpt lat="47.99534" lon="6.91708">
        <ele>840</ele>
        <time>2020-03-01T12:37:11Z</time>
      </trkpt>
      <trkpt lat="47.99533" lon="6.91707">
        <ele>840</ele>
        <time>2020-03-01T12:37:14Z</time>
      </trkpt>
      <trkpt lat="47.99533" lon="6.91702">
        <ele>839</ele>
        <time>2020-03-01T12:37:17Z</time>
      </trkpt>
      <trkpt lat="47.99534" lon="6.91701">
        <ele>837</ele>
        <time>2020-03-01T12:37:20Z</time>
      </trkpt>
      <trkpt lat="47.99536" lon="6.91697">
        <ele>836</ele>
        <time>2020-03-01T12:37:23Z</time>
      </trkpt>
      <trkpt lat="47.99537" lon="6.91694">
        <ele>834</ele>
        <time>2020-03-01T12:37:24Z</time>
      </trkpt>
      <trkpt lat="47.99539" lon="6.91692">
        <ele>834</ele>
        <time>2020-03-01T12:37:26Z</time>
      </trkpt>
      <trkpt lat="47.99539" lon="6.91689">
        <ele>834</ele>
        <time>2020-03-01T12:37:28Z</time>
      </trkpt>
      <trkpt lat="47.9954" lon="6.91686">
        <ele>833</ele>
        <time>2020-03-01T12:37:31Z</time>
      </trkpt>
      <trkpt lat="47.99542" lon="6.91685">
        <ele>831</ele>
        <time>2020-03-01T12:37:34Z</time>
      </trkpt>
      <trkpt lat="47.99544" lon="6.91682">
        <ele>833</ele>
        <time>2020-03-01T12:37:36Z</time>
      </trkpt>
      <trkpt lat="47.99547" lon="6.91682">
        <ele>832</ele>
        <time>2020-03-01T12:37:38Z</time>
      </trkpt>
      <trkpt lat="47.99549" lon="6.9168">
        <ele>833</ele>
        <time>2020-03-01T12:37:40Z</time>
      </trkpt>
      <trkpt lat="47.99551" lon="6.9168">
        <ele>833</ele>
        <time>2020-03-01T12:37:42Z</time>
      </trkpt>
      <trkpt lat="47.99553" lon="6.91681">
        <ele>832</ele>
        <time>2020-03-01T12:37:45Z</time>
      </trkpt>
      <trkpt lat="47.99555" lon="6.9168">
        <ele>831</ele>
        <time>2020-03-01T12:37:49Z</time>
      </trkpt>
      <trkpt lat="47.99557" lon="6.91679">
        <ele>829</ele>
        <time>2020-03-01T12:37:52Z</time>
      </trkpt>
      <trkpt lat="47.99558" lon="6.91677">
        <ele>828</ele>
        <time>2020-03-01T12:37:56Z</time>
      </trkpt>
      <trkpt lat="47.99561" lon="6.91677">
        <ele>827</ele>
        <time>2020-03-01T12:37:59Z</time>
      </trkpt>
      <trkpt lat="47.99562" lon="6.91674">
        <ele>824</ele>
        <time>2020-03-01T12:38:04Z</time>
      </trkpt>
      <trkpt lat="47.99564" lon="6.91675">
        <ele>825</ele>
        <time>2020-03-01T12:38:07Z</time>
      </trkpt>
      <trkpt lat="47.99567" lon="6.91674">
        <ele>825</ele>
        <time>2020-03-01T12:38:11Z</time>
      </trkpt>
      <trkpt lat="47.99569" lon="6.91674">
        <ele>825</ele>
        <time>2020-03-01T12:38:15Z</time>
      </trkpt>
      <trkpt lat="47.99571" lon="6.91673">
        <ele>826</ele>
        <time>2020-03-01T12:38:20Z</time>
      </trkpt>
      <trkpt lat="47.99573" lon="6.91673">
        <ele>826</ele>
        <time>2020-03-01T12:38:24Z</time>
      </trkpt>
      <trkpt lat="47.99575" lon="6.91672">
        <ele>826</ele>
        <time>2020-03-01T12:38:27Z</time>
      </trkpt>
      <trkpt lat="47.99576" lon="6.91669">
        <ele>827</ele>
        <time>2020-03-01T12:38:30Z</time>
      </trkpt>
      <trkpt lat="47.99579" lon="6.91669">
        <ele>828</ele>
        <time>2020-03-01T12:38:35Z</time>
      </trkpt>
      <trkpt lat="47.9958" lon="6.91668">
        <ele>828</ele>
        <time>2020-03-01T12:38:37Z</time>
      </trkpt>
      <trkpt lat="47.99583" lon="6.91668">
        <ele>827</ele>
        <time>2020-03-01T12:38:40Z</time>
      </trkpt>
      <trkpt lat="47.99586" lon="6.91669">
        <ele>828</ele>
        <time>2020-03-01T12:38:49Z</time>
      </trkpt>
      <trkpt lat="47.99588" lon="6.9167">
        <ele>829</ele>
        <time>2020-03-01T12:38:52Z</time>
      </trkpt>
      <trkpt lat="47.9959" lon="6.91671">
        <ele>827</ele>
        <time>2020-03-01T12:38:56Z</time>
      </trkpt>
      <trkpt lat="47.99592" lon="6.91672">
        <ele>827</ele>
        <time>2020-03-01T12:39:01Z</time>
      </trkpt>
      <trkpt lat="47.99594" lon="6.91672">
        <ele>828</ele>
        <time>2020-03-01T12:39:07Z</time>
      </trkpt>
      <trkpt lat="47.99596" lon="6.91672">
        <ele>826</ele>
        <time>2020-03-01T12:39:10Z</time>
      </trkpt>
      <trkpt lat="47.99599" lon="6.91672">
        <ele>828</ele>
        <time>2020-03-01T12:39:16Z</time>
      </trkpt>
      <trkpt lat="47.99599" lon="6.91669">
        <ele>828</ele>
        <time>2020-03-01T12:39:19Z</time>
      </trkpt>
      <trkpt lat="47.99603" lon="6.91672">
        <ele>826</ele>
        <time>2020-03-01T12:39:24Z</time>
      </trkpt>
      <trkpt lat="47.99607" lon="6.91675">
        <ele>825</ele>
        <time>2020-03-01T12:39:31Z</time>
      </trkpt>
      <trkpt lat="47.99609" lon="6.91676">
        <ele>827</ele>
        <time>2020-03-01T12:39:34Z</time>
      </trkpt>
      <trkpt lat="47.9961" lon="6.91677">
        <ele>826</ele>
        <time>2020-03-01T12:39:39Z</time>
      </trkpt>
      <trkpt lat="47.99612" lon="6.91677">
        <ele>824</ele>
        <time>2020-03-01T12:39:42Z</time>
      </trkpt>
      <trkpt lat="47.99614" lon="6.9168">
        <ele>825</ele>
        <time>2020-03-01T12:39:45Z</time>
      </trkpt>
      <trkpt lat="47.99615" lon="6.91683">
        <ele>825</ele>
        <time>2020-03-01T12:39:47Z</time>
      </trkpt>
      <trkpt lat="47.99617" lon="6.91685">
        <ele>825</ele>
        <time>2020-03-01T12:39:50Z</time>
      </trkpt>
      <trkpt lat="47.9962" lon="6.91682">
        <ele>826</ele>
        <time>2020-03-01T12:39:53Z</time>
      </trkpt>
      <trkpt lat="47.99621" lon="6.9168">
        <ele>828</ele>
        <time>2020-03-01T12:39:55Z</time>
      </trkpt>
      <trkpt lat="47.99622" lon="6.91677">
        <ele>828</ele>
        <time>2020-03-01T12:40:02Z</time>
      </trkpt>
      <trkpt lat="47.99624" lon="6.91676">
        <ele>828</ele>
        <time>2020-03-01T12:40:04Z</time>
      </trkpt>
      <trkpt lat="47.99625" lon="6.91678">
        <ele>828</ele>
        <time>2020-03-01T12:40:07Z</time>
      </trkpt>
      <trkpt lat="47.99627" lon="6.9168">
        <ele>826</ele>
        <time>2020-03-01T12:40:09Z</time>
      </trkpt>
      <trkpt lat="47.99629" lon="6.91681">
        <ele>826</ele>
        <time>2020-03-01T12:40:12Z</time>
      </trkpt>
      <trkpt lat="47.99632" lon="6.91685">
        <ele>824</ele>
        <time>2020-03-01T12:40:17Z</time>
      </trkpt>
      <trkpt lat="47.99635" lon="6.91685">
        <ele>822</ele>
        <time>2020-03-01T12:40:19Z</time>
      </trkpt>
      <trkpt lat="47.99638" lon="6.9169">
        <ele>824</ele>
        <time>2020-03-01T12:40:21Z</time>
      </trkpt>
      <trkpt lat="47.99639" lon="6.91691">
        <ele>824</ele>
        <time>2020-03-01T12:40:25Z</time>
      </trkpt>
      <trkpt lat="47.99641" lon="6.91694">
        <ele>822</ele>
        <time>2020-03-01T12:40:27Z</time>
      </trkpt>
      <trkpt lat="47.99645" lon="6.91698">
        <ele>820</ele>
        <time>2020-03-01T12:40:32Z</time>
      </trkpt>
      <trkpt lat="47.99647" lon="6.91697">
        <ele>819</ele>
        <time>2020-03-01T12:40:34Z</time>
      </trkpt>
      <trkpt lat="47.99649" lon="6.91698">
        <ele>819</ele>
        <time>2020-03-01T12:40:36Z</time>
      </trkpt>
      <trkpt lat="47.99651" lon="6.917">
        <ele>819</ele>
        <time>2020-03-01T12:40:40Z</time>
      </trkpt>
      <trkpt lat="47.99652" lon="6.91701">
        <ele>818</ele>
        <time>2020-03-01T12:40:42Z</time>
      </trkpt>
      <trkpt lat="47.99655" lon="6.91703">
        <ele>817</ele>
        <time>2020-03-01T12:40:46Z</time>
      </trkpt>
      <trkpt lat="47.99656" lon="6.91704">
        <ele>816</ele>
        <time>2020-03-01T12:40:48Z</time>
      </trkpt>
      <trkpt lat="47.99658" lon="6.91707">
        <ele>816</ele>
        <time>2020-03-01T12:40:51Z</time>
      </trkpt>
      <trkpt lat="47.9966" lon="6.91708">
        <ele>813</ele>
        <time>2020-03-01T12:40:55Z</time>
      </trkpt>
      <trkpt lat="47.99662" lon="6.9171">
        <ele>812</ele>
        <time>2020-03-01T12:40:57Z</time>
      </trkpt>
      <trkpt lat="47.99664" lon="6.91711">
        <ele>810</ele>
        <time>2020-03-01T12:40:59Z</time>
      </trkpt>
      <trkpt lat="47.99666" lon="6.91713">
        <ele>810</ele>
        <time>2020-03-01T12:41:02Z</time>
      </trkpt>
      <trkpt lat="47.99668" lon="6.9171">
        <ele>805</ele>
        <time>2020-03-01T12:41:07Z</time>
      </trkpt>
      <trkpt lat="47.9967" lon="6.9171">
        <ele>807</ele>
        <time>2020-03-01T12:41:11Z</time>
      </trkpt>
      <trkpt lat="47.99672" lon="6.91712">
        <ele>807</ele>
        <time>2020-03-01T12:41:13Z</time>
      </trkpt>
      <trkpt lat="47.99672" lon="6.91715">
        <ele>808</ele>
        <time>2020-03-01T12:41:15Z</time>
      </trkpt>
      <trkpt lat="47.99674" lon="6.91718">
        <ele>808</ele>
        <time>2020-03-01T12:41:17Z</time>
      </trkpt>
      <trkpt lat="47.99673" lon="6.91715">
        <ele>808</ele>
        <time>2020-03-01T12:41:22Z</time>
      </trkpt>
      <trkpt lat="47.9967" lon="6.91713">
        <ele>808</ele>
        <time>2020-03-01T12:41:24Z</time>
      </trkpt>
      <trkpt lat="47.99669" lon="6.91709">
        <ele>808</ele>
        <time>2020-03-01T12:41:25Z</time>
      </trkpt>
      <trkpt lat="47.99668" lon="6.91705">
        <ele>808</ele>
        <time>2020-03-01T12:41:26Z</time>
      </trkpt>
      <trkpt lat="47.99664" lon="6.91702">
        <ele>809</ele>
        <time>2020-03-01T12:41:28Z</time>
      </trkpt>
      <trkpt lat="47.9966" lon="6.91704">
        <ele>809</ele>
        <time>2020-03-01T12:41:29Z</time>
      </trkpt>
      <trkpt lat="47.99658" lon="6.91702">
        <ele>808</ele>
        <time>2020-03-01T12:41:30Z</time>
      </trkpt>
      <trkpt lat="47.99654" lon="6.91704">
        <ele>809</ele>
        <time>2020-03-01T12:41:31Z</time>
      </trkpt>
      <trkpt lat="47.99651" lon="6.91705">
        <ele>808</ele>
        <time>2020-03-01T12:41:32Z</time>
      </trkpt>
      <trkpt lat="47.9965" lon="6.9171">
        <ele>808</ele>
        <time>2020-03-01T12:41:35Z</time>
      </trkpt>
      <trkpt lat="47.99648" lon="6.91714">
        <ele>809</ele>
        <time>2020-03-01T12:41:36Z</time>
      </trkpt>
      <trkpt lat="47.99647" lon="6.91717">
        <ele>809</ele>
        <time>2020-03-01T12:41:37Z</time>
      </trkpt>
      <trkpt lat="47.9965" lon="6.91716">
        <ele>809</ele>
        <time>2020-03-01T12:41:38Z</time>
      </trkpt>
      <trkpt lat="47.99652" lon="6.91717">
        <ele>809</ele>
        <time>2020-03-01T12:41:40Z</time>
      </trkpt>
      <trkpt lat="47.99657" lon="6.91722">
        <ele>809</ele>
        <time>2020-03-01T12:41:41Z</time>
      </trkpt>
      <trkpt lat="47.99661" lon="6.91721">
        <ele>808</ele>
        <time>2020-03-01T12:41:42Z</time>
      </trkpt>
      <trkpt lat="47.99668" lon="6.91721">
        <ele>807</ele>
        <time>2020-03-01T12:41:44Z</time>
      </trkpt>
      <trkpt lat="47.9967" lon="6.91722">
        <ele>807</ele>
        <time>2020-03-01T12:41:45Z</time>
      </trkpt>
      <trkpt lat="47.99675" lon="6.91722">
        <ele>808</ele>
        <time>2020-03-01T12:41:46Z</time>
      </trkpt>
      <trkpt lat="47.99678" lon="6.91724">
        <ele>810</ele>
        <time>2020-03-01T12:41:51Z</time>
      </trkpt>
      <trkpt lat="47.99681" lon="6.91723">
        <ele>811</ele>
        <time>2020-03-01T12:41:52Z</time>
      </trkpt>
      <trkpt lat="47.99683" lon="6.91723">
        <ele>810</ele>
        <time>2020-03-01T12:41:53Z</time>
      </trkpt>
      <trkpt lat="47.99685" lon="6.91725">
        <ele>810</ele>
        <time>2020-03-01T12:41:54Z</time>
      </trkpt>
      <trkpt lat="47.99688" lon="6.91726">
        <ele>810</ele>
        <time>2020-03-01T12:41:56Z</time>
      </trkpt>
      <trkpt lat="47.99691" lon="6.91726">
        <ele>811</ele>
        <time>2020-03-01T12:42:01Z</time>
      </trkpt>
      <trkpt lat="47.99693" lon="6.91726">
        <ele>811</ele>
        <time>2020-03-01T12:42:02Z</time>
      </trkpt>
      <trkpt lat="47.99695" lon="6.91727">
        <ele>811</ele>
        <time>2020-03-01T12:42:03Z</time>
      </trkpt>
      <trkpt lat="47.99697" lon="6.91726">
        <ele>811</ele>
        <time>2020-03-01T12:42:05Z</time>
      </trkpt>
      <trkpt lat="47.99699" lon="6.91727">
        <ele>810</ele>
        <time>2020-03-01T12:42:09Z</time>
      </trkpt>
      <trkpt lat="47.99701" lon="6.91726">
        <ele>809</ele>
        <time>2020-03-01T12:42:11Z</time>
      </trkpt>
      <trkpt lat="47.99704" lon="6.91726">
        <ele>809</ele>
        <time>2020-03-01T12:42:13Z</time>
      </trkpt>
      <trkpt lat="47.99705" lon="6.91725">
        <ele>810</ele>
        <time>2020-03-01T12:42:14Z</time>
      </trkpt>
      <trkpt lat="47.99709" lon="6.91725">
        <ele>809</ele>
        <time>2020-03-01T12:42:16Z</time>
      </trkpt>
      <trkpt lat="47.99711" lon="6.91725">
        <ele>807</ele>
        <time>2020-03-01T12:42:17Z</time>
      </trkpt>
      <trkpt lat="47.99713" lon="6.91728">
        <ele>807</ele>
        <time>2020-03-01T12:42:19Z</time>
      </trkpt>
      <trkpt lat="47.99715" lon="6.91731">
        <ele>807</ele>
        <time>2020-03-01T12:42:22Z</time>
      </trkpt>
      <trkpt lat="47.99717" lon="6.91732">
        <ele>808</ele>
        <time>2020-03-01T12:42:26Z</time>
      </trkpt>
      <trkpt lat="47.99719" lon="6.91735">
        <ele>809</ele>
        <time>2020-03-01T12:42:27Z</time>
      </trkpt>
      <trkpt lat="47.99721" lon="6.91738">
        <ele>809</ele>
        <time>2020-03-01T12:42:28Z</time>
      </trkpt>
      <trkpt lat="47.99723" lon="6.91739">
        <ele>809</ele>
        <time>2020-03-01T12:42:29Z</time>
      </trkpt>
      <trkpt lat="47.99726" lon="6.91739">
        <ele>809</ele>
        <time>2020-03-01T12:42:31Z</time>
      </trkpt>
      <trkpt lat="47.99728" lon="6.91739">
        <ele>809</ele>
        <time>2020-03-01T12:42:32Z</time>
      </trkpt>
      <trkpt lat="47.9973" lon="6.91738">
        <ele>809</ele>
        <time>2020-03-01T12:42:33Z</time>
      </trkpt>
      <trkpt lat="47.99732" lon="6.91736">
        <ele>808</ele>
        <time>2020-03-01T12:42:35Z</time>
      </trkpt>
      <trkpt lat="47.99734" lon="6.91736">
        <ele>808</ele>
        <time>2020-03-01T12:42:37Z</time>
      </trkpt>
      <trkpt lat="47.99736" lon="6.91735">
        <ele>808</ele>
        <time>2020-03-01T12:42:39Z</time>
      </trkpt>
      <trkpt lat="47.99738" lon="6.91736">
        <ele>807</ele>
        <time>2020-03-01T12:42:40Z</time>
      </trkpt>
      <trkpt lat="47.9974" lon="6.91737">
        <ele>809</ele>
        <time>2020-03-01T12:42:41Z</time>
      </trkpt>
      <trkpt lat="47.99742" lon="6.91736">
        <ele>811</ele>
        <time>2020-03-01T12:42:42Z</time>
      </trkpt>
      <trkpt lat="47.99742" lon="6.91733">
        <ele>811</ele>
        <time>2020-03-01T12:42:43Z</time>
      </trkpt>
      <trkpt lat="47.99745" lon="6.91733">
        <ele>809</ele>
        <time>2020-03-01T12:42:46Z</time>
      </trkpt>
      <trkpt lat="47.99747" lon="6.91733">
        <ele>808</ele>
        <time>2020-03-01T12:42:47Z</time>
      </trkpt>
      <trkpt lat="47.99749" lon="6.91734">
        <ele>807</ele>
        <time>2020-03-01T12:42:49Z</time>
      </trkpt>
      <trkpt lat="47.9975" lon="6.91737">
        <ele>806</ele>
        <time>2020-03-01T12:42:52Z</time>
      </trkpt>
      <trkpt lat="47.99752" lon="6.91739">
        <ele>805</ele>
        <time>2020-03-01T12:42:57Z</time>
      </trkpt>
      <trkpt lat="47.99754" lon="6.91741">
        <ele>805</ele>
        <time>2020-03-01T12:43:02Z</time>
      </trkpt>
      <trkpt lat="47.99756" lon="6.91742">
        <ele>803</ele>
        <time>2020-03-01T12:43:05Z</time>
      </trkpt>
      <trkpt lat="47.99758" lon="6.91742">
        <ele>804</ele>
        <time>2020-03-01T12:43:09Z</time>
      </trkpt>
      <trkpt lat="47.9976" lon="6.91743">
        <ele>804</ele>
        <time>2020-03-01T12:43:11Z</time>
      </trkpt>
      <trkpt lat="47.99761" lon="6.91746">
        <ele>803</ele>
        <time>2020-03-01T12:43:13Z</time>
      </trkpt>
      <trkpt lat="47.99764" lon="6.91748">
        <ele>803</ele>
        <time>2020-03-01T12:43:15Z</time>
      </trkpt>
      <trkpt lat="47.99766" lon="6.9175">
        <ele>803</ele>
        <time>2020-03-01T12:43:16Z</time>
      </trkpt>
      <trkpt lat="47.99768" lon="6.9175">
        <ele>805</ele>
        <time>2020-03-01T12:43:18Z</time>
      </trkpt>
      <trkpt lat="47.99771" lon="6.9175">
        <ele>804</ele>
        <time>2020-03-01T12:43:20Z</time>
      </trkpt>
      <trkpt lat="47.99774" lon="6.91749">
        <ele>803</ele>
        <time>2020-03-01T12:43:23Z</time>
      </trkpt>
      <trkpt lat="47.99777" lon="6.91752">
        <ele>803</ele>
        <time>2020-03-01T12:43:39Z</time>
      </trkpt>
      <trkpt lat="47.99779" lon="6.91754">
        <ele>803</ele>
        <time>2020-03-01T12:43:41Z</time>
      </trkpt>
      <trkpt lat="47.99779" lon="6.91757">
        <ele>803</ele>
        <time>2020-03-01T12:43:43Z</time>
      </trkpt>
      <trkpt lat="47.99776" lon="6.91753">
        <ele>805</ele>
        <time>2020-03-01T12:43:45Z</time>
      </trkpt>
      <trkpt lat="47.99774" lon="6.91751">
        <ele>806</ele>
        <time>2020-03-01T12:43:46Z</time>
      </trkpt>
      <trkpt lat="47.99775" lon="6.91748">
        <ele>806</ele>
        <time>2020-03-01T12:43:47Z</time>
      </trkpt>
      <trkpt lat="47.99774" lon="6.91746">
        <ele>805</ele>
        <time>2020-03-01T12:43:48Z</time>
      </trkpt>
      <trkpt lat="47.99771" lon="6.91746">
        <ele>804</ele>
        <time>2020-03-01T12:44:02Z</time>
      </trkpt>
      <trkpt lat="47.99769" lon="6.91746">
        <ele>804</ele>
        <time>2020-03-01T12:44:12Z</time>
      </trkpt>
      <trkpt lat="47.9977" lon="6.91743">
        <ele>804</ele>
        <time>2020-03-01T12:44:15Z</time>
      </trkpt>
      <trkpt lat="47.9977" lon="6.9174">
        <ele>803</ele>
        <time>2020-03-01T12:44:16Z</time>
      </trkpt>
      <trkpt lat="47.99769" lon="6.91737">
        <ele>803</ele>
        <time>2020-03-01T12:44:20Z</time>
      </trkpt>
      <trkpt lat="47.99771" lon="6.9174">
        <ele>803</ele>
        <time>2020-03-01T12:44:30Z</time>
      </trkpt>
      <trkpt lat="47.99774" lon="6.9174">
        <ele>802</ele>
        <time>2020-03-01T12:44:31Z</time>
      </trkpt>
      <trkpt lat="47.99775" lon="6.91743">
        <ele>801</ele>
        <time>2020-03-01T12:44:33Z</time>
      </trkpt>
      <trkpt lat="47.99777" lon="6.91744">
        <ele>799</ele>
        <time>2020-03-01T12:44:35Z</time>
      </trkpt>
      <trkpt lat="47.99779" lon="6.91744">
        <ele>799</ele>
        <time>2020-03-01T12:44:40Z</time>
      </trkpt>
      <trkpt lat="47.99781" lon="6.91744">
        <ele>799</ele>
        <time>2020-03-01T12:44:42Z</time>
      </trkpt>
      <trkpt lat="47.99784" lon="6.9174">
        <ele>797</ele>
        <time>2020-03-01T12:44:44Z</time>
      </trkpt>
      <trkpt lat="47.99786" lon="6.91739">
        <ele>796</ele>
        <time>2020-03-01T12:44:45Z</time>
      </trkpt>
      <trkpt lat="47.99788" lon="6.9174">
        <ele>795</ele>
        <time>2020-03-01T12:44:48Z</time>
      </trkpt>
      <trkpt lat="47.9979" lon="6.91741">
        <ele>793</ele>
        <time>2020-03-01T12:44:51Z</time>
      </trkpt>
      <trkpt lat="47.99794" lon="6.9174">
        <ele>792</ele>
        <time>2020-03-01T12:44:54Z</time>
      </trkpt>
      <trkpt lat="47.99796" lon="6.91738">
        <ele>793</ele>
        <time>2020-03-01T12:44:55Z</time>
      </trkpt>
      <trkpt lat="47.99796" lon="6.91735">
        <ele>791</ele>
        <time>2020-03-01T12:44:58Z</time>
      </trkpt>
      <trkpt lat="47.99799" lon="6.91737">
        <ele>786</ele>
        <time>2020-03-01T12:45:08Z</time>
      </trkpt>
      <trkpt lat="47.99801" lon="6.91738">
        <ele>786</ele>
        <time>2020-03-01T12:45:10Z</time>
      </trkpt>
      <trkpt lat="47.99803" lon="6.91739">
        <ele>786</ele>
        <time>2020-03-01T12:45:12Z</time>
      </trkpt>
      <trkpt lat="47.99805" lon="6.9174">
        <ele>785</ele>
        <time>2020-03-01T12:45:15Z</time>
      </trkpt>
      <trkpt lat="47.99808" lon="6.91741">
        <ele>785</ele>
        <time>2020-03-01T12:45:17Z</time>
      </trkpt>
      <trkpt lat="47.99811" lon="6.91739">
        <ele>786</ele>
        <time>2020-03-01T12:45:19Z</time>
      </trkpt>
      <trkpt lat="47.99813" lon="6.9174">
        <ele>785</ele>
        <time>2020-03-01T12:45:22Z</time>
      </trkpt>
      <trkpt lat="47.99815" lon="6.91742">
        <ele>785</ele>
        <time>2020-03-01T12:45:24Z</time>
      </trkpt>
      <trkpt lat="47.99817" lon="6.91744">
        <ele>786</ele>
        <time>2020-03-01T12:45:26Z</time>
      </trkpt>
      <trkpt lat="47.99818" lon="6.91748">
        <ele>786</ele>
        <time>2020-03-01T12:45:28Z</time>
      </trkpt>
      <trkpt lat="47.9982" lon="6.9175">
        <ele>784</ele>
        <time>2020-03-01T12:45:35Z</time>
      </trkpt>
      <trkpt lat="47.99822" lon="6.9175">
        <ele>783</ele>
        <time>2020-03-01T12:45:39Z</time>
      </trkpt>
      <trkpt lat="47.99825" lon="6.9175">
        <ele>784</ele>
        <time>2020-03-01T12:45:43Z</time>
      </trkpt>
      <trkpt lat="47.99827" lon="6.91748">
        <ele>785</ele>
        <time>2020-03-01T12:45:45Z</time>
      </trkpt>
      <trkpt lat="47.99829" lon="6.91747">
        <ele>784</ele>
        <time>2020-03-01T12:45:47Z</time>
      </trkpt>
      <trkpt lat="47.99832" lon="6.91746">
        <ele>785</ele>
        <time>2020-03-01T12:45:48Z</time>
      </trkpt>
      <trkpt lat="47.99833" lon="6.91747">
        <ele>786</ele>
        <time>2020-03-01T12:45:49Z</time>
      </trkpt>
      <trkpt lat="47.99835" lon="6.91749">
        <ele>786</ele>
        <time>2020-03-01T12:45:50Z</time>
      </trkpt>
      <trkpt lat="47.99838" lon="6.91749">
        <ele>785</ele>
        <time>2020-03-01T12:45:52Z</time>
      </trkpt>
      <trkpt lat="47.9984" lon="6.91749">
        <ele>785</ele>
        <time>2020-03-01T12:45:54Z</time>
      </trkpt>
      <trkpt lat="47.99842" lon="6.91749">
        <ele>783</ele>
        <time>2020-03-01T12:45:56Z</time>
      </trkpt>
      <trkpt lat="47.99845" lon="6.91749">
        <ele>784</ele>
        <time>2020-03-01T12:45:58Z</time>
      </trkpt>
      <trkpt lat="47.99847" lon="6.91749">
        <ele>784</ele>
        <time>2020-03-01T12:46:01Z</time>
      </trkpt>
      <trkpt lat="47.9985" lon="6.91748">
        <ele>783</ele>
        <time>2020-03-01T12:46:03Z</time>
      </trkpt>
      <trkpt lat="47.99854" lon="6.91747">
        <ele>782</ele>
        <time>2020-03-01T12:46:16Z</time>
      </trkpt>
      <trkpt lat="47.99856" lon="6.91746">
        <ele>782</ele>
        <time>2020-03-01T12:46:18Z</time>
      </trkpt>
      <trkpt lat="47.99858" lon="6.91746">
        <ele>780</ele>
        <time>2020-03-01T12:46:20Z</time>
      </trkpt>
      <trkpt lat="47.9986" lon="6.91745">
        <ele>781</ele>
        <time>2020-03-01T12:46:23Z</time>
      </trkpt>
      <trkpt lat="47.99863" lon="6.91743">
        <ele>779</ele>
        <time>2020-03-01T12:46:25Z</time>
      </trkpt>
      <trkpt lat="47.99867" lon="6.9174">
        <ele>777</ele>
        <time>2020-03-01T12:46:32Z</time>
      </trkpt>
      <trkpt lat="47.99869" lon="6.91737">
        <ele>775</ele>
        <time>2020-03-01T12:46:34Z</time>
      </trkpt>
      <trkpt lat="47.99871" lon="6.91736">
        <ele>774</ele>
        <time>2020-03-01T12:46:35Z</time>
      </trkpt>
      <trkpt lat="47.99873" lon="6.91734">
        <ele>774</ele>
        <time>2020-03-01T12:46:36Z</time>
      </trkpt>
      <trkpt lat="47.99874" lon="6.91733">
        <ele>773</ele>
        <time>2020-03-01T12:46:39Z</time>
      </trkpt>
      <trkpt lat="47.99876" lon="6.91731">
        <ele>772</ele>
        <time>2020-03-01T12:46:40Z</time>
      </trkpt>
      <trkpt lat="47.99877" lon="6.91729">
        <ele>772</ele>
        <time>2020-03-01T12:46:41Z</time>
      </trkpt>
      <trkpt lat="47.9988" lon="6.91727">
        <ele>770</ele>
        <time>2020-03-01T12:46:43Z</time>
      </trkpt>
      <trkpt lat="47.99882" lon="6.91724">
        <ele>770</ele>
        <time>2020-03-01T12:46:45Z</time>
      </trkpt>
      <trkpt lat="47.99883" lon="6.91722">
        <ele>769</ele>
        <time>2020-03-01T12:46:47Z</time>
      </trkpt>
      <trkpt lat="47.99884" lon="6.91719">
        <ele>769</ele>
        <time>2020-03-01T12:46:49Z</time>
      </trkpt>
      <trkpt lat="47.99886" lon="6.91717">
        <ele>768</ele>
        <time>2020-03-01T12:46:51Z</time>
      </trkpt>
      <trkpt lat="47.99888" lon="6.91716">
        <ele>768</ele>
        <time>2020-03-01T12:46:53Z</time>
      </trkpt>
      <trkpt lat="47.9989" lon="6.91715">
        <ele>769</ele>
        <time>2020-03-01T12:46:55Z</time>
      </trkpt>
      <trkpt lat="47.99892" lon="6.91714">
        <ele>769</ele>
        <time>2020-03-01T12:46:57Z</time>
      </trkpt>
      <trkpt lat="47.99895" lon="6.91715">
        <ele>769</ele>
        <time>2020-03-01T12:47:01Z</time>
      </trkpt>
      <trkpt lat="47.99896" lon="6.91718">
        <ele>768</ele>
        <time>2020-03-01T12:47:04Z</time>
      </trkpt>
      <trkpt lat="47.99898" lon="6.91719">
        <ele>768</ele>
        <time>2020-03-01T12:47:07Z</time>
      </trkpt>
      <trkpt lat="47.999" lon="6.91717">
        <ele>767</ele>
        <time>2020-03-01T12:47:10Z</time>
      </trkpt>
      <trkpt lat="47.99902" lon="6.91718">
        <ele>767</ele>
        <time>2020-03-01T12:47:15Z</time>
      </trkpt>
      <trkpt lat="47.99904" lon="6.91716">
        <ele>768</ele>
        <time>2020-03-01T12:47:19Z</time>
      </trkpt>
      <trkpt lat="47.99904" lon="6.91713">
        <ele>767</ele>
        <time>2020-03-01T12:47:30Z</time>
      </trkpt>
      <trkpt lat="47.99906" lon="6.91711">
        <ele>767</ele>
        <time>2020-03-01T12:48:18Z</time>
      </trkpt>
      <trkpt lat="47.99908" lon="6.9171">
        <ele>767</ele>
        <time>2020-03-01T12:48:20Z</time>
      </trkpt>
      <trkpt lat="47.9991" lon="6.91708">
        <ele>767</ele>
        <time>2020-03-01T12:48:23Z</time>
      </trkpt>
      <trkpt lat="47.99913" lon="6.91707">
        <ele>766</ele>
        <time>2020-03-01T12:48:29Z</time>
      </trkpt>
      <trkpt lat="47.99914" lon="6.91707">
        <ele>765</ele>
        <time>2020-03-01T12:48:31Z</time>
      </trkpt>
      <trkpt lat="47.99918" lon="6.91704">
        <ele>764</ele>
        <time>2020-03-01T12:48:35Z</time>
      </trkpt>
      <trkpt lat="47.9992" lon="6.91703">
        <ele>762</ele>
        <time>2020-03-01T12:48:37Z</time>
      </trkpt>
      <trkpt lat="47.99922" lon="6.917">
        <ele>763</ele>
        <time>2020-03-01T12:48:41Z</time>
      </trkpt>
      <trkpt lat="47.99926" lon="6.91698">
        <ele>763</ele>
        <time>2020-03-01T12:48:51Z</time>
      </trkpt>
      <trkpt lat="47.99926" lon="6.91695">
        <ele>765</ele>
        <time>2020-03-01T12:49:19Z</time>
      </trkpt>
      <trkpt lat="47.99925" lon="6.91692">
        <ele>765</ele>
        <time>2020-03-01T12:49:22Z</time>
      </trkpt>
      <trkpt lat="47.99925" lon="6.91689">
        <ele>765</ele>
        <time>2020-03-01T12:49:24Z</time>
      </trkpt>
      <trkpt lat="47.99924" lon="6.91686">
        <ele>765</ele>
        <time>2020-03-01T12:49:26Z</time>
      </trkpt>
      <trkpt lat="47.99923" lon="6.91682">
        <ele>765</ele>
        <time>2020-03-01T12:49:30Z</time>
      </trkpt>
      <trkpt lat="47.99922" lon="6.9168">
        <ele>765</ele>
        <time>2020-03-01T12:49:54Z</time>
      </trkpt>
      <trkpt lat="47.99923" lon="6.91678">
        <ele>761</ele>
        <time>2020-03-01T12:50:30Z</time>
      </trkpt>
      <trkpt lat="47.99924" lon="6.91675">
        <ele>760</ele>
        <time>2020-03-01T12:50:36Z</time>
      </trkpt>
      <trkpt lat="47.99925" lon="6.91673">
        <ele>760</ele>
        <time>2020-03-01T12:50:41Z</time>
      </trkpt>
      <trkpt lat="47.99925" lon="6.9167">
        <ele>761</ele>
        <time>2020-03-01T12:50:44Z</time>
      </trkpt>
      <trkpt lat="47.99924" lon="6.91666">
        <ele>761</ele>
        <time>2020-03-01T12:50:49Z</time>
      </trkpt>
      <trkpt lat="47.99924" lon="6.91663">
        <ele>761</ele>
        <time>2020-03-01T12:50:51Z</time>
      </trkpt>
      <trkpt lat="47.99922" lon="6.9166">
        <ele>761</ele>
        <time>2020-03-01T12:50:55Z</time>
      </trkpt>
      <trkpt lat="47.99921" lon="6.91657">
        <ele>762</ele>
        <time>2020-03-01T12:50:57Z</time>
      </trkpt>
      <trkpt lat="47.99921" lon="6.91654">
        <ele>761</ele>
        <time>2020-03-01T12:51:02Z</time>
      </trkpt>
      <trkpt lat="47.9992" lon="6.91652">
        <ele>764</ele>
        <time>2020-03-01T12:52:03Z</time>
      </trkpt>
      <trkpt lat="47.99922" lon="6.91651">
        <ele>764</ele>
        <time>2020-03-01T12:52:49Z</time>
      </trkpt>
      <trkpt lat="47.99924" lon="6.91652">
        <ele>763</ele>
        <time>2020-03-01T12:53:16Z</time>
      </trkpt>
      <trkpt lat="47.99925" lon="6.91655">
        <ele>763</ele>
        <time>2020-03-01T12:53:22Z</time>
      </trkpt>
      <trkpt lat="47.99925" lon="6.91652">
        <ele>758</ele>
        <time>2020-03-01T12:53:31Z</time>
      </trkpt>
      <trkpt lat="47.99923" lon="6.9165">
        <ele>758</ele>
        <time>2020-03-01T12:53:33Z</time>
      </trkpt>
      <trkpt lat="47.99922" lon="6.91648">
        <ele>757</ele>
        <time>2020-03-01T12:53:35Z</time>
      </trkpt>
      <trkpt lat="47.99921" lon="6.91645">
        <ele>758</ele>
        <time>2020-03-01T12:53:42Z</time>
      </trkpt>
      <trkpt lat="47.99921" lon="6.91642">
        <ele>760</ele>
        <time>2020-03-01T12:53:45Z</time>
      </trkpt>
      <trkpt lat="47.99919" lon="6.9164">
        <ele>760</ele>
        <time>2020-03-01T12:53:48Z</time>
      </trkpt>
      <trkpt lat="47.99919" lon="6.91637">
        <ele>760</ele>
        <time>2020-03-01T12:53:50Z</time>
      </trkpt>
      <trkpt lat="47.99918" lon="6.91634">
        <ele>761</ele>
        <time>2020-03-01T12:53:53Z</time>
      </trkpt>
      <trkpt lat="47.99916" lon="6.91633">
        <ele>763</ele>
        <time>2020-03-01T12:53:57Z</time>
      </trkpt>
      <trkpt lat="47.99915" lon="6.91631">
        <ele>762</ele>
        <time>2020-03-01T12:53:59Z</time>
      </trkpt>
      <trkpt lat="47.99913" lon="6.91628">
        <ele>761</ele>
        <time>2020-03-01T12:54:01Z</time>
      </trkpt>
      <trkpt lat="47.99912" lon="6.91625">
        <ele>761</ele>
        <time>2020-03-01T12:54:08Z</time>
      </trkpt>
      <trkpt lat="47.99913" lon="6.91621">
        <ele>761</ele>
        <time>2020-03-01T12:54:09Z</time>
      </trkpt>
      <trkpt lat="47.99913" lon="6.91617">
        <ele>761</ele>
        <time>2020-03-01T12:54:11Z</time>
      </trkpt>
      <trkpt lat="47.99912" lon="6.91613">
        <ele>760</ele>
        <time>2020-03-01T12:54:13Z</time>
      </trkpt>
      <trkpt lat="47.9991" lon="6.9161">
        <ele>760</ele>
        <time>2020-03-01T12:54:15Z</time>
      </trkpt>
      <trkpt lat="47.99909" lon="6.91607">
        <ele>759</ele>
        <time>2020-03-01T12:54:17Z</time>
      </trkpt>
      <trkpt lat="47.99908" lon="6.91602">
        <ele>761</ele>
        <time>2020-03-01T12:54:20Z</time>
      </trkpt>
      <trkpt lat="47.99907" lon="6.91599">
        <ele>763</ele>
        <time>2020-03-01T12:54:23Z</time>
      </trkpt>
      <trkpt lat="47.99907" lon="6.91596">
        <ele>762</ele>
        <time>2020-03-01T12:54:25Z</time>
      </trkpt>
      <trkpt lat="47.99909" lon="6.91593">
        <ele>761</ele>
        <time>2020-03-01T12:54:28Z</time>
      </trkpt>
      <trkpt lat="47.99909" lon="6.91589">
        <ele>762</ele>
        <time>2020-03-01T12:54:30Z</time>
      </trkpt>
      <trkpt lat="47.99908" lon="6.91585">
        <ele>761</ele>
        <time>2020-03-01T12:54:33Z</time>
      </trkpt>
      <trkpt lat="47.99909" lon="6.91582">
        <ele>763</ele>
        <time>2020-03-01T12:54:35Z</time>
      </trkpt>
      <trkpt lat="47.99909" lon="6.91579">
        <ele>764</ele>
        <time>2020-03-01T12:54:37Z</time>
      </trkpt>
      <trkpt lat="47.99909" lon="6.91576">
        <ele>764</ele>
        <time>2020-03-01T12:54:38Z</time>
      </trkpt>
      <trkpt lat="47.99908" lon="6.91572">
        <ele>764</ele>
        <time>2020-03-01T12:54:41Z</time>
      </trkpt>
      <trkpt lat="47.99908" lon="6.9157">
        <ele>764</ele>
        <time>2020-03-01T12:54:43Z</time>
      </trkpt>
      <trkpt lat="47.9991" lon="6.91564">
        <ele>766</ele>
        <time>2020-03-01T12:54:45Z</time>
      </trkpt>
      <trkpt lat="47.99911" lon="6.91562">
        <ele>766</ele>
        <time>2020-03-01T12:54:46Z</time>
      </trkpt>
      <trkpt lat="47.99911" lon="6.91558">
        <ele>766</ele>
        <time>2020-03-01T12:54:48Z</time>
      </trkpt>
      <trkpt lat="47.99911" lon="6.91555">
        <ele>767</ele>
        <time>2020-03-01T12:54:52Z</time>
      </trkpt>
      <trkpt lat="47.99912" lon="6.91551">
        <ele>766</ele>
        <time>2020-03-01T12:54:54Z</time>
      </trkpt>
      <trkpt lat="47.9991" lon="6.9155">
        <ele>767</ele>
        <time>2020-03-01T12:54:57Z</time>
      </trkpt>
      <trkpt lat="47.99908" lon="6.91548">
        <ele>767</ele>
        <time>2020-03-01T12:55:00Z</time>
      </trkpt>
      <trkpt lat="47.9991" lon="6.91546">
        <ele>767</ele>
        <time>2020-03-01T12:55:09Z</time>
      </trkpt>
      <trkpt lat="47.99912" lon="6.91545">
        <ele>767</ele>
        <time>2020-03-01T12:55:11Z</time>
      </trkpt>
      <trkpt lat="47.99914" lon="6.91545">
        <ele>767</ele>
        <time>2020-03-01T12:55:14Z</time>
      </trkpt>
      <trkpt lat="47.99914" lon="6.91548">
        <ele>767</ele>
        <time>2020-03-01T12:55:23Z</time>
      </trkpt>
      <trkpt lat="47.99913" lon="6.91551">
        <ele>767</ele>
        <time>2020-03-01T12:55:25Z</time>
      </trkpt>
      <trkpt lat="47.99914" lon="6.91554">
        <ele>767</ele>
        <time>2020-03-01T12:55:28Z</time>
      </trkpt>
      <trkpt lat="47.99914" lon="6.91557">
        <ele>767</ele>
        <time>2020-03-01T12:55:30Z</time>
      </trkpt>
      <trkpt lat="47.99914" lon="6.9156">
        <ele>767</ele>
        <time>2020-03-01T12:55:33Z</time>
      </trkpt>
      <trkpt lat="47.99915" lon="6.91562">
        <ele>768</ele>
        <time>2020-03-01T12:55:36Z</time>
      </trkpt>
      <trkpt lat="47.99915" lon="6.91565">
        <ele>767</ele>
        <time>2020-03-01T12:55:38Z</time>
      </trkpt>
      <trkpt lat="47.99915" lon="6.91568">
        <ele>767</ele>
        <time>2020-03-01T12:55:50Z</time>
      </trkpt>
      <trkpt lat="47.99917" lon="6.91569">
        <ele>768</ele>
        <time>2020-03-01T12:55:57Z</time>
      </trkpt>
      <trkpt lat="47.99913" lon="6.91569">
        <ele>767</ele>
        <time>2020-03-01T12:56:08Z</time>
      </trkpt>
      <trkpt lat="47.99911" lon="6.91567">
        <ele>767</ele>
        <time>2020-03-01T12:56:10Z</time>
      </trkpt>
      <trkpt lat="47.99911" lon="6.9156">
        <ele>767</ele>
        <time>2020-03-01T12:56:15Z</time>
      </trkpt>
      <trkpt lat="47.99912" lon="6.91556">
        <ele>765</ele>
        <time>2020-03-01T12:56:17Z</time>
      </trkpt>
      <trkpt lat="47.99912" lon="6.91552">
        <ele>765</ele>
        <time>2020-03-01T12:56:21Z</time>
      </trkpt>
      <trkpt lat="47.99912" lon="6.91548">
        <ele>764</ele>
        <time>2020-03-01T12:56:23Z</time>
      </trkpt>
      <trkpt lat="47.99912" lon="6.91545">
        <ele>766</ele>
        <time>2020-03-01T12:56:25Z</time>
      </trkpt>
      <trkpt lat="47.99912" lon="6.91542">
        <ele>765</ele>
        <time>2020-03-01T12:56:27Z</time>
      </trkpt>
      <trkpt lat="47.99915" lon="6.91537">
        <ele>765</ele>
        <time>2020-03-01T12:56:30Z</time>
      </trkpt>
      <trkpt lat="47.99915" lon="6.91534">
        <ele>767</ele>
        <time>2020-03-01T12:56:32Z</time>
      </trkpt>
      <trkpt lat="47.99916" lon="6.91532">
        <ele>769</ele>
        <time>2020-03-01T12:56:34Z</time>
      </trkpt>
      <trkpt lat="47.99918" lon="6.91529">
        <ele>767</ele>
        <time>2020-03-01T12:56:36Z</time>
      </trkpt>
      <trkpt lat="47.9992" lon="6.91526">
        <ele>770</ele>
        <time>2020-03-01T12:56:39Z</time>
      </trkpt>
      <trkpt lat="47.99922" lon="6.91525">
        <ele>771</ele>
        <time>2020-03-01T12:56:44Z</time>
      </trkpt>
      <trkpt lat="47.99924" lon="6.91522">
        <ele>771</ele>
        <time>2020-03-01T12:56:46Z</time>
      </trkpt>
      <trkpt lat="47.99927" lon="6.9152">
        <ele>770</ele>
        <time>2020-03-01T12:56:48Z</time>
      </trkpt>
      <trkpt lat="47.99929" lon="6.91519">
        <ele>769</ele>
        <time>2020-03-01T12:57:19Z</time>
      </trkpt>
      <trkpt lat="47.99931" lon="6.91519">
        <ele>768</ele>
        <time>2020-03-01T12:57:22Z</time>
      </trkpt>
      <trkpt lat="47.99933" lon="6.91518">
        <ele>768</ele>
        <time>2020-03-01T12:57:29Z</time>
      </trkpt>
      <trkpt lat="47.99935" lon="6.91514">
        <ele>767</ele>
        <time>2020-03-01T12:57:35Z</time>
      </trkpt>
      <trkpt lat="47.99933" lon="6.91512">
        <ele>767</ele>
        <time>2020-03-01T12:57:37Z</time>
      </trkpt>
      <trkpt lat="47.99931" lon="6.91512">
        <ele>767</ele>
        <time>2020-03-01T12:57:44Z</time>
      </trkpt>
      <trkpt lat="47.9993" lon="6.91509">
        <ele>767</ele>
        <time>2020-03-01T12:57:47Z</time>
      </trkpt>
      <trkpt lat="47.99928" lon="6.91506">
        <ele>768</ele>
        <time>2020-03-01T12:57:49Z</time>
      </trkpt>
      <trkpt lat="47.99926" lon="6.91503">
        <ele>769</ele>
        <time>2020-03-01T12:57:52Z</time>
      </trkpt>
      <trkpt lat="47.99924" lon="6.915">
        <ele>769</ele>
        <time>2020-03-01T12:57:54Z</time>
      </trkpt>
      <trkpt lat="47.99923" lon="6.91498">
        <ele>771</ele>
        <time>2020-03-01T12:58:02Z</time>
      </trkpt>
      <trkpt lat="47.99921" lon="6.91495">
        <ele>774</ele>
        <time>2020-03-01T12:58:08Z</time>
      </trkpt>
      <trkpt lat="47.99918" lon="6.91495">
        <ele>774</ele>
        <time>2020-03-01T12:58:14Z</time>
      </trkpt>
      <trkpt lat="47.99914" lon="6.91497">
        <ele>776</ele>
        <time>2020-03-01T12:58:18Z</time>
      </trkpt>
      <trkpt lat="47.99912" lon="6.91499">
        <ele>776</ele>
        <time>2020-03-01T12:58:21Z</time>
      </trkpt>
      <trkpt lat="47.99909" lon="6.915">
        <ele>776</ele>
        <time>2020-03-01T12:58:23Z</time>
      </trkpt>
      <trkpt lat="47.99908" lon="6.91503">
        <ele>776</ele>
        <time>2020-03-01T12:58:25Z</time>
      </trkpt>
      <trkpt lat="47.99906" lon="6.91505">
        <ele>776</ele>
        <time>2020-03-01T12:58:27Z</time>
      </trkpt>
      <trkpt lat="47.99903" lon="6.9151">
        <ele>776</ele>
        <time>2020-03-01T12:58:32Z</time>
      </trkpt>
      <trkpt lat="47.99902" lon="6.91513">
        <ele>776</ele>
        <time>2020-03-01T12:58:34Z</time>
      </trkpt>
      <trkpt lat="47.99902" lon="6.91517">
        <ele>776</ele>
        <time>2020-03-01T12:58:38Z</time>
      </trkpt>
      <trkpt lat="47.999" lon="6.91519">
        <ele>777</ele>
        <time>2020-03-01T12:58:41Z</time>
      </trkpt>
      <trkpt lat="47.99898" lon="6.91523">
        <ele>776</ele>
        <time>2020-03-01T12:58:44Z</time>
      </trkpt>
      <trkpt lat="47.99897" lon="6.91526">
        <ele>776</ele>
        <time>2020-03-01T12:58:46Z</time>
      </trkpt>
      <trkpt lat="47.99895" lon="6.91529">
        <ele>777</ele>
        <time>2020-03-01T12:58:50Z</time>
      </trkpt>
      <trkpt lat="47.99894" lon="6.91532">
        <ele>778</ele>
        <time>2020-03-01T12:58:52Z</time>
      </trkpt>
      <trkpt lat="47.99893" lon="6.91535">
        <ele>778</ele>
        <time>2020-03-01T12:58:56Z</time>
      </trkpt>
      <trkpt lat="47.99895" lon="6.91537">
        <ele>777</ele>
        <time>2020-03-01T12:59:04Z</time>
      </trkpt>
      <trkpt lat="47.99896" lon="6.91539">
        <ele>777</ele>
        <time>2020-03-01T12:59:07Z</time>
      </trkpt>
      <trkpt lat="47.99895" lon="6.91542">
        <ele>777</ele>
        <time>2020-03-01T12:59:13Z</time>
      </trkpt>
      <trkpt lat="47.99896" lon="6.91548">
        <ele>777</ele>
        <time>2020-03-01T12:59:26Z</time>
      </trkpt>
      <trkpt lat="47.99895" lon="6.91551">
        <ele>778</ele>
        <time>2020-03-01T12:59:29Z</time>
      </trkpt>
      <trkpt lat="47.99893" lon="6.91551">
        <ele>778</ele>
        <time>2020-03-01T12:59:33Z</time>
      </trkpt>
      <trkpt lat="47.99893" lon="6.91554">
        <ele>776</ele>
        <time>2020-03-01T13:00:01Z</time>
      </trkpt>
      <trkpt lat="47.99894" lon="6.91557">
        <ele>776</ele>
        <time>2020-03-01T13:00:03Z</time>
      </trkpt>
      <trkpt lat="47.99894" lon="6.91562">
        <ele>776</ele>
        <time>2020-03-01T13:00:26Z</time>
      </trkpt>
      <trkpt lat="47.99896" lon="6.91564">
        <ele>776</ele>
        <time>2020-03-01T13:00:28Z</time>
      </trkpt>
      <trkpt lat="47.99897" lon="6.91567">
        <ele>775</ele>
        <time>2020-03-01T13:00:30Z</time>
      </trkpt>
      <trkpt lat="47.99897" lon="6.9157">
        <ele>776</ele>
        <time>2020-03-01T13:00:32Z</time>
      </trkpt>
      <trkpt lat="47.99896" lon="6.91573">
        <ele>776</ele>
        <time>2020-03-01T13:01:04Z</time>
      </trkpt>
      <trkpt lat="47.99895" lon="6.91577">
        <ele>777</ele>
        <time>2020-03-01T13:01:06Z</time>
      </trkpt>
      <trkpt lat="47.99894" lon="6.9158">
        <ele>777</ele>
        <time>2020-03-01T13:01:08Z</time>
      </trkpt>
      <trkpt lat="47.99894" lon="6.91583">
        <ele>777</ele>
        <time>2020-03-01T13:01:11Z</time>
      </trkpt>
      <trkpt lat="47.99893" lon="6.91587">
        <ele>776</ele>
        <time>2020-03-01T13:01:13Z</time>
      </trkpt>
      <trkpt lat="47.99894" lon="6.9159">
        <ele>774</ele>
        <time>2020-03-01T13:01:19Z</time>
      </trkpt>
      <trkpt lat="47.99895" lon="6.91588">
        <ele>773</ele>
        <time>2020-03-01T13:01:25Z</time>
      </trkpt>
      <trkpt lat="47.99896" lon="6.91585">
        <ele>773</ele>
        <time>2020-03-01T13:01:27Z</time>
      </trkpt>
      <trkpt lat="47.99897" lon="6.91582">
        <ele>774</ele>
        <time>2020-03-01T13:01:29Z</time>
      </trkpt>
      <trkpt lat="47.99898" lon="6.91579">
        <ele>773</ele>
        <time>2020-03-01T13:01:31Z</time>
      </trkpt>
      <trkpt lat="47.99898" lon="6.91575">
        <ele>773</ele>
        <time>2020-03-01T13:01:33Z</time>
      </trkpt>
      <trkpt lat="47.99899" lon="6.91573">
        <ele>773</ele>
        <time>2020-03-01T13:01:35Z</time>
      </trkpt>
      <trkpt lat="47.99899" lon="6.91569">
        <ele>773</ele>
        <time>2020-03-01T13:01:38Z</time>
      </trkpt>
      <trkpt lat="47.99899" lon="6.91566">
        <ele>773</ele>
        <time>2020-03-01T13:01:40Z</time>
      </trkpt>
      <trkpt lat="47.99898" lon="6.91562">
        <ele>774</ele>
        <time>2020-03-01T13:01:43Z</time>
      </trkpt>
      <trkpt lat="47.99898" lon="6.91559">
        <ele>773</ele>
        <time>2020-03-01T13:02:07Z</time>
      </trkpt>
      <trkpt lat="47.99898" lon="6.91555">
        <ele>772</ele>
        <time>2020-03-01T13:02:09Z</time>
      </trkpt>
      <trkpt lat="47.99898" lon="6.91552">
        <ele>772</ele>
        <time>2020-03-01T13:02:11Z</time>
      </trkpt>
      <trkpt lat="47.99897" lon="6.91549">
        <ele>772</ele>
        <time>2020-03-01T13:02:12Z</time>
      </trkpt>
      <trkpt lat="47.99897" lon="6.91546">
        <ele>771</ele>
        <time>2020-03-01T13:02:14Z</time>
      </trkpt>
      <trkpt lat="47.99897" lon="6.91542">
        <ele>770</ele>
        <time>2020-03-01T13:02:17Z</time>
      </trkpt>
      <trkpt lat="47.99897" lon="6.91539">
        <ele>770</ele>
        <time>2020-03-01T13:02:19Z</time>
      </trkpt>
      <trkpt lat="47.99898" lon="6.91536">
        <ele>769</ele>
        <time>2020-03-01T13:02:21Z</time>
      </trkpt>
      <trkpt lat="47.99899" lon="6.91533">
        <ele>770</ele>
        <time>2020-03-01T13:02:23Z</time>
      </trkpt>
      <trkpt lat="47.99901" lon="6.91531">
        <ele>769</ele>
        <time>2020-03-01T13:02:25Z</time>
      </trkpt>
      <trkpt lat="47.99902" lon="6.91528">
        <ele>770</ele>
        <time>2020-03-01T13:02:27Z</time>
      </trkpt>
      <trkpt lat="47.99903" lon="6.91525">
        <ele>770</ele>
        <time>2020-03-01T13:02:29Z</time>
      </trkpt>
      <trkpt lat="47.99904" lon="6.91523">
        <ele>770</ele>
        <time>2020-03-01T13:02:31Z</time>
      </trkpt>
      <trkpt lat="47.99906" lon="6.9152">
        <ele>769</ele>
        <time>2020-03-01T13:02:35Z</time>
      </trkpt>
      <trkpt lat="47.99907" lon="6.91516">
        <ele>770</ele>
        <time>2020-03-01T13:02:37Z</time>
      </trkpt>
      <trkpt lat="47.99908" lon="6.91512">
        <ele>769</ele>
        <time>2020-03-01T13:02:40Z</time>
      </trkpt>
      <trkpt lat="47.99909" lon="6.9151">
        <ele>770</ele>
        <time>2020-03-01T13:02:43Z</time>
      </trkpt>
      <trkpt lat="47.9991" lon="6.91507">
        <ele>770</ele>
        <time>2020-03-01T13:02:55Z</time>
      </trkpt>
      <trkpt lat="47.99911" lon="6.91504">
        <ele>769</ele>
        <time>2020-03-01T13:02:59Z</time>
      </trkpt>
      <trkpt lat="47.99911" lon="6.91501">
        <ele>766</ele>
        <time>2020-03-01T13:03:05Z</time>
      </trkpt>
      <trkpt lat="47.99913" lon="6.91498">
        <ele>768</ele>
        <time>2020-03-01T13:03:07Z</time>
      </trkpt>
      <trkpt lat="47.99915" lon="6.91496">
        <ele>769</ele>
        <time>2020-03-01T13:03:12Z</time>
      </trkpt>
      <trkpt lat="47.99919" lon="6.91495">
        <ele>770</ele>
        <time>2020-03-01T13:03:16Z</time>
      </trkpt>
      <trkpt lat="47.99922" lon="6.91496">
        <ele>774</ele>
        <time>2020-03-01T13:03:20Z</time>
      </trkpt>
      <trkpt lat="47.99925" lon="6.91498">
        <ele>775</ele>
        <time>2020-03-01T13:03:22Z</time>
      </trkpt>
      <trkpt lat="47.99927" lon="6.91501">
        <ele>778</ele>
        <time>2020-03-01T13:03:25Z</time>
      </trkpt>
      <trkpt lat="47.99927" lon="6.91503">
        <ele>777</ele>
        <time>2020-03-01T13:03:30Z</time>
      </trkpt>
      <trkpt lat="47.9993" lon="6.91502">
        <ele>774</ele>
        <time>2020-03-01T13:03:51Z</time>
      </trkpt>
      <trkpt lat="47.99932" lon="6.91502">
        <ele>777</ele>
        <time>2020-03-01T13:03:53Z</time>
      </trkpt>
      <trkpt lat="47.99932" lon="6.91505">
        <ele>777</ele>
        <time>2020-03-01T13:03:56Z</time>
      </trkpt>
      <trkpt lat="47.99931" lon="6.9151">
        <ele>777</ele>
        <time>2020-03-01T13:03:58Z</time>
      </trkpt>
      <trkpt lat="47.99931" lon="6.91508">
        <ele>777</ele>
        <time>2020-03-01T13:04:00Z</time>
      </trkpt>
      <trkpt lat="47.99931" lon="6.91505">
        <ele>775</ele>
        <time>2020-03-01T13:04:14Z</time>
      </trkpt>
      <trkpt lat="47.99933" lon="6.91505">
        <ele>774</ele>
        <time>2020-03-01T13:04:20Z</time>
      </trkpt>
      <trkpt lat="47.99936" lon="6.91506">
        <ele>772</ele>
        <time>2020-03-01T13:04:22Z</time>
      </trkpt>
      <trkpt lat="47.99939" lon="6.91504">
        <ele>771</ele>
        <time>2020-03-01T13:04:24Z</time>
      </trkpt>
      <trkpt lat="47.99941" lon="6.91499">
        <ele>771</ele>
        <time>2020-03-01T13:04:26Z</time>
      </trkpt>
      <trkpt lat="47.99942" lon="6.91494">
        <ele>769</ele>
        <time>2020-03-01T13:04:28Z</time>
      </trkpt>
      <trkpt lat="47.99942" lon="6.9149">
        <ele>767</ele>
        <time>2020-03-01T13:04:30Z</time>
      </trkpt>
      <trkpt lat="47.99943" lon="6.91486">
        <ele>766</ele>
        <time>2020-03-01T13:04:32Z</time>
      </trkpt>
      <trkpt lat="47.99945" lon="6.91484">
        <ele>765</ele>
        <time>2020-03-01T13:04:35Z</time>
      </trkpt>
      <trkpt lat="47.99947" lon="6.91481">
        <ele>765</ele>
        <time>2020-03-01T13:04:37Z</time>
      </trkpt>
      <trkpt lat="47.99949" lon="6.91478">
        <ele>765</ele>
        <time>2020-03-01T13:04:39Z</time>
      </trkpt>
      <trkpt lat="47.99952" lon="6.91476">
        <ele>766</ele>
        <time>2020-03-01T13:04:41Z</time>
      </trkpt>
      <trkpt lat="47.99954" lon="6.91474">
        <ele>766</ele>
        <time>2020-03-01T13:04:43Z</time>
      </trkpt>
      <trkpt lat="47.99955" lon="6.9147">
        <ele>766</ele>
        <time>2020-03-01T13:04:45Z</time>
      </trkpt>
      <trkpt lat="47.99957" lon="6.91467">
        <ele>769</ele>
        <time>2020-03-01T13:04:47Z</time>
      </trkpt>
      <trkpt lat="47.99959" lon="6.91466">
        <ele>770</ele>
        <time>2020-03-01T13:04:50Z</time>
      </trkpt>
      <trkpt lat="47.99961" lon="6.91463">
        <ele>771</ele>
        <time>2020-03-01T13:04:51Z</time>
      </trkpt>
      <trkpt lat="47.99962" lon="6.91464">
        <ele>772</ele>
        <time>2020-03-01T13:04:52Z</time>
      </trkpt>
      <trkpt lat="47.99962" lon="6.91461">
        <ele>772</ele>
        <time>2020-03-01T13:04:55Z</time>
      </trkpt>
      <trkpt lat="47.99962" lon="6.91458">
        <ele>771</ele>
        <time>2020-03-01T13:04:57Z</time>
      </trkpt>
      <trkpt lat="47.99963" lon="6.91456">
        <ele>770</ele>
        <time>2020-03-01T13:04:58Z</time>
      </trkpt>
      <trkpt lat="47.99964" lon="6.91453">
        <ele>769</ele>
        <time>2020-03-01T13:05:00Z</time>
      </trkpt>
      <trkpt lat="47.99964" lon="6.9145">
        <ele>769</ele>
        <time>2020-03-01T13:05:04Z</time>
      </trkpt>
      <trkpt lat="47.99965" lon="6.91447">
        <ele>768</ele>
        <time>2020-03-01T13:05:12Z</time>
      </trkpt>
      <trkpt lat="47.99967" lon="6.91446">
        <ele>766</ele>
        <time>2020-03-01T13:05:17Z</time>
      </trkpt>
      <trkpt lat="47.99969" lon="6.91443">
        <ele>766</ele>
        <time>2020-03-01T13:05:20Z</time>
      </trkpt>
      <trkpt lat="47.99969" lon="6.9144">
        <ele>767</ele>
        <time>2020-03-01T13:05:26Z</time>
      </trkpt>
      <trkpt lat="47.9997" lon="6.91437">
        <ele>766</ele>
        <time>2020-03-01T13:05:29Z</time>
      </trkpt>
      <trkpt lat="47.99972" lon="6.91435">
        <ele>767</ele>
        <time>2020-03-01T13:05:31Z</time>
      </trkpt>
      <trkpt lat="47.99974" lon="6.91431">
        <ele>767</ele>
        <time>2020-03-01T13:05:33Z</time>
      </trkpt>
      <trkpt lat="47.99974" lon="6.91429">
        <ele>766</ele>
        <time>2020-03-01T13:05:35Z</time>
      </trkpt>
      <trkpt lat="47.99977" lon="6.91426">
        <ele>766</ele>
        <time>2020-03-01T13:05:38Z</time>
      </trkpt>
      <trkpt lat="47.99978" lon="6.91423">
        <ele>765</ele>
        <time>2020-03-01T13:05:40Z</time>
      </trkpt>
      <trkpt lat="47.99979" lon="6.91419">
        <ele>765</ele>
        <time>2020-03-01T13:05:42Z</time>
      </trkpt>
      <trkpt lat="47.99978" lon="6.91416">
        <ele>764</ele>
        <time>2020-03-01T13:05:46Z</time>
      </trkpt>
      <trkpt lat="47.99979" lon="6.91412">
        <ele>764</ele>
        <time>2020-03-01T13:05:48Z</time>
      </trkpt>
      <trkpt lat="47.9998" lon="6.91409">
        <ele>763</ele>
        <time>2020-03-01T13:05:50Z</time>
      </trkpt>
      <trkpt lat="47.99981" lon="6.91406">
        <ele>763</ele>
        <time>2020-03-01T13:05:52Z</time>
      </trkpt>
      <trkpt lat="47.99982" lon="6.91403">
        <ele>763</ele>
        <time>2020-03-01T13:05:54Z</time>
      </trkpt>
      <trkpt lat="47.99983" lon="6.91401">
        <ele>762</ele>
        <time>2020-03-01T13:05:56Z</time>
      </trkpt>
      <trkpt lat="47.99985" lon="6.91397">
        <ele>761</ele>
        <time>2020-03-01T13:05:58Z</time>
      </trkpt>
      <trkpt lat="47.99987" lon="6.91394">
        <ele>758</ele>
        <time>2020-03-01T13:06:00Z</time>
      </trkpt>
      <trkpt lat="47.99988" lon="6.91391">
        <ele>757</ele>
        <time>2020-03-01T13:06:02Z</time>
      </trkpt>
      <trkpt lat="47.99989" lon="6.91387">
        <ele>758</ele>
        <time>2020-03-01T13:06:04Z</time>
      </trkpt>
      <trkpt lat="47.99991" lon="6.91385">
        <ele>758</ele>
        <time>2020-03-01T13:06:06Z</time>
      </trkpt>
      <trkpt lat="47.99994" lon="6.91382">
        <ele>756</ele>
        <time>2020-03-01T13:06:08Z</time>
      </trkpt>
      <trkpt lat="47.99997" lon="6.91381">
        <ele>756</ele>
        <time>2020-03-01T13:06:10Z</time>
      </trkpt>
      <trkpt lat="47.99999" lon="6.91379">
        <ele>754</ele>
        <time>2020-03-01T13:06:13Z</time>
      </trkpt>
      <trkpt lat="48" lon="6.91377">
        <ele>756</ele>
        <time>2020-03-01T13:06:14Z</time>
      </trkpt>
      <trkpt lat="48.00002" lon="6.91374">
        <ele>755</ele>
        <time>2020-03-01T13:06:18Z</time>
      </trkpt>
      <trkpt lat="48.00003" lon="6.91371">
        <ele>754</ele>
        <time>2020-03-01T13:06:20Z</time>
      </trkpt>
      <trkpt lat="48.00004" lon="6.91368">
        <ele>754</ele>
        <time>2020-03-01T13:06:22Z</time>
      </trkpt>
      <trkpt lat="48.00006" lon="6.91365">
        <ele>754</ele>
        <time>2020-03-01T13:06:24Z</time>
      </trkpt>
      <trkpt lat="48.00008" lon="6.91362">
        <ele>754</ele>
        <time>2020-03-01T13:06:26Z</time>
      </trkpt>
      <trkpt lat="48.00009" lon="6.9136">
        <ele>754</ele>
        <time>2020-03-01T13:06:28Z</time>
      </trkpt>
      <trkpt lat="48.00011" lon="6.91358">
        <ele>754</ele>
        <time>2020-03-01T13:06:30Z</time>
      </trkpt>
      <trkpt lat="48.00012" lon="6.91355">
        <ele>753</ele>
        <time>2020-03-01T13:06:32Z</time>
      </trkpt>
      <trkpt lat="48.00014" lon="6.91353">
        <ele>753</ele>
        <time>2020-03-01T13:06:34Z</time>
      </trkpt>
      <trkpt lat="48.00016" lon="6.91351">
        <ele>753</ele>
        <time>2020-03-01T13:06:36Z</time>
      </trkpt>
      <trkpt lat="48.00018" lon="6.91349">
        <ele>753</ele>
        <time>2020-03-01T13:06:37Z</time>
      </trkpt>
      <trkpt lat="48.0002" lon="6.91346">
        <ele>753</ele>
        <time>2020-03-01T13:06:39Z</time>
      </trkpt>
      <trkpt lat="48.00022" lon="6.91343">
        <ele>754</ele>
        <time>2020-03-01T13:06:41Z</time>
      </trkpt>
      <trkpt lat="48.00023" lon="6.9134">
        <ele>754</ele>
        <time>2020-03-01T13:06:45Z</time>
      </trkpt>
      <trkpt lat="48.00024" lon="6.91338">
        <ele>755</ele>
        <time>2020-03-01T13:06:49Z</time>
      </trkpt>
      <trkpt lat="48.00026" lon="6.91335">
        <ele>755</ele>
        <time>2020-03-01T13:06:51Z</time>
      </trkpt>
      <trkpt lat="48.00028" lon="6.91331">
        <ele>754</ele>
        <time>2020-03-01T13:06:53Z</time>
      </trkpt>
      <trkpt lat="48.00028" lon="6.91328">
        <ele>754</ele>
        <time>2020-03-01T13:06:55Z</time>
      </trkpt>
      <trkpt lat="48.0003" lon="6.91325">
        <ele>753</ele>
        <time>2020-03-01T13:06:58Z</time>
      </trkpt>
      <trkpt lat="48.00031" lon="6.91322">
        <ele>751</ele>
        <time>2020-03-01T13:07:00Z</time>
      </trkpt>
      <trkpt lat="48.00033" lon="6.9132">
        <ele>750</ele>
        <time>2020-03-01T13:07:02Z</time>
      </trkpt>
      <trkpt lat="48.00034" lon="6.91318">
        <ele>751</ele>
        <time>2020-03-01T13:07:05Z</time>
      </trkpt>
      <trkpt lat="48.00036" lon="6.91315">
        <ele>749</ele>
        <time>2020-03-01T13:07:07Z</time>
      </trkpt>
      <trkpt lat="48.00037" lon="6.91312">
        <ele>751</ele>
        <time>2020-03-01T13:07:09Z</time>
      </trkpt>
      <trkpt lat="48.00037" lon="6.91309">
        <ele>751</ele>
        <time>2020-03-01T13:07:12Z</time>
      </trkpt>
      <trkpt lat="48.00038" lon="6.91304">
        <ele>754</ele>
        <time>2020-03-01T13:07:14Z</time>
      </trkpt>
      <trkpt lat="48.00038" lon="6.91302">
        <ele>752</ele>
        <time>2020-03-01T13:07:16Z</time>
      </trkpt>
      <trkpt lat="48.00039" lon="6.91299">
        <ele>754</ele>
        <time>2020-03-01T13:07:17Z</time>
      </trkpt>
      <trkpt lat="48.00039" lon="6.91294">
        <ele>753</ele>
        <time>2020-03-01T13:07:21Z</time>
      </trkpt>
      <trkpt lat="48.00041" lon="6.91291">
        <ele>752</ele>
        <time>2020-03-01T13:07:23Z</time>
      </trkpt>
      <trkpt lat="48.00043" lon="6.91287">
        <ele>750</ele>
        <time>2020-03-01T13:07:25Z</time>
      </trkpt>
      <trkpt lat="48.00043" lon="6.91283">
        <ele>749</ele>
        <time>2020-03-01T13:07:27Z</time>
      </trkpt>
      <trkpt lat="48.00043" lon="6.91279">
        <ele>749</ele>
        <time>2020-03-01T13:07:29Z</time>
      </trkpt>
      <trkpt lat="48.00044" lon="6.91275">
        <ele>748</ele>
        <time>2020-03-01T13:07:32Z</time>
      </trkpt>
      <trkpt lat="48.00045" lon="6.91272">
        <ele>748</ele>
        <time>2020-03-01T13:07:35Z</time>
      </trkpt>
      <trkpt lat="48.00045" lon="6.91269">
        <ele>749</ele>
        <time>2020-03-01T13:07:37Z</time>
      </trkpt>
      <trkpt lat="48.00047" lon="6.91266">
        <ele>748</ele>
        <time>2020-03-01T13:07:39Z</time>
      </trkpt>
      <trkpt lat="48.00048" lon="6.91262">
        <ele>749</ele>
        <time>2020-03-01T13:07:41Z</time>
      </trkpt>
      <trkpt lat="48.00049" lon="6.91259">
        <ele>752</ele>
        <time>2020-03-01T13:07:43Z</time>
      </trkpt>
      <trkpt lat="48.0005" lon="6.91256">
        <ele>750</ele>
        <time>2020-03-01T13:07:45Z</time>
      </trkpt>
      <trkpt lat="48.00051" lon="6.91254">
        <ele>750</ele>
        <time>2020-03-01T13:07:47Z</time>
      </trkpt>
      <trkpt lat="48.00052" lon="6.91249">
        <ele>751</ele>
        <time>2020-03-01T13:07:50Z</time>
      </trkpt>
      <trkpt lat="48.00054" lon="6.91248">
        <ele>751</ele>
        <time>2020-03-01T13:07:53Z</time>
      </trkpt>
      <trkpt lat="48.00056" lon="6.91246">
        <ele>748</ele>
        <time>2020-03-01T13:07:55Z</time>
      </trkpt>
      <trkpt lat="48.00057" lon="6.91243">
        <ele>748</ele>
        <time>2020-03-01T13:07:57Z</time>
      </trkpt>
      <trkpt lat="48.00058" lon="6.91239">
        <ele>749</ele>
        <time>2020-03-01T13:07:59Z</time>
      </trkpt>
      <trkpt lat="48.00058" lon="6.91235">
        <ele>750</ele>
        <time>2020-03-01T13:08:01Z</time>
      </trkpt>
      <trkpt lat="48.00059" lon="6.91232">
        <ele>750</ele>
        <time>2020-03-01T13:08:04Z</time>
      </trkpt>
      <trkpt lat="48.00061" lon="6.91228">
        <ele>748</ele>
        <time>2020-03-01T13:08:06Z</time>
      </trkpt>
      <trkpt lat="48.00063" lon="6.91225">
        <ele>748</ele>
        <time>2020-03-01T13:08:08Z</time>
      </trkpt>
      <trkpt lat="48.00064" lon="6.91222">
        <ele>748</ele>
        <time>2020-03-01T13:08:10Z</time>
      </trkpt>
      <trkpt lat="48.00064" lon="6.91219">
        <ele>747</ele>
        <time>2020-03-01T13:08:12Z</time>
      </trkpt>
      <trkpt lat="48.00065" lon="6.91216">
        <ele>749</ele>
        <time>2020-03-01T13:08:13Z</time>
      </trkpt>
      <trkpt lat="48.00067" lon="6.91212">
        <ele>748</ele>
        <time>2020-03-01T13:08:15Z</time>
      </trkpt>
      <trkpt lat="48.00069" lon="6.9121">
        <ele>748</ele>
        <time>2020-03-01T13:08:16Z</time>
      </trkpt>
      <trkpt lat="48.0007" lon="6.91207">
        <ele>749</ele>
        <time>2020-03-01T13:08:17Z</time>
      </trkpt>
      <trkpt lat="48.00069" lon="6.91205">
        <ele>751</ele>
        <time>2020-03-01T13:08:19Z</time>
      </trkpt>
      <trkpt lat="48.00071" lon="6.91201">
        <ele>753</ele>
        <time>2020-03-01T13:08:21Z</time>
      </trkpt>
      <trkpt lat="48.00072" lon="6.912">
        <ele>750</ele>
        <time>2020-03-01T13:08:24Z</time>
      </trkpt>
      <trkpt lat="48.00074" lon="6.91197">
        <ele>750</ele>
        <time>2020-03-01T13:08:26Z</time>
      </trkpt>
      <trkpt lat="48.00075" lon="6.91194">
        <ele>749</ele>
        <time>2020-03-01T13:08:28Z</time>
      </trkpt>
      <trkpt lat="48.00077" lon="6.91193">
        <ele>750</ele>
        <time>2020-03-01T13:08:30Z</time>
      </trkpt>
      <trkpt lat="48.00076" lon="6.9119">
        <ele>750</ele>
        <time>2020-03-01T13:08:33Z</time>
      </trkpt>
      <trkpt lat="48.00077" lon="6.91187">
        <ele>749</ele>
        <time>2020-03-01T13:08:35Z</time>
      </trkpt>
      <trkpt lat="48.00079" lon="6.91184">
        <ele>747</ele>
        <time>2020-03-01T13:08:37Z</time>
      </trkpt>
      <trkpt lat="48.0008" lon="6.91181">
        <ele>745</ele>
        <time>2020-03-01T13:08:39Z</time>
      </trkpt>
      <trkpt lat="48.00081" lon="6.91178">
        <ele>745</ele>
        <time>2020-03-01T13:08:41Z</time>
      </trkpt>
      <trkpt lat="48.00084" lon="6.91174">
        <ele>746</ele>
        <time>2020-03-01T13:08:44Z</time>
      </trkpt>
      <trkpt lat="48.00086" lon="6.91171">
        <ele>746</ele>
        <time>2020-03-01T13:08:46Z</time>
      </trkpt>
      <trkpt lat="48.00088" lon="6.91169">
        <ele>746</ele>
        <time>2020-03-01T13:08:48Z</time>
      </trkpt>
      <trkpt lat="48.00089" lon="6.91167">
        <ele>749</ele>
        <time>2020-03-01T13:08:50Z</time>
      </trkpt>
      <trkpt lat="48.00091" lon="6.91165">
        <ele>748</ele>
        <time>2020-03-01T13:08:52Z</time>
      </trkpt>
      <trkpt lat="48.00093" lon="6.91163">
        <ele>747</ele>
        <time>2020-03-01T13:08:54Z</time>
      </trkpt>
      <trkpt lat="48.00094" lon="6.91161">
        <ele>746</ele>
        <time>2020-03-01T13:08:56Z</time>
      </trkpt>
      <trkpt lat="48.00095" lon="6.91158">
        <ele>746</ele>
        <time>2020-03-01T13:08:58Z</time>
      </trkpt>
      <trkpt lat="48.00097" lon="6.91154">
        <ele>744</ele>
        <time>2020-03-01T13:09:01Z</time>
      </trkpt>
      <trkpt lat="48.00098" lon="6.91151">
        <ele>746</ele>
        <time>2020-03-01T13:09:03Z</time>
      </trkpt>
      <trkpt lat="48.00099" lon="6.91147">
        <ele>750</ele>
        <time>2020-03-01T13:09:07Z</time>
      </trkpt>
      <trkpt lat="48.00101" lon="6.91145">
        <ele>751</ele>
        <time>2020-03-01T13:09:08Z</time>
      </trkpt>
      <trkpt lat="48.00102" lon="6.91142">
        <ele>750</ele>
        <time>2020-03-01T13:09:11Z</time>
      </trkpt>
      <trkpt lat="48.00103" lon="6.91138">
        <ele>750</ele>
        <time>2020-03-01T13:09:14Z</time>
      </trkpt>
      <trkpt lat="48.00103" lon="6.91135">
        <ele>750</ele>
        <time>2020-03-01T13:09:16Z</time>
      </trkpt>
      <trkpt lat="48.00105" lon="6.91132">
        <ele>753</ele>
        <time>2020-03-01T13:09:18Z</time>
      </trkpt>
      <trkpt lat="48.00105" lon="6.91129">
        <ele>751</ele>
        <time>2020-03-01T13:09:20Z</time>
      </trkpt>
      <trkpt lat="48.00107" lon="6.91124">
        <ele>754</ele>
        <time>2020-03-01T13:09:22Z</time>
      </trkpt>
      <trkpt lat="48.00107" lon="6.91121">
        <ele>754</ele>
        <time>2020-03-01T13:09:24Z</time>
      </trkpt>
      <trkpt lat="48.00109" lon="6.91118">
        <ele>757</ele>
        <time>2020-03-01T13:09:26Z</time>
      </trkpt>
      <trkpt lat="48.00111" lon="6.91117">
        <ele>755</ele>
        <time>2020-03-01T13:09:28Z</time>
      </trkpt>
      <trkpt lat="48.00112" lon="6.91114">
        <ele>752</ele>
        <time>2020-03-01T13:09:31Z</time>
      </trkpt>
      <trkpt lat="48.00114" lon="6.91111">
        <ele>751</ele>
        <time>2020-03-01T13:09:33Z</time>
      </trkpt>
      <trkpt lat="48.00117" lon="6.91107">
        <ele>752</ele>
        <time>2020-03-01T13:09:35Z</time>
      </trkpt>
      <trkpt lat="48.00118" lon="6.91105">
        <ele>751</ele>
        <time>2020-03-01T13:09:37Z</time>
      </trkpt>
      <trkpt lat="48.0012" lon="6.91101">
        <ele>753</ele>
        <time>2020-03-01T13:09:39Z</time>
      </trkpt>
      <trkpt lat="48.00122" lon="6.91099">
        <ele>753</ele>
        <time>2020-03-01T13:09:41Z</time>
      </trkpt>
      <trkpt lat="48.00124" lon="6.91095">
        <ele>751</ele>
        <time>2020-03-01T13:09:43Z</time>
      </trkpt>
      <trkpt lat="48.00126" lon="6.91089">
        <ele>751</ele>
        <time>2020-03-01T13:09:48Z</time>
      </trkpt>
      <trkpt lat="48.00127" lon="6.91086">
        <ele>750</ele>
        <time>2020-03-01T13:09:50Z</time>
      </trkpt>
      <trkpt lat="48.00128" lon="6.91082">
        <ele>750</ele>
        <time>2020-03-01T13:09:54Z</time>
      </trkpt>
      <trkpt lat="48.0013" lon="6.91078">
        <ele>750</ele>
        <time>2020-03-01T13:09:56Z</time>
      </trkpt>
      <trkpt lat="48.00131" lon="6.91076">
        <ele>753</ele>
        <time>2020-03-01T13:09:58Z</time>
      </trkpt>
      <trkpt lat="48.00133" lon="6.91072">
        <ele>751</ele>
        <time>2020-03-01T13:10:01Z</time>
      </trkpt>
      <trkpt lat="48.00134" lon="6.9107">
        <ele>750</ele>
        <time>2020-03-01T13:10:03Z</time>
      </trkpt>
      <trkpt lat="48.00134" lon="6.91066">
        <ele>749</ele>
        <time>2020-03-01T13:10:06Z</time>
      </trkpt>
      <trkpt lat="48.00135" lon="6.91062">
        <ele>749</ele>
        <time>2020-03-01T13:10:08Z</time>
      </trkpt>
      <trkpt lat="48.00137" lon="6.91059">
        <ele>748</ele>
        <time>2020-03-01T13:10:10Z</time>
      </trkpt>
      <trkpt lat="48.0014" lon="6.91057">
        <ele>750</ele>
        <time>2020-03-01T13:10:12Z</time>
      </trkpt>
      <trkpt lat="48.0014" lon="6.91054">
        <ele>750</ele>
        <time>2020-03-01T13:10:14Z</time>
      </trkpt>
      <trkpt lat="48.00141" lon="6.91052">
        <ele>750</ele>
        <time>2020-03-01T13:10:16Z</time>
      </trkpt>
      <trkpt lat="48.00143" lon="6.9105">
        <ele>750</ele>
        <time>2020-03-01T13:10:18Z</time>
      </trkpt>
      <trkpt lat="48.00145" lon="6.91048">
        <ele>749</ele>
        <time>2020-03-01T13:10:20Z</time>
      </trkpt>
      <trkpt lat="48.00148" lon="6.91046">
        <ele>747</ele>
        <time>2020-03-01T13:10:23Z</time>
      </trkpt>
      <trkpt lat="48.0015" lon="6.91043">
        <ele>745</ele>
        <time>2020-03-01T13:10:25Z</time>
      </trkpt>
      <trkpt lat="48.00152" lon="6.91041">
        <ele>745</ele>
        <time>2020-03-01T13:10:27Z</time>
      </trkpt>
      <trkpt lat="48.00153" lon="6.91039">
        <ele>744</ele>
        <time>2020-03-01T13:10:29Z</time>
      </trkpt>
      <trkpt lat="48.00153" lon="6.91035">
        <ele>746</ele>
        <time>2020-03-01T13:10:32Z</time>
      </trkpt>
      <trkpt lat="48.00155" lon="6.91032">
        <ele>744</ele>
        <time>2020-03-01T13:10:34Z</time>
      </trkpt>
      <trkpt lat="48.00158" lon="6.9103">
        <ele>743</ele>
        <time>2020-03-01T13:10:36Z</time>
      </trkpt>
      <trkpt lat="48.00159" lon="6.91027">
        <ele>743</ele>
        <time>2020-03-01T13:10:38Z</time>
      </trkpt>
      <trkpt lat="48.00158" lon="6.91023">
        <ele>746</ele>
        <time>2020-03-01T13:10:41Z</time>
      </trkpt>
      <trkpt lat="48.00158" lon="6.91019">
        <ele>745</ele>
        <time>2020-03-01T13:10:43Z</time>
      </trkpt>
      <trkpt lat="48.0016" lon="6.91016">
        <ele>748</ele>
        <time>2020-03-01T13:10:45Z</time>
      </trkpt>
      <trkpt lat="48.0016" lon="6.91014">
        <ele>748</ele>
        <time>2020-03-01T13:10:47Z</time>
      </trkpt>
      <trkpt lat="48.00161" lon="6.91011">
        <ele>750</ele>
        <time>2020-03-01T13:10:48Z</time>
      </trkpt>
      <trkpt lat="48.00163" lon="6.91009">
        <ele>751</ele>
        <time>2020-03-01T13:10:50Z</time>
      </trkpt>
      <trkpt lat="48.00164" lon="6.91005">
        <ele>753</ele>
        <time>2020-03-01T13:10:52Z</time>
      </trkpt>
      <trkpt lat="48.00164" lon="6.91002">
        <ele>753</ele>
        <time>2020-03-01T13:10:54Z</time>
      </trkpt>
      <trkpt lat="48.00165" lon="6.90998">
        <ele>752</ele>
        <time>2020-03-01T13:10:56Z</time>
      </trkpt>
      <trkpt lat="48.00165" lon="6.90994">
        <ele>752</ele>
        <time>2020-03-01T13:10:58Z</time>
      </trkpt>
      <trkpt lat="48.00164" lon="6.90989">
        <ele>751</ele>
        <time>2020-03-01T13:11:01Z</time>
      </trkpt>
      <trkpt lat="48.00164" lon="6.90986">
        <ele>752</ele>
        <time>2020-03-01T13:11:03Z</time>
      </trkpt>
      <trkpt lat="48.00163" lon="6.90983">
        <ele>752</ele>
        <time>2020-03-01T13:11:05Z</time>
      </trkpt>
      <trkpt lat="48.00162" lon="6.90978">
        <ele>750</ele>
        <time>2020-03-01T13:11:09Z</time>
      </trkpt>
      <trkpt lat="48.00163" lon="6.90975">
        <ele>752</ele>
        <time>2020-03-01T13:11:11Z</time>
      </trkpt>
      <trkpt lat="48.00161" lon="6.90972">
        <ele>753</ele>
        <time>2020-03-01T13:11:13Z</time>
      </trkpt>
      <trkpt lat="48.00159" lon="6.90968">
        <ele>754</ele>
        <time>2020-03-01T13:11:15Z</time>
      </trkpt>
      <trkpt lat="48.00161" lon="6.90965">
        <ele>754</ele>
        <time>2020-03-01T13:11:18Z</time>
      </trkpt>
      <trkpt lat="48.00162" lon="6.90968">
        <ele>752</ele>
        <time>2020-03-01T13:11:20Z</time>
      </trkpt>
      <trkpt lat="48.00163" lon="6.90965">
        <ele>751</ele>
        <time>2020-03-01T13:11:22Z</time>
      </trkpt>
      <trkpt lat="48.00163" lon="6.90962">
        <ele>750</ele>
        <time>2020-03-01T13:11:23Z</time>
      </trkpt>
      <trkpt lat="48.00162" lon="6.90957">
        <ele>753</ele>
        <time>2020-03-01T13:11:25Z</time>
      </trkpt>
      <trkpt lat="48.0016" lon="6.90957">
        <ele>753</ele>
        <time>2020-03-01T13:11:27Z</time>
      </trkpt>
      <trkpt lat="48.00159" lon="6.90954">
        <ele>755</ele>
        <time>2020-03-01T13:11:30Z</time>
      </trkpt>
      <trkpt lat="48.00158" lon="6.90952">
        <ele>753</ele>
        <time>2020-03-01T13:11:32Z</time>
      </trkpt>
      <trkpt lat="48.00157" lon="6.90955">
        <ele>756</ele>
        <time>2020-03-01T13:11:40Z</time>
      </trkpt>
      <trkpt lat="48.00155" lon="6.90953">
        <ele>755</ele>
        <time>2020-03-01T13:11:42Z</time>
      </trkpt>
      <trkpt lat="48.00156" lon="6.90949">
        <ele>757</ele>
        <time>2020-03-01T13:11:44Z</time>
      </trkpt>
      <trkpt lat="48.00156" lon="6.90946">
        <ele>755</ele>
        <time>2020-03-01T13:11:46Z</time>
      </trkpt>
      <trkpt lat="48.00157" lon="6.90943">
        <ele>755</ele>
        <time>2020-03-01T13:11:47Z</time>
      </trkpt>
      <trkpt lat="48.00155" lon="6.9094">
        <ele>754</ele>
        <time>2020-03-01T13:11:50Z</time>
      </trkpt>
      <trkpt lat="48.00155" lon="6.90936">
        <ele>754</ele>
        <time>2020-03-01T13:11:52Z</time>
      </trkpt>
      <trkpt lat="48.00155" lon="6.90933">
        <ele>754</ele>
        <time>2020-03-01T13:11:55Z</time>
      </trkpt>
      <trkpt lat="48.00154" lon="6.9093">
        <ele>754</ele>
        <time>2020-03-01T13:11:57Z</time>
      </trkpt>
      <trkpt lat="48.00154" lon="6.90927">
        <ele>755</ele>
        <time>2020-03-01T13:11:59Z</time>
      </trkpt>
      <trkpt lat="48.00154" lon="6.90925">
        <ele>754</ele>
        <time>2020-03-01T13:12:00Z</time>
      </trkpt>
      <trkpt lat="48.00154" lon="6.9092">
        <ele>757</ele>
        <time>2020-03-01T13:12:03Z</time>
      </trkpt>
      <trkpt lat="48.00156" lon="6.90917">
        <ele>755</ele>
        <time>2020-03-01T13:12:05Z</time>
      </trkpt>
      <trkpt lat="48.00157" lon="6.90914">
        <ele>754</ele>
        <time>2020-03-01T13:12:07Z</time>
      </trkpt>
      <trkpt lat="48.00158" lon="6.9091">
        <ele>753</ele>
        <time>2020-03-01T13:12:11Z</time>
      </trkpt>
      <trkpt lat="48.00158" lon="6.90906">
        <ele>755</ele>
        <time>2020-03-01T13:12:14Z</time>
      </trkpt>
      <trkpt lat="48.0016" lon="6.90903">
        <ele>754</ele>
        <time>2020-03-01T13:12:17Z</time>
      </trkpt>
      <trkpt lat="48.0016" lon="6.909">
        <ele>756</ele>
        <time>2020-03-01T13:12:19Z</time>
      </trkpt>
      <trkpt lat="48.0016" lon="6.90896">
        <ele>755</ele>
        <time>2020-03-01T13:12:23Z</time>
      </trkpt>
      <trkpt lat="48.0016" lon="6.90893">
        <ele>755</ele>
        <time>2020-03-01T13:12:25Z</time>
      </trkpt>
      <trkpt lat="48.00162" lon="6.90888">
        <ele>755</ele>
        <time>2020-03-01T13:12:27Z</time>
      </trkpt>
      <trkpt lat="48.00163" lon="6.90884">
        <ele>757</ele>
        <time>2020-03-01T13:12:29Z</time>
      </trkpt>
      <trkpt lat="48.00162" lon="6.90879">
        <ele>755</ele>
        <time>2020-03-01T13:12:32Z</time>
      </trkpt>
      <trkpt lat="48.00162" lon="6.90874">
        <ele>757</ele>
        <time>2020-03-01T13:12:34Z</time>
      </trkpt>
      <trkpt lat="48.00162" lon="6.90871">
        <ele>757</ele>
        <time>2020-03-01T13:12:38Z</time>
      </trkpt>
      <trkpt lat="48.00161" lon="6.90868">
        <ele>756</ele>
        <time>2020-03-01T13:12:42Z</time>
      </trkpt>
      <trkpt lat="48.00161" lon="6.90865">
        <ele>755</ele>
        <time>2020-03-01T13:12:45Z</time>
      </trkpt>
      <trkpt lat="48.00161" lon="6.90861">
        <ele>754</ele>
        <time>2020-03-01T13:12:47Z</time>
      </trkpt>
      <trkpt lat="48.0016" lon="6.90858">
        <ele>752</ele>
        <time>2020-03-01T13:12:50Z</time>
      </trkpt>
      <trkpt lat="48.0016" lon="6.90854">
        <ele>753</ele>
        <time>2020-03-01T13:12:53Z</time>
      </trkpt>
      <trkpt lat="48.0016" lon="6.90851">
        <ele>753</ele>
        <time>2020-03-01T13:12:57Z</time>
      </trkpt>
      <trkpt lat="48.00159" lon="6.90847">
        <ele>752</ele>
        <time>2020-03-01T13:13:00Z</time>
      </trkpt>
      <trkpt lat="48.00159" lon="6.90843">
        <ele>756</ele>
        <time>2020-03-01T13:13:05Z</time>
      </trkpt>
      <trkpt lat="48.00157" lon="6.90838">
        <ele>755</ele>
        <time>2020-03-01T13:13:07Z</time>
      </trkpt>
      <trkpt lat="48.00156" lon="6.90834">
        <ele>753</ele>
        <time>2020-03-01T13:13:09Z</time>
      </trkpt>
      <trkpt lat="48.00159" lon="6.90829">
        <ele>750</ele>
        <time>2020-03-01T13:13:14Z</time>
      </trkpt>
      <trkpt lat="48.00159" lon="6.90827">
        <ele>749</ele>
        <time>2020-03-01T13:13:16Z</time>
      </trkpt>
      <trkpt lat="48.0016" lon="6.90824">
        <ele>750</ele>
        <time>2020-03-01T13:13:18Z</time>
      </trkpt>
      <trkpt lat="48.00162" lon="6.90821">
        <ele>750</ele>
        <time>2020-03-01T13:13:21Z</time>
      </trkpt>
      <trkpt lat="48.00163" lon="6.90818">
        <ele>752</ele>
        <time>2020-03-01T13:13:24Z</time>
      </trkpt>
      <trkpt lat="48.00163" lon="6.90815">
        <ele>750</ele>
        <time>2020-03-01T13:13:26Z</time>
      </trkpt>
      <trkpt lat="48.00164" lon="6.90811">
        <ele>752</ele>
        <time>2020-03-01T13:13:28Z</time>
      </trkpt>
      <trkpt lat="48.00166" lon="6.90809">
        <ele>752</ele>
        <time>2020-03-01T13:13:32Z</time>
      </trkpt>
      <trkpt lat="48.00167" lon="6.90805">
        <ele>751</ele>
        <time>2020-03-01T13:13:34Z</time>
      </trkpt>
      <trkpt lat="48.00168" lon="6.90803">
        <ele>751</ele>
        <time>2020-03-01T13:13:36Z</time>
      </trkpt>
      <trkpt lat="48.00169" lon="6.908">
        <ele>751</ele>
        <time>2020-03-01T13:13:38Z</time>
      </trkpt>
      <trkpt lat="48.00171" lon="6.90797">
        <ele>752</ele>
        <time>2020-03-01T13:13:41Z</time>
      </trkpt>
      <trkpt lat="48.0017" lon="6.90794">
        <ele>754</ele>
        <time>2020-03-01T13:13:43Z</time>
      </trkpt>
      <trkpt lat="48.00172" lon="6.90792">
        <ele>755</ele>
        <time>2020-03-01T13:13:46Z</time>
      </trkpt>
      <trkpt lat="48.00174" lon="6.90791">
        <ele>755</ele>
        <time>2020-03-01T13:13:47Z</time>
      </trkpt>
      <trkpt lat="48.00176" lon="6.90789">
        <ele>756</ele>
        <time>2020-03-01T13:13:55Z</time>
      </trkpt>
      <trkpt lat="48.00177" lon="6.90786">
        <ele>757</ele>
        <time>2020-03-01T13:14:00Z</time>
      </trkpt>
      <trkpt lat="48.00178" lon="6.90784">
        <ele>757</ele>
        <time>2020-03-01T13:14:03Z</time>
      </trkpt>
      <trkpt lat="48.00179" lon="6.90781">
        <ele>758</ele>
        <time>2020-03-01T13:14:05Z</time>
      </trkpt>
      <trkpt lat="48.00178" lon="6.90776">
        <ele>755</ele>
        <time>2020-03-01T13:14:08Z</time>
      </trkpt>
      <trkpt lat="48.00178" lon="6.90772">
        <ele>755</ele>
        <time>2020-03-01T13:14:13Z</time>
      </trkpt>
      <trkpt lat="48.00179" lon="6.90769">
        <ele>753</ele>
        <time>2020-03-01T13:14:19Z</time>
      </trkpt>
      <trkpt lat="48.0018" lon="6.90765">
        <ele>750</ele>
        <time>2020-03-01T13:14:23Z</time>
      </trkpt>
      <trkpt lat="48.00181" lon="6.90762">
        <ele>751</ele>
        <time>2020-03-01T13:14:27Z</time>
      </trkpt>
      <trkpt lat="48.00181" lon="6.90759">
        <ele>750</ele>
        <time>2020-03-01T13:14:32Z</time>
      </trkpt>
      <trkpt lat="48.0018" lon="6.90755">
        <ele>749</ele>
        <time>2020-03-01T13:14:34Z</time>
      </trkpt>
      <trkpt lat="48.0018" lon="6.90752">
        <ele>750</ele>
        <time>2020-03-01T13:14:36Z</time>
      </trkpt>
      <trkpt lat="48.00181" lon="6.9075">
        <ele>752</ele>
        <time>2020-03-01T13:14:38Z</time>
      </trkpt>
      <trkpt lat="48.0018" lon="6.90747">
        <ele>752</ele>
        <time>2020-03-01T13:14:41Z</time>
      </trkpt>
      <trkpt lat="48.00178" lon="6.90746">
        <ele>756</ele>
        <time>2020-03-01T13:14:46Z</time>
      </trkpt>
      <trkpt lat="48.00177" lon="6.9075">
        <ele>755</ele>
        <time>2020-03-01T13:14:49Z</time>
      </trkpt>
      <trkpt lat="48.00177" lon="6.90745">
        <ele>753</ele>
        <time>2020-03-01T13:14:53Z</time>
      </trkpt>
      <trkpt lat="48.00178" lon="6.90742">
        <ele>755</ele>
        <time>2020-03-01T13:14:55Z</time>
      </trkpt>
      <trkpt lat="48.00178" lon="6.90739">
        <ele>754</ele>
        <time>2020-03-01T13:14:58Z</time>
      </trkpt>
      <trkpt lat="48.00178" lon="6.90736">
        <ele>756</ele>
        <time>2020-03-01T13:15:00Z</time>
      </trkpt>
      <trkpt lat="48.00179" lon="6.90732">
        <ele>753</ele>
        <time>2020-03-01T13:15:03Z</time>
      </trkpt>
      <trkpt lat="48.00179" lon="6.90729">
        <ele>752</ele>
        <time>2020-03-01T13:15:05Z</time>
      </trkpt>
      <trkpt lat="48.00179" lon="6.90726">
        <ele>752</ele>
        <time>2020-03-01T13:15:07Z</time>
      </trkpt>
      <trkpt lat="48.00178" lon="6.90721">
        <ele>753</ele>
        <time>2020-03-01T13:15:09Z</time>
      </trkpt>
      <trkpt lat="48.00176" lon="6.90719">
        <ele>753</ele>
        <time>2020-03-01T13:15:11Z</time>
      </trkpt>
      <trkpt lat="48.00175" lon="6.90716">
        <ele>752</ele>
        <time>2020-03-01T13:15:13Z</time>
      </trkpt>
      <trkpt lat="48.00176" lon="6.90711">
        <ele>753</ele>
        <time>2020-03-01T13:15:17Z</time>
      </trkpt>
      <trkpt lat="48.00176" lon="6.90708">
        <ele>751</ele>
        <time>2020-03-01T13:15:19Z</time>
      </trkpt>
      <trkpt lat="48.00176" lon="6.90704">
        <ele>750</ele>
        <time>2020-03-01T13:15:23Z</time>
      </trkpt>
      <trkpt lat="48.00175" lon="6.90702">
        <ele>751</ele>
        <time>2020-03-01T13:15:26Z</time>
      </trkpt>
      <trkpt lat="48.00175" lon="6.90698">
        <ele>750</ele>
        <time>2020-03-01T13:15:31Z</time>
      </trkpt>
      <trkpt lat="48.00175" lon="6.90694">
        <ele>750</ele>
        <time>2020-03-01T13:15:33Z</time>
      </trkpt>
      <trkpt lat="48.00174" lon="6.90692">
        <ele>750</ele>
        <time>2020-03-01T13:15:35Z</time>
      </trkpt>
      <trkpt lat="48.00174" lon="6.90688">
        <ele>753</ele>
        <time>2020-03-01T13:15:37Z</time>
      </trkpt>
      <trkpt lat="48.00173" lon="6.90686">
        <ele>753</ele>
        <time>2020-03-01T13:15:40Z</time>
      </trkpt>
      <trkpt lat="48.00171" lon="6.90686">
        <ele>753</ele>
        <time>2020-03-01T13:15:43Z</time>
      </trkpt>
      <trkpt lat="48.0017" lon="6.90688">
        <ele>752</ele>
        <time>2020-03-01T13:15:48Z</time>
      </trkpt>
      <trkpt lat="48.00172" lon="6.90688">
        <ele>756</ele>
        <time>2020-03-01T13:15:53Z</time>
      </trkpt>
      <trkpt lat="48.00173" lon="6.90685">
        <ele>761</ele>
        <time>2020-03-01T13:16:00Z</time>
      </trkpt>
      <trkpt lat="48.00171" lon="6.90686">
        <ele>760</ele>
        <time>2020-03-01T13:16:05Z</time>
      </trkpt>
      <trkpt lat="48.00174" lon="6.90686">
        <ele>757</ele>
        <time>2020-03-01T13:16:13Z</time>
      </trkpt>
      <trkpt lat="48.00176" lon="6.90687">
        <ele>757</ele>
        <time>2020-03-01T13:16:15Z</time>
      </trkpt>
      <trkpt lat="48.00177" lon="6.90689">
        <ele>760</ele>
        <time>2020-03-01T13:16:27Z</time>
      </trkpt>
      <trkpt lat="48.00179" lon="6.90691">
        <ele>762</ele>
        <time>2020-03-01T13:16:30Z</time>
      </trkpt>
      <trkpt lat="48.00178" lon="6.90693">
        <ele>764</ele>
        <time>2020-03-01T13:16:33Z</time>
      </trkpt>
      <trkpt lat="48.00176" lon="6.90693">
        <ele>763</ele>
        <time>2020-03-01T13:16:35Z</time>
      </trkpt>
      <trkpt lat="48.00173" lon="6.90695">
        <ele>760</ele>
        <time>2020-03-01T13:16:38Z</time>
      </trkpt>
      <trkpt lat="48.00171" lon="6.90694">
        <ele>757</ele>
        <time>2020-03-01T13:16:44Z</time>
      </trkpt>
      <trkpt lat="48.00169" lon="6.90693">
        <ele>756</ele>
        <time>2020-03-01T13:16:47Z</time>
      </trkpt>
      <trkpt lat="48.00167" lon="6.9069">
        <ele>756</ele>
        <time>2020-03-01T13:16:53Z</time>
      </trkpt>
      <trkpt lat="48.00169" lon="6.90691">
        <ele>759</ele>
        <time>2020-03-01T13:17:07Z</time>
      </trkpt>
      <trkpt lat="48.00168" lon="6.90691">
        <ele>759</ele>
        <time>2020-03-01T13:17:08Z</time>
      </trkpt>
      <trkpt lat="48.00167" lon="6.90688">
        <ele>760</ele>
        <time>2020-03-01T13:17:11Z</time>
      </trkpt>
      <trkpt lat="48.00166" lon="6.90685">
        <ele>758</ele>
        <time>2020-03-01T13:17:13Z</time>
      </trkpt>
      <trkpt lat="48.00168" lon="6.90685">
        <ele>754</ele>
        <time>2020-03-01T13:17:28Z</time>
      </trkpt>
      <trkpt lat="48.00168" lon="6.90682">
        <ele>751</ele>
        <time>2020-03-01T13:17:34Z</time>
      </trkpt>
      <trkpt lat="48.00167" lon="6.9068">
        <ele>748</ele>
        <time>2020-03-01T13:17:39Z</time>
      </trkpt>
      <trkpt lat="48.00165" lon="6.90678">
        <ele>747</ele>
        <time>2020-03-01T13:17:44Z</time>
      </trkpt>
      <trkpt lat="48.00164" lon="6.9068">
        <ele>747</ele>
        <time>2020-03-01T13:17:56Z</time>
      </trkpt>
      <trkpt lat="48.00163" lon="6.90683">
        <ele>748</ele>
        <time>2020-03-01T13:17:59Z</time>
      </trkpt>
      <trkpt lat="48.00164" lon="6.90686">
        <ele>747</ele>
        <time>2020-03-01T13:18:01Z</time>
      </trkpt>
      <trkpt lat="48.00166" lon="6.90688">
        <ele>746</ele>
        <time>2020-03-01T13:18:07Z</time>
      </trkpt>
      <trkpt lat="48.00167" lon="6.90686">
        <ele>746</ele>
        <time>2020-03-01T13:18:11Z</time>
      </trkpt>
      <trkpt lat="48.00169" lon="6.90685">
        <ele>748</ele>
        <time>2020-03-01T13:18:15Z</time>
      </trkpt>
      <trkpt lat="48.00171" lon="6.90684">
        <ele>748</ele>
        <time>2020-03-01T13:18:18Z</time>
      </trkpt>
      <trkpt lat="48.00173" lon="6.90682">
        <ele>749</ele>
        <time>2020-03-01T13:18:27Z</time>
      </trkpt>
      <trkpt lat="48.00172" lon="6.90679">
        <ele>749</ele>
        <time>2020-03-01T13:18:35Z</time>
      </trkpt>
      <trkpt lat="48.0017" lon="6.90679">
        <ele>750</ele>
        <time>2020-03-01T13:18:40Z</time>
      </trkpt>
      <trkpt lat="48.00172" lon="6.90678">
        <ele>750</ele>
        <time>2020-03-01T13:18:45Z</time>
      </trkpt>
      <trkpt lat="48.00171" lon="6.90674">
        <ele>748</ele>
        <time>2020-03-01T13:18:47Z</time>
      </trkpt>
      <trkpt lat="48.00173" lon="6.90671">
        <ele>751</ele>
        <time>2020-03-01T13:18:55Z</time>
      </trkpt>
      <trkpt lat="48.0017" lon="6.90668">
        <ele>749</ele>
        <time>2020-03-01T13:19:18Z</time>
      </trkpt>
      <trkpt lat="48.00168" lon="6.90665">
        <ele>749</ele>
        <time>2020-03-01T13:19:20Z</time>
      </trkpt>
      <trkpt lat="48.00167" lon="6.90661">
        <ele>747</ele>
        <time>2020-03-01T13:19:23Z</time>
      </trkpt>
      <trkpt lat="48.00168" lon="6.90658">
        <ele>747</ele>
        <time>2020-03-01T13:19:25Z</time>
      </trkpt>
      <trkpt lat="48.00168" lon="6.90654">
        <ele>747</ele>
        <time>2020-03-01T13:19:27Z</time>
      </trkpt>
      <trkpt lat="48.00168" lon="6.90651">
        <ele>746</ele>
        <time>2020-03-01T13:19:29Z</time>
      </trkpt>
      <trkpt lat="48.00168" lon="6.90648">
        <ele>746</ele>
        <time>2020-03-01T13:19:34Z</time>
      </trkpt>
      <trkpt lat="48.00169" lon="6.90643">
        <ele>746</ele>
        <time>2020-03-01T13:19:53Z</time>
      </trkpt>
      <trkpt lat="48.0017" lon="6.90641">
        <ele>745</ele>
        <time>2020-03-01T13:19:54Z</time>
      </trkpt>
      <trkpt lat="48.00172" lon="6.90637">
        <ele>745</ele>
        <time>2020-03-01T13:19:56Z</time>
      </trkpt>
      <trkpt lat="48.00173" lon="6.90633">
        <ele>746</ele>
        <time>2020-03-01T13:19:58Z</time>
      </trkpt>
      <trkpt lat="48.00173" lon="6.90629">
        <ele>746</ele>
        <time>2020-03-01T13:19:59Z</time>
      </trkpt>
      <trkpt lat="48.00173" lon="6.90626">
        <ele>746</ele>
        <time>2020-03-01T13:20:00Z</time>
      </trkpt>
      <trkpt lat="48.00173" lon="6.90622">
        <ele>746</ele>
        <time>2020-03-01T13:20:02Z</time>
      </trkpt>
      <trkpt lat="48.00174" lon="6.90623">
        <ele>749</ele>
        <time>2020-03-01T13:20:16Z</time>
      </trkpt>
      <trkpt lat="48.00175" lon="6.9062">
        <ele>748</ele>
        <time>2020-03-01T13:20:18Z</time>
      </trkpt>
      <trkpt lat="48.00177" lon="6.90618">
        <ele>747</ele>
        <time>2020-03-01T13:20:20Z</time>
      </trkpt>
      <trkpt lat="48.00177" lon="6.90614">
        <ele>746</ele>
        <time>2020-03-01T13:20:22Z</time>
      </trkpt>
      <trkpt lat="48.00177" lon="6.9061">
        <ele>747</ele>
        <time>2020-03-01T13:20:24Z</time>
      </trkpt>
      <trkpt lat="48.00176" lon="6.90605">
        <ele>746</ele>
        <time>2020-03-01T13:20:26Z</time>
      </trkpt>
      <trkpt lat="48.00177" lon="6.90602">
        <ele>746</ele>
        <time>2020-03-01T13:20:28Z</time>
      </trkpt>
      <trkpt lat="48.00177" lon="6.90597">
        <ele>745</ele>
        <time>2020-03-01T13:20:30Z</time>
      </trkpt>
      <trkpt lat="48.00176" lon="6.90594">
        <ele>745</ele>
        <time>2020-03-01T13:20:32Z</time>
      </trkpt>
      <trkpt lat="48.00176" lon="6.9059">
        <ele>745</ele>
        <time>2020-03-01T13:20:34Z</time>
      </trkpt>
      <trkpt lat="48.00178" lon="6.90587">
        <ele>742</ele>
        <time>2020-03-01T13:20:36Z</time>
      </trkpt>
      <trkpt lat="48.00178" lon="6.90584">
        <ele>742</ele>
        <time>2020-03-01T13:20:38Z</time>
      </trkpt>
      <trkpt lat="48.00179" lon="6.9058">
        <ele>743</ele>
        <time>2020-03-01T13:20:41Z</time>
      </trkpt>
      <trkpt lat="48.00179" lon="6.90576">
        <ele>743</ele>
        <time>2020-03-01T13:20:45Z</time>
      </trkpt>
      <trkpt lat="48.00179" lon="6.90572">
        <ele>743</ele>
        <time>2020-03-01T13:20:47Z</time>
      </trkpt>
      <trkpt lat="48.0018" lon="6.90569">
        <ele>743</ele>
        <time>2020-03-01T13:20:49Z</time>
      </trkpt>
      <trkpt lat="48.0018" lon="6.90566">
        <ele>743</ele>
        <time>2020-03-01T13:20:51Z</time>
      </trkpt>
      <trkpt lat="48.00181" lon="6.90563">
        <ele>742</ele>
        <time>2020-03-01T13:20:53Z</time>
      </trkpt>
      <trkpt lat="48.00181" lon="6.9056">
        <ele>743</ele>
        <time>2020-03-01T13:20:55Z</time>
      </trkpt>
      <trkpt lat="48.00181" lon="6.90557">
        <ele>742</ele>
        <time>2020-03-01T13:20:57Z</time>
      </trkpt>
      <trkpt lat="48.00181" lon="6.90554">
        <ele>742</ele>
        <time>2020-03-01T13:20:59Z</time>
      </trkpt>
      <trkpt lat="48.00183" lon="6.90551">
        <ele>742</ele>
        <time>2020-03-01T13:21:01Z</time>
      </trkpt>
      <trkpt lat="48.00184" lon="6.90547">
        <ele>741</ele>
        <time>2020-03-01T13:21:04Z</time>
      </trkpt>
      <trkpt lat="48.00184" lon="6.90544">
        <ele>741</ele>
        <time>2020-03-01T13:21:06Z</time>
      </trkpt>
      <trkpt lat="48.00184" lon="6.90541">
        <ele>741</ele>
        <time>2020-03-01T13:21:08Z</time>
      </trkpt>
      <trkpt lat="48.00184" lon="6.90538">
        <ele>740</ele>
        <time>2020-03-01T13:21:10Z</time>
      </trkpt>
      <trkpt lat="48.00183" lon="6.90535">
        <ele>740</ele>
        <time>2020-03-01T13:21:12Z</time>
      </trkpt>
      <trkpt lat="48.00182" lon="6.90532">
        <ele>740</ele>
        <time>2020-03-01T13:21:14Z</time>
      </trkpt>
      <trkpt lat="48.00182" lon="6.90529">
        <ele>740</ele>
        <time>2020-03-01T13:21:17Z</time>
      </trkpt>
      <trkpt lat="48.00182" lon="6.90525">
        <ele>740</ele>
        <time>2020-03-01T13:21:19Z</time>
      </trkpt>
      <trkpt lat="48.00182" lon="6.90522">
        <ele>739</ele>
        <time>2020-03-01T13:21:21Z</time>
      </trkpt>
      <trkpt lat="48.00182" lon="6.90518">
        <ele>739</ele>
        <time>2020-03-01T13:21:23Z</time>
      </trkpt>
      <trkpt lat="48.00182" lon="6.90515">
        <ele>738</ele>
        <time>2020-03-01T13:21:25Z</time>
      </trkpt>
      <trkpt lat="48.00182" lon="6.90511">
        <ele>737</ele>
        <time>2020-03-01T13:21:27Z</time>
      </trkpt>
      <trkpt lat="48.00183" lon="6.90508">
        <ele>737</ele>
        <time>2020-03-01T13:21:29Z</time>
      </trkpt>
      <trkpt lat="48.00184" lon="6.90505">
        <ele>737</ele>
        <time>2020-03-01T13:21:31Z</time>
      </trkpt>
      <trkpt lat="48.00184" lon="6.90501">
        <ele>736</ele>
        <time>2020-03-01T13:21:34Z</time>
      </trkpt>
      <trkpt lat="48.00184" lon="6.90498">
        <ele>737</ele>
        <time>2020-03-01T13:21:36Z</time>
      </trkpt>
      <trkpt lat="48.00185" lon="6.90495">
        <ele>736</ele>
        <time>2020-03-01T13:21:38Z</time>
      </trkpt>
      <trkpt lat="48.00186" lon="6.90493">
        <ele>736</ele>
        <time>2020-03-01T13:21:40Z</time>
      </trkpt>
      <trkpt lat="48.00185" lon="6.90488">
        <ele>737</ele>
        <time>2020-03-01T13:21:42Z</time>
      </trkpt>
      <trkpt lat="48.00186" lon="6.90485">
        <ele>737</ele>
        <time>2020-03-01T13:21:44Z</time>
      </trkpt>
      <trkpt lat="48.00187" lon="6.90482">
        <ele>737</ele>
        <time>2020-03-01T13:21:46Z</time>
      </trkpt>
      <trkpt lat="48.00188" lon="6.90479">
        <ele>736</ele>
        <time>2020-03-01T13:21:48Z</time>
      </trkpt>
      <trkpt lat="48.00188" lon="6.90477">
        <ele>736</ele>
        <time>2020-03-01T13:21:50Z</time>
      </trkpt>
      <trkpt lat="48.00188" lon="6.90473">
        <ele>737</ele>
        <time>2020-03-01T13:21:53Z</time>
      </trkpt>
      <trkpt lat="48.00189" lon="6.9047">
        <ele>738</ele>
        <time>2020-03-01T13:21:55Z</time>
      </trkpt>
      <trkpt lat="48.00189" lon="6.90466">
        <ele>737</ele>
        <time>2020-03-01T13:21:57Z</time>
      </trkpt>
      <trkpt lat="48.00189" lon="6.90462">
        <ele>737</ele>
        <time>2020-03-01T13:21:59Z</time>
      </trkpt>
      <trkpt lat="48.00189" lon="6.90459">
        <ele>736</ele>
        <time>2020-03-01T13:22:01Z</time>
      </trkpt>
      <trkpt lat="48.00189" lon="6.90455">
        <ele>736</ele>
        <time>2020-03-01T13:22:03Z</time>
      </trkpt>
      <trkpt lat="48.0019" lon="6.90452">
        <ele>736</ele>
        <time>2020-03-01T13:22:05Z</time>
      </trkpt>
      <trkpt lat="48.0019" lon="6.90449">
        <ele>737</ele>
        <time>2020-03-01T13:22:07Z</time>
      </trkpt>
      <trkpt lat="48.0019" lon="6.90446">
        <ele>738</ele>
        <time>2020-03-01T13:22:09Z</time>
      </trkpt>
      <trkpt lat="48.00191" lon="6.90443">
        <ele>738</ele>
        <time>2020-03-01T13:22:11Z</time>
      </trkpt>
      <trkpt lat="48.00191" lon="6.9044">
        <ele>738</ele>
        <time>2020-03-01T13:22:13Z</time>
      </trkpt>
      <trkpt lat="48.00193" lon="6.90436">
        <ele>737</ele>
        <time>2020-03-01T13:22:15Z</time>
      </trkpt>
      <trkpt lat="48.00195" lon="6.90433">
        <ele>738</ele>
        <time>2020-03-01T13:22:17Z</time>
      </trkpt>
      <trkpt lat="48.00195" lon="6.90429">
        <ele>737</ele>
        <time>2020-03-01T13:22:19Z</time>
      </trkpt>
      <trkpt lat="48.00196" lon="6.90426">
        <ele>736</ele>
        <time>2020-03-01T13:22:21Z</time>
      </trkpt>
      <trkpt lat="48.00196" lon="6.90422">
        <ele>736</ele>
        <time>2020-03-01T13:22:23Z</time>
      </trkpt>
      <trkpt lat="48.00197" lon="6.90418">
        <ele>736</ele>
        <time>2020-03-01T13:22:26Z</time>
      </trkpt>
      <trkpt lat="48.00197" lon="6.90415">
        <ele>736</ele>
        <time>2020-03-01T13:22:29Z</time>
      </trkpt>
      <trkpt lat="48.00198" lon="6.90412">
        <ele>737</ele>
        <time>2020-03-01T13:22:31Z</time>
      </trkpt>
      <trkpt lat="48.00198" lon="6.90408">
        <ele>736</ele>
        <time>2020-03-01T13:22:33Z</time>
      </trkpt>
      <trkpt lat="48.00198" lon="6.90405">
        <ele>737</ele>
        <time>2020-03-01T13:22:35Z</time>
      </trkpt>
      <trkpt lat="48.00198" lon="6.90402">
        <ele>737</ele>
        <time>2020-03-01T13:22:37Z</time>
      </trkpt>
      <trkpt lat="48.00198" lon="6.90399">
        <ele>736</ele>
        <time>2020-03-01T13:22:39Z</time>
      </trkpt>
      <trkpt lat="48.002" lon="6.90395">
        <ele>735</ele>
        <time>2020-03-01T13:22:41Z</time>
      </trkpt>
      <trkpt lat="48.002" lon="6.90391">
        <ele>734</ele>
        <time>2020-03-01T13:22:43Z</time>
      </trkpt>
      <trkpt lat="48.002" lon="6.90387">
        <ele>733</ele>
        <time>2020-03-01T13:22:45Z</time>
      </trkpt>
      <trkpt lat="48.00201" lon="6.90384">
        <ele>734</ele>
        <time>2020-03-01T13:22:47Z</time>
      </trkpt>
      <trkpt lat="48.00202" lon="6.9038">
        <ele>732</ele>
        <time>2020-03-01T13:22:49Z</time>
      </trkpt>
      <trkpt lat="48.00203" lon="6.90377">
        <ele>732</ele>
        <time>2020-03-01T13:22:51Z</time>
      </trkpt>
      <trkpt lat="48.00204" lon="6.90375">
        <ele>731</ele>
        <time>2020-03-01T13:22:53Z</time>
      </trkpt>
      <trkpt lat="48.00203" lon="6.90371">
        <ele>732</ele>
        <time>2020-03-01T13:23:46Z</time>
      </trkpt>
      <trkpt lat="48.00201" lon="6.90367">
        <ele>732</ele>
        <time>2020-03-01T13:23:48Z</time>
      </trkpt>
      <trkpt lat="48.00199" lon="6.90365">
        <ele>732</ele>
        <time>2020-03-01T13:23:50Z</time>
      </trkpt>
      <trkpt lat="48.00197" lon="6.90362">
        <ele>731</ele>
        <time>2020-03-01T13:23:52Z</time>
      </trkpt>
      <trkpt lat="48.00195" lon="6.9036">
        <ele>731</ele>
        <time>2020-03-01T13:23:53Z</time>
      </trkpt>
      <trkpt lat="48.00192" lon="6.90357">
        <ele>732</ele>
        <time>2020-03-01T13:23:55Z</time>
      </trkpt>
      <trkpt lat="48.0019" lon="6.90354">
        <ele>731</ele>
        <time>2020-03-01T13:23:57Z</time>
      </trkpt>
      <trkpt lat="48.00189" lon="6.90353">
        <ele>731</ele>
        <time>2020-03-01T13:23:59Z</time>
      </trkpt>
      <trkpt lat="48.00186" lon="6.9035">
        <ele>731</ele>
        <time>2020-03-01T13:24:02Z</time>
      </trkpt>
      <trkpt lat="48.00184" lon="6.90347">
        <ele>731</ele>
        <time>2020-03-01T13:24:04Z</time>
      </trkpt>
      <trkpt lat="48.00183" lon="6.90345">
        <ele>731</ele>
        <time>2020-03-01T13:24:06Z</time>
      </trkpt>
      <trkpt lat="48.00181" lon="6.90343">
        <ele>731</ele>
        <time>2020-03-01T13:24:08Z</time>
      </trkpt>
      <trkpt lat="48.0018" lon="6.90341">
        <ele>732</ele>
        <time>2020-03-01T13:24:10Z</time>
      </trkpt>
      <trkpt lat="48.00178" lon="6.90337">
        <ele>732</ele>
        <time>2020-03-01T13:24:13Z</time>
      </trkpt>
      <trkpt lat="48.00176" lon="6.90334">
        <ele>733</ele>
        <time>2020-03-01T13:24:16Z</time>
      </trkpt>
      <trkpt lat="48.00176" lon="6.90331">
        <ele>733</ele>
        <time>2020-03-01T13:24:18Z</time>
      </trkpt>
      <trkpt lat="48.00176" lon="6.90327">
        <ele>733</ele>
        <time>2020-03-01T13:24:21Z</time>
      </trkpt>
      <trkpt lat="48.00176" lon="6.90322">
        <ele>733</ele>
        <time>2020-03-01T13:24:23Z</time>
      </trkpt>
      <trkpt lat="48.00175" lon="6.9032">
        <ele>733</ele>
        <time>2020-03-01T13:24:25Z</time>
      </trkpt>
      <trkpt lat="48.00175" lon="6.90316">
        <ele>733</ele>
        <time>2020-03-01T13:24:27Z</time>
      </trkpt>
      <trkpt lat="48.00174" lon="6.90313">
        <ele>733</ele>
        <time>2020-03-01T13:24:29Z</time>
      </trkpt>
      <trkpt lat="48.00173" lon="6.90309">
        <ele>733</ele>
        <time>2020-03-01T13:24:31Z</time>
      </trkpt>
      <trkpt lat="48.00173" lon="6.90306">
        <ele>733</ele>
        <time>2020-03-01T13:24:33Z</time>
      </trkpt>
      <trkpt lat="48.00172" lon="6.90303">
        <ele>733</ele>
        <time>2020-03-01T13:24:35Z</time>
      </trkpt>
      <trkpt lat="48.00171" lon="6.903">
        <ele>733</ele>
        <time>2020-03-01T13:24:37Z</time>
      </trkpt>
      <trkpt lat="48.00171" lon="6.90297">
        <ele>733</ele>
        <time>2020-03-01T13:24:39Z</time>
      </trkpt>
      <trkpt lat="48.0017" lon="6.90294">
        <ele>733</ele>
        <time>2020-03-01T13:24:41Z</time>
      </trkpt>
      <trkpt lat="48.00169" lon="6.90292">
        <ele>733</ele>
        <time>2020-03-01T13:24:43Z</time>
      </trkpt>
      <trkpt lat="48.00167" lon="6.9029">
        <ele>734</ele>
        <time>2020-03-01T13:24:45Z</time>
      </trkpt>
      <trkpt lat="48.00163" lon="6.90289">
        <ele>733</ele>
        <time>2020-03-01T13:24:50Z</time>
      </trkpt>
      <trkpt lat="48.00162" lon="6.90287">
        <ele>733</ele>
        <time>2020-03-01T13:24:51Z</time>
      </trkpt>
      <trkpt lat="48.00159" lon="6.90285">
        <ele>734</ele>
        <time>2020-03-01T13:24:53Z</time>
      </trkpt>
      <trkpt lat="48.00157" lon="6.90284">
        <ele>735</ele>
        <time>2020-03-01T13:24:55Z</time>
      </trkpt>
      <trkpt lat="48.00156" lon="6.90282">
        <ele>735</ele>
        <time>2020-03-01T13:24:57Z</time>
      </trkpt>
      <trkpt lat="48.00153" lon="6.90283">
        <ele>735</ele>
        <time>2020-03-01T13:25:01Z</time>
      </trkpt>
      <trkpt lat="48.00151" lon="6.90286">
        <ele>735</ele>
        <time>2020-03-01T13:25:04Z</time>
      </trkpt>
      <trkpt lat="48.00149" lon="6.90288">
        <ele>735</ele>
        <time>2020-03-01T13:25:06Z</time>
      </trkpt>
      <trkpt lat="48.00146" lon="6.90291">
        <ele>735</ele>
        <time>2020-03-01T13:25:08Z</time>
      </trkpt>
      <trkpt lat="48.00145" lon="6.90294">
        <ele>735</ele>
        <time>2020-03-01T13:25:10Z</time>
      </trkpt>
      <trkpt lat="48.00144" lon="6.90296">
        <ele>734</ele>
        <time>2020-03-01T13:25:12Z</time>
      </trkpt>
      <trkpt lat="48.00142" lon="6.90298">
        <ele>735</ele>
        <time>2020-03-01T13:25:14Z</time>
      </trkpt>
      <trkpt lat="48.00141" lon="6.903">
        <ele>734</ele>
        <time>2020-03-01T13:25:16Z</time>
      </trkpt>
      <trkpt lat="48.00139" lon="6.90304">
        <ele>734</ele>
        <time>2020-03-01T13:25:18Z</time>
      </trkpt>
      <trkpt lat="48.00138" lon="6.90307">
        <ele>734</ele>
        <time>2020-03-01T13:25:20Z</time>
      </trkpt>
      <trkpt lat="48.00136" lon="6.9031">
        <ele>734</ele>
        <time>2020-03-01T13:25:22Z</time>
      </trkpt>
      <trkpt lat="48.00135" lon="6.90313">
        <ele>734</ele>
        <time>2020-03-01T13:25:24Z</time>
      </trkpt>
      <trkpt lat="48.00134" lon="6.90316">
        <ele>734</ele>
        <time>2020-03-01T13:25:26Z</time>
      </trkpt>
      <trkpt lat="48.00132" lon="6.9032">
        <ele>735</ele>
        <time>2020-03-01T13:25:29Z</time>
      </trkpt>
      <trkpt lat="48.00131" lon="6.90323">
        <ele>736</ele>
        <time>2020-03-01T13:25:31Z</time>
      </trkpt>
      <trkpt lat="48.00129" lon="6.90327">
        <ele>737</ele>
        <time>2020-03-01T13:25:33Z</time>
      </trkpt>
      <trkpt lat="48.00129" lon="6.9033">
        <ele>737</ele>
        <time>2020-03-01T13:25:35Z</time>
      </trkpt>
      <trkpt lat="48.00128" lon="6.90333">
        <ele>738</ele>
        <time>2020-03-01T13:25:37Z</time>
      </trkpt>
      <trkpt lat="48.00127" lon="6.90336">
        <ele>739</ele>
        <time>2020-03-01T13:25:39Z</time>
      </trkpt>
      <trkpt lat="48.00126" lon="6.90339">
        <ele>739</ele>
        <time>2020-03-01T13:25:42Z</time>
      </trkpt>
      <trkpt lat="48.00125" lon="6.90342">
        <ele>740</ele>
        <time>2020-03-01T13:25:44Z</time>
      </trkpt>
      <trkpt lat="48.00124" lon="6.90345">
        <ele>740</ele>
        <time>2020-03-01T13:25:46Z</time>
      </trkpt>
      <trkpt lat="48.00123" lon="6.90348">
        <ele>740</ele>
        <time>2020-03-01T13:25:48Z</time>
      </trkpt>
      <trkpt lat="48.00122" lon="6.90351">
        <ele>739</ele>
        <time>2020-03-01T13:25:50Z</time>
      </trkpt>
      <trkpt lat="48.00121" lon="6.90354">
        <ele>741</ele>
        <time>2020-03-01T13:25:52Z</time>
      </trkpt>
      <trkpt lat="48.0012" lon="6.90357">
        <ele>740</ele>
        <time>2020-03-01T13:25:54Z</time>
      </trkpt>
      <trkpt lat="48.00119" lon="6.9036">
        <ele>741</ele>
        <time>2020-03-01T13:25:56Z</time>
      </trkpt>
      <trkpt lat="48.00117" lon="6.90363">
        <ele>740</ele>
        <time>2020-03-01T13:25:59Z</time>
      </trkpt>
      <trkpt lat="48.00116" lon="6.90366">
        <ele>741</ele>
        <time>2020-03-01T13:26:01Z</time>
      </trkpt>
      <trkpt lat="48.00114" lon="6.90369">
        <ele>741</ele>
        <time>2020-03-01T13:26:03Z</time>
      </trkpt>
      <trkpt lat="48.00112" lon="6.90372">
        <ele>741</ele>
        <time>2020-03-01T13:26:05Z</time>
      </trkpt>
      <trkpt lat="48.00112" lon="6.90375">
        <ele>742</ele>
        <time>2020-03-01T13:26:07Z</time>
      </trkpt>
      <trkpt lat="48.00111" lon="6.90378">
        <ele>742</ele>
        <time>2020-03-01T13:26:09Z</time>
      </trkpt>
      <trkpt lat="48.00111" lon="6.90381">
        <ele>743</ele>
        <time>2020-03-01T13:26:11Z</time>
      </trkpt>
      <trkpt lat="48.0011" lon="6.90384">
        <ele>742</ele>
        <time>2020-03-01T13:26:13Z</time>
      </trkpt>
      <trkpt lat="48.0011" lon="6.90387">
        <ele>742</ele>
        <time>2020-03-01T13:26:15Z</time>
      </trkpt>
      <trkpt lat="48.00111" lon="6.9039">
        <ele>743</ele>
        <time>2020-03-01T13:26:18Z</time>
      </trkpt>
      <trkpt lat="48.00112" lon="6.90392">
        <ele>743</ele>
        <time>2020-03-01T13:26:30Z</time>
      </trkpt>
      <trkpt lat="48.00111" lon="6.90395">
        <ele>743</ele>
        <time>2020-03-01T13:27:13Z</time>
      </trkpt>
      <trkpt lat="48.00113" lon="6.90393">
        <ele>740</ele>
        <time>2020-03-01T13:29:32Z</time>
      </trkpt>
      <trkpt lat="48.00114" lon="6.90395">
        <ele>744</ele>
        <time>2020-03-01T13:29:59Z</time>
      </trkpt>
      <trkpt lat="48.00114" lon="6.90391">
        <ele>745</ele>
        <time>2020-03-01T13:31:00Z</time>
      </trkpt>
      <trkpt lat="48.00115" lon="6.90394">
        <ele>747</ele>
        <time>2020-03-01T13:31:12Z</time>
      </trkpt>
      <trkpt lat="48.00116" lon="6.90394">
        <ele>747</ele>
        <time>2020-03-01T13:31:19Z</time>
      </trkpt>
      <trkpt lat="48.00117" lon="6.90397">
        <ele>745</ele>
        <time>2020-03-01T13:31:23Z</time>
      </trkpt>
      <trkpt lat="48.00116" lon="6.90395">
        <ele>743</ele>
        <time>2020-03-01T13:31:42Z</time>
      </trkpt>
      <trkpt lat="48.00114" lon="6.90395">
        <ele>742</ele>
        <time>2020-03-01T13:31:51Z</time>
      </trkpt>
      <trkpt lat="48.00112" lon="6.90393">
        <ele>742</ele>
        <time>2020-03-01T13:32:05Z</time>
      </trkpt>
      <trkpt lat="48.00114" lon="6.90396">
        <ele>744</ele>
        <time>2020-03-01T13:32:40Z</time>
      </trkpt>
      <trkpt lat="48.00113" lon="6.90393">
        <ele>740</ele>
        <time>2020-03-01T13:33:03Z</time>
      </trkpt>
      <trkpt lat="48.00111" lon="6.90393">
        <ele>738</ele>
        <time>2020-03-01T13:34:12Z</time>
      </trkpt>
      <trkpt lat="48.00113" lon="6.90393">
        <ele>739</ele>
        <time>2020-03-01T13:34:38Z</time>
      </trkpt>
    </trkseg>
  </trk>
</gpx>